<?xml version='1.0' encoding='UTF-8'?><gpx version="1.1" creator="JPX - https://github.com/jenetics/jpx" xmlns="http://www.topografix.com/GPX/1/1"><trk><trkseg><trkpt lat="44.1507639" lon="10.4124444"><ele>546.0</ele><time>2026-04-03T09:51:45.302Z</time></trkpt><trkpt lat="44.1507757" lon="10.4123075"><ele>546.0</ele><time>2026-04-03T09:51:47.299Z</time></trkpt><trkpt lat="44.1507987" lon="10.412205"><ele>546.0</ele><time>2026-04-03T09:51:49.295Z</time></trkpt><trkpt lat="44.1508732" lon="10.4121552"><ele>546.0</ele><time>2026-04-03T09:51:52.29Z</time></trkpt><trkpt lat="44.1509649" lon="10.4121607"><ele>546.0</ele><time>2026-04-03T09:51:55.294Z</time></trkpt><trkpt lat="44.1510489" lon="10.4121295"><ele>546.0</ele><time>2026-04-03T09:51:58.29Z</time></trkpt><trkpt lat="44.1510634" lon="10.4120322"><ele>543.8571428571429</ele><time>2026-04-03T09:52:01.301Z</time></trkpt><trkpt lat="44.1510048" lon="10.4119492"><ele>541.7142857142858</ele><time>2026-04-03T09:52:04.296Z</time></trkpt><trkpt lat="44.1509419" lon="10.4118819"><ele>539.5714285714286</ele><time>2026-04-03T09:52:07.294Z</time></trkpt><trkpt lat="44.1509558" lon="10.4117874"><ele>537.4285714285714</ele><time>2026-04-03T09:52:11.293Z</time></trkpt><trkpt lat="44.1510224" lon="10.4117856"><ele>535.2857142857143</ele><time>2026-04-03T09:52:14.299Z</time></trkpt><trkpt lat="44.1510912" lon="10.4117794"><ele>533.1428571428571</ele><time>2026-04-03T09:52:17.294Z</time></trkpt><trkpt lat="44.1511592" lon="10.4117718"><ele>531.0</ele><time>2026-04-03T09:52:20.295Z</time></trkpt><trkpt lat="44.1512246" lon="10.4117678"><ele>531.0</ele><time>2026-04-03T09:52:23.302Z</time></trkpt><trkpt lat="44.1513038" lon="10.4117548"><ele>531.0</ele><time>2026-04-03T09:52:27.292Z</time></trkpt><trkpt lat="44.1513843" lon="10.4117328"><ele>531.0</ele><time>2026-04-03T09:52:31.308Z</time></trkpt><trkpt lat="44.1514668" lon="10.4117212"><ele>531.0</ele><time>2026-04-03T09:52:35.291Z</time></trkpt><trkpt lat="44.1515444" lon="10.4117118"><ele>531.0</ele><time>2026-04-03T09:52:39.294Z</time></trkpt><trkpt lat="44.1516269" lon="10.4116961"><ele>531.0</ele><time>2026-04-03T09:52:43.291Z</time></trkpt><trkpt lat="44.1517071" lon="10.4116844"><ele>532.5</ele><time>2026-04-03T09:52:47.308Z</time></trkpt><trkpt lat="44.1517877" lon="10.4116587"><ele>534.0</ele><time>2026-04-03T09:52:51.296Z</time></trkpt><trkpt lat="44.1518639" lon="10.4116156"><ele>535.5</ele><time>2026-04-03T09:52:55.315Z</time></trkpt><trkpt lat="44.1519208" lon="10.4115777"><ele>537.0</ele><time>2026-04-03T09:52:58.3Z</time></trkpt><trkpt lat="44.1519958" lon="10.4115316"><ele>538.5</ele><time>2026-04-03T09:53:02.304Z</time></trkpt><trkpt lat="44.1520667" lon="10.4114712"><ele>540.0</ele><time>2026-04-03T09:53:06.302Z</time></trkpt><trkpt lat="44.1521352" lon="10.4114153"><ele>540.0</ele><time>2026-04-03T09:53:10.31Z</time></trkpt><trkpt lat="44.1521891" lon="10.4113698"><ele>540.0</ele><time>2026-04-03T09:53:13.297Z</time></trkpt><trkpt lat="44.1522623" lon="10.4113296"><ele>540.0</ele><time>2026-04-03T09:53:17.306Z</time></trkpt><trkpt lat="44.1523349" lon="10.4112791"><ele>540.0</ele><time>2026-04-03T09:53:21.301Z</time></trkpt><trkpt lat="44.1523912" lon="10.4112387"><ele>540.0</ele><time>2026-04-03T09:53:24.298Z</time></trkpt><trkpt lat="44.1524676" lon="10.4111963"><ele>540.0</ele><time>2026-04-03T09:53:28.299Z</time></trkpt><trkpt lat="44.1525413" lon="10.4111561"><ele>540.0</ele><time>2026-04-03T09:53:32.299Z</time></trkpt><trkpt lat="44.1526179" lon="10.4111176"><ele>540.1666666666666</ele><time>2026-04-03T09:53:36.304Z</time></trkpt><trkpt lat="44.152679" lon="10.4110915"><ele>540.3333333333334</ele><time>2026-04-03T09:53:39.307Z</time></trkpt><trkpt lat="44.1527599" lon="10.4110737"><ele>540.5</ele><time>2026-04-03T09:53:43.29Z</time></trkpt><trkpt lat="44.1528381" lon="10.4110797"><ele>540.6666666666667</ele><time>2026-04-03T09:53:47.306Z</time></trkpt><trkpt lat="44.1529111" lon="10.41111"><ele>540.8333333333334</ele><time>2026-04-03T09:53:51.302Z</time></trkpt><trkpt lat="44.1529814" lon="10.4111488"><ele>541.0</ele><time>2026-04-03T09:53:55.289Z</time></trkpt><trkpt lat="44.1530595" lon="10.4111888"><ele>541.0000000000001</ele><time>2026-04-03T09:53:59.307Z</time></trkpt><trkpt lat="44.1531192" lon="10.4112179"><ele>541.0</ele><time>2026-04-03T09:54:02.293Z</time></trkpt><trkpt lat="44.1531809" lon="10.411239"><ele>541.0</ele><time>2026-04-03T09:54:05.299Z</time></trkpt><trkpt lat="44.1532564" lon="10.4112718"><ele>541.0</ele><time>2026-04-03T09:54:09.304Z</time></trkpt><trkpt lat="44.1533376" lon="10.4112959"><ele>541.0</ele><time>2026-04-03T09:54:13.303Z</time></trkpt><trkpt lat="44.1534019" lon="10.4113122"><ele>541.0000000000001</ele><time>2026-04-03T09:54:16.301Z</time></trkpt><trkpt lat="44.1534657" lon="10.4113247"><ele>541.0</ele><time>2026-04-03T09:54:19.293Z</time></trkpt><trkpt lat="44.1535276" lon="10.4113443"><ele>542.1428571428572</ele><time>2026-04-03T09:54:22.302Z</time></trkpt><trkpt lat="44.1535913" lon="10.4113495"><ele>543.2857142857143</ele><time>2026-04-03T09:54:25.295Z</time></trkpt><trkpt lat="44.1536561" lon="10.4113468"><ele>544.4285714285714</ele><time>2026-04-03T09:54:28.307Z</time></trkpt><trkpt lat="44.1537232" lon="10.4113393"><ele>545.5714285714287</ele><time>2026-04-03T09:54:31.311Z</time></trkpt><trkpt lat="44.1537908" lon="10.4113295"><ele>546.7142857142858</ele><time>2026-04-03T09:54:34.306Z</time></trkpt><trkpt lat="44.153854" lon="10.4113131"><ele>547.8571428571429</ele><time>2026-04-03T09:54:37.303Z</time></trkpt><trkpt lat="44.1539182" lon="10.4112995"><ele>549.0</ele><time>2026-04-03T09:54:40.3Z</time></trkpt><trkpt lat="44.1539841" lon="10.4112843"><ele>550.8571428571429</ele><time>2026-04-03T09:54:43.294Z</time></trkpt><trkpt lat="44.1540495" lon="10.4112694"><ele>552.7142857142858</ele><time>2026-04-03T09:54:46.305Z</time></trkpt><trkpt lat="44.1541165" lon="10.4112495"><ele>554.5714285714287</ele><time>2026-04-03T09:54:49.306Z</time></trkpt><trkpt lat="44.154181" lon="10.4112438"><ele>556.4285714285714</ele><time>2026-04-03T09:54:52.296Z</time></trkpt><trkpt lat="44.1542555" lon="10.4112371"><ele>558.2857142857143</ele><time>2026-04-03T09:54:55.305Z</time></trkpt><trkpt lat="44.1543277" lon="10.4112234"><ele>560.1428571428572</ele><time>2026-04-03T09:54:58.301Z</time></trkpt><trkpt lat="44.1544002" lon="10.4111995"><ele>562.0</ele><time>2026-04-03T09:55:01.208Z</time></trkpt><trkpt lat="44.1544717" lon="10.4111917"><ele>562.0</ele><time>2026-04-03T09:55:04.302Z</time></trkpt><trkpt lat="44.154551" lon="10.4111943"><ele>562.0</ele><time>2026-04-03T09:55:07.3Z</time></trkpt><trkpt lat="44.1546278" lon="10.4111983"><ele>562.0</ele><time>2026-04-03T09:55:10.307Z</time></trkpt><trkpt lat="44.1547011" lon="10.4111879"><ele>562.0</ele><time>2026-04-03T09:55:13.302Z</time></trkpt><trkpt lat="44.1547763" lon="10.411181"><ele>562.0</ele><time>2026-04-03T09:55:16.297Z</time></trkpt><trkpt lat="44.1548529" lon="10.4111684"><ele>562.0</ele><time>2026-04-03T09:55:19.3Z</time></trkpt><trkpt lat="44.1549219" lon="10.411166"><ele>562.7142857142858</ele><time>2026-04-03T09:55:22.29Z</time></trkpt><trkpt lat="44.1549885" lon="10.4111531"><ele>563.4285714285714</ele><time>2026-04-03T09:55:25.297Z</time></trkpt><trkpt lat="44.1550633" lon="10.4111517"><ele>564.1428571428571</ele><time>2026-04-03T09:55:28.301Z</time></trkpt><trkpt lat="44.1551378" lon="10.4111584"><ele>564.8571428571429</ele><time>2026-04-03T09:55:31.301Z</time></trkpt><trkpt lat="44.1552136" lon="10.4111507"><ele>565.5714285714286</ele><time>2026-04-03T09:55:34.303Z</time></trkpt><trkpt lat="44.1552914" lon="10.4111412"><ele>566.2857142857143</ele><time>2026-04-03T09:55:37.322Z</time></trkpt><trkpt lat="44.1553634" lon="10.4111253"><ele>567.0</ele><time>2026-04-03T09:55:40.296Z</time></trkpt><trkpt lat="44.1554456" lon="10.4111023"><ele>567.0</ele><time>2026-04-03T09:55:43.301Z</time></trkpt><trkpt lat="44.1555257" lon="10.4110822"><ele>567.0</ele><time>2026-04-03T09:55:46.294Z</time></trkpt><trkpt lat="44.155606" lon="10.4110571"><ele>567.0</ele><time>2026-04-03T09:55:49.307Z</time></trkpt><trkpt lat="44.155685" lon="10.4110381"><ele>567.0</ele><time>2026-04-03T09:55:52.3Z</time></trkpt><trkpt lat="44.1557608" lon="10.411011"><ele>567.0</ele><time>2026-04-03T09:55:55.287Z</time></trkpt><trkpt lat="44.1558397" lon="10.4109867"><ele>567.0</ele><time>2026-04-03T09:55:58.304Z</time></trkpt><trkpt lat="44.1559191" lon="10.4109638"><ele>568.1666666666666</ele><time>2026-04-03T09:56:01.309Z</time></trkpt><trkpt lat="44.156" lon="10.4109459"><ele>569.3333333333334</ele><time>2026-04-03T09:56:04.307Z</time></trkpt><trkpt lat="44.1560789" lon="10.4109261"><ele>570.5</ele><time>2026-04-03T09:56:07.292Z</time></trkpt><trkpt lat="44.1561588" lon="10.4109022"><ele>571.6666666666667</ele><time>2026-04-03T09:56:10.308Z</time></trkpt><trkpt lat="44.1562319" lon="10.4108754"><ele>572.8333333333334</ele><time>2026-04-03T09:56:13.311Z</time></trkpt><trkpt lat="44.1563125" lon="10.4108478"><ele>574.0</ele><time>2026-04-03T09:56:16.291Z</time></trkpt><trkpt lat="44.1563873" lon="10.4108131"><ele>574.0</ele><time>2026-04-03T09:56:19.301Z</time></trkpt><trkpt lat="44.1564559" lon="10.410781"><ele>574.0</ele><time>2026-04-03T09:56:22.301Z</time></trkpt><trkpt lat="44.156532" lon="10.4107501"><ele>574.0</ele><time>2026-04-03T09:56:25.288Z</time></trkpt><trkpt lat="44.1566089" lon="10.4107131"><ele>574.0</ele><time>2026-04-03T09:56:28.296Z</time></trkpt><trkpt lat="44.1566904" lon="10.4106855"><ele>574.0</ele><time>2026-04-03T09:56:31.303Z</time></trkpt><trkpt lat="44.1567714" lon="10.4106705"><ele>574.0</ele><time>2026-04-03T09:56:34.308Z</time></trkpt><trkpt lat="44.1568425" lon="10.4106713"><ele>573.6666666666667</ele><time>2026-04-03T09:56:37.292Z</time></trkpt><trkpt lat="44.1569162" lon="10.4106325"><ele>573.3333333333334</ele><time>2026-04-03T09:56:41.293Z</time></trkpt><trkpt lat="44.1569847" lon="10.4105711"><ele>573.0</ele><time>2026-04-03T09:56:44.293Z</time></trkpt><trkpt lat="44.1570363" lon="10.4105111"><ele>572.6666666666666</ele><time>2026-04-03T09:56:46.306Z</time></trkpt><trkpt lat="44.1570947" lon="10.4104354"><ele>572.3333333333333</ele><time>2026-04-03T09:56:48.297Z</time></trkpt><trkpt lat="44.1571434" lon="10.4103367"><ele>572.0</ele><time>2026-04-03T09:56:50.304Z</time></trkpt><trkpt lat="44.1571761" lon="10.4102115"><ele>572.0</ele><time>2026-04-03T09:56:52.289Z</time></trkpt><trkpt lat="44.15721" lon="10.4100667"><ele>572.0</ele><time>2026-04-03T09:56:54.3Z</time></trkpt><trkpt lat="44.157246" lon="10.4098991"><ele>572.0</ele><time>2026-04-03T09:56:56.302Z</time></trkpt><trkpt lat="44.1572638" lon="10.4098114"><ele>572.0</ele><time>2026-04-03T09:56:57.299Z</time></trkpt><trkpt lat="44.1572838" lon="10.4097186"><ele>572.0</ele><time>2026-04-03T09:56:58.302Z</time></trkpt><trkpt lat="44.1573035" lon="10.4096219"><ele>572.0</ele><time>2026-04-03T09:56:59.31Z</time></trkpt><trkpt lat="44.1573277" lon="10.4095246"><ele>572.8333333333333</ele><time>2026-04-03T09:57:00.305Z</time></trkpt><trkpt lat="44.1573521" lon="10.4094237"><ele>573.6666666666666</ele><time>2026-04-03T09:57:01.313Z</time></trkpt><trkpt lat="44.1573774" lon="10.4093235"><ele>574.5</ele><time>2026-04-03T09:57:02.299Z</time></trkpt><trkpt lat="44.1574002" lon="10.4092217"><ele>575.3333333333334</ele><time>2026-04-03T09:57:03.295Z</time></trkpt><trkpt lat="44.1574239" lon="10.4091143"><ele>576.1666666666667</ele><time>2026-04-03T09:57:04.3Z</time></trkpt><trkpt lat="44.1574491" lon="10.4090036"><ele>577.0</ele><time>2026-04-03T09:57:05.299Z</time></trkpt><trkpt lat="44.1574808" lon="10.4089"><ele>573.4</ele><time>2026-04-03T09:57:06.303Z</time></trkpt><trkpt lat="44.1575202" lon="10.408796"><ele>569.8000000000001</ele><time>2026-04-03T09:57:07.303Z</time></trkpt><trkpt lat="44.1575718" lon="10.4086995"><ele>566.2</ele><time>2026-04-03T09:57:08.294Z</time></trkpt><trkpt lat="44.1576403" lon="10.4086168"><ele>562.6</ele><time>2026-04-03T09:57:09.302Z</time></trkpt><trkpt lat="44.1577202" lon="10.4085453"><ele>559.0</ele><time>2026-04-03T09:57:10.305Z</time></trkpt><trkpt lat="44.1578086" lon="10.4084896"><ele>559.0</ele><time>2026-04-03T09:57:11.298Z</time></trkpt><trkpt lat="44.1579048" lon="10.4084543"><ele>559.0</ele><time>2026-04-03T09:57:12.299Z</time></trkpt><trkpt lat="44.1580076" lon="10.4084472"><ele>559.0</ele><time>2026-04-03T09:57:13.305Z</time></trkpt><trkpt lat="44.1581121" lon="10.4084636"><ele>559.0</ele><time>2026-04-03T09:57:14.307Z</time></trkpt><trkpt lat="44.1582157" lon="10.4084995"><ele>559.0</ele><time>2026-04-03T09:57:15.303Z</time></trkpt><trkpt lat="44.158324" lon="10.4085402"><ele>561.25</ele><time>2026-04-03T09:57:16.301Z</time></trkpt><trkpt lat="44.1584266" lon="10.4085966"><ele>563.5</ele><time>2026-04-03T09:57:17.302Z</time></trkpt><trkpt lat="44.158528" lon="10.4086494"><ele>565.75</ele><time>2026-04-03T09:57:18.303Z</time></trkpt><trkpt lat="44.1586395" lon="10.4087003"><ele>568.0</ele><time>2026-04-03T09:57:19.306Z</time></trkpt><trkpt lat="44.1587542" lon="10.408741"><ele>568.0</ele><time>2026-04-03T09:57:20.297Z</time></trkpt><trkpt lat="44.1588735" lon="10.408767"><ele>568.0</ele><time>2026-04-03T09:57:21.295Z</time></trkpt><trkpt lat="44.1589965" lon="10.4087792"><ele>568.0</ele><time>2026-04-03T09:57:22.3Z</time></trkpt><trkpt lat="44.1591115" lon="10.4087858"><ele>568.0</ele><time>2026-04-03T09:57:23.297Z</time></trkpt><trkpt lat="44.1592167" lon="10.4087805"><ele>568.0</ele><time>2026-04-03T09:57:24.297Z</time></trkpt><trkpt lat="44.1593099" lon="10.4087489"><ele>568.0</ele><time>2026-04-03T09:57:25.302Z</time></trkpt><trkpt lat="44.1593827" lon="10.408679"><ele>568.0</ele><time>2026-04-03T09:57:26.288Z</time></trkpt><trkpt lat="44.1594351" lon="10.4085926"><ele>568.0</ele><time>2026-04-03T09:57:27.289Z</time></trkpt><trkpt lat="44.1594746" lon="10.4084964"><ele>568.0</ele><time>2026-04-03T09:57:28.294Z</time></trkpt><trkpt lat="44.1594581" lon="10.4083847"><ele>568.0</ele><time>2026-04-03T09:57:29.296Z</time></trkpt><trkpt lat="44.1594194" lon="10.4082815"><ele>568.0</ele><time>2026-04-03T09:57:30.296Z</time></trkpt><trkpt lat="44.159374" lon="10.4081951"><ele>568.0</ele><time>2026-04-03T09:57:31.293Z</time></trkpt><trkpt lat="44.1593238" lon="10.4081174"><ele>568.0</ele><time>2026-04-03T09:57:32.291Z</time></trkpt><trkpt lat="44.1592707" lon="10.4080482"><ele>568.0</ele><time>2026-04-03T09:57:33.294Z</time></trkpt><trkpt lat="44.1592145" lon="10.4079777"><ele>568.0</ele><time>2026-04-03T09:57:34.29Z</time></trkpt><trkpt lat="44.1591588" lon="10.4079147"><ele>568.0</ele><time>2026-04-03T09:57:35.289Z</time></trkpt><trkpt lat="44.1591048" lon="10.4078435"><ele>568.0</ele><time>2026-04-03T09:57:36.297Z</time></trkpt><trkpt lat="44.1590555" lon="10.407774"><ele>565.1428571428571</ele><time>2026-04-03T09:57:37.29Z</time></trkpt><trkpt lat="44.1590115" lon="10.4076989"><ele>562.2857142857142</ele><time>2026-04-03T09:57:38.306Z</time></trkpt><trkpt lat="44.1589727" lon="10.4076248"><ele>559.4285714285714</ele><time>2026-04-03T09:57:39.292Z</time></trkpt><trkpt lat="44.1589304" lon="10.4075494"><ele>556.5714285714286</ele><time>2026-04-03T09:57:40.295Z</time></trkpt><trkpt lat="44.1588947" lon="10.4074754"><ele>553.7142857142858</ele><time>2026-04-03T09:57:41.294Z</time></trkpt><trkpt lat="44.1588586" lon="10.4073998"><ele>550.8571428571429</ele><time>2026-04-03T09:57:42.293Z</time></trkpt><trkpt lat="44.1588258" lon="10.4073245"><ele>548.0</ele><time>2026-04-03T09:57:43.289Z</time></trkpt><trkpt lat="44.1587658" lon="10.4071825"><ele>549.4</ele><time>2026-04-03T09:57:45.299Z</time></trkpt><trkpt lat="44.1587103" lon="10.4070361"><ele>550.8</ele><time>2026-04-03T09:57:47.29Z</time></trkpt><trkpt lat="44.1586574" lon="10.4068996"><ele>552.2</ele><time>2026-04-03T09:57:49.3Z</time></trkpt><trkpt lat="44.1586026" lon="10.4067615"><ele>553.6</ele><time>2026-04-03T09:57:51.305Z</time></trkpt><trkpt lat="44.1585542" lon="10.4066327"><ele>555.0</ele><time>2026-04-03T09:57:53.294Z</time></trkpt><trkpt lat="44.1585058" lon="10.4065003"><ele>555.0</ele><time>2026-04-03T09:57:55.304Z</time></trkpt><trkpt lat="44.1584457" lon="10.4063789"><ele>555.0</ele><time>2026-04-03T09:57:57.296Z</time></trkpt><trkpt lat="44.1583979" lon="10.4062617"><ele>555.0</ele><time>2026-04-03T09:57:59.314Z</time></trkpt><trkpt lat="44.1583706" lon="10.4061323"><ele>555.0</ele><time>2026-04-03T09:58:01.292Z</time></trkpt><trkpt lat="44.1583531" lon="10.4060004"><ele>555.0</ele><time>2026-04-03T09:58:03.301Z</time></trkpt><trkpt lat="44.1583544" lon="10.4058708"><ele>554.6</ele><time>2026-04-03T09:58:05.304Z</time></trkpt><trkpt lat="44.1583773" lon="10.4057343"><ele>554.2</ele><time>2026-04-03T09:58:07.292Z</time></trkpt><trkpt lat="44.158415" lon="10.405607"><ele>553.8</ele><time>2026-04-03T09:58:09.313Z</time></trkpt><trkpt lat="44.1584553" lon="10.4054805"><ele>553.4</ele><time>2026-04-03T09:58:11.306Z</time></trkpt><trkpt lat="44.1585116" lon="10.4053773"><ele>553.0</ele><time>2026-04-03T09:58:13.299Z</time></trkpt><trkpt lat="44.158565" lon="10.4052711"><ele>553.0</ele><time>2026-04-03T09:58:15.304Z</time></trkpt><trkpt lat="44.1586175" lon="10.4051725"><ele>553.0</ele><time>2026-04-03T09:58:17.307Z</time></trkpt><trkpt lat="44.1586723" lon="10.405074"><ele>553.0</ele><time>2026-04-03T09:58:19.298Z</time></trkpt><trkpt lat="44.1587304" lon="10.4049699"><ele>553.0</ele><time>2026-04-03T09:58:21.293Z</time></trkpt><trkpt lat="44.1587905" lon="10.4048621"><ele>553.0</ele><time>2026-04-03T09:58:23.307Z</time></trkpt><trkpt lat="44.1588435" lon="10.4047532"><ele>552.4</ele><time>2026-04-03T09:58:25.296Z</time></trkpt><trkpt lat="44.1589033" lon="10.4046507"><ele>551.8</ele><time>2026-04-03T09:58:27.299Z</time></trkpt><trkpt lat="44.1589648" lon="10.4045449"><ele>551.2</ele><time>2026-04-03T09:58:29.299Z</time></trkpt><trkpt lat="44.159018" lon="10.404429"><ele>550.6</ele><time>2026-04-03T09:58:31.311Z</time></trkpt><trkpt lat="44.1590717" lon="10.4043255"><ele>550.0</ele><time>2026-04-03T09:58:33.302Z</time></trkpt><trkpt lat="44.1591353" lon="10.4042223"><ele>550.0</ele><time>2026-04-03T09:58:35.303Z</time></trkpt><trkpt lat="44.159191" lon="10.4041188"><ele>550.0</ele><time>2026-04-03T09:58:37.296Z</time></trkpt><trkpt lat="44.1592492" lon="10.4040138"><ele>550.0</ele><time>2026-04-03T09:58:39.314Z</time></trkpt><trkpt lat="44.1593095" lon="10.403913"><ele>550.0</ele><time>2026-04-03T09:58:41.299Z</time></trkpt><trkpt lat="44.1593741" lon="10.4038064"><ele>550.0</ele><time>2026-04-03T09:58:43.299Z</time></trkpt><trkpt lat="44.1594443" lon="10.4037203"><ele>550.0</ele><time>2026-04-03T09:58:45.303Z</time></trkpt><trkpt lat="44.1595194" lon="10.4036521"><ele>550.0</ele><time>2026-04-03T09:58:47.313Z</time></trkpt><trkpt lat="44.159605" lon="10.4036085"><ele>550.0</ele><time>2026-04-03T09:58:49.291Z</time></trkpt><trkpt lat="44.1596926" lon="10.4035821"><ele>550.0</ele><time>2026-04-03T09:58:51.301Z</time></trkpt><trkpt lat="44.159789" lon="10.4035554"><ele>550.0</ele><time>2026-04-03T09:58:53.307Z</time></trkpt><trkpt lat="44.1598917" lon="10.4035369"><ele>553.0</ele><time>2026-04-03T09:58:55.304Z</time></trkpt><trkpt lat="44.1599973" lon="10.4035096"><ele>556.0</ele><time>2026-04-03T09:58:57.292Z</time></trkpt><trkpt lat="44.1600994" lon="10.4034817"><ele>559.0</ele><time>2026-04-03T09:58:59.304Z</time></trkpt><trkpt lat="44.1602038" lon="10.4034478"><ele>562.0</ele><time>2026-04-03T09:59:01.299Z</time></trkpt><trkpt lat="44.1603107" lon="10.4034056"><ele>565.0</ele><time>2026-04-03T09:59:03.304Z</time></trkpt><trkpt lat="44.1604038" lon="10.403324"><ele>565.0</ele><time>2026-04-03T09:59:05.304Z</time></trkpt><trkpt lat="44.1604847" lon="10.4032237"><ele>565.0</ele><time>2026-04-03T09:59:07.303Z</time></trkpt><trkpt lat="44.1605571" lon="10.403106"><ele>565.0</ele><time>2026-04-03T09:59:09.318Z</time></trkpt><trkpt lat="44.1606294" lon="10.4029927"><ele>565.0</ele><time>2026-04-03T09:59:11.303Z</time></trkpt><trkpt lat="44.1607021" lon="10.4028761"><ele>565.0</ele><time>2026-04-03T09:59:13.292Z</time></trkpt><trkpt lat="44.1607875" lon="10.402764"><ele>565.25</ele><time>2026-04-03T09:59:15.309Z</time></trkpt><trkpt lat="44.1608746" lon="10.4026529"><ele>565.5</ele><time>2026-04-03T09:59:17.305Z</time></trkpt><trkpt lat="44.160966" lon="10.4025528"><ele>565.75</ele><time>2026-04-03T09:59:19.299Z</time></trkpt><trkpt lat="44.1610525" lon="10.4024508"><ele>566.0</ele><time>2026-04-03T09:59:21.291Z</time></trkpt><trkpt lat="44.1611376" lon="10.4023454"><ele>566.0</ele><time>2026-04-03T09:59:23.3Z</time></trkpt><trkpt lat="44.1612187" lon="10.4022557"><ele>566.0</ele><time>2026-04-03T09:59:25.296Z</time></trkpt><trkpt lat="44.1613077" lon="10.4021575"><ele>566.0</ele><time>2026-04-03T09:59:27.301Z</time></trkpt><trkpt lat="44.1613943" lon="10.4020501"><ele>566.0</ele><time>2026-04-03T09:59:29.302Z</time></trkpt><trkpt lat="44.161438" lon="10.4019832"><ele>566.0</ele><time>2026-04-03T09:59:30.303Z</time></trkpt><trkpt lat="44.1615035" lon="10.4018296"><ele>566.8333333333333</ele><time>2026-04-03T09:59:32.298Z</time></trkpt><trkpt lat="44.1615649" lon="10.4016732"><ele>567.6666666666666</ele><time>2026-04-03T09:59:34.299Z</time></trkpt><trkpt lat="44.1615949" lon="10.4015885"><ele>568.5</ele><time>2026-04-03T09:59:35.299Z</time></trkpt><trkpt lat="44.1616227" lon="10.401507"><ele>569.3333333333334</ele><time>2026-04-03T09:59:36.302Z</time></trkpt><trkpt lat="44.1616525" lon="10.4014193"><ele>570.1666666666667</ele><time>2026-04-03T09:59:37.305Z</time></trkpt><trkpt lat="44.1616829" lon="10.401337"><ele>571.0</ele><time>2026-04-03T09:59:38.302Z</time></trkpt><trkpt lat="44.1617161" lon="10.401253"><ele>568.7142857142858</ele><time>2026-04-03T09:59:39.307Z</time></trkpt><trkpt lat="44.1617514" lon="10.4011727"><ele>566.4285714285714</ele><time>2026-04-03T09:59:40.324Z</time></trkpt><trkpt lat="44.161804" lon="10.4011016"><ele>564.1428571428571</ele><time>2026-04-03T09:59:41.297Z</time></trkpt><trkpt lat="44.1618582" lon="10.4010397"><ele>561.8571428571429</ele><time>2026-04-03T09:59:42.295Z</time></trkpt><trkpt lat="44.1619204" lon="10.4009878"><ele>559.5714285714286</ele><time>2026-04-03T09:59:43.304Z</time></trkpt><trkpt lat="44.1619866" lon="10.4009515"><ele>557.2857142857143</ele><time>2026-04-03T09:59:44.29Z</time></trkpt><trkpt lat="44.1620524" lon="10.4009243"><ele>555.0</ele><time>2026-04-03T09:59:45.302Z</time></trkpt><trkpt lat="44.1621155" lon="10.4008933"><ele>555.0</ele><time>2026-04-03T09:59:46.295Z</time></trkpt><trkpt lat="44.1621818" lon="10.4008636"><ele>555.0</ele><time>2026-04-03T09:59:47.296Z</time></trkpt><trkpt lat="44.1622456" lon="10.400832"><ele>555.0</ele><time>2026-04-03T09:59:48.301Z</time></trkpt><trkpt lat="44.1623053" lon="10.4007879"><ele>555.0</ele><time>2026-04-03T09:59:49.299Z</time></trkpt><trkpt lat="44.1623567" lon="10.4007325"><ele>555.0</ele><time>2026-04-03T09:59:50.305Z</time></trkpt><trkpt lat="44.1623963" lon="10.4006625"><ele>555.0</ele><time>2026-04-03T09:59:51.291Z</time></trkpt><trkpt lat="44.1624332" lon="10.400494"><ele>554.0</ele><time>2026-04-03T09:59:53.3Z</time></trkpt><trkpt lat="44.1624285" lon="10.4004031"><ele>553.0</ele><time>2026-04-03T09:59:54.304Z</time></trkpt><trkpt lat="44.1623825" lon="10.4002503"><ele>552.0</ele><time>2026-04-03T09:59:56.298Z</time></trkpt><trkpt lat="44.1623048" lon="10.4001161"><ele>551.0</ele><time>2026-04-03T09:59:58.301Z</time></trkpt><trkpt lat="44.1622183" lon="10.3999919"><ele>550.0</ele><time>2026-04-03T10:00:00.32Z</time></trkpt><trkpt lat="44.1621361" lon="10.3998727"><ele>550.0</ele><time>2026-04-03T10:00:02.301Z</time></trkpt><trkpt lat="44.162052" lon="10.3997453"><ele>550.0</ele><time>2026-04-03T10:00:04.298Z</time></trkpt><trkpt lat="44.1620071" lon="10.3996829"><ele>550.0</ele><time>2026-04-03T10:00:05.308Z</time></trkpt><trkpt lat="44.1619121" lon="10.3995776"><ele>550.0</ele><time>2026-04-03T10:00:07.302Z</time></trkpt><trkpt lat="44.1618541" lon="10.3995369"><ele>550.0</ele><time>2026-04-03T10:00:08.295Z</time></trkpt><trkpt lat="44.1617906" lon="10.3995116"><ele>550.0</ele><time>2026-04-03T10:00:09.295Z</time></trkpt><trkpt lat="44.1617218" lon="10.3994977"><ele>551.3333333333334</ele><time>2026-04-03T10:00:10.304Z</time></trkpt><trkpt lat="44.1616551" lon="10.3995017"><ele>552.6666666666667</ele><time>2026-04-03T10:00:11.309Z</time></trkpt><trkpt lat="44.1615898" lon="10.3995114"><ele>554.0</ele><time>2026-04-03T10:00:12.298Z</time></trkpt><trkpt lat="44.1615254" lon="10.3995208"><ele>555.3333333333334</ele><time>2026-04-03T10:00:13.302Z</time></trkpt><trkpt lat="44.1614617" lon="10.3995333"><ele>556.6666666666666</ele><time>2026-04-03T10:00:14.293Z</time></trkpt><trkpt lat="44.1613381" lon="10.399568"><ele>558.0</ele><time>2026-04-03T10:00:16.302Z</time></trkpt><trkpt lat="44.1612195" lon="10.3996026"><ele>558.0</ele><time>2026-04-03T10:00:18.292Z</time></trkpt><trkpt lat="44.1611006" lon="10.3996428"><ele>558.0</ele><time>2026-04-03T10:00:20.299Z</time></trkpt><trkpt lat="44.1610375" lon="10.3996621"><ele>558.0</ele><time>2026-04-03T10:00:21.293Z</time></trkpt><trkpt lat="44.1609739" lon="10.3996748"><ele>558.0</ele><time>2026-04-03T10:00:22.302Z</time></trkpt><trkpt lat="44.1609098" lon="10.3996871"><ele>558.0</ele><time>2026-04-03T10:00:23.295Z</time></trkpt><trkpt lat="44.1607956" lon="10.3996969"><ele>558.0</ele><time>2026-04-03T10:00:25.303Z</time></trkpt><trkpt lat="44.1606778" lon="10.3996829"><ele>555.0</ele><time>2026-04-03T10:00:27.298Z</time></trkpt><trkpt lat="44.1605648" lon="10.3996549"><ele>552.0</ele><time>2026-04-03T10:00:29.303Z</time></trkpt><trkpt lat="44.1604515" lon="10.3996075"><ele>549.0</ele><time>2026-04-03T10:00:31.306Z</time></trkpt><trkpt lat="44.1603401" lon="10.3995615"><ele>546.0</ele><time>2026-04-03T10:00:33.301Z</time></trkpt><trkpt lat="44.1602303" lon="10.3995062"><ele>546.0</ele><time>2026-04-03T10:00:35.29Z</time></trkpt><trkpt lat="44.1601698" lon="10.3994669"><ele>546.0</ele><time>2026-04-03T10:00:36.294Z</time></trkpt><trkpt lat="44.1601192" lon="10.3994135"><ele>546.0</ele><time>2026-04-03T10:00:37.292Z</time></trkpt><trkpt lat="44.1600718" lon="10.3993502"><ele>546.0</ele><time>2026-04-03T10:00:38.291Z</time></trkpt><trkpt lat="44.160028" lon="10.3992803"><ele>546.0</ele><time>2026-04-03T10:00:39.304Z</time></trkpt><trkpt lat="44.1599882" lon="10.3992034"><ele>546.0</ele><time>2026-04-03T10:00:40.309Z</time></trkpt><trkpt lat="44.1599529" lon="10.3991166"><ele>546.0</ele><time>2026-04-03T10:00:41.297Z</time></trkpt><trkpt lat="44.1599127" lon="10.3990388"><ele>546.0</ele><time>2026-04-03T10:00:42.314Z</time></trkpt><trkpt lat="44.1598711" lon="10.3989611"><ele>546.0</ele><time>2026-04-03T10:00:43.303Z</time></trkpt><trkpt lat="44.1598307" lon="10.3988832"><ele>546.0</ele><time>2026-04-03T10:00:44.305Z</time></trkpt><trkpt lat="44.1597902" lon="10.3988087"><ele>546.0</ele><time>2026-04-03T10:00:45.308Z</time></trkpt><trkpt lat="44.159754" lon="10.3987318"><ele>546.0</ele><time>2026-04-03T10:00:46.291Z</time></trkpt><trkpt lat="44.1597194" lon="10.3986566"><ele>546.0</ele><time>2026-04-03T10:00:47.299Z</time></trkpt><trkpt lat="44.159684" lon="10.3985749"><ele>546.0</ele><time>2026-04-03T10:00:48.307Z</time></trkpt><trkpt lat="44.159629" lon="10.398422"><ele>546.0</ele><time>2026-04-03T10:00:50.303Z</time></trkpt><trkpt lat="44.159609" lon="10.3983323"><ele>546.0</ele><time>2026-04-03T10:00:51.303Z</time></trkpt><trkpt lat="44.1595929" lon="10.3981729"><ele>546.0</ele><time>2026-04-03T10:00:53.302Z</time></trkpt><trkpt lat="44.1595847" lon="10.3980841"><ele>546.0</ele><time>2026-04-03T10:00:54.306Z</time></trkpt><trkpt lat="44.1595678" lon="10.3979095"><ele>546.0</ele><time>2026-04-03T10:00:56.301Z</time></trkpt><trkpt lat="44.1595621" lon="10.3978128"><ele>546.0</ele><time>2026-04-03T10:00:57.297Z</time></trkpt><trkpt lat="44.1595594" lon="10.3977098"><ele>545.8333333333334</ele><time>2026-04-03T10:00:58.299Z</time></trkpt><trkpt lat="44.159566" lon="10.3976013"><ele>545.6666666666666</ele><time>2026-04-03T10:00:59.295Z</time></trkpt><trkpt lat="44.1595914" lon="10.3974992"><ele>545.5</ele><time>2026-04-03T10:01:00.303Z</time></trkpt><trkpt lat="44.1596292" lon="10.3974005"><ele>545.3333333333333</ele><time>2026-04-03T10:01:01.29Z</time></trkpt><trkpt lat="44.1596689" lon="10.3972975"><ele>545.1666666666666</ele><time>2026-04-03T10:01:02.29Z</time></trkpt><trkpt lat="44.1597143" lon="10.3971936"><ele>545.0</ele><time>2026-04-03T10:01:03.29Z</time></trkpt><trkpt lat="44.1597463" lon="10.3970897"><ele>544.5</ele><time>2026-04-03T10:01:04.292Z</time></trkpt><trkpt lat="44.1597763" lon="10.396989"><ele>544.0</ele><time>2026-04-03T10:01:05.342Z</time></trkpt><trkpt lat="44.15981" lon="10.3968902"><ele>543.5</ele><time>2026-04-03T10:01:06.298Z</time></trkpt><trkpt lat="44.1598438" lon="10.3967889"><ele>543.0</ele><time>2026-04-03T10:01:07.298Z</time></trkpt><trkpt lat="44.1598819" lon="10.3966867"><ele>542.5</ele><time>2026-04-03T10:01:08.296Z</time></trkpt><trkpt lat="44.1599191" lon="10.3965808"><ele>542.0</ele><time>2026-04-03T10:01:09.302Z</time></trkpt><trkpt lat="44.1599539" lon="10.3964739"><ele>542.0</ele><time>2026-04-03T10:01:10.303Z</time></trkpt><trkpt lat="44.1599935" lon="10.3963709"><ele>542.0</ele><time>2026-04-03T10:01:11.3Z</time></trkpt><trkpt lat="44.160032" lon="10.3962652"><ele>542.0</ele><time>2026-04-03T10:01:12.3Z</time></trkpt><trkpt lat="44.1600713" lon="10.3961604"><ele>542.0</ele><time>2026-04-03T10:01:13.306Z</time></trkpt><trkpt lat="44.16011" lon="10.3960556"><ele>542.0</ele><time>2026-04-03T10:01:14.294Z</time></trkpt><trkpt lat="44.1601504" lon="10.3959496"><ele>542.0</ele><time>2026-04-03T10:01:15.297Z</time></trkpt><trkpt lat="44.1601904" lon="10.3958474"><ele>541.3333333333333</ele><time>2026-04-03T10:01:16.298Z</time></trkpt><trkpt lat="44.1602316" lon="10.3957462"><ele>540.6666666666666</ele><time>2026-04-03T10:01:17.313Z</time></trkpt><trkpt lat="44.1602777" lon="10.3956508"><ele>540.0</ele><time>2026-04-03T10:01:18.294Z</time></trkpt><trkpt lat="44.160343" lon="10.3955737"><ele>539.3333333333334</ele><time>2026-04-03T10:01:19.303Z</time></trkpt><trkpt lat="44.1604236" lon="10.3955115"><ele>538.6666666666667</ele><time>2026-04-03T10:01:20.297Z</time></trkpt><trkpt lat="44.160513" lon="10.3954811"><ele>538.0</ele><time>2026-04-03T10:01:21.298Z</time></trkpt><trkpt lat="44.1606093" lon="10.3954837"><ele>538.0</ele><time>2026-04-03T10:01:22.299Z</time></trkpt><trkpt lat="44.1607003" lon="10.3955101"><ele>538.0</ele><time>2026-04-03T10:01:23.301Z</time></trkpt><trkpt lat="44.1607889" lon="10.3955624"><ele>538.0</ele><time>2026-04-03T10:01:24.301Z</time></trkpt><trkpt lat="44.1608808" lon="10.3956126"><ele>538.0</ele><time>2026-04-03T10:01:25.295Z</time></trkpt><trkpt lat="44.1609715" lon="10.3956595"><ele>538.0</ele><time>2026-04-03T10:01:26.295Z</time></trkpt><trkpt lat="44.1610624" lon="10.3957136"><ele>538.0</ele><time>2026-04-03T10:01:27.291Z</time></trkpt><trkpt lat="44.1611501" lon="10.3957676"><ele>538.0</ele><time>2026-04-03T10:01:28.296Z</time></trkpt><trkpt lat="44.1612421" lon="10.3958111"><ele>538.0</ele><time>2026-04-03T10:01:29.303Z</time></trkpt><trkpt lat="44.1613339" lon="10.3958557"><ele>538.0</ele><time>2026-04-03T10:01:30.304Z</time></trkpt><trkpt lat="44.1614245" lon="10.3958868"><ele>538.0</ele><time>2026-04-03T10:01:31.291Z</time></trkpt><trkpt lat="44.1615182" lon="10.3958973"><ele>537.1999999999999</ele><time>2026-04-03T10:01:32.3Z</time></trkpt><trkpt lat="44.1616145" lon="10.3958833"><ele>536.4</ele><time>2026-04-03T10:01:33.299Z</time></trkpt><trkpt lat="44.1617047" lon="10.395841"><ele>535.5999999999999</ele><time>2026-04-03T10:01:34.3Z</time></trkpt><trkpt lat="44.1617857" lon="10.3957909"><ele>534.8</ele><time>2026-04-03T10:01:35.295Z</time></trkpt><trkpt lat="44.1618625" lon="10.3957307"><ele>534.0</ele><time>2026-04-03T10:01:36.304Z</time></trkpt><trkpt lat="44.1619158" lon="10.3956455"><ele>534.0000000000001</ele><time>2026-04-03T10:01:37.306Z</time></trkpt><trkpt lat="44.1619492" lon="10.3955498"><ele>534.0</ele><time>2026-04-03T10:01:38.299Z</time></trkpt><trkpt lat="44.1619568" lon="10.3954474"><ele>534.0</ele><time>2026-04-03T10:01:39.289Z</time></trkpt><trkpt lat="44.1619461" lon="10.3953506"><ele>534.0</ele><time>2026-04-03T10:01:40.298Z</time></trkpt><trkpt lat="44.1619222" lon="10.3952615"><ele>534.0</ele><time>2026-04-03T10:01:41.291Z</time></trkpt><trkpt lat="44.1619002" lon="10.3951712"><ele>534.0000000000001</ele><time>2026-04-03T10:01:42.298Z</time></trkpt><trkpt lat="44.16188" lon="10.3950849"><ele>534.0</ele><time>2026-04-03T10:01:43.306Z</time></trkpt><trkpt lat="44.1618591" lon="10.3950008"><ele>534.25</ele><time>2026-04-03T10:01:44.305Z</time></trkpt><trkpt lat="44.1618168" lon="10.3948426"><ele>534.5</ele><time>2026-04-03T10:01:46.291Z</time></trkpt><trkpt lat="44.1617762" lon="10.3946913"><ele>534.75</ele><time>2026-04-03T10:01:48.295Z</time></trkpt><trkpt lat="44.1617375" lon="10.3945415"><ele>535.0</ele><time>2026-04-03T10:01:50.295Z</time></trkpt><trkpt lat="44.1617125" lon="10.3943917"><ele>535.2</ele><time>2026-04-03T10:01:52.298Z</time></trkpt><trkpt lat="44.1616793" lon="10.3942584"><ele>535.4</ele><time>2026-04-03T10:01:54.291Z</time></trkpt><trkpt lat="44.1616426" lon="10.3941381"><ele>535.6</ele><time>2026-04-03T10:01:56.297Z</time></trkpt><trkpt lat="44.1616175" lon="10.3940206"><ele>535.8</ele><time>2026-04-03T10:01:58.301Z</time></trkpt><trkpt lat="44.1615917" lon="10.3939068"><ele>536.0</ele><time>2026-04-03T10:02:00.301Z</time></trkpt><trkpt lat="44.1615636" lon="10.3937902"><ele>536.1666666666666</ele><time>2026-04-03T10:02:02.305Z</time></trkpt><trkpt lat="44.1615323" lon="10.3936738"><ele>536.3333333333333</ele><time>2026-04-03T10:02:04.299Z</time></trkpt><trkpt lat="44.1614942" lon="10.393562"><ele>536.5</ele><time>2026-04-03T10:02:06.304Z</time></trkpt><trkpt lat="44.1614602" lon="10.3934484"><ele>536.6666666666666</ele><time>2026-04-03T10:02:08.299Z</time></trkpt><trkpt lat="44.1614308" lon="10.3933349"><ele>536.8333333333334</ele><time>2026-04-03T10:02:10.301Z</time></trkpt><trkpt lat="44.1614057" lon="10.3932243"><ele>537.0</ele><time>2026-04-03T10:02:12.301Z</time></trkpt><trkpt lat="44.1613769" lon="10.3931135"><ele>535.6666666666666</ele><time>2026-04-03T10:02:14.3Z</time></trkpt><trkpt lat="44.1613473" lon="10.3930037"><ele>534.3333333333334</ele><time>2026-04-03T10:02:16.303Z</time></trkpt><trkpt lat="44.1613179" lon="10.3928855"><ele>533.0</ele><time>2026-04-03T10:02:18.299Z</time></trkpt><trkpt lat="44.1612885" lon="10.3927665"><ele>531.6666666666667</ele><time>2026-04-03T10:02:20.301Z</time></trkpt><trkpt lat="44.1612677" lon="10.3926544"><ele>530.3333333333334</ele><time>2026-04-03T10:02:22.3Z</time></trkpt><trkpt lat="44.1612488" lon="10.3925549"><ele>529.0</ele><time>2026-04-03T10:02:24.292Z</time></trkpt><trkpt lat="44.1612316" lon="10.3924547"><ele>529.0</ele><time>2026-04-03T10:02:26.292Z</time></trkpt><trkpt lat="44.1612109" lon="10.3923628"><ele>529.0</ele><time>2026-04-03T10:02:28.304Z</time></trkpt><trkpt lat="44.1611785" lon="10.3922712"><ele>529.0</ele><time>2026-04-03T10:02:30.316Z</time></trkpt><trkpt lat="44.1611457" lon="10.3921784"><ele>529.0</ele><time>2026-04-03T10:02:32.296Z</time></trkpt><trkpt lat="44.1611163" lon="10.3920751"><ele>529.0</ele><time>2026-04-03T10:02:34.292Z</time></trkpt><trkpt lat="44.1610844" lon="10.3919681"><ele>529.0</ele><time>2026-04-03T10:02:36.299Z</time></trkpt><trkpt lat="44.1610606" lon="10.3918548"><ele>528.8333333333334</ele><time>2026-04-03T10:02:38.298Z</time></trkpt><trkpt lat="44.1610362" lon="10.3917479"><ele>528.6666666666667</ele><time>2026-04-03T10:02:40.3Z</time></trkpt><trkpt lat="44.1610125" lon="10.3916445"><ele>528.5</ele><time>2026-04-03T10:02:42.31Z</time></trkpt><trkpt lat="44.1609819" lon="10.3915405"><ele>528.3333333333334</ele><time>2026-04-03T10:02:44.299Z</time></trkpt><trkpt lat="44.1609524" lon="10.3914363"><ele>528.1666666666666</ele><time>2026-04-03T10:02:46.306Z</time></trkpt><trkpt lat="44.1609234" lon="10.3913356"><ele>528.0</ele><time>2026-04-03T10:02:48.299Z</time></trkpt><trkpt lat="44.1608967" lon="10.3912294"><ele>528.3333333333334</ele><time>2026-04-03T10:02:50.305Z</time></trkpt><trkpt lat="44.1608679" lon="10.3911245"><ele>528.6666666666666</ele><time>2026-04-03T10:02:52.32Z</time></trkpt><trkpt lat="44.1608344" lon="10.3910275"><ele>529.0</ele><time>2026-04-03T10:02:54.298Z</time></trkpt><trkpt lat="44.1608099" lon="10.3909304"><ele>529.3333333333333</ele><time>2026-04-03T10:02:56.298Z</time></trkpt><trkpt lat="44.1607852" lon="10.3908267"><ele>529.6666666666666</ele><time>2026-04-03T10:02:58.298Z</time></trkpt><trkpt lat="44.1607611" lon="10.3907214"><ele>530.0</ele><time>2026-04-03T10:03:00.29Z</time></trkpt><trkpt lat="44.1607343" lon="10.3906194"><ele>530.0</ele><time>2026-04-03T10:03:02.305Z</time></trkpt><trkpt lat="44.1607071" lon="10.3905082"><ele>530.0</ele><time>2026-04-03T10:03:04.301Z</time></trkpt><trkpt lat="44.1606788" lon="10.3903956"><ele>530.0</ele><time>2026-04-03T10:03:06.299Z</time></trkpt><trkpt lat="44.1606484" lon="10.3902829"><ele>530.0</ele><time>2026-04-03T10:03:08.306Z</time></trkpt><trkpt lat="44.1606237" lon="10.390171"><ele>530.0</ele><time>2026-04-03T10:03:10.299Z</time></trkpt><trkpt lat="44.1605988" lon="10.3900596"><ele>530.0</ele><time>2026-04-03T10:03:12.297Z</time></trkpt><trkpt lat="44.1605702" lon="10.3899482"><ele>529.6666666666666</ele><time>2026-04-03T10:03:14.299Z</time></trkpt><trkpt lat="44.1605436" lon="10.3898352"><ele>529.3333333333333</ele><time>2026-04-03T10:03:16.292Z</time></trkpt><trkpt lat="44.1605179" lon="10.389725"><ele>529.0</ele><time>2026-04-03T10:03:18.294Z</time></trkpt><trkpt lat="44.16049" lon="10.3896154"><ele>528.6666666666666</ele><time>2026-04-03T10:03:20.301Z</time></trkpt><trkpt lat="44.1604632" lon="10.3895054"><ele>528.3333333333334</ele><time>2026-04-03T10:03:22.303Z</time></trkpt><trkpt lat="44.1604357" lon="10.3893989"><ele>528.0</ele><time>2026-04-03T10:03:24.307Z</time></trkpt><trkpt lat="44.160409" lon="10.3892935"><ele>528.0</ele><time>2026-04-03T10:03:26.302Z</time></trkpt><trkpt lat="44.160387" lon="10.3891929"><ele>528.0</ele><time>2026-04-03T10:03:28.3Z</time></trkpt><trkpt lat="44.1603646" lon="10.38909"><ele>528.0</ele><time>2026-04-03T10:03:30.294Z</time></trkpt><trkpt lat="44.1603386" lon="10.3889896"><ele>528.0</ele><time>2026-04-03T10:03:32.304Z</time></trkpt><trkpt lat="44.1603123" lon="10.3888891"><ele>528.0</ele><time>2026-04-03T10:03:34.3Z</time></trkpt><trkpt lat="44.1602854" lon="10.3887914"><ele>528.0</ele><time>2026-04-03T10:03:36.304Z</time></trkpt><trkpt lat="44.1602568" lon="10.3886999"><ele>527.8333333333334</ele><time>2026-04-03T10:03:38.296Z</time></trkpt><trkpt lat="44.1603062" lon="10.3886007"><ele>527.6666666666666</ele><time>2026-04-03T10:03:41.3Z</time></trkpt><trkpt lat="44.1603775" lon="10.3886007"><ele>527.5</ele><time>2026-04-03T10:03:43.301Z</time></trkpt><trkpt lat="44.1604507" lon="10.3886077"><ele>527.3333333333333</ele><time>2026-04-03T10:03:45.304Z</time></trkpt><trkpt lat="44.160525" lon="10.3886108"><ele>527.1666666666666</ele><time>2026-04-03T10:03:47.295Z</time></trkpt><trkpt lat="44.1605974" lon="10.388607"><ele>527.0</ele><time>2026-04-03T10:03:49.305Z</time></trkpt><trkpt lat="44.1606765" lon="10.3885929"><ele>526.8333333333333</ele><time>2026-04-03T10:03:51.303Z</time></trkpt><trkpt lat="44.1607522" lon="10.3885729"><ele>526.6666666666666</ele><time>2026-04-03T10:03:53.297Z</time></trkpt><trkpt lat="44.1608282" lon="10.3885428"><ele>526.5</ele><time>2026-04-03T10:03:55.3Z</time></trkpt><trkpt lat="44.1609036" lon="10.3885138"><ele>526.3333333333334</ele><time>2026-04-03T10:03:57.299Z</time></trkpt><trkpt lat="44.1609749" lon="10.3884861"><ele>526.1666666666667</ele><time>2026-04-03T10:03:59.303Z</time></trkpt><trkpt lat="44.1610488" lon="10.3884589"><ele>526.0</ele><time>2026-04-03T10:04:01.298Z</time></trkpt><trkpt lat="44.1611255" lon="10.3884386"><ele>526.0</ele><time>2026-04-03T10:04:03.301Z</time></trkpt><trkpt lat="44.1612022" lon="10.3884227"><ele>526.0</ele><time>2026-04-03T10:04:05.311Z</time></trkpt><trkpt lat="44.1612855" lon="10.3883913"><ele>526.0</ele><time>2026-04-03T10:04:07.304Z</time></trkpt><trkpt lat="44.1613528" lon="10.3883159"><ele>526.0</ele><time>2026-04-03T10:04:09.301Z</time></trkpt><trkpt lat="44.1614016" lon="10.3881965"><ele>526.0</ele><time>2026-04-03T10:04:11.299Z</time></trkpt><trkpt lat="44.1614483" lon="10.3880754"><ele>526.0</ele><time>2026-04-03T10:04:13.311Z</time></trkpt><trkpt lat="44.1615261" lon="10.3879488"><ele>527.5</ele><time>2026-04-03T10:04:15.305Z</time></trkpt><trkpt lat="44.1615852" lon="10.3879087"><ele>529.0</ele><time>2026-04-03T10:04:16.3Z</time></trkpt><trkpt lat="44.1616572" lon="10.3879094"><ele>530.5</ele><time>2026-04-03T10:04:17.301Z</time></trkpt><trkpt lat="44.1617309" lon="10.3879391"><ele>532.0</ele><time>2026-04-03T10:04:18.303Z</time></trkpt><trkpt lat="44.1618021" lon="10.3879901"><ele>533.5</ele><time>2026-04-03T10:04:19.305Z</time></trkpt><trkpt lat="44.1618795" lon="10.3880422"><ele>535.0</ele><time>2026-04-03T10:04:20.305Z</time></trkpt><trkpt lat="44.1619662" lon="10.3881126"><ele>535.0</ele><time>2026-04-03T10:04:21.314Z</time></trkpt><trkpt lat="44.1620534" lon="10.3881719"><ele>535.0</ele><time>2026-04-03T10:04:22.297Z</time></trkpt><trkpt lat="44.1621456" lon="10.3882366"><ele>535.0</ele><time>2026-04-03T10:04:23.305Z</time></trkpt><trkpt lat="44.1622438" lon="10.3883015"><ele>535.0</ele><time>2026-04-03T10:04:24.305Z</time></trkpt><trkpt lat="44.1623403" lon="10.3883671"><ele>535.0</ele><time>2026-04-03T10:04:25.303Z</time></trkpt><trkpt lat="44.1624248" lon="10.3884366"><ele>532.6666666666667</ele><time>2026-04-03T10:04:26.303Z</time></trkpt><trkpt lat="44.1625098" lon="10.3884968"><ele>530.3333333333334</ele><time>2026-04-03T10:04:27.295Z</time></trkpt><trkpt lat="44.1626001" lon="10.3885266"><ele>528.0</ele><time>2026-04-03T10:04:28.293Z</time></trkpt><trkpt lat="44.1626792" lon="10.3885375"><ele>525.6666666666666</ele><time>2026-04-03T10:04:29.302Z</time></trkpt><trkpt lat="44.162757" lon="10.3885454"><ele>523.3333333333333</ele><time>2026-04-03T10:04:30.308Z</time></trkpt><trkpt lat="44.1628286" lon="10.3885534"><ele>521.0</ele><time>2026-04-03T10:04:31.292Z</time></trkpt><trkpt lat="44.1629053" lon="10.3885602"><ele>521.0</ele><time>2026-04-03T10:04:32.313Z</time></trkpt><trkpt lat="44.162981" lon="10.3885662"><ele>521.0</ele><time>2026-04-03T10:04:33.302Z</time></trkpt><trkpt lat="44.1630523" lon="10.3885782"><ele>521.0</ele><time>2026-04-03T10:04:34.311Z</time></trkpt><trkpt lat="44.1631166" lon="10.3885532"><ele>521.0</ele><time>2026-04-03T10:04:35.303Z</time></trkpt><trkpt lat="44.1631854" lon="10.3884857"><ele>521.0</ele><time>2026-04-03T10:04:36.303Z</time></trkpt><trkpt lat="44.1632333" lon="10.3883943"><ele>521.0</ele><time>2026-04-03T10:04:37.311Z</time></trkpt><trkpt lat="44.1632882" lon="10.3882834"><ele>519.0</ele><time>2026-04-03T10:04:38.301Z</time></trkpt><trkpt lat="44.1633125" lon="10.3881625"><ele>517.0</ele><time>2026-04-03T10:04:39.306Z</time></trkpt><trkpt lat="44.1633202" lon="10.3880305"><ele>515.0</ele><time>2026-04-03T10:04:40.298Z</time></trkpt><trkpt lat="44.16332" lon="10.3879074"><ele>513.0</ele><time>2026-04-03T10:04:41.3Z</time></trkpt><trkpt lat="44.1633194" lon="10.3877808"><ele>510.99999999999994</ele><time>2026-04-03T10:04:42.298Z</time></trkpt><trkpt lat="44.1633214" lon="10.387664"><ele>509.0</ele><time>2026-04-03T10:04:43.298Z</time></trkpt><trkpt lat="44.1633257" lon="10.387549"><ele>508.2</ele><time>2026-04-03T10:04:44.301Z</time></trkpt><trkpt lat="44.1633071" lon="10.3874484"><ele>507.4</ele><time>2026-04-03T10:04:45.311Z</time></trkpt><trkpt lat="44.1632557" lon="10.3873732"><ele>506.6</ele><time>2026-04-03T10:04:46.302Z</time></trkpt><trkpt lat="44.1632003" lon="10.3873298"><ele>505.8</ele><time>2026-04-03T10:04:47.302Z</time></trkpt><trkpt lat="44.1630814" lon="10.3873037"><ele>505.0</ele><time>2026-04-03T10:04:49.301Z</time></trkpt><trkpt lat="44.1629678" lon="10.3872647"><ele>505.00000000000006</ele><time>2026-04-03T10:04:51.301Z</time></trkpt><trkpt lat="44.1628762" lon="10.3872158"><ele>505.0</ele><time>2026-04-03T10:04:53.303Z</time></trkpt><trkpt lat="44.1628189" lon="10.3871486"><ele>505.0</ele><time>2026-04-03T10:04:55.31Z</time></trkpt><trkpt lat="44.1627765" lon="10.3870604"><ele>505.0</ele><time>2026-04-03T10:04:58.307Z</time></trkpt><trkpt lat="44.1627534" lon="10.38696"><ele>505.00000000000006</ele><time>2026-04-03T10:05:02.291Z</time></trkpt><trkpt lat="44.1627287" lon="10.3868655"><ele>505.0</ele><time>2026-04-03T10:05:06.293Z</time></trkpt><trkpt lat="44.1627049" lon="10.3867577"><ele>506.1666666666667</ele><time>2026-04-03T10:05:10.288Z</time></trkpt><trkpt lat="44.162683" lon="10.3866483"><ele>507.33333333333337</ele><time>2026-04-03T10:05:14.301Z</time></trkpt><trkpt lat="44.1626742" lon="10.3865355"><ele>508.5</ele><time>2026-04-03T10:05:18.303Z</time></trkpt><trkpt lat="44.1627039" lon="10.386432"><ele>509.66666666666663</ele><time>2026-04-03T10:05:22.308Z</time></trkpt><trkpt lat="44.1627461" lon="10.3863645"><ele>510.8333333333333</ele><time>2026-04-03T10:05:25.309Z</time></trkpt><trkpt lat="44.1627947" lon="10.3863016"><ele>512.0</ele><time>2026-04-03T10:05:28.295Z</time></trkpt><trkpt lat="44.1628533" lon="10.3862209"><ele>513.0</ele><time>2026-04-03T10:05:32.302Z</time></trkpt><trkpt lat="44.1628956" lon="10.3861345"><ele>514.0</ele><time>2026-04-03T10:05:36.296Z</time></trkpt><trkpt lat="44.1629184" lon="10.3860512"><ele>515.0</ele><time>2026-04-03T10:05:39.298Z</time></trkpt><trkpt lat="44.1629375" lon="10.3859365"><ele>516.0</ele><time>2026-04-03T10:05:43.292Z</time></trkpt><trkpt lat="44.1629526" lon="10.3858477"><ele>517.0</ele><time>2026-04-03T10:05:46.306Z</time></trkpt><trkpt lat="44.162962" lon="10.3857563"><ele>518.0</ele><time>2026-04-03T10:05:49.305Z</time></trkpt><trkpt lat="44.1629753" lon="10.3856664"><ele>519.0</ele><time>2026-04-03T10:05:52.301Z</time></trkpt><trkpt lat="44.1629868" lon="10.385579"><ele>521.0</ele><time>2026-04-03T10:05:55.309Z</time></trkpt><trkpt lat="44.1630029" lon="10.3854667"><ele>523.0</ele><time>2026-04-03T10:05:59.299Z</time></trkpt><trkpt lat="44.163023" lon="10.3853559"><ele>525.0</ele><time>2026-04-03T10:06:03.292Z</time></trkpt><trkpt lat="44.1630469" lon="10.3852464"><ele>527.0</ele><time>2026-04-03T10:06:07.293Z</time></trkpt><trkpt lat="44.1630724" lon="10.3851644"><ele>529.0</ele><time>2026-04-03T10:06:10.301Z</time></trkpt><trkpt lat="44.1631085" lon="10.3850654"><ele>531.0</ele><time>2026-04-03T10:06:14.306Z</time></trkpt><trkpt lat="44.1631389" lon="10.3849611"><ele>531.0</ele><time>2026-04-03T10:06:18.303Z</time></trkpt><trkpt lat="44.1631534" lon="10.3848746"><ele>531.0</ele><time>2026-04-03T10:06:21.298Z</time></trkpt><trkpt lat="44.1631635" lon="10.3847876"><ele>531.0</ele><time>2026-04-03T10:06:24.295Z</time></trkpt><trkpt lat="44.1631622" lon="10.384672"><ele>531.0</ele><time>2026-04-03T10:06:28.303Z</time></trkpt><trkpt lat="44.1631509" lon="10.3845614"><ele>531.0</ele><time>2026-04-03T10:06:32.311Z</time></trkpt><trkpt lat="44.1631422" lon="10.3844676"><ele>531.0</ele><time>2026-04-03T10:06:35.295Z</time></trkpt><trkpt lat="44.1631236" lon="10.3843787"><ele>531.0</ele><time>2026-04-03T10:06:38.289Z</time></trkpt><trkpt lat="44.163094" lon="10.3842816"><ele>532.1428571428571</ele><time>2026-04-03T10:06:42.294Z</time></trkpt><trkpt lat="44.1630574" lon="10.3842063"><ele>533.2857142857143</ele><time>2026-04-03T10:06:46.302Z</time></trkpt><trkpt lat="44.1630268" lon="10.3841134"><ele>534.4285714285714</ele><time>2026-04-03T10:06:50.287Z</time></trkpt><trkpt lat="44.1630055" lon="10.3840229"><ele>535.5714285714286</ele><time>2026-04-03T10:06:53.298Z</time></trkpt><trkpt lat="44.1630073" lon="10.3839046"><ele>536.7142857142858</ele><time>2026-04-03T10:06:57.298Z</time></trkpt><trkpt lat="44.1630161" lon="10.3838059"><ele>537.8571428571429</ele><time>2026-04-03T10:07:00.292Z</time></trkpt><trkpt lat="44.1630483" lon="10.3837247"><ele>539.0</ele><time>2026-04-03T10:07:03.297Z</time></trkpt><trkpt lat="44.1630995" lon="10.3836681"><ele>538.8571428571429</ele><time>2026-04-03T10:07:06.305Z</time></trkpt><trkpt lat="44.1631567" lon="10.3836216"><ele>538.7142857142858</ele><time>2026-04-03T10:07:09.296Z</time></trkpt><trkpt lat="44.1632318" lon="10.3835662"><ele>538.5714285714286</ele><time>2026-04-03T10:07:13.3Z</time></trkpt><trkpt lat="44.1632943" lon="10.3835307"><ele>538.4285714285714</ele><time>2026-04-03T10:07:16.303Z</time></trkpt><trkpt lat="44.1633539" lon="10.3834833"><ele>538.2857142857143</ele><time>2026-04-03T10:07:19.292Z</time></trkpt><trkpt lat="44.1634097" lon="10.3834336"><ele>538.1428571428571</ele><time>2026-04-03T10:07:22.287Z</time></trkpt><trkpt lat="44.1634709" lon="10.3833899"><ele>538.0</ele><time>2026-04-03T10:07:25.294Z</time></trkpt><trkpt lat="44.1635272" lon="10.3833441"><ele>538.0</ele><time>2026-04-03T10:07:28.303Z</time></trkpt><trkpt lat="44.1635867" lon="10.383278"><ele>538.0</ele><time>2026-04-03T10:07:32.3Z</time></trkpt><trkpt lat="44.1636077" lon="10.3831648"><ele>538.0</ele><time>2026-04-03T10:07:36.293Z</time></trkpt><trkpt lat="44.1636143" lon="10.3830763"><ele>538.0</ele><time>2026-04-03T10:07:39.292Z</time></trkpt><trkpt lat="44.1636082" lon="10.3829884"><ele>538.0</ele><time>2026-04-03T10:07:42.306Z</time></trkpt><trkpt lat="44.1635973" lon="10.382899"><ele>538.0</ele><time>2026-04-03T10:07:45.302Z</time></trkpt><trkpt lat="44.1635924" lon="10.3828052"><ele>538.0</ele><time>2026-04-03T10:07:48.29Z</time></trkpt><trkpt lat="44.163577" lon="10.3826952"><ele>539.4285714285714</ele><time>2026-04-03T10:07:52.291Z</time></trkpt><trkpt lat="44.1635486" lon="10.382598"><ele>540.8571428571429</ele><time>2026-04-03T10:07:56.289Z</time></trkpt><trkpt lat="44.1635214" lon="10.3824939"><ele>542.2857142857143</ele><time>2026-04-03T10:08:00.288Z</time></trkpt><trkpt lat="44.1634942" lon="10.382392"><ele>543.7142857142858</ele><time>2026-04-03T10:08:04.29Z</time></trkpt><trkpt lat="44.1634694" lon="10.3822929"><ele>545.1428571428571</ele><time>2026-04-03T10:08:08.291Z</time></trkpt><trkpt lat="44.1634554" lon="10.3822011"><ele>546.5714285714287</ele><time>2026-04-03T10:08:11.3Z</time></trkpt><trkpt lat="44.1634572" lon="10.3821085"><ele>548.0</ele><time>2026-04-03T10:08:14.294Z</time></trkpt><trkpt lat="44.1634861" lon="10.3820305"><ele>549.5</ele><time>2026-04-03T10:08:17.294Z</time></trkpt><trkpt lat="44.1635529" lon="10.381965"><ele>551.0</ele><time>2026-04-03T10:08:21.291Z</time></trkpt><trkpt lat="44.1636304" lon="10.3819389"><ele>552.5</ele><time>2026-04-03T10:08:25.293Z</time></trkpt><trkpt lat="44.1637055" lon="10.3819146"><ele>554.0</ele><time>2026-04-03T10:08:29.292Z</time></trkpt><trkpt lat="44.1637803" lon="10.3819029"><ele>555.5</ele><time>2026-04-03T10:08:33.293Z</time></trkpt><trkpt lat="44.1638554" lon="10.3819184"><ele>557.0</ele><time>2026-04-03T10:08:37.29Z</time></trkpt><trkpt lat="44.1639201" lon="10.3819804"><ele>557.0</ele><time>2026-04-03T10:08:41.287Z</time></trkpt><trkpt lat="44.1639632" lon="10.3820799"><ele>557.0</ele><time>2026-04-03T10:08:45.303Z</time></trkpt><trkpt lat="44.1639957" lon="10.3821836"><ele>557.0</ele><time>2026-04-03T10:08:49.319Z</time></trkpt><trkpt lat="44.1640289" lon="10.3822582"><ele>557.0</ele><time>2026-04-03T10:08:52.301Z</time></trkpt><trkpt lat="44.1640968" lon="10.3823136"><ele>557.0</ele><time>2026-04-03T10:08:56.293Z</time></trkpt><trkpt lat="44.1641624" lon="10.3822676"><ele>557.0</ele><time>2026-04-03T10:09:00.306Z</time></trkpt><trkpt lat="44.1641769" lon="10.3821659"><ele>558.1666666666666</ele><time>2026-04-03T10:09:04.299Z</time></trkpt><trkpt lat="44.1641364" lon="10.3820643"><ele>559.3333333333333</ele><time>2026-04-03T10:09:08.299Z</time></trkpt><trkpt lat="44.1641035" lon="10.3819619"><ele>560.5</ele><time>2026-04-03T10:09:12.305Z</time></trkpt><trkpt lat="44.1640731" lon="10.3818585"><ele>561.6666666666666</ele><time>2026-04-03T10:09:16.296Z</time></trkpt><trkpt lat="44.1640633" lon="10.3817518"><ele>562.8333333333334</ele><time>2026-04-03T10:09:20.303Z</time></trkpt><trkpt lat="44.1640884" lon="10.381654"><ele>564.0</ele><time>2026-04-03T10:09:24.299Z</time></trkpt><trkpt lat="44.1641326" lon="10.381583"><ele>564.0</ele><time>2026-04-03T10:09:28.306Z</time></trkpt><trkpt lat="44.1641672" lon="10.3815062"><ele>564.0</ele><time>2026-04-03T10:09:32.295Z</time></trkpt><trkpt lat="44.164215" lon="10.3814201"><ele>564.0</ele><time>2026-04-03T10:09:37.3Z</time></trkpt><trkpt lat="44.1642552" lon="10.3813351"><ele>564.0</ele><time>2026-04-03T10:09:42.301Z</time></trkpt><trkpt lat="44.1643106" lon="10.3812868"><ele>564.0</ele><time>2026-04-03T10:09:46.292Z</time></trkpt><trkpt lat="44.1643703" lon="10.3812577"><ele>564.0</ele><time>2026-04-03T10:09:50.293Z</time></trkpt><trkpt lat="44.1644441" lon="10.3812434"><ele>564.0</ele><time>2026-04-03T10:09:55.294Z</time></trkpt><trkpt lat="44.1645196" lon="10.3812296"><ele>565.4285714285714</ele><time>2026-04-03T10:10:00.306Z</time></trkpt><trkpt lat="44.1645837" lon="10.3812116"><ele>566.8571428571429</ele><time>2026-04-03T10:10:04.293Z</time></trkpt><trkpt lat="44.1646454" lon="10.381184"><ele>568.2857142857142</ele><time>2026-04-03T10:10:08.291Z</time></trkpt><trkpt lat="44.1647172" lon="10.381142"><ele>569.7142857142858</ele><time>2026-04-03T10:10:13.299Z</time></trkpt><trkpt lat="44.1647635" lon="10.3810589"><ele>571.1428571428571</ele><time>2026-04-03T10:10:18.288Z</time></trkpt><trkpt lat="44.1647776" lon="10.3809711"><ele>572.5714285714286</ele><time>2026-04-03T10:10:22.306Z</time></trkpt><trkpt lat="44.1647746" lon="10.3808822"><ele>574.0</ele><time>2026-04-03T10:10:26.289Z</time></trkpt><trkpt lat="44.1647702" lon="10.3807881"><ele>574.0</ele><time>2026-04-03T10:10:30.292Z</time></trkpt><trkpt lat="44.1647687" lon="10.3806944"><ele>574.0</ele><time>2026-04-03T10:10:34.291Z</time></trkpt><trkpt lat="44.1647689" lon="10.3806007"><ele>574.0</ele><time>2026-04-03T10:10:38.293Z</time></trkpt><trkpt lat="44.1647639" lon="10.3805074"><ele>574.0</ele><time>2026-04-03T10:10:42.296Z</time></trkpt><trkpt lat="44.1647628" lon="10.380418"><ele>574.0</ele><time>2026-04-03T10:10:46.298Z</time></trkpt><trkpt lat="44.1647239" lon="10.3803421"><ele>574.0</ele><time>2026-04-03T10:10:50.295Z</time></trkpt><trkpt lat="44.1646869" lon="10.3802629"><ele>574.0</ele><time>2026-04-03T10:10:54.299Z</time></trkpt><trkpt lat="44.1646443" lon="10.3801728"><ele>575.3333333333334</ele><time>2026-04-03T10:10:59.294Z</time></trkpt><trkpt lat="44.1646049" lon="10.3800905"><ele>576.6666666666667</ele><time>2026-04-03T10:11:03.299Z</time></trkpt><trkpt lat="44.1645589" lon="10.3800021"><ele>578.0</ele><time>2026-04-03T10:11:07.295Z</time></trkpt><trkpt lat="44.1645191" lon="10.3799144"><ele>579.3333333333334</ele><time>2026-04-03T10:11:11.293Z</time></trkpt><trkpt lat="44.1644836" lon="10.379828"><ele>580.6666666666666</ele><time>2026-04-03T10:11:15.303Z</time></trkpt><trkpt lat="44.1644467" lon="10.3797344"><ele>582.0</ele><time>2026-04-03T10:11:19.302Z</time></trkpt><trkpt lat="44.1643987" lon="10.3796396"><ele>582.7142857142857</ele><time>2026-04-03T10:11:23.304Z</time></trkpt><trkpt lat="44.1643592" lon="10.379542"><ele>583.4285714285713</ele><time>2026-04-03T10:11:27.306Z</time></trkpt><trkpt lat="44.1643319" lon="10.3794629"><ele>584.1428571428571</ele><time>2026-04-03T10:11:30.303Z</time></trkpt><trkpt lat="44.1643051" lon="10.3793796"><ele>584.8571428571429</ele><time>2026-04-03T10:11:33.297Z</time></trkpt><trkpt lat="44.1642856" lon="10.3792841"><ele>585.5714285714287</ele><time>2026-04-03T10:11:36.308Z</time></trkpt><trkpt lat="44.1642746" lon="10.3791912"><ele>586.2857142857143</ele><time>2026-04-03T10:11:39.302Z</time></trkpt><trkpt lat="44.1642609" lon="10.3791019"><ele>587.0</ele><time>2026-04-03T10:11:42.298Z</time></trkpt><trkpt lat="44.1642495" lon="10.378987"><ele>587.0</ele><time>2026-04-03T10:11:46.302Z</time></trkpt><trkpt lat="44.1642468" lon="10.3788885"><ele>587.0</ele><time>2026-04-03T10:11:50.294Z</time></trkpt><trkpt lat="44.1642458" lon="10.378783"><ele>587.0</ele><time>2026-04-03T10:11:54.303Z</time></trkpt><trkpt lat="44.1642561" lon="10.3786729"><ele>587.0</ele><time>2026-04-03T10:11:58.298Z</time></trkpt><trkpt lat="44.16427" lon="10.3785654"><ele>587.0</ele><time>2026-04-03T10:12:02.301Z</time></trkpt><trkpt lat="44.1642962" lon="10.3784589"><ele>587.0</ele><time>2026-04-03T10:12:06.291Z</time></trkpt><trkpt lat="44.1643258" lon="10.3783524"><ele>587.5</ele><time>2026-04-03T10:12:10.307Z</time></trkpt><trkpt lat="44.1643555" lon="10.3782467"><ele>588.0</ele><time>2026-04-03T10:12:14.307Z</time></trkpt><trkpt lat="44.1644121" lon="10.3781715"><ele>588.5</ele><time>2026-04-03T10:12:18.297Z</time></trkpt><trkpt lat="44.1644656" lon="10.3780896"><ele>589.0</ele><time>2026-04-03T10:12:22.309Z</time></trkpt><trkpt lat="44.1645187" lon="10.3780078"><ele>589.5</ele><time>2026-04-03T10:12:26.298Z</time></trkpt><trkpt lat="44.1645787" lon="10.3779342"><ele>590.0</ele><time>2026-04-03T10:12:30.305Z</time></trkpt><trkpt lat="44.1646382" lon="10.377869"><ele>591.5</ele><time>2026-04-03T10:12:34.308Z</time></trkpt><trkpt lat="44.1646966" lon="10.3778031"><ele>593.0</ele><time>2026-04-03T10:12:38.298Z</time></trkpt><trkpt lat="44.1647557" lon="10.3777232"><ele>594.5</ele><time>2026-04-03T10:12:42.293Z</time></trkpt><trkpt lat="44.1648171" lon="10.3776496"><ele>596.0</ele><time>2026-04-03T10:12:46.292Z</time></trkpt><trkpt lat="44.1648802" lon="10.377581"><ele>597.5</ele><time>2026-04-03T10:12:50.291Z</time></trkpt><trkpt lat="44.1649447" lon="10.3775107"><ele>599.0</ele><time>2026-04-03T10:12:54.3Z</time></trkpt><trkpt lat="44.1650038" lon="10.3774432"><ele>599.0</ele><time>2026-04-03T10:12:58.298Z</time></trkpt><trkpt lat="44.1650687" lon="10.3773824"><ele>599.0</ele><time>2026-04-03T10:13:02.306Z</time></trkpt><trkpt lat="44.1651315" lon="10.3773141"><ele>599.0</ele><time>2026-04-03T10:13:06.299Z</time></trkpt><trkpt lat="44.1651902" lon="10.3772446"><ele>599.0</ele><time>2026-04-03T10:13:10.291Z</time></trkpt><trkpt lat="44.1652566" lon="10.3771819"><ele>599.0</ele><time>2026-04-03T10:13:14.292Z</time></trkpt><trkpt lat="44.1653189" lon="10.377116"><ele>599.0</ele><time>2026-04-03T10:13:18.286Z</time></trkpt><trkpt lat="44.1653933" lon="10.377063"><ele>600.6666666666666</ele><time>2026-04-03T10:13:22.292Z</time></trkpt><trkpt lat="44.1654569" lon="10.3769874"><ele>602.3333333333333</ele><time>2026-04-03T10:13:26.315Z</time></trkpt><trkpt lat="44.1655243" lon="10.3769227"><ele>604.0</ele><time>2026-04-03T10:13:30.291Z</time></trkpt><trkpt lat="44.1655743" lon="10.3768528"><ele>605.6666666666666</ele><time>2026-04-03T10:13:34.303Z</time></trkpt><trkpt lat="44.1656262" lon="10.3767643"><ele>607.3333333333334</ele><time>2026-04-03T10:13:38.288Z</time></trkpt><trkpt lat="44.1656695" lon="10.3766718"><ele>609.0</ele><time>2026-04-03T10:13:42.297Z</time></trkpt><trkpt lat="44.1657163" lon="10.3765879"><ele>609.0</ele><time>2026-04-03T10:13:46.288Z</time></trkpt><trkpt lat="44.1657743" lon="10.3765329"><ele>609.0</ele><time>2026-04-03T10:13:50.301Z</time></trkpt><trkpt lat="44.1658279" lon="10.3764681"><ele>609.0</ele><time>2026-04-03T10:13:54.302Z</time></trkpt><trkpt lat="44.1658895" lon="10.3764162"><ele>609.0</ele><time>2026-04-03T10:13:58.29Z</time></trkpt><trkpt lat="44.1659514" lon="10.3763682"><ele>609.0</ele><time>2026-04-03T10:14:02.302Z</time></trkpt><trkpt lat="44.166008" lon="10.3763149"><ele>609.0</ele><time>2026-04-03T10:14:06.295Z</time></trkpt><trkpt lat="44.1660396" lon="10.3762293"><ele>609.0</ele><time>2026-04-03T10:14:10.301Z</time></trkpt><trkpt lat="44.1660144" lon="10.37613"><ele>610.5714285714286</ele><time>2026-04-03T10:14:14.302Z</time></trkpt><trkpt lat="44.1659675" lon="10.3760654"><ele>612.1428571428571</ele><time>2026-04-03T10:14:18.3Z</time></trkpt><trkpt lat="44.1659116" lon="10.3759911"><ele>613.7142857142858</ele><time>2026-04-03T10:14:24.3Z</time></trkpt><trkpt lat="44.1658658" lon="10.3759074"><ele>615.2857142857142</ele><time>2026-04-03T10:14:29.292Z</time></trkpt><trkpt lat="44.1658276" lon="10.3758368"><ele>616.8571428571429</ele><time>2026-04-03T10:14:33.295Z</time></trkpt><trkpt lat="44.1657731" lon="10.3757753"><ele>618.4285714285714</ele><time>2026-04-03T10:14:37.299Z</time></trkpt><trkpt lat="44.165736" lon="10.3756969"><ele>620.0</ele><time>2026-04-03T10:14:41.295Z</time></trkpt><trkpt lat="44.1656955" lon="10.3756285"><ele>620.0</ele><time>2026-04-03T10:14:45.292Z</time></trkpt><trkpt lat="44.1656645" lon="10.3755281"><ele>620.0</ele><time>2026-04-03T10:14:50.294Z</time></trkpt><trkpt lat="44.1656415" lon="10.3754419"><ele>620.0</ele><time>2026-04-03T10:14:54.303Z</time></trkpt><trkpt lat="44.1656269" lon="10.3753476"><ele>620.0</ele><time>2026-04-03T10:14:58.286Z</time></trkpt><trkpt lat="44.1656082" lon="10.3752606"><ele>620.0</ele><time>2026-04-03T10:15:02.299Z</time></trkpt><trkpt lat="44.1655922" lon="10.3751736"><ele>620.0</ele><time>2026-04-03T10:15:06.298Z</time></trkpt><trkpt lat="44.1655688" lon="10.3750768"><ele>620.0</ele><time>2026-04-03T10:15:10.29Z</time></trkpt><trkpt lat="44.1655524" lon="10.3749693"><ele>621.2857142857143</ele><time>2026-04-03T10:15:14.292Z</time></trkpt><trkpt lat="44.1655541" lon="10.3748581"><ele>622.5714285714286</ele><time>2026-04-03T10:15:18.288Z</time></trkpt><trkpt lat="44.1655508" lon="10.374757"><ele>623.8571428571429</ele><time>2026-04-03T10:15:22.295Z</time></trkpt><trkpt lat="44.1655557" lon="10.3746558"><ele>625.1428571428571</ele><time>2026-04-03T10:15:26.302Z</time></trkpt><trkpt lat="44.1655685" lon="10.374549"><ele>626.4285714285714</ele><time>2026-04-03T10:15:31.299Z</time></trkpt><trkpt lat="44.1655696" lon="10.3744538"><ele>627.7142857142857</ele><time>2026-04-03T10:15:35.296Z</time></trkpt><trkpt lat="44.1656098" lon="10.3743717"><ele>629.0</ele><time>2026-04-03T10:15:39.296Z</time></trkpt><trkpt lat="44.1656851" lon="10.3743399"><ele>629.3333333333333</ele><time>2026-04-03T10:15:42.287Z</time></trkpt><trkpt lat="44.1657643" lon="10.3743301"><ele>629.6666666666666</ele><time>2026-04-03T10:15:44.297Z</time></trkpt><trkpt lat="44.1658436" lon="10.374333"><ele>630.0</ele><time>2026-04-03T10:15:46.294Z</time></trkpt><trkpt lat="44.1659151" lon="10.3743082"><ele>630.3333333333334</ele><time>2026-04-03T10:15:48.299Z</time></trkpt><trkpt lat="44.1659983" lon="10.3742955"><ele>630.6666666666667</ele><time>2026-04-03T10:15:51.304Z</time></trkpt><trkpt lat="44.1660629" lon="10.3742804"><ele>631.0</ele><time>2026-04-03T10:15:55.303Z</time></trkpt><trkpt lat="44.1661315" lon="10.3742784"><ele>631.0</ele><time>2026-04-03T10:15:59.298Z</time></trkpt><trkpt lat="44.1662025" lon="10.3742803"><ele>631.0</ele><time>2026-04-03T10:16:03.293Z</time></trkpt><trkpt lat="44.1662783" lon="10.3742765"><ele>631.0</ele><time>2026-04-03T10:16:07.299Z</time></trkpt><trkpt lat="44.1663597" lon="10.3742675"><ele>631.0</ele><time>2026-04-03T10:16:11.302Z</time></trkpt><trkpt lat="44.1664382" lon="10.3742582"><ele>631.0</ele><time>2026-04-03T10:16:15.298Z</time></trkpt><trkpt lat="44.1665102" lon="10.3742256"><ele>631.0</ele><time>2026-04-03T10:16:19.306Z</time></trkpt><trkpt lat="44.1665633" lon="10.3741517"><ele>630.8571428571429</ele><time>2026-04-03T10:16:23.297Z</time></trkpt><trkpt lat="44.1665755" lon="10.3740524"><ele>630.7142857142857</ele><time>2026-04-03T10:16:27.305Z</time></trkpt><trkpt lat="44.1665706" lon="10.3739496"><ele>630.5714285714286</ele><time>2026-04-03T10:16:31.292Z</time></trkpt><trkpt lat="44.166573" lon="10.3738456"><ele>630.4285714285714</ele><time>2026-04-03T10:16:35.291Z</time></trkpt><trkpt lat="44.1665791" lon="10.3737397"><ele>630.2857142857142</ele><time>2026-04-03T10:16:39.314Z</time></trkpt><trkpt lat="44.1665832" lon="10.3736405"><ele>630.1428571428571</ele><time>2026-04-03T10:16:43.294Z</time></trkpt><trkpt lat="44.1666035" lon="10.3735491"><ele>630.0</ele><time>2026-04-03T10:16:47.3Z</time></trkpt><trkpt lat="44.1666599" lon="10.3734626"><ele>631.8571428571429</ele><time>2026-04-03T10:16:51.301Z</time></trkpt><trkpt lat="44.1667242" lon="10.3734393"><ele>633.7142857142858</ele><time>2026-04-03T10:16:53.312Z</time></trkpt><trkpt lat="44.1668047" lon="10.3734343"><ele>635.5714285714286</ele><time>2026-04-03T10:16:56.295Z</time></trkpt><trkpt lat="44.1668778" lon="10.3734028"><ele>637.4285714285714</ele><time>2026-04-03T10:17:01.312Z</time></trkpt><trkpt lat="44.166944" lon="10.3733791"><ele>639.2857142857143</ele><time>2026-04-03T10:17:05.305Z</time></trkpt><trkpt lat="44.167008" lon="10.3733522"><ele>641.1428571428571</ele><time>2026-04-03T10:17:09.293Z</time></trkpt><trkpt lat="44.167075" lon="10.3733366"><ele>643.0</ele><time>2026-04-03T10:17:13.296Z</time></trkpt><trkpt lat="44.1671391" lon="10.3733254"><ele>643.0</ele><time>2026-04-03T10:17:17.304Z</time></trkpt><trkpt lat="44.1672038" lon="10.3733134"><ele>643.0</ele><time>2026-04-03T10:17:21.299Z</time></trkpt><trkpt lat="44.1672713" lon="10.3732686"><ele>643.0</ele><time>2026-04-03T10:17:25.291Z</time></trkpt><trkpt lat="44.1673459" lon="10.3732364"><ele>643.0</ele><time>2026-04-03T10:17:29.306Z</time></trkpt><trkpt lat="44.1674154" lon="10.3732052"><ele>643.0</ele><time>2026-04-03T10:17:33.297Z</time></trkpt><trkpt lat="44.1674754" lon="10.3731721"><ele>643.0</ele><time>2026-04-03T10:17:37.3Z</time></trkpt><trkpt lat="44.167547" lon="10.3731336"><ele>643.0</ele><time>2026-04-03T10:17:41.29Z</time></trkpt><trkpt lat="44.1676133" lon="10.3731091"><ele>643.5714285714286</ele><time>2026-04-03T10:17:45.302Z</time></trkpt><trkpt lat="44.167682" lon="10.373075"><ele>644.1428571428572</ele><time>2026-04-03T10:17:49.299Z</time></trkpt><trkpt lat="44.1677353" lon="10.3729965"><ele>644.7142857142858</ele><time>2026-04-03T10:17:53.304Z</time></trkpt><trkpt lat="44.1677942" lon="10.3729535"><ele>645.2857142857142</ele><time>2026-04-03T10:17:57.299Z</time></trkpt><trkpt lat="44.167863" lon="10.3729772"><ele>645.8571428571429</ele><time>2026-04-03T10:18:01.304Z</time></trkpt><trkpt lat="44.1679187" lon="10.3730417"><ele>646.4285714285714</ele><time>2026-04-03T10:18:05.292Z</time></trkpt><trkpt lat="44.167949" lon="10.3731231"><ele>647.0</ele><time>2026-04-03T10:18:09.307Z</time></trkpt><trkpt lat="44.1679835" lon="10.3732004"><ele>647.0</ele><time>2026-04-03T10:18:13.29Z</time></trkpt><trkpt lat="44.1680207" lon="10.3732792"><ele>647.0</ele><time>2026-04-03T10:18:17.289Z</time></trkpt><trkpt lat="44.1680661" lon="10.3733515"><ele>647.0</ele><time>2026-04-03T10:18:21.302Z</time></trkpt><trkpt lat="44.168122" lon="10.3734229"><ele>647.0</ele><time>2026-04-03T10:18:26.3Z</time></trkpt><trkpt lat="44.1681732" lon="10.3734812"><ele>647.0</ele><time>2026-04-03T10:18:30.305Z</time></trkpt><trkpt lat="44.1682288" lon="10.3735341"><ele>647.0</ele><time>2026-04-03T10:18:34.296Z</time></trkpt><trkpt lat="44.1682899" lon="10.3735815"><ele>647.0</ele><time>2026-04-03T10:18:38.304Z</time></trkpt><trkpt lat="44.1683653" lon="10.3735738"><ele>647.8571428571429</ele><time>2026-04-03T10:18:43.293Z</time></trkpt><trkpt lat="44.168437" lon="10.3735357"><ele>648.7142857142858</ele><time>2026-04-03T10:18:47.299Z</time></trkpt><trkpt lat="44.1684946" lon="10.3734944"><ele>649.5714285714287</ele><time>2026-04-03T10:18:50.3Z</time></trkpt><trkpt lat="44.1685513" lon="10.3734434"><ele>650.4285714285714</ele><time>2026-04-03T10:18:54.3Z</time></trkpt><trkpt lat="44.1686172" lon="10.3734063"><ele>651.2857142857143</ele><time>2026-04-03T10:18:58.289Z</time></trkpt><trkpt lat="44.1686915" lon="10.373385"><ele>652.1428571428572</ele><time>2026-04-03T10:19:03.299Z</time></trkpt><trkpt lat="44.1687601" lon="10.3733708"><ele>653.0</ele><time>2026-04-03T10:19:07.31Z</time></trkpt><trkpt lat="44.1688246" lon="10.3733594"><ele>653.0000000000001</ele><time>2026-04-03T10:19:11.297Z</time></trkpt><trkpt lat="44.1688923" lon="10.3733485"><ele>653.0</ele><time>2026-04-03T10:19:15.304Z</time></trkpt><trkpt lat="44.1689569" lon="10.3733475"><ele>653.0</ele><time>2026-04-03T10:19:19.294Z</time></trkpt><trkpt lat="44.1690368" lon="10.3733466"><ele>653.0</ele><time>2026-04-03T10:19:24.301Z</time></trkpt><trkpt lat="44.1691068" lon="10.3733485"><ele>653.0</ele><time>2026-04-03T10:19:29.298Z</time></trkpt><trkpt lat="44.1691739" lon="10.3733429"><ele>653.0000000000001</ele><time>2026-04-03T10:19:33.301Z</time></trkpt><trkpt lat="44.1692429" lon="10.3733285"><ele>653.0</ele><time>2026-04-03T10:19:37.298Z</time></trkpt><trkpt lat="44.1693069" lon="10.3733163"><ele>654.1666666666666</ele><time>2026-04-03T10:19:41.304Z</time></trkpt><trkpt lat="44.1693881" lon="10.3732909"><ele>655.3333333333333</ele><time>2026-04-03T10:19:45.297Z</time></trkpt><trkpt lat="44.169462" lon="10.3732535"><ele>656.5</ele><time>2026-04-03T10:19:49.3Z</time></trkpt><trkpt lat="44.1695135" lon="10.373179"><ele>657.6666666666666</ele><time>2026-04-03T10:19:53.303Z</time></trkpt><trkpt lat="44.1694614" lon="10.3731053"><ele>658.8333333333334</ele><time>2026-04-03T10:20:00.297Z</time></trkpt><trkpt lat="44.1693937" lon="10.3730485"><ele>660.0</ele><time>2026-04-03T10:20:05.303Z</time></trkpt><trkpt lat="44.1693318" lon="10.3729917"><ele>661.7142857142858</ele><time>2026-04-03T10:20:10.3Z</time></trkpt><trkpt lat="44.1692811" lon="10.3729114"><ele>663.4285714285714</ele><time>2026-04-03T10:20:15.303Z</time></trkpt><trkpt lat="44.1692383" lon="10.3728442"><ele>665.1428571428571</ele><time>2026-04-03T10:20:19.303Z</time></trkpt><trkpt lat="44.1692048" lon="10.3727658"><ele>666.8571428571429</ele><time>2026-04-03T10:20:23.296Z</time></trkpt><trkpt lat="44.1691783" lon="10.3726676"><ele>668.5714285714286</ele><time>2026-04-03T10:20:28.301Z</time></trkpt><trkpt lat="44.1691818" lon="10.3725736"><ele>670.2857142857143</ele><time>2026-04-03T10:20:32.299Z</time></trkpt><trkpt lat="44.1692042" lon="10.3724737"><ele>672.0</ele><time>2026-04-03T10:20:37.301Z</time></trkpt><trkpt lat="44.1692698" lon="10.3724461"><ele>672.0</ele><time>2026-04-03T10:20:42.304Z</time></trkpt><trkpt lat="44.1693317" lon="10.3724731"><ele>672.0</ele><time>2026-04-03T10:20:47.31Z</time></trkpt><trkpt lat="44.1694058" lon="10.3725084"><ele>672.0</ele><time>2026-04-03T10:20:53.292Z</time></trkpt><trkpt lat="44.1694737" lon="10.3725174"><ele>672.0</ele><time>2026-04-03T10:20:58.29Z</time></trkpt><trkpt lat="44.1695418" lon="10.3725134"><ele>672.0</ele><time>2026-04-03T10:21:04.303Z</time></trkpt><trkpt lat="44.1696057" lon="10.3725027"><ele>672.0</ele><time>2026-04-03T10:21:09.3Z</time></trkpt><trkpt lat="44.1696702" lon="10.372506"><ele>672.0</ele><time>2026-04-03T10:21:14.302Z</time></trkpt><trkpt lat="44.169745" lon="10.3725108"><ele>672.0</ele><time>2026-04-03T10:21:19.299Z</time></trkpt><trkpt lat="44.169812" lon="10.3725001"><ele>672.0</ele><time>2026-04-03T10:21:24.293Z</time></trkpt><trkpt lat="44.1698699" lon="10.3724638"><ele>672.0</ele><time>2026-04-03T10:21:28.286Z</time></trkpt><trkpt lat="44.1699165" lon="10.372388"><ele>672.0</ele><time>2026-04-03T10:21:33.301Z</time></trkpt><trkpt lat="44.1698862" lon="10.3722927"><ele>672.0</ele><time>2026-04-03T10:21:39.3Z</time></trkpt><trkpt lat="44.1698342" lon="10.3722271"><ele>672.0</ele><time>2026-04-03T10:21:44.295Z</time></trkpt><trkpt lat="44.1697815" lon="10.3721739"><ele>672.0</ele><time>2026-04-03T10:21:49.297Z</time></trkpt><trkpt lat="44.1697411" lon="10.3721044"><ele>672.7142857142857</ele><time>2026-04-03T10:21:54.299Z</time></trkpt><trkpt lat="44.1697587" lon="10.3720053"><ele>673.4285714285714</ele><time>2026-04-03T10:22:00.196Z</time></trkpt><trkpt lat="44.1698002" lon="10.3719228"><ele>674.1428571428571</ele><time>2026-04-03T10:22:05.305Z</time></trkpt><trkpt lat="44.1698577" lon="10.3718728"><ele>674.8571428571429</ele><time>2026-04-03T10:22:10.311Z</time></trkpt><trkpt lat="44.1699269" lon="10.371852"><ele>675.5714285714286</ele><time>2026-04-03T10:22:16.295Z</time></trkpt><trkpt lat="44.1699886" lon="10.371827"><ele>676.2857142857142</ele><time>2026-04-03T10:22:21.299Z</time></trkpt><trkpt lat="44.1700602" lon="10.3718291"><ele>677.0</ele><time>2026-04-03T10:22:27.293Z</time></trkpt><trkpt lat="44.170129" lon="10.3718257"><ele>679.4285714285713</ele><time>2026-04-03T10:22:32.301Z</time></trkpt><trkpt lat="44.1702006" lon="10.3718084"><ele>681.8571428571429</ele><time>2026-04-03T10:22:36.304Z</time></trkpt><trkpt lat="44.1702678" lon="10.371817"><ele>684.2857142857142</ele><time>2026-04-03T10:22:41.301Z</time></trkpt><trkpt lat="44.1703334" lon="10.3718505"><ele>686.7142857142857</ele><time>2026-04-03T10:22:47.291Z</time></trkpt><trkpt lat="44.1703922" lon="10.3718853"><ele>689.1428571428571</ele><time>2026-04-03T10:22:51.293Z</time></trkpt><trkpt lat="44.1704515" lon="10.3719281"><ele>691.5714285714286</ele><time>2026-04-03T10:22:55.306Z</time></trkpt><trkpt lat="44.170511" lon="10.3719625"><ele>694.0</ele><time>2026-04-03T10:22:59.305Z</time></trkpt><trkpt lat="44.1705772" lon="10.3720021"><ele>694.0</ele><time>2026-04-03T10:23:04.294Z</time></trkpt><trkpt lat="44.1706462" lon="10.3720435"><ele>694.0</ele><time>2026-04-03T10:23:09.299Z</time></trkpt><trkpt lat="44.1707134" lon="10.3720787"><ele>694.0</ele><time>2026-04-03T10:23:14.306Z</time></trkpt><trkpt lat="44.1707782" lon="10.3721125"><ele>694.0</ele><time>2026-04-03T10:23:19.284Z</time></trkpt><trkpt lat="44.1708432" lon="10.3721331"><ele>694.0</ele><time>2026-04-03T10:23:24.295Z</time></trkpt><trkpt lat="44.1709173" lon="10.3721599"><ele>694.0</ele><time>2026-04-03T10:23:30.29Z</time></trkpt><trkpt lat="44.170982" lon="10.3721595"><ele>694.0</ele><time>2026-04-03T10:23:35.293Z</time></trkpt><trkpt lat="44.1710453" lon="10.3721071"><ele>695.5714285714286</ele><time>2026-04-03T10:23:40.294Z</time></trkpt><trkpt lat="44.1710727" lon="10.3720224"><ele>697.1428571428571</ele><time>2026-04-03T10:23:45.287Z</time></trkpt><trkpt lat="44.1710762" lon="10.37193"><ele>698.7142857142857</ele><time>2026-04-03T10:23:50.302Z</time></trkpt><trkpt lat="44.1710664" lon="10.3718352"><ele>700.2857142857142</ele><time>2026-04-03T10:23:55.294Z</time></trkpt><trkpt lat="44.1710557" lon="10.3717374"><ele>701.8571428571429</ele><time>2026-04-03T10:24:00.299Z</time></trkpt><trkpt lat="44.1710551" lon="10.3716428"><ele>703.4285714285713</ele><time>2026-04-03T10:24:05.289Z</time></trkpt><trkpt lat="44.1710642" lon="10.37154"><ele>705.0</ele><time>2026-04-03T10:24:10.295Z</time></trkpt><trkpt lat="44.1710956" lon="10.3714508"><ele>706.7142857142857</ele><time>2026-04-03T10:24:14.299Z</time></trkpt><trkpt lat="44.1711266" lon="10.3713563"><ele>708.4285714285714</ele><time>2026-04-03T10:24:19.302Z</time></trkpt><trkpt lat="44.171156" lon="10.3712777"><ele>710.1428571428571</ele><time>2026-04-03T10:24:24.295Z</time></trkpt><trkpt lat="44.1711849" lon="10.3711935"><ele>711.8571428571429</ele><time>2026-04-03T10:24:29.298Z</time></trkpt><trkpt lat="44.1712059" lon="10.3711055"><ele>713.5714285714286</ele><time>2026-04-03T10:24:33.32Z</time></trkpt><trkpt lat="44.1712454" lon="10.3710157"><ele>715.2857142857142</ele><time>2026-04-03T10:24:37.295Z</time></trkpt><trkpt lat="44.171281" lon="10.3709409"><ele>717.0</ele><time>2026-04-03T10:24:41.297Z</time></trkpt><trkpt lat="44.1713166" lon="10.3708573"><ele>717.0</ele><time>2026-04-03T10:24:46.294Z</time></trkpt><trkpt lat="44.1713531" lon="10.3707827"><ele>717.0</ele><time>2026-04-03T10:24:50.296Z</time></trkpt><trkpt lat="44.1713992" lon="10.3707182"><ele>717.0</ele><time>2026-04-03T10:24:55.298Z</time></trkpt><trkpt lat="44.171471" lon="10.3707271"><ele>717.0</ele><time>2026-04-03T10:25:00.319Z</time></trkpt><trkpt lat="44.1715189" lon="10.370793"><ele>717.0</ele><time>2026-04-03T10:25:05.306Z</time></trkpt><trkpt lat="44.1715341" lon="10.3708874"><ele>717.0</ele><time>2026-04-03T10:25:10.295Z</time></trkpt><trkpt lat="44.1715589" lon="10.3709772"><ele>717.0</ele><time>2026-04-03T10:25:15.301Z</time></trkpt><trkpt lat="44.1716017" lon="10.3710555"><ele>718.1428571428571</ele><time>2026-04-03T10:25:19.294Z</time></trkpt><trkpt lat="44.1716413" lon="10.3711291"><ele>719.2857142857142</ele><time>2026-04-03T10:25:23.3Z</time></trkpt><trkpt lat="44.1716933" lon="10.37119"><ele>720.4285714285714</ele><time>2026-04-03T10:25:28.301Z</time></trkpt><trkpt lat="44.1717516" lon="10.3712374"><ele>721.5714285714286</ele><time>2026-04-03T10:25:33.305Z</time></trkpt><trkpt lat="44.1718218" lon="10.3712562"><ele>722.7142857142858</ele><time>2026-04-03T10:25:38.302Z</time></trkpt><trkpt lat="44.1718901" lon="10.3712207"><ele>723.8571428571429</ele><time>2026-04-03T10:25:43.307Z</time></trkpt><trkpt lat="44.1719656" lon="10.371186"><ele>725.0</ele><time>2026-04-03T10:25:48.287Z</time></trkpt><trkpt lat="44.1720289" lon="10.3711706"><ele>725.0</ele><time>2026-04-03T10:25:52.299Z</time></trkpt><trkpt lat="44.172092" lon="10.3711481"><ele>725.0</ele><time>2026-04-03T10:25:55.305Z</time></trkpt><trkpt lat="44.1721604" lon="10.3711331"><ele>725.0</ele><time>2026-04-03T10:25:57.299Z</time></trkpt><trkpt lat="44.172228" lon="10.3711201"><ele>725.0</ele><time>2026-04-03T10:25:59.257Z</time></trkpt><trkpt lat="44.1723283" lon="10.3711319"><ele>725.0</ele><time>2026-04-03T10:26:01.302Z</time></trkpt><trkpt lat="44.1723738" lon="10.3712132"><ele>725.0</ele><time>2026-04-03T10:26:04.303Z</time></trkpt><trkpt lat="44.1723138" lon="10.3712578"><ele>725.0</ele><time>2026-04-03T10:26:11.307Z</time></trkpt><trkpt lat="44.172257" lon="10.3713044"><ele>724.8571428571429</ele><time>2026-04-03T10:26:17.299Z</time></trkpt><trkpt lat="44.1722192" lon="10.3713917"><ele>724.7142857142858</ele><time>2026-04-03T10:26:22.303Z</time></trkpt><trkpt lat="44.1722153" lon="10.3714794"><ele>724.5714285714286</ele><time>2026-04-03T10:26:26.297Z</time></trkpt><trkpt lat="44.1722602" lon="10.3715624"><ele>724.4285714285714</ele><time>2026-04-03T10:26:30.294Z</time></trkpt><trkpt lat="44.1723146" lon="10.3716353"><ele>724.2857142857142</ele><time>2026-04-03T10:26:35.203Z</time></trkpt><trkpt lat="44.1723766" lon="10.3716632"><ele>724.1428571428571</ele><time>2026-04-03T10:26:40.32Z</time></trkpt><trkpt lat="44.1724482" lon="10.3716975"><ele>724.0</ele><time>2026-04-03T10:26:46.299Z</time></trkpt><trkpt lat="44.1724987" lon="10.3717552"><ele>724.0</ele><time>2026-04-03T10:26:50.303Z</time></trkpt><trkpt lat="44.1725536" lon="10.3718212"><ele>724.0</ele><time>2026-04-03T10:26:56.294Z</time></trkpt><trkpt lat="44.1726212" lon="10.3718554"><ele>724.0</ele><time>2026-04-03T10:27:01.296Z</time></trkpt><trkpt lat="44.1726909" lon="10.3718868"><ele>724.0</ele><time>2026-04-03T10:27:06.305Z</time></trkpt><trkpt lat="44.172754" lon="10.3719161"><ele>724.0</ele><time>2026-04-03T10:27:11.292Z</time></trkpt><trkpt lat="44.1728185" lon="10.3719323"><ele>724.0</ele><time>2026-04-03T10:27:15.306Z</time></trkpt><trkpt lat="44.1728912" lon="10.3719651"><ele>724.0</ele><time>2026-04-03T10:27:21.294Z</time></trkpt><trkpt lat="44.1729382" lon="10.3720266"><ele>724.0</ele><time>2026-04-03T10:27:25.289Z</time></trkpt><trkpt lat="44.1729945" lon="10.372068"><ele>724.0</ele><time>2026-04-03T10:27:30.292Z</time></trkpt><trkpt lat="44.1730609" lon="10.3720889"><ele>724.0</ele><time>2026-04-03T10:27:36.3Z</time></trkpt><trkpt lat="44.173129" lon="10.3721066"><ele>724.0</ele><time>2026-04-03T10:27:41.298Z</time></trkpt><trkpt lat="44.1731965" lon="10.3721319"><ele>724.0</ele><time>2026-04-03T10:27:46.301Z</time></trkpt><trkpt lat="44.1732686" lon="10.3721396"><ele>724.0</ele><time>2026-04-03T10:27:51.303Z</time></trkpt><trkpt lat="44.1733318" lon="10.3721401"><ele>724.0</ele><time>2026-04-03T10:27:56.302Z</time></trkpt><trkpt lat="44.1733991" lon="10.37212"><ele>726.5714285714286</ele><time>2026-04-03T10:28:02.296Z</time></trkpt><trkpt lat="44.1734671" lon="10.3721069"><ele>729.1428571428571</ele><time>2026-04-03T10:28:08.295Z</time></trkpt><trkpt lat="44.1735301" lon="10.3720981"><ele>731.7142857142858</ele><time>2026-04-03T10:28:13.297Z</time></trkpt><trkpt lat="44.1736039" lon="10.3720986"><ele>734.2857142857142</ele><time>2026-04-03T10:28:19.301Z</time></trkpt><trkpt lat="44.1736753" lon="10.3720837"><ele>736.8571428571429</ele><time>2026-04-03T10:28:25.298Z</time></trkpt><trkpt lat="44.1737445" lon="10.3720512"><ele>739.4285714285714</ele><time>2026-04-03T10:28:30.295Z</time></trkpt><trkpt lat="44.1737979" lon="10.3719897"><ele>742.0</ele><time>2026-04-03T10:28:35.297Z</time></trkpt><trkpt lat="44.1738647" lon="10.3719519"><ele>742.0</ele><time>2026-04-03T10:28:42.288Z</time></trkpt><trkpt lat="44.1739325" lon="10.3719315"><ele>742.0</ele><time>2026-04-03T10:28:48.3Z</time></trkpt><trkpt lat="44.1739954" lon="10.3718914"><ele>742.0</ele><time>2026-04-03T10:28:53.291Z</time></trkpt><trkpt lat="44.1740663" lon="10.3718567"><ele>742.0</ele><time>2026-04-03T10:28:58.288Z</time></trkpt><trkpt lat="44.1741335" lon="10.3718378"><ele>742.0</ele><time>2026-04-03T10:29:03.298Z</time></trkpt><trkpt lat="44.1742018" lon="10.3718223"><ele>742.0</ele><time>2026-04-03T10:29:07.316Z</time></trkpt><trkpt lat="44.1742621" lon="10.3717629"><ele>742.0</ele><time>2026-04-03T10:29:13.29Z</time></trkpt><trkpt lat="44.17432" lon="10.3717128"><ele>744.0</ele><time>2026-04-03T10:29:18.297Z</time></trkpt><trkpt lat="44.1743775" lon="10.3716507"><ele>746.0</ele><time>2026-04-03T10:29:24.297Z</time></trkpt><trkpt lat="44.1744543" lon="10.3716505"><ele>748.0</ele><time>2026-04-03T10:29:31.302Z</time></trkpt><trkpt lat="44.1745211" lon="10.3716257"><ele>750.0</ele><time>2026-04-03T10:29:36.286Z</time></trkpt><trkpt lat="44.1745773" lon="10.3715744"><ele>752.0</ele><time>2026-04-03T10:29:40.303Z</time></trkpt><trkpt lat="44.1746192" lon="10.3715035"><ele>754.0</ele><time>2026-04-03T10:29:44.297Z</time></trkpt><trkpt lat="44.1746789" lon="10.3714431"><ele>756.0</ele><time>2026-04-03T10:29:49.297Z</time></trkpt><trkpt lat="44.1747347" lon="10.3713731"><ele>757.2857142857143</ele><time>2026-04-03T10:29:54.298Z</time></trkpt><trkpt lat="44.1747839" lon="10.3713141"><ele>758.5714285714286</ele><time>2026-04-03T10:29:59.299Z</time></trkpt><trkpt lat="44.1748458" lon="10.3712689"><ele>759.8571428571429</ele><time>2026-04-03T10:30:05.298Z</time></trkpt><trkpt lat="44.1749148" lon="10.3712913"><ele>761.1428571428571</ele><time>2026-04-03T10:30:09.309Z</time></trkpt><trkpt lat="44.1749141" lon="10.371392"><ele>762.4285714285714</ele><time>2026-04-03T10:30:16.303Z</time></trkpt><trkpt lat="44.174912" lon="10.371482"><ele>763.7142857142858</ele><time>2026-04-03T10:30:21.298Z</time></trkpt><trkpt lat="44.1749461" lon="10.3715558"><ele>765.0</ele><time>2026-04-03T10:30:25.304Z</time></trkpt><trkpt lat="44.1749878" lon="10.3716339"><ele>765.2857142857143</ele><time>2026-04-03T10:30:30.306Z</time></trkpt><trkpt lat="44.1750298" lon="10.3717056"><ele>765.5714285714286</ele><time>2026-04-03T10:30:35.302Z</time></trkpt><trkpt lat="44.1750817" lon="10.371764"><ele>765.8571428571429</ele><time>2026-04-03T10:30:41.296Z</time></trkpt><trkpt lat="44.1751415" lon="10.3718116"><ele>766.1428571428571</ele><time>2026-04-03T10:30:47.299Z</time></trkpt><trkpt lat="44.1752048" lon="10.3718535"><ele>766.4285714285714</ele><time>2026-04-03T10:30:52.302Z</time></trkpt><trkpt lat="44.1752775" lon="10.3718772"><ele>766.7142857142858</ele><time>2026-04-03T10:30:57.295Z</time></trkpt><trkpt lat="44.1753464" lon="10.3719094"><ele>767.0</ele><time>2026-04-03T10:31:03.301Z</time></trkpt><trkpt lat="44.1754203" lon="10.371923"><ele>767.0</ele><time>2026-04-03T10:31:09.303Z</time></trkpt><trkpt lat="44.175485" lon="10.3719507"><ele>767.0</ele><time>2026-04-03T10:31:14.288Z</time></trkpt><trkpt lat="44.1755532" lon="10.3719631"><ele>767.0</ele><time>2026-04-03T10:31:20.311Z</time></trkpt><trkpt lat="44.1756293" lon="10.371982"><ele>767.0</ele><time>2026-04-03T10:31:25.295Z</time></trkpt><trkpt lat="44.1757042" lon="10.3719959"><ele>767.0</ele><time>2026-04-03T10:31:30.293Z</time></trkpt><trkpt lat="44.1757868" lon="10.37203"><ele>767.0</ele><time>2026-04-03T10:31:34.3Z</time></trkpt><trkpt lat="44.1758473" lon="10.3720979"><ele>766.3333333333333</ele><time>2026-04-03T10:31:37.303Z</time></trkpt><trkpt lat="44.1759005" lon="10.3721844"><ele>765.6666666666666</ele><time>2026-04-03T10:31:40.291Z</time></trkpt><trkpt lat="44.1759489" lon="10.372259"><ele>765.0</ele><time>2026-04-03T10:31:43.299Z</time></trkpt><trkpt lat="44.1759994" lon="10.3723155"><ele>764.3333333333334</ele><time>2026-04-03T10:31:46.299Z</time></trkpt><trkpt lat="44.1760716" lon="10.3723487"><ele>763.6666666666667</ele><time>2026-04-03T10:31:51.302Z</time></trkpt><trkpt lat="44.1761471" lon="10.3723507"><ele>763.0</ele><time>2026-04-03T10:31:56.299Z</time></trkpt><trkpt lat="44.1762277" lon="10.3723462"><ele>763.0</ele><time>2026-04-03T10:32:00.309Z</time></trkpt><trkpt lat="44.1762959" lon="10.372386"><ele>763.0</ele><time>2026-04-03T10:32:04.294Z</time></trkpt><trkpt lat="44.1763514" lon="10.3724388"><ele>763.0</ele><time>2026-04-03T10:32:08.311Z</time></trkpt><trkpt lat="44.1764285" lon="10.3725003"><ele>763.0</ele><time>2026-04-03T10:32:56.288Z</time></trkpt><trkpt lat="44.1764852" lon="10.3725541"><ele>763.0</ele><time>2026-04-03T10:33:01.287Z</time></trkpt><trkpt lat="44.1765483" lon="10.3725886"><ele>763.0</ele><time>2026-04-03T10:33:06.291Z</time></trkpt><trkpt lat="44.1766043" lon="10.3726573"><ele>763.0</ele><time>2026-04-03T10:33:11.3Z</time></trkpt><trkpt lat="44.1766748" lon="10.372698"><ele>766.0</ele><time>2026-04-03T10:33:16.309Z</time></trkpt><trkpt lat="44.1767301" lon="10.3727552"><ele>769.0</ele><time>2026-04-03T10:33:20.292Z</time></trkpt><trkpt lat="44.1767887" lon="10.3728165"><ele>772.0</ele><time>2026-04-03T10:33:25.293Z</time></trkpt><trkpt lat="44.1768578" lon="10.3728644"><ele>775.0</ele><time>2026-04-03T10:33:30.314Z</time></trkpt><trkpt lat="44.1769248" lon="10.3729056"><ele>778.0</ele><time>2026-04-03T10:33:35.29Z</time></trkpt><trkpt lat="44.1769945" lon="10.3729205"><ele>781.0</ele><time>2026-04-03T10:33:40.302Z</time></trkpt><trkpt lat="44.1770634" lon="10.3729334"><ele>784.0</ele><time>2026-04-03T10:33:45.288Z</time></trkpt><trkpt lat="44.1771326" lon="10.3729488"><ele>783.9999999999999</ele><time>2026-04-03T10:33:49.297Z</time></trkpt><trkpt lat="44.1772038" lon="10.3730059"><ele>784.0</ele><time>2026-04-03T10:33:53.298Z</time></trkpt><trkpt lat="44.1772692" lon="10.37305"><ele>784.0</ele><time>2026-04-03T10:33:55.311Z</time></trkpt><trkpt lat="44.1773491" lon="10.373062"><ele>784.0</ele><time>2026-04-03T10:33:57.307Z</time></trkpt><trkpt lat="44.1774363" lon="10.373033"><ele>783.9999999999999</ele><time>2026-04-03T10:33:59.295Z</time></trkpt><trkpt lat="44.1775081" lon="10.3730389"><ele>784.0</ele><time>2026-04-03T10:34:01.303Z</time></trkpt><trkpt lat="44.1775709" lon="10.3730744"><ele>783.0</ele><time>2026-04-03T10:34:05.288Z</time></trkpt><trkpt lat="44.1776348" lon="10.3731166"><ele>782.0</ele><time>2026-04-03T10:34:09.292Z</time></trkpt><trkpt lat="44.1777041" lon="10.3731657"><ele>781.0</ele><time>2026-04-03T10:34:14.293Z</time></trkpt><trkpt lat="44.1777673" lon="10.3731789"><ele>780.0</ele><time>2026-04-03T10:34:18.299Z</time></trkpt><trkpt lat="44.1778369" lon="10.3732165"><ele>779.0</ele><time>2026-04-03T10:34:23.3Z</time></trkpt><trkpt lat="44.177898" lon="10.3732488"><ele>778.0</ele><time>2026-04-03T10:34:29.296Z</time></trkpt><trkpt lat="44.1779721" lon="10.3732634"><ele>777.0</ele><time>2026-04-03T10:34:33.302Z</time></trkpt><trkpt lat="44.1780682" lon="10.373294"><ele>777.0</ele><time>2026-04-03T10:34:36.289Z</time></trkpt><trkpt lat="44.1781521" lon="10.3733092"><ele>777.0</ele><time>2026-04-03T10:34:38.297Z</time></trkpt><trkpt lat="44.1782294" lon="10.3733055"><ele>777.0</ele><time>2026-04-03T10:34:40.294Z</time></trkpt><trkpt lat="44.1783147" lon="10.3733154"><ele>777.0</ele><time>2026-04-03T10:34:42.304Z</time></trkpt><trkpt lat="44.1783634" lon="10.3733879"><ele>777.0</ele><time>2026-04-03T10:34:45.289Z</time></trkpt><trkpt lat="44.1783768" lon="10.3734766"><ele>777.0</ele><time>2026-04-03T10:34:49.284Z</time></trkpt><trkpt lat="44.1783879" lon="10.3735719"><ele>777.5714285714286</ele><time>2026-04-03T10:34:53.296Z</time></trkpt><trkpt lat="44.1783957" lon="10.3736727"><ele>778.1428571428571</ele><time>2026-04-03T10:34:57.289Z</time></trkpt><trkpt lat="44.1784322" lon="10.3737544"><ele>778.7142857142858</ele><time>2026-04-03T10:35:01.315Z</time></trkpt><trkpt lat="44.1784617" lon="10.3738528"><ele>779.2857142857142</ele><time>2026-04-03T10:35:06.289Z</time></trkpt><trkpt lat="44.1784972" lon="10.373932"><ele>779.8571428571429</ele><time>2026-04-03T10:35:10.29Z</time></trkpt><trkpt lat="44.1785371" lon="10.3740002"><ele>780.4285714285714</ele><time>2026-04-03T10:35:14.288Z</time></trkpt><trkpt lat="44.1785989" lon="10.3740614"><ele>781.0</ele><time>2026-04-03T10:35:19.29Z</time></trkpt><trkpt lat="44.1786552" lon="10.3741167"><ele>780.9999999999999</ele><time>2026-04-03T10:35:22.302Z</time></trkpt><trkpt lat="44.1786977" lon="10.3741929"><ele>781.0</ele><time>2026-04-03T10:35:26.295Z</time></trkpt><trkpt lat="44.1787396" lon="10.3742637"><ele>781.0</ele><time>2026-04-03T10:35:31.296Z</time></trkpt><trkpt lat="44.1787909" lon="10.3743359"><ele>781.0</ele><time>2026-04-03T10:35:35.293Z</time></trkpt><trkpt lat="44.1788717" lon="10.3744194"><ele>780.9999999999999</ele><time>2026-04-03T10:35:38.29Z</time></trkpt><trkpt lat="44.1789638" lon="10.374444"><ele>781.0</ele><time>2026-04-03T10:35:40.292Z</time></trkpt><trkpt lat="44.1790815" lon="10.3744566"><ele>783.0</ele><time>2026-04-03T10:35:42.302Z</time></trkpt><trkpt lat="44.1791806" lon="10.3744518"><ele>785.0</ele><time>2026-04-03T10:35:44.296Z</time></trkpt><trkpt lat="44.1792878" lon="10.3744603"><ele>787.0</ele><time>2026-04-03T10:35:46.292Z</time></trkpt><trkpt lat="44.1793798" lon="10.3744469"><ele>789.0</ele><time>2026-04-03T10:35:48.299Z</time></trkpt><trkpt lat="44.1794534" lon="10.3744285"><ele>791.0</ele><time>2026-04-03T10:35:50.289Z</time></trkpt><trkpt lat="44.1795319" lon="10.3743696"><ele>791.0</ele><time>2026-04-03T10:35:53.301Z</time></trkpt><trkpt lat="44.1796197" lon="10.3742312"><ele>791.0</ele><time>2026-04-03T10:35:55.3Z</time></trkpt><trkpt lat="44.1796788" lon="10.3740984"><ele>791.0</ele><time>2026-04-03T10:35:57.298Z</time></trkpt><trkpt lat="44.1797365" lon="10.3740169"><ele>791.0</ele><time>2026-04-03T10:35:59.291Z</time></trkpt><trkpt lat="44.1798049" lon="10.3739621"><ele>791.0</ele><time>2026-04-03T10:36:04.304Z</time></trkpt><trkpt lat="44.1798675" lon="10.3739449"><ele>790.5000000000001</ele><time>2026-04-03T10:36:08.303Z</time></trkpt><trkpt lat="44.1799343" lon="10.3739669"><ele>790.0</ele><time>2026-04-03T10:36:12.292Z</time></trkpt><trkpt lat="44.1799984" lon="10.3740334"><ele>789.5</ele><time>2026-04-03T10:36:17.298Z</time></trkpt><trkpt lat="44.1800554" lon="10.3740886"><ele>789.0</ele><time>2026-04-03T10:36:22.29Z</time></trkpt><trkpt lat="44.1801249" lon="10.3741206"><ele>788.5000000000001</ele><time>2026-04-03T10:36:43.296Z</time></trkpt><trkpt lat="44.1801853" lon="10.3741999"><ele>788.0</ele><time>2026-04-03T10:36:52.286Z</time></trkpt><trkpt lat="44.1802636" lon="10.3742766"><ele>788.0</ele><time>2026-04-03T10:36:55.31Z</time></trkpt><trkpt lat="44.1803384" lon="10.3743293"><ele>788.0</ele><time>2026-04-03T10:36:57.302Z</time></trkpt><trkpt lat="44.1804285" lon="10.3743731"><ele>788.0</ele><time>2026-04-03T10:36:59.3Z</time></trkpt><trkpt lat="44.1804918" lon="10.3744053"><ele>788.0</ele><time>2026-04-03T10:37:01.297Z</time></trkpt><trkpt lat="44.1805161" lon="10.3744929"><ele>788.0</ele><time>2026-04-03T10:37:06.296Z</time></trkpt><trkpt lat="44.1804981" lon="10.3745778"><ele>788.0</ele><time>2026-04-03T10:37:11.3Z</time></trkpt><trkpt lat="44.180484" lon="10.3746722"><ele>788.0</ele><time>2026-04-03T10:37:16.296Z</time></trkpt><trkpt lat="44.1804739" lon="10.374759"><ele>787.1428571428571</ele><time>2026-04-03T10:37:20.292Z</time></trkpt><trkpt lat="44.1804521" lon="10.3748486"><ele>786.2857142857143</ele><time>2026-04-03T10:37:24.312Z</time></trkpt><trkpt lat="44.1804402" lon="10.3749503"><ele>785.4285714285713</ele><time>2026-04-03T10:37:29.295Z</time></trkpt><trkpt lat="44.1804496" lon="10.3750373"><ele>784.5714285714286</ele><time>2026-04-03T10:37:33.307Z</time></trkpt><trkpt lat="44.1804417" lon="10.3751271"><ele>783.7142857142857</ele><time>2026-04-03T10:37:37.292Z</time></trkpt><trkpt lat="44.1804451" lon="10.3752354"><ele>782.8571428571428</ele><time>2026-04-03T10:37:42.301Z</time></trkpt><trkpt lat="44.1804592" lon="10.3753264"><ele>782.0</ele><time>2026-04-03T10:37:46.296Z</time></trkpt><trkpt lat="44.1804808" lon="10.3754111"><ele>781.9999999999999</ele><time>2026-04-03T10:37:50.302Z</time></trkpt><trkpt lat="44.1805498" lon="10.3754397"><ele>782.0</ele><time>2026-04-03T10:37:56.294Z</time></trkpt><trkpt lat="44.1806172" lon="10.3754526"><ele>782.0</ele><time>2026-04-03T10:38:01.305Z</time></trkpt><trkpt lat="44.1806819" lon="10.375465"><ele>782.0</ele><time>2026-04-03T10:38:07.299Z</time></trkpt><trkpt lat="44.1807491" lon="10.3754964"><ele>782.0</ele><time>2026-04-03T10:38:12.3Z</time></trkpt><trkpt lat="44.1808148" lon="10.3755154"><ele>781.9999999999999</ele><time>2026-04-03T10:38:16.287Z</time></trkpt><trkpt lat="44.1808773" lon="10.3755555"><ele>782.0</ele><time>2026-04-03T10:38:20.304Z</time></trkpt><trkpt lat="44.1809382" lon="10.3755994"><ele>783.8571428571428</ele><time>2026-04-03T10:38:24.286Z</time></trkpt><trkpt lat="44.1809918" lon="10.3756497"><ele>785.7142857142857</ele><time>2026-04-03T10:38:28.323Z</time></trkpt><trkpt lat="44.1810524" lon="10.3756972"><ele>787.5714285714286</ele><time>2026-04-03T10:38:32.294Z</time></trkpt><trkpt lat="44.1811161" lon="10.3757469"><ele>789.4285714285713</ele><time>2026-04-03T10:38:36.3Z</time></trkpt><trkpt lat="44.1811788" lon="10.375793"><ele>791.2857142857143</ele><time>2026-04-03T10:38:40.298Z</time></trkpt><trkpt lat="44.1812298" lon="10.3758524"><ele>793.1428571428571</ele><time>2026-04-03T10:38:44.304Z</time></trkpt><trkpt lat="44.1812889" lon="10.3758884"><ele>795.0</ele><time>2026-04-03T10:38:48.301Z</time></trkpt><trkpt lat="44.1813431" lon="10.3759528"><ele>795.0</ele><time>2026-04-03T10:38:52.295Z</time></trkpt><trkpt lat="44.1813966" lon="10.3760413"><ele>795.0</ele><time>2026-04-03T10:38:56.301Z</time></trkpt><trkpt lat="44.1814371" lon="10.3761422"><ele>795.0</ele><time>2026-04-03T10:39:00.297Z</time></trkpt><trkpt lat="44.1814242" lon="10.3762382"><ele>795.0</ele><time>2026-04-03T10:39:04.308Z</time></trkpt><trkpt lat="44.1813641" lon="10.3762841"><ele>795.0</ele><time>2026-04-03T10:39:09.299Z</time></trkpt><trkpt lat="44.1812973" lon="10.3762813"><ele>795.0</ele><time>2026-04-03T10:39:14.298Z</time></trkpt><trkpt lat="44.1812321" lon="10.3762861"><ele>795.0</ele><time>2026-04-03T10:39:19.298Z</time></trkpt><trkpt lat="44.1811688" lon="10.3763137"><ele>795.0</ele><time>2026-04-03T10:39:24.294Z</time></trkpt><trkpt lat="44.1811027" lon="10.37635"><ele>795.0</ele><time>2026-04-03T10:39:30.304Z</time></trkpt><trkpt lat="44.1810578" lon="10.3764167"><ele>795.0</ele><time>2026-04-03T10:39:36.298Z</time></trkpt><trkpt lat="44.1810106" lon="10.3765002"><ele>795.0</ele><time>2026-04-03T10:39:42.297Z</time></trkpt><trkpt lat="44.1809759" lon="10.3765792"><ele>795.0</ele><time>2026-04-03T10:39:47.291Z</time></trkpt><trkpt lat="44.180928" lon="10.3766532"><ele>795.0</ele><time>2026-04-03T10:39:52.287Z</time></trkpt><trkpt lat="44.1809631" lon="10.3767319"><ele>795.0</ele><time>2026-04-03T10:40:00.294Z</time></trkpt><trkpt lat="44.1810357" lon="10.3767235"><ele>795.7142857142858</ele><time>2026-04-03T10:40:06.296Z</time></trkpt><trkpt lat="44.1811102" lon="10.3767191"><ele>796.4285714285714</ele><time>2026-04-03T10:40:11.288Z</time></trkpt><trkpt lat="44.1811872" lon="10.3767107"><ele>797.1428571428571</ele><time>2026-04-03T10:40:16.296Z</time></trkpt><trkpt lat="44.1812486" lon="10.3766893"><ele>797.8571428571429</ele><time>2026-04-03T10:40:20.324Z</time></trkpt><trkpt lat="44.1813151" lon="10.3766763"><ele>798.5714285714286</ele><time>2026-04-03T10:40:24.295Z</time></trkpt><trkpt lat="44.18139" lon="10.3766644"><ele>799.2857142857143</ele><time>2026-04-03T10:40:29.289Z</time></trkpt><trkpt lat="44.1814639" lon="10.3766573"><ele>800.0</ele><time>2026-04-03T10:40:34.3Z</time></trkpt><trkpt lat="44.1815281" lon="10.3766457"><ele>801.8571428571429</ele><time>2026-04-03T10:40:38.303Z</time></trkpt><trkpt lat="44.1815914" lon="10.3766365"><ele>803.7142857142858</ele><time>2026-04-03T10:40:42.295Z</time></trkpt><trkpt lat="44.1816659" lon="10.3766105"><ele>805.5714285714287</ele><time>2026-04-03T10:40:47.31Z</time></trkpt><trkpt lat="44.1817383" lon="10.376591"><ele>807.4285714285714</ele><time>2026-04-03T10:40:52.296Z</time></trkpt><trkpt lat="44.1818027" lon="10.3765966"><ele>809.2857142857142</ele><time>2026-04-03T10:40:56.289Z</time></trkpt><trkpt lat="44.1818792" lon="10.3766147"><ele>811.1428571428572</ele><time>2026-04-03T10:41:01.296Z</time></trkpt><trkpt lat="44.181951" lon="10.37664"><ele>813.0</ele><time>2026-04-03T10:41:06.303Z</time></trkpt><trkpt lat="44.1820271" lon="10.3766353"><ele>813.0</ele><time>2026-04-03T10:41:11.3Z</time></trkpt><trkpt lat="44.1821025" lon="10.3766385"><ele>813.0</ele><time>2026-04-03T10:41:16.289Z</time></trkpt><trkpt lat="44.1821653" lon="10.3766551"><ele>813.0</ele><time>2026-04-03T10:41:20.301Z</time></trkpt><trkpt lat="44.1822302" lon="10.3766801"><ele>813.0</ele><time>2026-04-03T10:41:24.302Z</time></trkpt><trkpt lat="44.1822943" lon="10.3766793"><ele>813.0</ele><time>2026-04-03T10:41:28.295Z</time></trkpt><trkpt lat="44.1823631" lon="10.3766752"><ele>813.0</ele><time>2026-04-03T10:41:32.295Z</time></trkpt><trkpt lat="44.18243" lon="10.376701"><ele>813.0</ele><time>2026-04-03T10:41:36.301Z</time></trkpt><trkpt lat="44.1824991" lon="10.3767103"><ele>814.5714285714286</ele><time>2026-04-03T10:41:40.295Z</time></trkpt><trkpt lat="44.1825632" lon="10.3767083"><ele>816.1428571428571</ele><time>2026-04-03T10:41:44.297Z</time></trkpt><trkpt lat="44.1826316" lon="10.3767114"><ele>817.7142857142857</ele><time>2026-04-03T10:41:48.294Z</time></trkpt><trkpt lat="44.1827051" lon="10.3767365"><ele>819.2857142857142</ele><time>2026-04-03T10:41:52.316Z</time></trkpt><trkpt lat="44.1827776" lon="10.3767629"><ele>820.8571428571429</ele><time>2026-04-03T10:41:56.308Z</time></trkpt><trkpt lat="44.1828508" lon="10.3767664"><ele>822.4285714285713</ele><time>2026-04-03T10:42:00.3Z</time></trkpt><trkpt lat="44.1829189" lon="10.3767609"><ele>824.0</ele><time>2026-04-03T10:42:04.32Z</time></trkpt><trkpt lat="44.182984" lon="10.3767751"><ele>823.9999999999999</ele><time>2026-04-03T10:42:08.3Z</time></trkpt><trkpt lat="44.1830489" lon="10.3767809"><ele>824.0</ele><time>2026-04-03T10:42:12.296Z</time></trkpt><trkpt lat="44.1831191" lon="10.3768171"><ele>824.0</ele><time>2026-04-03T10:42:16.304Z</time></trkpt><trkpt lat="44.1831851" lon="10.3768318"><ele>824.0</ele><time>2026-04-03T10:42:20.293Z</time></trkpt><trkpt lat="44.1832531" lon="10.3768679"><ele>824.0</ele><time>2026-04-03T10:42:24.322Z</time></trkpt><trkpt lat="44.1833225" lon="10.3768891"><ele>823.9999999999999</ele><time>2026-04-03T10:42:29.289Z</time></trkpt><trkpt lat="44.1833902" lon="10.3769274"><ele>824.0</ele><time>2026-04-03T10:42:33.288Z</time></trkpt><trkpt lat="44.1834523" lon="10.3769549"><ele>826.1666666666667</ele><time>2026-04-03T10:42:38.287Z</time></trkpt><trkpt lat="44.1835312" lon="10.3769855"><ele>828.3333333333334</ele><time>2026-04-03T10:42:42.296Z</time></trkpt><trkpt lat="44.183598" lon="10.3770188"><ele>830.5</ele><time>2026-04-03T10:42:46.304Z</time></trkpt><trkpt lat="44.1836762" lon="10.3770017"><ele>832.6666666666667</ele><time>2026-04-03T10:42:50.304Z</time></trkpt><trkpt lat="44.1837172" lon="10.3769138"><ele>834.8333333333334</ele><time>2026-04-03T10:42:54.297Z</time></trkpt><trkpt lat="44.1836833" lon="10.3768205"><ele>837.0</ele><time>2026-04-03T10:42:58.292Z</time></trkpt><trkpt lat="44.1836402" lon="10.3767365"><ele>837.0</ele><time>2026-04-03T10:43:02.289Z</time></trkpt><trkpt lat="44.1835997" lon="10.3766519"><ele>837.0</ele><time>2026-04-03T10:43:06.302Z</time></trkpt><trkpt lat="44.1835569" lon="10.3765843"><ele>837.0</ele><time>2026-04-03T10:43:10.304Z</time></trkpt><trkpt lat="44.1835205" lon="10.3765036"><ele>837.0</ele><time>2026-04-03T10:43:14.301Z</time></trkpt><trkpt lat="44.1834812" lon="10.376417"><ele>837.0</ele><time>2026-04-03T10:43:18.293Z</time></trkpt><trkpt lat="44.1834397" lon="10.376327"><ele>837.0</ele><time>2026-04-03T10:43:22.298Z</time></trkpt><trkpt lat="44.1833866" lon="10.3762484"><ele>837.0</ele><time>2026-04-03T10:43:26.302Z</time></trkpt><trkpt lat="44.1833495" lon="10.3761617"><ele>836.2857142857143</ele><time>2026-04-03T10:43:30.304Z</time></trkpt><trkpt lat="44.1833094" lon="10.3760813"><ele>835.5714285714287</ele><time>2026-04-03T10:43:34.298Z</time></trkpt><trkpt lat="44.1832745" lon="10.3759982"><ele>834.8571428571429</ele><time>2026-04-03T10:43:39.292Z</time></trkpt><trkpt lat="44.1832516" lon="10.3759163"><ele>834.1428571428571</ele><time>2026-04-03T10:43:42.307Z</time></trkpt><trkpt lat="44.1832204" lon="10.37584"><ele>833.4285714285714</ele><time>2026-04-03T10:43:45.303Z</time></trkpt><trkpt lat="44.1831843" lon="10.3757447"><ele>832.7142857142857</ele><time>2026-04-03T10:43:49.303Z</time></trkpt><trkpt lat="44.1831493" lon="10.3756504"><ele>832.0</ele><time>2026-04-03T10:43:53.301Z</time></trkpt><trkpt lat="44.1830949" lon="10.3755683"><ele>833.3333333333333</ele><time>2026-04-03T10:43:57.303Z</time></trkpt><trkpt lat="44.1830383" lon="10.3754973"><ele>834.6666666666666</ele><time>2026-04-03T10:44:01.292Z</time></trkpt><trkpt lat="44.1829775" lon="10.3754226"><ele>836.0</ele><time>2026-04-03T10:44:05.311Z</time></trkpt><trkpt lat="44.1829198" lon="10.3753553"><ele>837.3333333333333</ele><time>2026-04-03T10:44:09.292Z</time></trkpt><trkpt lat="44.1828564" lon="10.3752889"><ele>838.6666666666666</ele><time>2026-04-03T10:44:13.306Z</time></trkpt><trkpt lat="44.1827983" lon="10.3752251"><ele>840.0</ele><time>2026-04-03T10:44:17.298Z</time></trkpt><trkpt lat="44.1827507" lon="10.3751474"><ele>840.0</ele><time>2026-04-03T10:44:21.297Z</time></trkpt><trkpt lat="44.1827016" lon="10.3750769"><ele>840.0</ele><time>2026-04-03T10:44:25.303Z</time></trkpt><trkpt lat="44.1826571" lon="10.3749847"><ele>840.0</ele><time>2026-04-03T10:44:29.313Z</time></trkpt><trkpt lat="44.182613" lon="10.3749044"><ele>840.0</ele><time>2026-04-03T10:44:33.298Z</time></trkpt><trkpt lat="44.1825668" lon="10.3748316"><ele>840.0</ele><time>2026-04-03T10:44:37.3Z</time></trkpt><trkpt lat="44.1825181" lon="10.3747496"><ele>840.0</ele><time>2026-04-03T10:44:41.312Z</time></trkpt><trkpt lat="44.1824641" lon="10.3746575"><ele>840.6</ele><time>2026-04-03T10:44:45.306Z</time></trkpt><trkpt lat="44.1824124" lon="10.3745561"><ele>841.2</ele><time>2026-04-03T10:44:48.288Z</time></trkpt><trkpt lat="44.1823629" lon="10.3744767"><ele>841.8</ele><time>2026-04-03T10:44:50.295Z</time></trkpt><trkpt lat="44.182285" lon="10.3743909"><ele>842.4</ele><time>2026-04-03T10:44:52.3Z</time></trkpt><trkpt lat="44.1821885" lon="10.3742831"><ele>843.0</ele><time>2026-04-03T10:44:54.306Z</time></trkpt><trkpt lat="44.1821588" lon="10.3742026"><ele>840.3333333333334</ele><time>2026-04-03T10:44:55.308Z</time></trkpt><trkpt lat="44.1821535" lon="10.3741008"><ele>837.6666666666667</ele><time>2026-04-03T10:44:56.3Z</time></trkpt><trkpt lat="44.1821742" lon="10.3740055"><ele>835.0</ele><time>2026-04-03T10:44:57.302Z</time></trkpt><trkpt lat="44.1822095" lon="10.3739093"><ele>832.3333333333334</ele><time>2026-04-03T10:44:58.3Z</time></trkpt><trkpt lat="44.182243" lon="10.3738114"><ele>829.6666666666667</ele><time>2026-04-03T10:44:59.313Z</time></trkpt><trkpt lat="44.1822798" lon="10.3737123"><ele>827.0</ele><time>2026-04-03T10:45:00.3Z</time></trkpt><trkpt lat="44.1823202" lon="10.3736151"><ele>827.0000000000001</ele><time>2026-04-03T10:45:01.298Z</time></trkpt><trkpt lat="44.1823418" lon="10.3735111"><ele>827.0</ele><time>2026-04-03T10:45:02.305Z</time></trkpt><trkpt lat="44.1823422" lon="10.3733971"><ele>827.0</ele><time>2026-04-03T10:45:03.311Z</time></trkpt><trkpt lat="44.182333" lon="10.3732885"><ele>827.0</ele><time>2026-04-03T10:45:04.323Z</time></trkpt><trkpt lat="44.1823121" lon="10.3731866"><ele>827.0000000000001</ele><time>2026-04-03T10:45:05.317Z</time></trkpt><trkpt lat="44.182283" lon="10.3730884"><ele>827.0</ele><time>2026-04-03T10:45:06.304Z</time></trkpt><trkpt lat="44.1822611" lon="10.3729893"><ele>827.8571428571429</ele><time>2026-04-03T10:45:07.311Z</time></trkpt><trkpt lat="44.18225" lon="10.3728947"><ele>828.7142857142857</ele><time>2026-04-03T10:45:08.298Z</time></trkpt><trkpt lat="44.1822446" lon="10.3727997"><ele>829.5714285714286</ele><time>2026-04-03T10:45:09.308Z</time></trkpt><trkpt lat="44.1822482" lon="10.3727036"><ele>830.4285714285714</ele><time>2026-04-03T10:45:10.304Z</time></trkpt><trkpt lat="44.1822569" lon="10.3726032"><ele>831.2857142857142</ele><time>2026-04-03T10:45:11.3Z</time></trkpt><trkpt lat="44.1822484" lon="10.3724955"><ele>832.1428571428571</ele><time>2026-04-03T10:45:12.295Z</time></trkpt><trkpt lat="44.1822264" lon="10.3723936"><ele>833.0</ele><time>2026-04-03T10:45:13.314Z</time></trkpt><trkpt lat="44.1821903" lon="10.372301"><ele>833.0</ele><time>2026-04-03T10:45:14.301Z</time></trkpt><trkpt lat="44.1821459" lon="10.3722136"><ele>833.0</ele><time>2026-04-03T10:45:15.299Z</time></trkpt><trkpt lat="44.182099" lon="10.3721297"><ele>833.0</ele><time>2026-04-03T10:45:16.295Z</time></trkpt><trkpt lat="44.1820408" lon="10.3720633"><ele>833.0</ele><time>2026-04-03T10:45:17.298Z</time></trkpt><trkpt lat="44.1819771" lon="10.3720097"><ele>833.0</ele><time>2026-04-03T10:45:18.303Z</time></trkpt><trkpt lat="44.181915" lon="10.3719674"><ele>833.0</ele><time>2026-04-03T10:45:19.294Z</time></trkpt><trkpt lat="44.1818413" lon="10.3719602"><ele>833.0</ele><time>2026-04-03T10:45:20.321Z</time></trkpt><trkpt lat="44.181767" lon="10.3719506"><ele>833.5000000000001</ele><time>2026-04-03T10:45:21.306Z</time></trkpt><trkpt lat="44.1816946" lon="10.3719348"><ele>834.0</ele><time>2026-04-03T10:45:22.314Z</time></trkpt><trkpt lat="44.1816296" lon="10.3718955"><ele>834.5</ele><time>2026-04-03T10:45:23.303Z</time></trkpt><trkpt lat="44.1815599" lon="10.3718388"><ele>835.0</ele><time>2026-04-03T10:45:24.3Z</time></trkpt><trkpt lat="44.1814953" lon="10.3717631"><ele>835.5000000000001</ele><time>2026-04-03T10:45:25.305Z</time></trkpt><trkpt lat="44.1814362" lon="10.3716843"><ele>836.0</ele><time>2026-04-03T10:45:26.315Z</time></trkpt><trkpt lat="44.1813982" lon="10.3716019"><ele>835.1666666666667</ele><time>2026-04-03T10:45:27.311Z</time></trkpt><trkpt lat="44.1813669" lon="10.3715"><ele>834.3333333333334</ele><time>2026-04-03T10:45:28.3Z</time></trkpt><trkpt lat="44.1813593" lon="10.3713787"><ele>833.5</ele><time>2026-04-03T10:45:29.311Z</time></trkpt><trkpt lat="44.1813524" lon="10.3712698"><ele>832.6666666666667</ele><time>2026-04-03T10:45:30.292Z</time></trkpt><trkpt lat="44.1813244" lon="10.3711671"><ele>831.8333333333334</ele><time>2026-04-03T10:45:31.298Z</time></trkpt><trkpt lat="44.1812833" lon="10.3710743"><ele>831.0</ele><time>2026-04-03T10:45:32.295Z</time></trkpt><trkpt lat="44.1811792" lon="10.3709734"><ele>831.0</ele><time>2026-04-03T10:45:34.298Z</time></trkpt><trkpt lat="44.1810728" lon="10.3709284"><ele>831.0</ele><time>2026-04-03T10:45:36.299Z</time></trkpt><trkpt lat="44.1809804" lon="10.37087"><ele>831.0</ele><time>2026-04-03T10:45:38.303Z</time></trkpt><trkpt lat="44.180911" lon="10.3708191"><ele>831.0</ele><time>2026-04-03T10:45:40.297Z</time></trkpt><trkpt lat="44.1808584" lon="10.370768"><ele>831.0</ele><time>2026-04-03T10:45:43.301Z</time></trkpt><trkpt lat="44.180812" lon="10.3706959"><ele>831.0</ele><time>2026-04-03T10:45:48.298Z</time></trkpt><trkpt lat="44.1807739" lon="10.3706204"><ele>830.9999999999999</ele><time>2026-04-03T10:45:53.3Z</time></trkpt><trkpt lat="44.1807338" lon="10.3705416"><ele>831.0</ele><time>2026-04-03T10:45:58.304Z</time></trkpt><trkpt lat="44.1806939" lon="10.3704507"><ele>831.0</ele><time>2026-04-03T10:46:03.308Z</time></trkpt><trkpt lat="44.180647" lon="10.3703637"><ele>831.0</ele><time>2026-04-03T10:46:08.305Z</time></trkpt><trkpt lat="44.1805853" lon="10.3703134"><ele>831.0</ele><time>2026-04-03T10:46:13.299Z</time></trkpt><trkpt lat="44.180519" lon="10.3702839"><ele>830.9999999999999</ele><time>2026-04-03T10:46:17.291Z</time></trkpt><trkpt lat="44.1804528" lon="10.3702746"><ele>831.0</ele><time>2026-04-03T10:46:20.294Z</time></trkpt><trkpt lat="44.1803898" lon="10.3702762"><ele>833.7142857142857</ele><time>2026-04-03T10:46:23.293Z</time></trkpt><trkpt lat="44.1803112" lon="10.370283"><ele>836.4285714285714</ele><time>2026-04-03T10:46:27.299Z</time></trkpt><trkpt lat="44.1802371" lon="10.3702811"><ele>839.1428571428571</ele><time>2026-04-03T10:46:31.302Z</time></trkpt><trkpt lat="44.1801718" lon="10.3702548"><ele>841.8571428571429</ele><time>2026-04-03T10:46:35.299Z</time></trkpt><trkpt lat="44.1801097" lon="10.3702296"><ele>844.5714285714286</ele><time>2026-04-03T10:46:39.287Z</time></trkpt><trkpt lat="44.1800359" lon="10.3702033"><ele>847.2857142857142</ele><time>2026-04-03T10:46:43.305Z</time></trkpt><trkpt lat="44.1799669" lon="10.3701915"><ele>850.0</ele><time>2026-04-03T10:46:47.3Z</time></trkpt><trkpt lat="44.1799015" lon="10.3702062"><ele>849.7142857142857</ele><time>2026-04-03T10:46:51.314Z</time></trkpt><trkpt lat="44.1798376" lon="10.370213"><ele>849.4285714285713</ele><time>2026-04-03T10:46:55.286Z</time></trkpt><trkpt lat="44.1797713" lon="10.370217"><ele>849.1428571428571</ele><time>2026-04-03T10:46:59.299Z</time></trkpt><trkpt lat="44.1796987" lon="10.3701853"><ele>848.8571428571429</ele><time>2026-04-03T10:47:04.297Z</time></trkpt><trkpt lat="44.1796297" lon="10.3701463"><ele>848.5714285714286</ele><time>2026-04-03T10:47:08.322Z</time></trkpt><trkpt lat="44.1795679" lon="10.3700982"><ele>848.2857142857143</ele><time>2026-04-03T10:47:12.292Z</time></trkpt><trkpt lat="44.1795016" lon="10.3700547"><ele>848.0</ele><time>2026-04-03T10:47:16.296Z</time></trkpt><trkpt lat="44.1794271" lon="10.3700174"><ele>848.0</ele><time>2026-04-03T10:47:20.302Z</time></trkpt><trkpt lat="44.1793628" lon="10.369995"><ele>848.0</ele><time>2026-04-03T10:47:24.305Z</time></trkpt><trkpt lat="44.1792878" lon="10.3699754"><ele>848.0</ele><time>2026-04-03T10:47:30.308Z</time></trkpt><trkpt lat="44.1792149" lon="10.3699525"><ele>848.0</ele><time>2026-04-03T10:47:35.289Z</time></trkpt><trkpt lat="44.1791439" lon="10.3699176"><ele>848.0</ele><time>2026-04-03T10:47:40.301Z</time></trkpt><trkpt lat="44.1790722" lon="10.369881"><ele>848.0</ele><time>2026-04-03T10:47:45.301Z</time></trkpt><trkpt lat="44.1790044" lon="10.3698467"><ele>848.0</ele><time>2026-04-03T10:47:50.297Z</time></trkpt><trkpt lat="44.1789417" lon="10.3698218"><ele>847.5000000000001</ele><time>2026-04-03T10:47:54.296Z</time></trkpt><trkpt lat="44.1788855" lon="10.3697677"><ele>847.0</ele><time>2026-04-03T10:47:59.296Z</time></trkpt><trkpt lat="44.1788382" lon="10.3696895"><ele>846.5</ele><time>2026-04-03T10:48:05.309Z</time></trkpt><trkpt lat="44.178768" lon="10.3696038"><ele>846.0</ele><time>2026-04-03T10:48:08.3Z</time></trkpt><trkpt lat="44.1786879" lon="10.3695025"><ele>845.5000000000001</ele><time>2026-04-03T10:48:10.301Z</time></trkpt><trkpt lat="44.1786188" lon="10.3694667"><ele>845.0</ele><time>2026-04-03T10:48:11.297Z</time></trkpt><trkpt lat="44.1785476" lon="10.3694621"><ele>844.6666666666667</ele><time>2026-04-03T10:48:12.315Z</time></trkpt><trkpt lat="44.1784713" lon="10.3694736"><ele>844.3333333333334</ele><time>2026-04-03T10:48:13.305Z</time></trkpt><trkpt lat="44.1784008" lon="10.369468"><ele>844.0</ele><time>2026-04-03T10:48:14.299Z</time></trkpt><trkpt lat="44.1783203" lon="10.369462"><ele>843.6666666666667</ele><time>2026-04-03T10:48:15.298Z</time></trkpt><trkpt lat="44.1782403" lon="10.3694539"><ele>843.3333333333334</ele><time>2026-04-03T10:48:16.3Z</time></trkpt><trkpt lat="44.1781568" lon="10.3694455"><ele>843.0</ele><time>2026-04-03T10:48:17.301Z</time></trkpt><trkpt lat="44.1780747" lon="10.3694477"><ele>841.2</ele><time>2026-04-03T10:48:18.31Z</time></trkpt><trkpt lat="44.1780066" lon="10.3694469"><ele>839.4</ele><time>2026-04-03T10:48:19.302Z</time></trkpt><trkpt lat="44.1778937" lon="10.3694469"><ele>837.6</ele><time>2026-04-03T10:48:21.303Z</time></trkpt><trkpt lat="44.1777822" lon="10.3694594"><ele>835.8000000000001</ele><time>2026-04-03T10:48:23.319Z</time></trkpt><trkpt lat="44.1776825" lon="10.3694639"><ele>834.0</ele><time>2026-04-03T10:48:25.309Z</time></trkpt><trkpt lat="44.1775965" lon="10.3694114"><ele>834.0</ele><time>2026-04-03T10:48:27.303Z</time></trkpt><trkpt lat="44.1775111" lon="10.3693468"><ele>834.0</ele><time>2026-04-03T10:48:29.299Z</time></trkpt><trkpt lat="44.1774283" lon="10.3693132"><ele>834.0</ele><time>2026-04-03T10:48:31.303Z</time></trkpt><trkpt lat="44.1773566" lon="10.3693099"><ele>834.0</ele><time>2026-04-03T10:48:33.294Z</time></trkpt><trkpt lat="44.1772738" lon="10.3693092"><ele>834.0</ele><time>2026-04-03T10:48:35.298Z</time></trkpt><trkpt lat="44.1771824" lon="10.3693064"><ele>834.0</ele><time>2026-04-03T10:48:37.289Z</time></trkpt><trkpt lat="44.1770928" lon="10.3692986"><ele>832.3333333333334</ele><time>2026-04-03T10:48:39.29Z</time></trkpt><trkpt lat="44.1770103" lon="10.3692784"><ele>830.6666666666667</ele><time>2026-04-03T10:48:41.3Z</time></trkpt><trkpt lat="44.1769572" lon="10.3691974"><ele>829.0</ele><time>2026-04-03T10:48:43.308Z</time></trkpt><trkpt lat="44.1768899" lon="10.3691223"><ele>827.3333333333334</ele><time>2026-04-03T10:48:45.299Z</time></trkpt><trkpt lat="44.1768188" lon="10.3691198"><ele>825.6666666666667</ele><time>2026-04-03T10:48:46.294Z</time></trkpt><trkpt lat="44.1767524" lon="10.3691073"><ele>824.0</ele><time>2026-04-03T10:48:47.288Z</time></trkpt><trkpt lat="44.1766822" lon="10.369095"><ele>824.0</ele><time>2026-04-03T10:48:48.301Z</time></trkpt><trkpt lat="44.1765589" lon="10.3690756"><ele>824.0</ele><time>2026-04-03T10:48:50.287Z</time></trkpt><trkpt lat="44.1764808" lon="10.3689982"><ele>824.0</ele><time>2026-04-03T10:48:52.292Z</time></trkpt><trkpt lat="44.1764261" lon="10.368916"><ele>824.0</ele><time>2026-04-03T10:48:54.295Z</time></trkpt><trkpt lat="44.1763967" lon="10.3688163"><ele>824.0</ele><time>2026-04-03T10:48:56.297Z</time></trkpt><trkpt lat="44.1763913" lon="10.3687097"><ele>822.6</ele><time>2026-04-03T10:48:58.309Z</time></trkpt><trkpt lat="44.1764164" lon="10.3686252"><ele>821.2</ele><time>2026-04-03T10:49:00.301Z</time></trkpt><trkpt lat="44.1765087" lon="10.3685407"><ele>819.8000000000001</ele><time>2026-04-03T10:49:02.302Z</time></trkpt><trkpt lat="44.1766226" lon="10.368453"><ele>818.4000000000001</ele><time>2026-04-03T10:49:04.302Z</time></trkpt><trkpt lat="44.1766975" lon="10.3684157"><ele>817.0</ele><time>2026-04-03T10:49:05.3Z</time></trkpt><trkpt lat="44.1767824" lon="10.3683899"><ele>816.9999999999999</ele><time>2026-04-03T10:49:06.299Z</time></trkpt><trkpt lat="44.1768678" lon="10.3683751"><ele>817.0</ele><time>2026-04-03T10:49:07.305Z</time></trkpt><trkpt lat="44.1769435" lon="10.3683676"><ele>817.0</ele><time>2026-04-03T10:49:08.3Z</time></trkpt><trkpt lat="44.1770323" lon="10.3683542"><ele>817.0</ele><time>2026-04-03T10:49:09.307Z</time></trkpt><trkpt lat="44.1770972" lon="10.368327"><ele>816.9999999999999</ele><time>2026-04-03T10:49:10.291Z</time></trkpt><trkpt lat="44.1771885" lon="10.3682681"><ele>817.0</ele><time>2026-04-03T10:49:12.295Z</time></trkpt><trkpt lat="44.1771661" lon="10.3681843"><ele>816.9999999999999</ele><time>2026-04-03T10:49:14.289Z</time></trkpt><trkpt lat="44.1771006" lon="10.3681356"><ele>817.0</ele><time>2026-04-03T10:49:19.309Z</time></trkpt><trkpt lat="44.1770315" lon="10.3681138"><ele>817.0</ele><time>2026-04-03T10:49:24.296Z</time></trkpt><trkpt lat="44.1769666" lon="10.3680662"><ele>817.0</ele><time>2026-04-03T10:49:28.307Z</time></trkpt><trkpt lat="44.1769042" lon="10.3680182"><ele>817.0</ele><time>2026-04-03T10:49:32.304Z</time></trkpt><trkpt lat="44.1768488" lon="10.3679715"><ele>816.9999999999999</ele><time>2026-04-03T10:49:36.291Z</time></trkpt><trkpt lat="44.1768001" lon="10.3678961"><ele>817.0</ele><time>2026-04-03T10:49:41.299Z</time></trkpt><trkpt lat="44.1767407" lon="10.3678363"><ele>817.5714285714286</ele><time>2026-04-03T10:49:46.3Z</time></trkpt><trkpt lat="44.1767016" lon="10.3677548"><ele>818.1428571428571</ele><time>2026-04-03T10:49:51.294Z</time></trkpt><trkpt lat="44.1766753" lon="10.3676605"><ele>818.7142857142858</ele><time>2026-04-03T10:49:56.297Z</time></trkpt><trkpt lat="44.1766404" lon="10.3675642"><ele>819.2857142857142</ele><time>2026-04-03T10:50:01.294Z</time></trkpt><trkpt lat="44.176612" lon="10.3674671"><ele>819.8571428571429</ele><time>2026-04-03T10:50:06.288Z</time></trkpt><trkpt lat="44.1766" lon="10.3673743"><ele>820.4285714285714</ele><time>2026-04-03T10:50:10.296Z</time></trkpt><trkpt lat="44.1766014" lon="10.367272"><ele>821.0</ele><time>2026-04-03T10:50:14.296Z</time></trkpt><trkpt lat="44.1766031" lon="10.3671825"><ele>820.7142857142858</ele><time>2026-04-03T10:50:18.29Z</time></trkpt><trkpt lat="44.1765851" lon="10.3670865"><ele>820.4285714285714</ele><time>2026-04-03T10:50:22.304Z</time></trkpt><trkpt lat="44.176568" lon="10.3669953"><ele>820.1428571428571</ele><time>2026-04-03T10:50:26.291Z</time></trkpt><trkpt lat="44.1765412" lon="10.3668921"><ele>819.8571428571429</ele><time>2026-04-03T10:50:31.3Z</time></trkpt><trkpt lat="44.1765128" lon="10.3668036"><ele>819.5714285714286</ele><time>2026-04-03T10:50:35.293Z</time></trkpt><trkpt lat="44.1764785" lon="10.3667232"><ele>819.2857142857143</ele><time>2026-04-03T10:50:39.299Z</time></trkpt><trkpt lat="44.1764473" lon="10.3666311"><ele>819.0</ele><time>2026-04-03T10:50:44.299Z</time></trkpt><trkpt lat="44.1764181" lon="10.3665307"><ele>819.0</ele><time>2026-04-03T10:50:49.317Z</time></trkpt><trkpt lat="44.1763859" lon="10.3664288"><ele>819.0</ele><time>2026-04-03T10:50:52.304Z</time></trkpt><trkpt lat="44.1763885" lon="10.3663168"><ele>819.0</ele><time>2026-04-03T10:50:54.299Z</time></trkpt><trkpt lat="44.1763897" lon="10.3662222"><ele>819.0</ele><time>2026-04-03T10:50:55.295Z</time></trkpt><trkpt lat="44.1764103" lon="10.3660577"><ele>819.0</ele><time>2026-04-03T10:50:57.291Z</time></trkpt><trkpt lat="44.1764123" lon="10.3658836"><ele>819.0</ele><time>2026-04-03T10:50:59.308Z</time></trkpt><trkpt lat="44.1764295" lon="10.3657317"><ele>819.0</ele><time>2026-04-03T10:51:01.304Z</time></trkpt><trkpt lat="44.1764136" lon="10.3655971"><ele>819.0</ele><time>2026-04-03T10:51:03.293Z</time></trkpt><trkpt lat="44.1763327" lon="10.3655552"><ele>819.0</ele><time>2026-04-03T10:51:05.3Z</time></trkpt><trkpt lat="44.1762489" lon="10.3656088"><ele>819.0</ele><time>2026-04-03T10:51:08.312Z</time></trkpt><trkpt lat="44.176174" lon="10.365624"><ele>819.0</ele><time>2026-04-03T10:51:11.314Z</time></trkpt><trkpt lat="44.1760953" lon="10.3656194"><ele>819.0</ele><time>2026-04-03T10:51:15.287Z</time></trkpt><trkpt lat="44.1760303" lon="10.3656149"><ele>819.0</ele><time>2026-04-03T10:51:18.303Z</time></trkpt><trkpt lat="44.1759536" lon="10.3655991"><ele>819.0</ele><time>2026-04-03T10:51:22.291Z</time></trkpt><trkpt lat="44.1758803" lon="10.3656049"><ele>819.0</ele><time>2026-04-03T10:51:30.292Z</time></trkpt><trkpt lat="44.1758279" lon="10.3656727"><ele>819.0</ele><time>2026-04-03T10:51:32.306Z</time></trkpt><trkpt lat="44.1757602" lon="10.3657499"><ele>816.4285714285714</ele><time>2026-04-03T10:51:34.299Z</time></trkpt><trkpt lat="44.1756487" lon="10.3657515"><ele>813.8571428571429</ele><time>2026-04-03T10:51:36.307Z</time></trkpt><trkpt lat="44.1755874" lon="10.3657299"><ele>811.2857142857142</ele><time>2026-04-03T10:51:37.302Z</time></trkpt><trkpt lat="44.1755225" lon="10.3656956"><ele>808.7142857142858</ele><time>2026-04-03T10:51:38.298Z</time></trkpt><trkpt lat="44.1754607" lon="10.3656517"><ele>806.1428571428571</ele><time>2026-04-03T10:51:39.312Z</time></trkpt><trkpt lat="44.1753984" lon="10.3656138"><ele>803.5714285714286</ele><time>2026-04-03T10:51:40.308Z</time></trkpt><trkpt lat="44.1753394" lon="10.3655769"><ele>801.0</ele><time>2026-04-03T10:51:41.303Z</time></trkpt><trkpt lat="44.1752794" lon="10.3655328"><ele>800.1666666666666</ele><time>2026-04-03T10:51:42.312Z</time></trkpt><trkpt lat="44.1751992" lon="10.3655193"><ele>799.3333333333333</ele><time>2026-04-03T10:51:43.31Z</time></trkpt><trkpt lat="44.1750786" lon="10.3654472"><ele>798.5</ele><time>2026-04-03T10:51:45.3Z</time></trkpt><trkpt lat="44.1750188" lon="10.3654028"><ele>797.6666666666666</ele><time>2026-04-03T10:51:46.306Z</time></trkpt><trkpt lat="44.1749854" lon="10.3653216"><ele>796.8333333333333</ele><time>2026-04-03T10:51:47.301Z</time></trkpt><trkpt lat="44.1749354" lon="10.3652675"><ele>796.0</ele><time>2026-04-03T10:51:48.314Z</time></trkpt><trkpt lat="44.174814" lon="10.3652186"><ele>795.9999999999999</ele><time>2026-04-03T10:51:50.299Z</time></trkpt><trkpt lat="44.1747562" lon="10.3651822"><ele>796.0</ele><time>2026-04-03T10:51:51.318Z</time></trkpt><trkpt lat="44.1746673" lon="10.365085"><ele>796.0</ele><time>2026-04-03T10:51:53.295Z</time></trkpt><trkpt lat="44.1745992" lon="10.3649635"><ele>796.0</ele><time>2026-04-03T10:51:55.299Z</time></trkpt><trkpt lat="44.1745774" lon="10.3648776"><ele>795.9999999999999</ele><time>2026-04-03T10:51:57.294Z</time></trkpt><trkpt lat="44.1745522" lon="10.364761"><ele>796.0</ele><time>2026-04-03T10:52:00.293Z</time></trkpt><trkpt lat="44.1744919" lon="10.3647196"><ele>796.0</ele><time>2026-04-03T10:52:02.293Z</time></trkpt><trkpt lat="44.1743795" lon="10.364778"><ele>796.0</ele><time>2026-04-03T10:52:04.297Z</time></trkpt><trkpt lat="44.1742706" lon="10.3648357"><ele>796.0</ele><time>2026-04-03T10:52:06.3Z</time></trkpt><trkpt lat="44.1741655" lon="10.3649151"><ele>796.0</ele><time>2026-04-03T10:52:08.297Z</time></trkpt><trkpt lat="44.1740587" lon="10.364961"><ele>794.4285714285713</ele><time>2026-04-03T10:52:10.303Z</time></trkpt><trkpt lat="44.1739662" lon="10.3649949"><ele>792.8571428571429</ele><time>2026-04-03T10:52:12.298Z</time></trkpt><trkpt lat="44.1738952" lon="10.3649812"><ele>791.2857142857142</ele><time>2026-04-03T10:52:14.293Z</time></trkpt><trkpt lat="44.173826" lon="10.3649599"><ele>789.7142857142857</ele><time>2026-04-03T10:52:16.317Z</time></trkpt><trkpt lat="44.1737583" lon="10.3649316"><ele>788.1428571428571</ele><time>2026-04-03T10:52:18.325Z</time></trkpt><trkpt lat="44.1736955" lon="10.3648999"><ele>786.5714285714286</ele><time>2026-04-03T10:52:20.311Z</time></trkpt><trkpt lat="44.1736316" lon="10.3648521"><ele>785.0</ele><time>2026-04-03T10:52:22.315Z</time></trkpt><trkpt lat="44.1735392" lon="10.3648003"><ele>785.0</ele><time>2026-04-03T10:52:24.302Z</time></trkpt><trkpt lat="44.17345" lon="10.3647238"><ele>785.0</ele><time>2026-04-03T10:52:26.297Z</time></trkpt><trkpt lat="44.1733685" lon="10.3646299"><ele>785.0</ele><time>2026-04-03T10:52:28.304Z</time></trkpt><trkpt lat="44.1732685" lon="10.3645338"><ele>785.0</ele><time>2026-04-03T10:52:30.298Z</time></trkpt><trkpt lat="44.1732153" lon="10.3643971"><ele>785.0</ele><time>2026-04-03T10:52:32.302Z</time></trkpt><trkpt lat="44.1732094" lon="10.3642571"><ele>786.1666666666667</ele><time>2026-04-03T10:52:34.289Z</time></trkpt><trkpt lat="44.1731989" lon="10.364107"><ele>787.3333333333334</ele><time>2026-04-03T10:52:36.3Z</time></trkpt><trkpt lat="44.1732013" lon="10.3639659"><ele>788.5</ele><time>2026-04-03T10:52:38.308Z</time></trkpt><trkpt lat="44.1732239" lon="10.3638568"><ele>789.6666666666667</ele><time>2026-04-03T10:52:40.296Z</time></trkpt><trkpt lat="44.173264" lon="10.3637863"><ele>790.8333333333334</ele><time>2026-04-03T10:52:42.298Z</time></trkpt><trkpt lat="44.1733145" lon="10.3637329"><ele>792.0</ele><time>2026-04-03T10:52:45.315Z</time></trkpt><trkpt lat="44.1733807" lon="10.3637036"><ele>792.0</ele><time>2026-04-03T10:52:51.295Z</time></trkpt><trkpt lat="44.1734488" lon="10.3636809"><ele>792.0</ele><time>2026-04-03T10:52:55.298Z</time></trkpt><trkpt lat="44.173517" lon="10.3636345"><ele>792.0</ele><time>2026-04-03T10:52:59.297Z</time></trkpt><trkpt lat="44.1735711" lon="10.3635784"><ele>792.0</ele><time>2026-04-03T10:53:03.299Z</time></trkpt><trkpt lat="44.1736165" lon="10.3634871"><ele>792.0</ele><time>2026-04-03T10:53:07.31Z</time></trkpt><trkpt lat="44.1736325" lon="10.3633905"><ele>792.0</ele><time>2026-04-03T10:53:12.301Z</time></trkpt><trkpt lat="44.1736545" lon="10.3632884"><ele>792.0</ele><time>2026-04-03T10:53:17.293Z</time></trkpt><trkpt lat="44.1736737" lon="10.363196"><ele>792.0</ele><time>2026-04-03T10:53:21.298Z</time></trkpt><trkpt lat="44.1737143" lon="10.363118"><ele>792.0</ele><time>2026-04-03T10:53:25.287Z</time></trkpt><trkpt lat="44.1737574" lon="10.3630446"><ele>792.0</ele><time>2026-04-03T10:53:29.294Z</time></trkpt><trkpt lat="44.1737976" lon="10.3629626"><ele>792.0</ele><time>2026-04-03T10:53:33.301Z</time></trkpt><trkpt lat="44.1738513" lon="10.3629141"><ele>792.0</ele><time>2026-04-03T10:53:37.299Z</time></trkpt><trkpt lat="44.1739044" lon="10.3628653"><ele>792.0</ele><time>2026-04-03T10:53:41.304Z</time></trkpt><trkpt lat="44.1739707" lon="10.3628426"><ele>792.0</ele><time>2026-04-03T10:53:46.291Z</time></trkpt><trkpt lat="44.1740475" lon="10.3628426"><ele>792.5714285714286</ele><time>2026-04-03T10:53:51.292Z</time></trkpt><trkpt lat="44.1741176" lon="10.3628572"><ele>793.1428571428571</ele><time>2026-04-03T10:53:56.305Z</time></trkpt><trkpt lat="44.1741843" lon="10.362896"><ele>793.7142857142857</ele><time>2026-04-03T10:54:00.3Z</time></trkpt><trkpt lat="44.1742526" lon="10.3629376"><ele>794.2857142857142</ele><time>2026-04-03T10:54:04.3Z</time></trkpt><trkpt lat="44.1743239" lon="10.3629239"><ele>794.8571428571429</ele><time>2026-04-03T10:54:09.294Z</time></trkpt><trkpt lat="44.1743787" lon="10.3628493"><ele>795.4285714285713</ele><time>2026-04-03T10:54:14.305Z</time></trkpt><trkpt lat="44.1744299" lon="10.3627805"><ele>796.0</ele><time>2026-04-03T10:54:17.3Z</time></trkpt><trkpt lat="44.1744812" lon="10.3627047"><ele>795.9999999999999</ele><time>2026-04-03T10:54:21.295Z</time></trkpt><trkpt lat="44.1745415" lon="10.3626692"><ele>796.0</ele><time>2026-04-03T10:54:26.306Z</time></trkpt><trkpt lat="44.1746079" lon="10.3626635"><ele>796.0</ele><time>2026-04-03T10:54:30.298Z</time></trkpt><trkpt lat="44.1746781" lon="10.3626534"><ele>796.0</ele><time>2026-04-03T10:54:34.304Z</time></trkpt><trkpt lat="44.1747426" lon="10.3626714"><ele>796.0</ele><time>2026-04-03T10:54:38.292Z</time></trkpt><trkpt lat="44.1748061" lon="10.3626853"><ele>795.9999999999999</ele><time>2026-04-03T10:54:42.32Z</time></trkpt><trkpt lat="44.1748867" lon="10.3626769"><ele>796.0</ele><time>2026-04-03T10:54:47.292Z</time></trkpt><trkpt lat="44.1749545" lon="10.3626532"><ele>797.7142857142857</ele><time>2026-04-03T10:54:51.3Z</time></trkpt><trkpt lat="44.1750263" lon="10.3626228"><ele>799.4285714285714</ele><time>2026-04-03T10:54:56.294Z</time></trkpt><trkpt lat="44.1750844" lon="10.3625828"><ele>801.1428571428571</ele><time>2026-04-03T10:55:00.295Z</time></trkpt><trkpt lat="44.1751398" lon="10.3625405"><ele>802.8571428571429</ele><time>2026-04-03T10:55:04.297Z</time></trkpt><trkpt lat="44.1752021" lon="10.3625129"><ele>804.5714285714286</ele><time>2026-04-03T10:55:08.301Z</time></trkpt><trkpt lat="44.1752679" lon="10.3624894"><ele>806.2857142857142</ele><time>2026-04-03T10:55:12.291Z</time></trkpt><trkpt lat="44.1753296" lon="10.3624543"><ele>808.0</ele><time>2026-04-03T10:55:17.305Z</time></trkpt><trkpt lat="44.1753826" lon="10.3623854"><ele>808.0</ele><time>2026-04-03T10:55:21.308Z</time></trkpt><trkpt lat="44.1754402" lon="10.3623377"><ele>808.0</ele><time>2026-04-03T10:55:25.286Z</time></trkpt><trkpt lat="44.1755011" lon="10.3622969"><ele>808.0</ele><time>2026-04-03T10:55:30.304Z</time></trkpt><trkpt lat="44.1755712" lon="10.3622698"><ele>808.0</ele><time>2026-04-03T10:55:35.3Z</time></trkpt><trkpt lat="44.1756393" lon="10.3622511"><ele>808.0</ele><time>2026-04-03T10:55:39.305Z</time></trkpt><trkpt lat="44.17571" lon="10.3622211"><ele>808.0</ele><time>2026-04-03T10:55:44.29Z</time></trkpt><trkpt lat="44.1757778" lon="10.3622226"><ele>808.0</ele><time>2026-04-03T10:55:48.285Z</time></trkpt><trkpt lat="44.1758484" lon="10.3622358"><ele>809.5714285714286</ele><time>2026-04-03T10:55:53.288Z</time></trkpt><trkpt lat="44.1759207" lon="10.3622126"><ele>811.1428571428571</ele><time>2026-04-03T10:55:57.287Z</time></trkpt><trkpt lat="44.1759802" lon="10.3621613"><ele>812.7142857142858</ele><time>2026-04-03T10:56:00.297Z</time></trkpt><trkpt lat="44.175993" lon="10.362058"><ele>814.2857142857142</ele><time>2026-04-03T10:56:05.29Z</time></trkpt><trkpt lat="44.1759677" lon="10.3619718"><ele>815.8571428571429</ele><time>2026-04-03T10:56:10.305Z</time></trkpt><trkpt lat="44.1759496" lon="10.3618689"><ele>817.4285714285714</ele><time>2026-04-03T10:56:15.295Z</time></trkpt><trkpt lat="44.1759193" lon="10.3617688"><ele>819.0</ele><time>2026-04-03T10:56:19.306Z</time></trkpt><trkpt lat="44.1758741" lon="10.3616758"><ele>819.0</ele><time>2026-04-03T10:56:22.298Z</time></trkpt><trkpt lat="44.1758214" lon="10.3615767"><ele>819.0</ele><time>2026-04-03T10:56:25.31Z</time></trkpt><trkpt lat="44.1757866" lon="10.3614881"><ele>819.0</ele><time>2026-04-03T10:56:27.301Z</time></trkpt><trkpt lat="44.1757411" lon="10.3613449"><ele>819.0</ele><time>2026-04-03T10:56:29.287Z</time></trkpt><trkpt lat="44.1756819" lon="10.3612134"><ele>819.0</ele><time>2026-04-03T10:56:31.304Z</time></trkpt><trkpt lat="44.1755887" lon="10.3611574"><ele>817.0</ele><time>2026-04-03T10:56:34.29Z</time></trkpt><trkpt lat="44.1755174" lon="10.3611134"><ele>815.0</ele><time>2026-04-03T10:56:37.289Z</time></trkpt><trkpt lat="44.1754587" lon="10.3610776"><ele>813.0</ele><time>2026-04-03T10:56:41.301Z</time></trkpt><trkpt lat="44.1754037" lon="10.3610105"><ele>811.0</ele><time>2026-04-03T10:56:46.296Z</time></trkpt><trkpt lat="44.1753496" lon="10.3609564"><ele>809.0</ele><time>2026-04-03T10:56:49.308Z</time></trkpt><trkpt lat="44.1752782" lon="10.360884"><ele>807.0</ele><time>2026-04-03T10:56:52.29Z</time></trkpt><trkpt lat="44.1752053" lon="10.3608131"><ele>807.0</ele><time>2026-04-03T10:56:54.295Z</time></trkpt><trkpt lat="44.1751405" lon="10.3607234"><ele>807.0</ele><time>2026-04-03T10:56:56.316Z</time></trkpt><trkpt lat="44.1750664" lon="10.3606482"><ele>807.0</ele><time>2026-04-03T10:56:58.294Z</time></trkpt><trkpt lat="44.1749987" lon="10.360599"><ele>807.0</ele><time>2026-04-03T10:56:59.296Z</time></trkpt><trkpt lat="44.1748928" lon="10.3605474"><ele>807.0</ele><time>2026-04-03T10:57:01.313Z</time></trkpt><trkpt lat="44.1748126" lon="10.360517"><ele>806.8</ele><time>2026-04-03T10:57:03.315Z</time></trkpt><trkpt lat="44.1747319" lon="10.3604966"><ele>806.6</ele><time>2026-04-03T10:57:05.302Z</time></trkpt><trkpt lat="44.174614" lon="10.360521"><ele>806.4</ele><time>2026-04-03T10:57:07.313Z</time></trkpt><trkpt lat="44.1745174" lon="10.3605617"><ele>806.1999999999999</ele><time>2026-04-03T10:57:09.317Z</time></trkpt><trkpt lat="44.1744025" lon="10.3605692"><ele>806.0</ele><time>2026-04-03T10:57:11.316Z</time></trkpt><trkpt lat="44.1743095" lon="10.3605738"><ele>806.0000000000001</ele><time>2026-04-03T10:57:13.311Z</time></trkpt><trkpt lat="44.1742239" lon="10.3605586"><ele>806.0</ele><time>2026-04-03T10:57:15.302Z</time></trkpt><trkpt lat="44.1741496" lon="10.3605174"><ele>806.0</ele><time>2026-04-03T10:57:17.314Z</time></trkpt><trkpt lat="44.174073" lon="10.3605271"><ele>806.0</ele><time>2026-04-03T10:57:21.314Z</time></trkpt><trkpt lat="44.1740683" lon="10.3606364"><ele>806.0000000000001</ele><time>2026-04-03T10:57:24.305Z</time></trkpt><trkpt lat="44.1741073" lon="10.3607206"><ele>806.0</ele><time>2026-04-03T10:57:28.3Z</time></trkpt><trkpt lat="44.1740952" lon="10.3608309"><ele>805.6666666666667</ele><time>2026-04-03T10:57:31.325Z</time></trkpt><trkpt lat="44.1740395" lon="10.360882"><ele>805.3333333333334</ele><time>2026-04-03T10:57:33.305Z</time></trkpt><trkpt lat="44.173967" lon="10.3608856"><ele>805.0</ele><time>2026-04-03T10:57:36.316Z</time></trkpt><trkpt lat="44.1738916" lon="10.3608688"><ele>804.6666666666667</ele><time>2026-04-03T10:57:39.316Z</time></trkpt><trkpt lat="44.1737886" lon="10.36084"><ele>804.3333333333334</ele><time>2026-04-03T10:57:42.309Z</time></trkpt><trkpt lat="44.1737233" lon="10.3608037"><ele>804.0</ele><time>2026-04-03T10:57:44.313Z</time></trkpt><trkpt lat="44.1736333" lon="10.3607962"><ele>803.2</ele><time>2026-04-03T10:57:47.306Z</time></trkpt><trkpt lat="44.1735661" lon="10.3607819"><ele>802.4000000000001</ele><time>2026-04-03T10:57:49.296Z</time></trkpt><trkpt lat="44.1734893" lon="10.3607785"><ele>801.6</ele><time>2026-04-03T10:57:51.294Z</time></trkpt><trkpt lat="44.173395" lon="10.3607819"><ele>800.8</ele><time>2026-04-03T10:57:53.292Z</time></trkpt><trkpt lat="44.173278" lon="10.3607847"><ele>800.0</ele><time>2026-04-03T10:57:55.297Z</time></trkpt><trkpt lat="44.1731643" lon="10.3607555"><ele>799.8</ele><time>2026-04-03T10:57:57.299Z</time></trkpt><trkpt lat="44.1730767" lon="10.3607837"><ele>799.6</ele><time>2026-04-03T10:57:59.309Z</time></trkpt><trkpt lat="44.1729978" lon="10.360851"><ele>799.4000000000001</ele><time>2026-04-03T10:58:01.307Z</time></trkpt><trkpt lat="44.1729077" lon="10.3609114"><ele>799.2</ele><time>2026-04-03T10:58:03.315Z</time></trkpt><trkpt lat="44.1728171" lon="10.3609446"><ele>799.0</ele><time>2026-04-03T10:58:05.308Z</time></trkpt><trkpt lat="44.1726983" lon="10.3609391"><ele>799.0</ele><time>2026-04-03T10:58:07.306Z</time></trkpt><trkpt lat="44.1725886" lon="10.3609518"><ele>799.0</ele><time>2026-04-03T10:58:09.299Z</time></trkpt><trkpt lat="44.1724652" lon="10.3609936"><ele>799.0</ele><time>2026-04-03T10:58:11.292Z</time></trkpt><trkpt lat="44.1723657" lon="10.3609708"><ele>799.0</ele><time>2026-04-03T10:58:13.305Z</time></trkpt><trkpt lat="44.1722666" lon="10.3609798"><ele>799.0</ele><time>2026-04-03T10:58:15.302Z</time></trkpt><trkpt lat="44.1721837" lon="10.3610041"><ele>798.4999999999999</ele><time>2026-04-03T10:58:17.3Z</time></trkpt><trkpt lat="44.1720904" lon="10.3609802"><ele>798.0</ele><time>2026-04-03T10:58:19.308Z</time></trkpt><trkpt lat="44.1720176" lon="10.3608824"><ele>797.5</ele><time>2026-04-03T10:58:21.313Z</time></trkpt><trkpt lat="44.1719394" lon="10.3608165"><ele>797.0</ele><time>2026-04-03T10:58:23.302Z</time></trkpt><trkpt lat="44.1718733" lon="10.3607496"><ele>796.4999999999999</ele><time>2026-04-03T10:58:25.302Z</time></trkpt><trkpt lat="44.1718175" lon="10.3607073"><ele>796.0</ele><time>2026-04-03T10:58:27.308Z</time></trkpt><trkpt lat="44.171741" lon="10.3607014"><ele>795.9999999999999</ele><time>2026-04-03T10:58:29.314Z</time></trkpt><trkpt lat="44.1716773" lon="10.3606603"><ele>796.0</ele><time>2026-04-03T10:58:31.299Z</time></trkpt><trkpt lat="44.1715785" lon="10.36058"><ele>796.0</ele><time>2026-04-03T10:58:33.31Z</time></trkpt><trkpt lat="44.1714885" lon="10.3605986"><ele>796.0</ele><time>2026-04-03T10:58:35.299Z</time></trkpt><trkpt lat="44.1713954" lon="10.3605934"><ele>795.9999999999999</ele><time>2026-04-03T10:58:37.301Z</time></trkpt><trkpt lat="44.1713203" lon="10.360597"><ele>796.0</ele><time>2026-04-03T10:58:39.32Z</time></trkpt><trkpt lat="44.1712421" lon="10.3605826"><ele>795.1666666666666</ele><time>2026-04-03T10:58:41.302Z</time></trkpt><trkpt lat="44.1711404" lon="10.3606047"><ele>794.3333333333333</ele><time>2026-04-03T10:58:44.313Z</time></trkpt><trkpt lat="44.1711083" lon="10.3607046"><ele>793.5</ele><time>2026-04-03T10:58:47.294Z</time></trkpt><trkpt lat="44.1710835" lon="10.360792"><ele>792.6666666666667</ele><time>2026-04-03T10:58:50.311Z</time></trkpt><trkpt lat="44.1710486" lon="10.3608983"><ele>791.8333333333334</ele><time>2026-04-03T10:58:54.3Z</time></trkpt><trkpt lat="44.1709947" lon="10.3609994"><ele>791.0</ele><time>2026-04-03T10:58:57.295Z</time></trkpt><trkpt lat="44.1709582" lon="10.3611345"><ele>791.0</ele><time>2026-04-03T10:58:59.318Z</time></trkpt><trkpt lat="44.1709492" lon="10.3612973"><ele>791.0</ele><time>2026-04-03T10:59:01.303Z</time></trkpt><trkpt lat="44.1709139" lon="10.3614507"><ele>791.0</ele><time>2026-04-03T10:59:03.299Z</time></trkpt><trkpt lat="44.1708616" lon="10.3615345"><ele>791.0</ele><time>2026-04-03T10:59:05.304Z</time></trkpt><trkpt lat="44.1708204" lon="10.361601"><ele>791.0</ele><time>2026-04-03T10:59:07.309Z</time></trkpt><trkpt lat="44.1708198" lon="10.3617128"><ele>790.0</ele><time>2026-04-03T10:59:09.306Z</time></trkpt><trkpt lat="44.1708071" lon="10.3618342"><ele>789.0</ele><time>2026-04-03T10:59:11.308Z</time></trkpt><trkpt lat="44.1707515" lon="10.3619565"><ele>788.0</ele><time>2026-04-03T10:59:13.292Z</time></trkpt><trkpt lat="44.1707016" lon="10.362072"><ele>787.0</ele><time>2026-04-03T10:59:15.311Z</time></trkpt><trkpt lat="44.1706373" lon="10.3621455"><ele>786.0</ele><time>2026-04-03T10:59:17.308Z</time></trkpt><trkpt lat="44.1706017" lon="10.3623001"><ele>784.3333333333334</ele><time>2026-04-03T10:59:20.314Z</time></trkpt><trkpt lat="44.1705495" lon="10.3623492"><ele>782.6666666666667</ele><time>2026-04-03T10:59:22.31Z</time></trkpt><trkpt lat="44.1704876" lon="10.362411"><ele>781.0</ele><time>2026-04-03T10:59:24.315Z</time></trkpt><trkpt lat="44.1704242" lon="10.3624726"><ele>779.3333333333334</ele><time>2026-04-03T10:59:27.302Z</time></trkpt><trkpt lat="44.1703408" lon="10.3625326"><ele>777.6666666666667</ele><time>2026-04-03T10:59:30.323Z</time></trkpt><trkpt lat="44.1702444" lon="10.3625959"><ele>776.0</ele><time>2026-04-03T10:59:32.317Z</time></trkpt><trkpt lat="44.1701765" lon="10.3626478"><ele>776.0</ele><time>2026-04-03T10:59:33.3Z</time></trkpt><trkpt lat="44.1701228" lon="10.3626994"><ele>776.0</ele><time>2026-04-03T10:59:34.308Z</time></trkpt><trkpt lat="44.1700156" lon="10.3627775"><ele>776.0</ele><time>2026-04-03T10:59:36.308Z</time></trkpt><trkpt lat="44.1699102" lon="10.3628365"><ele>776.0</ele><time>2026-04-03T10:59:38.312Z</time></trkpt><trkpt lat="44.1698012" lon="10.3628496"><ele>776.0</ele><time>2026-04-03T10:59:40.315Z</time></trkpt><trkpt lat="44.1697177" lon="10.3628367"><ele>775.4285714285714</ele><time>2026-04-03T10:59:42.306Z</time></trkpt><trkpt lat="44.1696573" lon="10.3627901"><ele>774.8571428571429</ele><time>2026-04-03T10:59:44.3Z</time></trkpt><trkpt lat="44.1696006" lon="10.3627173"><ele>774.2857142857143</ele><time>2026-04-03T10:59:47.303Z</time></trkpt><trkpt lat="44.1695608" lon="10.3626113"><ele>773.7142857142858</ele><time>2026-04-03T10:59:51.29Z</time></trkpt><trkpt lat="44.1695403" lon="10.3625228"><ele>773.1428571428571</ele><time>2026-04-03T10:59:53.313Z</time></trkpt><trkpt lat="44.169509" lon="10.3624354"><ele>772.5714285714287</ele><time>2026-04-03T10:59:57.308Z</time></trkpt><trkpt lat="44.1694806" lon="10.3623509"><ele>772.0</ele><time>2026-04-03T11:00:01.317Z</time></trkpt><trkpt lat="44.1694308" lon="10.3622538"><ele>772.6666666666666</ele><time>2026-04-03T11:00:05.308Z</time></trkpt><trkpt lat="44.1693771" lon="10.3621772"><ele>773.3333333333333</ele><time>2026-04-03T11:00:09.294Z</time></trkpt><trkpt lat="44.1693133" lon="10.3621892"><ele>774.0</ele><time>2026-04-03T11:00:12.32Z</time></trkpt><trkpt lat="44.1692252" lon="10.3621598"><ele>774.6666666666667</ele><time>2026-04-03T11:00:15.302Z</time></trkpt><trkpt lat="44.1691367" lon="10.3621544"><ele>775.3333333333334</ele><time>2026-04-03T11:00:18.296Z</time></trkpt><trkpt lat="44.1690788" lon="10.3620883"><ele>776.0</ele><time>2026-04-03T11:00:21.314Z</time></trkpt><trkpt lat="44.1690071" lon="10.3620629"><ele>773.7142857142857</ele><time>2026-04-03T11:00:26.313Z</time></trkpt><trkpt lat="44.1689368" lon="10.3620334"><ele>771.4285714285714</ele><time>2026-04-03T11:00:30.318Z</time></trkpt><trkpt lat="44.1688688" lon="10.3620098"><ele>769.1428571428571</ele><time>2026-04-03T11:00:36.302Z</time></trkpt><trkpt lat="44.1688017" lon="10.3619827"><ele>766.8571428571429</ele><time>2026-04-03T11:00:42.311Z</time></trkpt><trkpt lat="44.1687472" lon="10.3619223"><ele>764.5714285714287</ele><time>2026-04-03T11:00:49.314Z</time></trkpt><trkpt lat="44.1686686" lon="10.3618994"><ele>762.2857142857143</ele><time>2026-04-03T11:00:52.311Z</time></trkpt><trkpt lat="44.1686054" lon="10.3618556"><ele>760.0</ele><time>2026-04-03T11:00:55.313Z</time></trkpt><trkpt lat="44.1685487" lon="10.3617909"><ele>760.0</ele><time>2026-04-03T11:00:58.314Z</time></trkpt><trkpt lat="44.1684756" lon="10.3617396"><ele>760.0</ele><time>2026-04-03T11:01:01.306Z</time></trkpt><trkpt lat="44.1684028" lon="10.3616992"><ele>760.0</ele><time>2026-04-03T11:01:04.302Z</time></trkpt><trkpt lat="44.1683358" lon="10.3616718"><ele>760.0</ele><time>2026-04-03T11:01:07.316Z</time></trkpt><trkpt lat="44.1682769" lon="10.3616002"><ele>760.0</ele><time>2026-04-03T11:01:15.296Z</time></trkpt><trkpt lat="44.168217" lon="10.3615395"><ele>760.0</ele><time>2026-04-03T11:01:20.308Z</time></trkpt><trkpt lat="44.1681554" lon="10.3615057"><ele>760.0</ele><time>2026-04-03T11:01:26.297Z</time></trkpt><trkpt lat="44.1680456" lon="10.3615883"><ele>757.0</ele><time>2026-04-03T11:02:34.316Z</time></trkpt><trkpt lat="44.1680126" lon="10.3616641"><ele>754.0</ele><time>2026-04-03T11:02:37.29Z</time></trkpt><trkpt lat="44.167953" lon="10.3616962"><ele>751.0</ele><time>2026-04-03T11:02:41.311Z</time></trkpt><trkpt lat="44.1678957" lon="10.3617438"><ele>748.0</ele><time>2026-04-03T11:02:48.294Z</time></trkpt><trkpt lat="44.1678299" lon="10.3617292"><ele>745.0</ele><time>2026-04-03T11:02:56.304Z</time></trkpt><trkpt lat="44.1677636" lon="10.3617363"><ele>742.0</ele><time>2026-04-03T11:03:05.313Z</time></trkpt><trkpt lat="44.1676983" lon="10.3617715"><ele>739.0</ele><time>2026-04-03T11:03:11.295Z</time></trkpt><trkpt lat="44.1676442" lon="10.3618281"><ele>739.0</ele><time>2026-04-03T11:03:17.305Z</time></trkpt><trkpt lat="44.1675803" lon="10.3618553"><ele>739.0</ele><time>2026-04-03T11:03:49.309Z</time></trkpt><trkpt lat="44.1675084" lon="10.3618189"><ele>739.0</ele><time>2026-04-03T11:03:55.298Z</time></trkpt><trkpt lat="44.1674325" lon="10.3618403"><ele>739.0</ele><time>2026-04-03T11:03:58.295Z</time></trkpt><trkpt lat="44.1673799" lon="10.3619118"><ele>739.0</ele><time>2026-04-03T11:04:01.302Z</time></trkpt><trkpt lat="44.1673599" lon="10.3620114"><ele>739.0</ele><time>2026-04-03T11:04:05.296Z</time></trkpt><trkpt lat="44.1673251" lon="10.3620875"><ele>739.0</ele><time>2026-04-03T11:04:08.292Z</time></trkpt><trkpt lat="44.1672722" lon="10.3621606"><ele>735.5</ele><time>2026-04-03T11:04:10.301Z</time></trkpt><trkpt lat="44.1672255" lon="10.3622532"><ele>732.0</ele><time>2026-04-03T11:04:12.297Z</time></trkpt><trkpt lat="44.1672176" lon="10.3623485"><ele>728.5</ele><time>2026-04-03T11:04:16.291Z</time></trkpt><trkpt lat="44.1671683" lon="10.362427"><ele>725.0</ele><time>2026-04-03T11:04:19.29Z</time></trkpt><trkpt lat="44.1671072" lon="10.3625191"><ele>721.5</ele><time>2026-04-03T11:04:23.3Z</time></trkpt><trkpt lat="44.1670328" lon="10.3625724"><ele>718.0</ele><time>2026-04-03T11:04:26.288Z</time></trkpt><trkpt lat="44.166988" lon="10.3626696"><ele>718.0</ele><time>2026-04-03T11:04:29.312Z</time></trkpt><trkpt lat="44.1669368" lon="10.3627637"><ele>718.0</ele><time>2026-04-03T11:04:33.307Z</time></trkpt><trkpt lat="44.1668713" lon="10.3628239"><ele>718.0</ele><time>2026-04-03T11:04:36.296Z</time></trkpt><trkpt lat="44.1667996" lon="10.3628814"><ele>718.0</ele><time>2026-04-03T11:04:38.303Z</time></trkpt><trkpt lat="44.1667393" lon="10.3629254"><ele>718.0</ele><time>2026-04-03T11:04:47.302Z</time></trkpt><trkpt lat="44.1666573" lon="10.3629507"><ele>718.0</ele><time>2026-04-03T11:04:53.292Z</time></trkpt><trkpt lat="44.1666123" lon="10.3630374"><ele>718.8571428571429</ele><time>2026-04-03T11:04:57.312Z</time></trkpt><trkpt lat="44.1665709" lon="10.3631201"><ele>719.7142857142858</ele><time>2026-04-03T11:05:00.294Z</time></trkpt><trkpt lat="44.1665061" lon="10.3631767"><ele>720.5714285714286</ele><time>2026-04-03T11:05:04.306Z</time></trkpt><trkpt lat="44.1664481" lon="10.3632464"><ele>721.4285714285714</ele><time>2026-04-03T11:05:07.304Z</time></trkpt><trkpt lat="44.1664035" lon="10.3633084"><ele>722.2857142857142</ele><time>2026-04-03T11:05:10.3Z</time></trkpt><trkpt lat="44.1663561" lon="10.3633732"><ele>723.1428571428571</ele><time>2026-04-03T11:05:13.285Z</time></trkpt><trkpt lat="44.1662753" lon="10.3634114"><ele>724.0</ele><time>2026-04-03T11:05:17.299Z</time></trkpt><trkpt lat="44.1662013" lon="10.3634249"><ele>719.4000000000001</ele><time>2026-04-03T11:05:20.304Z</time></trkpt><trkpt lat="44.1661311" lon="10.3634467"><ele>714.8</ele><time>2026-04-03T11:05:23.296Z</time></trkpt><trkpt lat="44.1661071" lon="10.3635573"><ele>710.2</ele><time>2026-04-03T11:05:25.293Z</time></trkpt><trkpt lat="44.1661177" lon="10.3637257"><ele>705.5999999999999</ele><time>2026-04-03T11:05:27.296Z</time></trkpt><trkpt lat="44.1661268" lon="10.3638671"><ele>701.0</ele><time>2026-04-03T11:05:29.308Z</time></trkpt><trkpt lat="44.1661038" lon="10.3640268"><ele>700.6666666666666</ele><time>2026-04-03T11:05:31.296Z</time></trkpt><trkpt lat="44.1660813" lon="10.3641618"><ele>700.3333333333333</ele><time>2026-04-03T11:05:33.297Z</time></trkpt><trkpt lat="44.166079" lon="10.3642539"><ele>700.0</ele><time>2026-04-03T11:05:36.299Z</time></trkpt><trkpt lat="44.166072" lon="10.3643571"><ele>699.6666666666666</ele><time>2026-04-03T11:05:39.289Z</time></trkpt><trkpt lat="44.1660625" lon="10.3644527"><ele>699.3333333333334</ele><time>2026-04-03T11:05:41.294Z</time></trkpt><trkpt lat="44.1660908" lon="10.3645498"><ele>699.0</ele><time>2026-04-03T11:05:45.303Z</time></trkpt><trkpt lat="44.1661292" lon="10.364629"><ele>698.5714285714286</ele><time>2026-04-03T11:05:48.289Z</time></trkpt><trkpt lat="44.1661685" lon="10.3647116"><ele>698.1428571428572</ele><time>2026-04-03T11:05:52.291Z</time></trkpt><trkpt lat="44.1661646" lon="10.3648205"><ele>697.7142857142858</ele><time>2026-04-03T11:05:56.29Z</time></trkpt><trkpt lat="44.1661522" lon="10.3649143"><ele>697.2857142857142</ele><time>2026-04-03T11:05:58.289Z</time></trkpt><trkpt lat="44.1661606" lon="10.3650252"><ele>696.8571428571429</ele><time>2026-04-03T11:06:01.292Z</time></trkpt><trkpt lat="44.1661881" lon="10.3651084"><ele>696.4285714285714</ele><time>2026-04-03T11:06:03.3Z</time></trkpt><trkpt lat="44.1661786" lon="10.3652061"><ele>696.0</ele><time>2026-04-03T11:06:06.324Z</time></trkpt><trkpt lat="44.1661344" lon="10.3653196"><ele>696.0</ele><time>2026-04-03T11:06:09.301Z</time></trkpt><trkpt lat="44.1661068" lon="10.3654434"><ele>696.0</ele><time>2026-04-03T11:06:12.29Z</time></trkpt><trkpt lat="44.1660911" lon="10.3655356"><ele>696.0</ele><time>2026-04-03T11:06:14.293Z</time></trkpt><trkpt lat="44.1660603" lon="10.3656299"><ele>696.0</ele><time>2026-04-03T11:06:16.3Z</time></trkpt><trkpt lat="44.1660069" lon="10.3657976"><ele>696.0</ele><time>2026-04-03T11:06:18.29Z</time></trkpt><trkpt lat="44.1659571" lon="10.3659142"><ele>695.6666666666666</ele><time>2026-04-03T11:06:20.289Z</time></trkpt><trkpt lat="44.1659353" lon="10.3660122"><ele>695.3333333333334</ele><time>2026-04-03T11:06:22.29Z</time></trkpt><trkpt lat="44.1659447" lon="10.3661171"><ele>695.0</ele><time>2026-04-03T11:06:26.293Z</time></trkpt><trkpt lat="44.1659166" lon="10.3662178"><ele>694.6666666666667</ele><time>2026-04-03T11:06:36.307Z</time></trkpt><trkpt lat="44.1658565" lon="10.3662597"><ele>694.3333333333334</ele><time>2026-04-03T11:06:41.285Z</time></trkpt><trkpt lat="44.1657826" lon="10.3662455"><ele>694.0</ele><time>2026-04-03T11:06:44.295Z</time></trkpt><trkpt lat="44.1658087" lon="10.3661357"><ele>694.0</ele><time>2026-04-03T11:06:47.314Z</time></trkpt><trkpt lat="44.1658238" lon="10.3660326"><ele>694.0</ele><time>2026-04-03T11:06:49.299Z</time></trkpt><trkpt lat="44.1658229" lon="10.3658818"><ele>694.0</ele><time>2026-04-03T11:06:51.297Z</time></trkpt><trkpt lat="44.1658447" lon="10.3657511"><ele>694.0</ele><time>2026-04-03T11:06:53.295Z</time></trkpt><trkpt lat="44.165842" lon="10.3656033"><ele>694.0</ele><time>2026-04-03T11:06:55.299Z</time></trkpt><trkpt lat="44.1657746" lon="10.3654588"><ele>690.6</ele><time>2026-04-03T11:06:57.304Z</time></trkpt><trkpt lat="44.1656929" lon="10.3653438"><ele>687.2</ele><time>2026-04-03T11:06:59.305Z</time></trkpt><trkpt lat="44.1655983" lon="10.3652251"><ele>683.8000000000001</ele><time>2026-04-03T11:07:01.311Z</time></trkpt><trkpt lat="44.1655493" lon="10.3651561"><ele>680.4000000000001</ele><time>2026-04-03T11:07:02.301Z</time></trkpt><trkpt lat="44.1654711" lon="10.3650991"><ele>677.0</ele><time>2026-04-03T11:07:03.301Z</time></trkpt><trkpt lat="44.1653991" lon="10.3650759"><ele>677.0</ele><time>2026-04-03T11:07:04.297Z</time></trkpt><trkpt lat="44.1653308" lon="10.365074"><ele>677.0</ele><time>2026-04-03T11:07:05.305Z</time></trkpt><trkpt lat="44.1652523" lon="10.3650763"><ele>677.0</ele><time>2026-04-03T11:07:06.297Z</time></trkpt><trkpt lat="44.1651875" lon="10.3650811"><ele>677.0</ele><time>2026-04-03T11:07:07.299Z</time></trkpt><trkpt lat="44.1650781" lon="10.3650959"><ele>677.0</ele><time>2026-04-03T11:07:09.298Z</time></trkpt><trkpt lat="44.1649795" lon="10.3650476"><ele>677.0</ele><time>2026-04-03T11:07:11.292Z</time></trkpt><trkpt lat="44.1649044" lon="10.3649435"><ele>677.0</ele><time>2026-04-03T11:07:13.308Z</time></trkpt><trkpt lat="44.1649105" lon="10.3648456"><ele>677.0</ele><time>2026-04-03T11:07:14.31Z</time></trkpt><trkpt lat="44.1649257" lon="10.3647603"><ele>677.0</ele><time>2026-04-03T11:07:15.301Z</time></trkpt><trkpt lat="44.1649344" lon="10.3646662"><ele>677.0</ele><time>2026-04-03T11:07:16.293Z</time></trkpt><trkpt lat="44.1649782" lon="10.3645633"><ele>677.0</ele><time>2026-04-03T11:07:17.289Z</time></trkpt><trkpt lat="44.1650079" lon="10.364461"><ele>677.0</ele><time>2026-04-03T11:07:18.3Z</time></trkpt><trkpt lat="44.1650333" lon="10.3643496"><ele>677.0</ele><time>2026-04-03T11:07:19.301Z</time></trkpt><trkpt lat="44.16505" lon="10.3642413"><ele>677.0</ele><time>2026-04-03T11:07:20.318Z</time></trkpt><trkpt lat="44.1650393" lon="10.3641071"><ele>677.0</ele><time>2026-04-03T11:07:21.316Z</time></trkpt><trkpt lat="44.1650257" lon="10.3639874"><ele>677.0</ele><time>2026-04-03T11:07:22.298Z</time></trkpt><trkpt lat="44.165016" lon="10.3638747"><ele>677.0</ele><time>2026-04-03T11:07:23.3Z</time></trkpt><trkpt lat="44.1650042" lon="10.3637656"><ele>677.0</ele><time>2026-04-03T11:07:24.3Z</time></trkpt><trkpt lat="44.1649853" lon="10.3636813"><ele>676.5</ele><time>2026-04-03T11:07:25.299Z</time></trkpt><trkpt lat="44.1649807" lon="10.3635773"><ele>676.0</ele><time>2026-04-03T11:07:26.302Z</time></trkpt><trkpt lat="44.1649897" lon="10.3634852"><ele>675.5</ele><time>2026-04-03T11:07:27.305Z</time></trkpt><trkpt lat="44.165" lon="10.3633665"><ele>675.0</ele><time>2026-04-03T11:07:28.303Z</time></trkpt><trkpt lat="44.1650219" lon="10.3632538"><ele>674.5</ele><time>2026-04-03T11:07:29.292Z</time></trkpt><trkpt lat="44.165058" lon="10.3631703"><ele>674.0</ele><time>2026-04-03T11:07:30.3Z</time></trkpt><trkpt lat="44.1650893" lon="10.3630702"><ele>673.2</ele><time>2026-04-03T11:07:31.3Z</time></trkpt><trkpt lat="44.1651265" lon="10.3629739"><ele>672.4000000000001</ele><time>2026-04-03T11:07:32.31Z</time></trkpt><trkpt lat="44.1651749" lon="10.3628852"><ele>671.6</ele><time>2026-04-03T11:07:33.302Z</time></trkpt><trkpt lat="44.1652098" lon="10.3627869"><ele>670.8</ele><time>2026-04-03T11:07:34.305Z</time></trkpt><trkpt lat="44.1652415" lon="10.3626262"><ele>670.0</ele><time>2026-04-03T11:07:36.315Z</time></trkpt><trkpt lat="44.1651971" lon="10.3624887"><ele>670.0</ele><time>2026-04-03T11:07:38.313Z</time></trkpt><trkpt lat="44.165098" lon="10.3624224"><ele>670.0</ele><time>2026-04-03T11:07:40.303Z</time></trkpt><trkpt lat="44.165008" lon="10.3623733"><ele>670.0</ele><time>2026-04-03T11:07:42.3Z</time></trkpt><trkpt lat="44.1649242" lon="10.3622918"><ele>670.0</ele><time>2026-04-03T11:07:44.3Z</time></trkpt><trkpt lat="44.16488" lon="10.362147"><ele>670.0</ele><time>2026-04-03T11:07:46.289Z</time></trkpt><trkpt lat="44.1648681" lon="10.3619688"><ele>669.4285714285713</ele><time>2026-04-03T11:07:48.305Z</time></trkpt><trkpt lat="44.1648578" lon="10.361876"><ele>668.8571428571429</ele><time>2026-04-03T11:07:49.304Z</time></trkpt><trkpt lat="44.1648663" lon="10.3617709"><ele>668.2857142857142</ele><time>2026-04-03T11:07:50.295Z</time></trkpt><trkpt lat="44.1648858" lon="10.3616608"><ele>667.7142857142857</ele><time>2026-04-03T11:07:51.3Z</time></trkpt><trkpt lat="44.1648963" lon="10.3615522"><ele>667.1428571428571</ele><time>2026-04-03T11:07:52.302Z</time></trkpt><trkpt lat="44.1649112" lon="10.3614533"><ele>666.5714285714286</ele><time>2026-04-03T11:07:53.292Z</time></trkpt><trkpt lat="44.1649233" lon="10.3613625"><ele>666.0</ele><time>2026-04-03T11:07:54.292Z</time></trkpt><trkpt lat="44.1649587" lon="10.3612776"><ele>662.1999999999999</ele><time>2026-04-03T11:07:55.295Z</time></trkpt><trkpt lat="44.1649984" lon="10.3612007"><ele>658.4</ele><time>2026-04-03T11:07:56.3Z</time></trkpt><trkpt lat="44.1650598" lon="10.3611441"><ele>654.6</ele><time>2026-04-03T11:07:57.297Z</time></trkpt><trkpt lat="44.1651009" lon="10.3610768"><ele>650.8</ele><time>2026-04-03T11:07:58.306Z</time></trkpt><trkpt lat="44.1651241" lon="10.3609008"><ele>647.0</ele><time>2026-04-03T11:08:00.301Z</time></trkpt><trkpt lat="44.1651363" lon="10.3607256"><ele>647.0</ele><time>2026-04-03T11:08:02.297Z</time></trkpt><trkpt lat="44.16522" lon="10.3606111"><ele>647.0</ele><time>2026-04-03T11:08:04.308Z</time></trkpt><trkpt lat="44.1653261" lon="10.360504"><ele>647.0</ele><time>2026-04-03T11:08:06.302Z</time></trkpt><trkpt lat="44.1653785" lon="10.360433"><ele>647.0</ele><time>2026-04-03T11:08:07.302Z</time></trkpt><trkpt lat="44.1654217" lon="10.3603289"><ele>647.0</ele><time>2026-04-03T11:08:08.302Z</time></trkpt><trkpt lat="44.1654447" lon="10.3602075"><ele>644.1666666666666</ele><time>2026-04-03T11:08:09.291Z</time></trkpt><trkpt lat="44.1654686" lon="10.3600892"><ele>641.3333333333333</ele><time>2026-04-03T11:08:10.305Z</time></trkpt><trkpt lat="44.1654738" lon="10.3599767"><ele>638.5</ele><time>2026-04-03T11:08:11.29Z</time></trkpt><trkpt lat="44.165471" lon="10.3598581"><ele>635.6666666666666</ele><time>2026-04-03T11:08:12.302Z</time></trkpt><trkpt lat="44.1654717" lon="10.3597648"><ele>632.8333333333334</ele><time>2026-04-03T11:08:13.305Z</time></trkpt><trkpt lat="44.1654739" lon="10.3596021"><ele>630.0</ele><time>2026-04-03T11:08:15.305Z</time></trkpt><trkpt lat="44.1654307" lon="10.3595021"><ele>630.0</ele><time>2026-04-03T11:08:17.293Z</time></trkpt><trkpt lat="44.1653633" lon="10.359506"><ele>630.0</ele><time>2026-04-03T11:08:20.298Z</time></trkpt><trkpt lat="44.1653194" lon="10.3596461"><ele>630.0</ele><time>2026-04-03T11:08:23.302Z</time></trkpt><trkpt lat="44.1653085" lon="10.359792"><ele>630.0</ele><time>2026-04-03T11:08:25.301Z</time></trkpt><trkpt lat="44.1652688" lon="10.3599427"><ele>630.0</ele><time>2026-04-03T11:08:27.313Z</time></trkpt><trkpt lat="44.1652108" lon="10.3600909"><ele>630.0</ele><time>2026-04-03T11:08:29.312Z</time></trkpt><trkpt lat="44.1651678" lon="10.3601582"><ele>630.0</ele><time>2026-04-03T11:08:30.306Z</time></trkpt><trkpt lat="44.1651185" lon="10.3602272"><ele>630.0</ele><time>2026-04-03T11:08:31.309Z</time></trkpt><trkpt lat="44.1650358" lon="10.360351"><ele>630.0</ele><time>2026-04-03T11:08:33.308Z</time></trkpt><trkpt lat="44.1649661" lon="10.3604793"><ele>630.0</ele><time>2026-04-03T11:08:35.305Z</time></trkpt><trkpt lat="44.1648983" lon="10.3605731"><ele>626.6</ele><time>2026-04-03T11:08:37.306Z</time></trkpt><trkpt lat="44.1648284" lon="10.3606633"><ele>623.2</ele><time>2026-04-03T11:08:39.306Z</time></trkpt><trkpt lat="44.1647921" lon="10.3607356"><ele>619.8</ele><time>2026-04-03T11:08:40.314Z</time></trkpt><trkpt lat="44.1647223" lon="10.3608776"><ele>616.4</ele><time>2026-04-03T11:08:42.3Z</time></trkpt><trkpt lat="44.1646846" lon="10.3609524"><ele>613.0</ele><time>2026-04-03T11:08:43.302Z</time></trkpt><trkpt lat="44.164582" lon="10.3610575"><ele>613.0</ele><time>2026-04-03T11:08:45.287Z</time></trkpt><trkpt lat="44.164516" lon="10.3611047"><ele>613.0</ele><time>2026-04-03T11:08:46.303Z</time></trkpt><trkpt lat="44.1644623" lon="10.361159"><ele>613.0</ele><time>2026-04-03T11:08:47.308Z</time></trkpt><trkpt lat="44.1644024" lon="10.3612059"><ele>613.0</ele><time>2026-04-03T11:08:48.302Z</time></trkpt><trkpt lat="44.1642943" lon="10.3612699"><ele>613.0</ele><time>2026-04-03T11:08:50.295Z</time></trkpt><trkpt lat="44.1641857" lon="10.3613108"><ele>613.0</ele><time>2026-04-03T11:08:52.306Z</time></trkpt><trkpt lat="44.164128" lon="10.3613461"><ele>611.1999999999999</ele><time>2026-04-03T11:08:53.289Z</time></trkpt><trkpt lat="44.1640196" lon="10.3614238"><ele>609.4</ele><time>2026-04-03T11:08:55.294Z</time></trkpt><trkpt lat="44.1639819" lon="10.361507"><ele>607.5999999999999</ele><time>2026-04-03T11:08:56.292Z</time></trkpt><trkpt lat="44.163925" lon="10.3616539"><ele>605.8</ele><time>2026-04-03T11:08:58.295Z</time></trkpt><trkpt lat="44.1639103" lon="10.3617408"><ele>604.0</ele><time>2026-04-03T11:08:59.314Z</time></trkpt><trkpt lat="44.1639121" lon="10.361847"><ele>604.0</ele><time>2026-04-03T11:09:00.294Z</time></trkpt><trkpt lat="44.1639077" lon="10.3619421"><ele>604.0</ele><time>2026-04-03T11:09:01.297Z</time></trkpt><trkpt lat="44.1638948" lon="10.3620644"><ele>604.0</ele><time>2026-04-03T11:09:02.321Z</time></trkpt><trkpt lat="44.1638727" lon="10.3621661"><ele>604.0</ele><time>2026-04-03T11:09:03.296Z</time></trkpt><trkpt lat="44.1638532" lon="10.3623281"><ele>604.0</ele><time>2026-04-03T11:09:05.288Z</time></trkpt><trkpt lat="44.163813" lon="10.3624171"><ele>604.0</ele><time>2026-04-03T11:09:07.291Z</time></trkpt><trkpt lat="44.1637243" lon="10.3624128"><ele>604.0</ele><time>2026-04-03T11:09:10.306Z</time></trkpt><trkpt lat="44.1636904" lon="10.3623099"><ele>604.0</ele><time>2026-04-03T11:09:12.305Z</time></trkpt><trkpt lat="44.163644" lon="10.3621571"><ele>604.0</ele><time>2026-04-03T11:09:14.297Z</time></trkpt><trkpt lat="44.1635664" lon="10.36204"><ele>604.0</ele><time>2026-04-03T11:09:16.299Z</time></trkpt><trkpt lat="44.163521" lon="10.3619294"><ele>604.0</ele><time>2026-04-03T11:09:18.29Z</time></trkpt><trkpt lat="44.1635054" lon="10.3617953"><ele>604.0</ele><time>2026-04-03T11:09:20.3Z</time></trkpt><trkpt lat="44.1634875" lon="10.3616579"><ele>604.0</ele><time>2026-04-03T11:09:22.293Z</time></trkpt><trkpt lat="44.1634393" lon="10.3615875"><ele>604.0</ele><time>2026-04-03T11:09:24.288Z</time></trkpt><trkpt lat="44.1633507" lon="10.3616405"><ele>604.0</ele><time>2026-04-03T11:09:26.313Z</time></trkpt><trkpt lat="44.1633183" lon="10.3617757"><ele>604.0</ele><time>2026-04-03T11:09:28.303Z</time></trkpt><trkpt lat="44.1632916" lon="10.3618903"><ele>604.0</ele><time>2026-04-03T11:09:30.317Z</time></trkpt><trkpt lat="44.1632313" lon="10.3619348"><ele>604.0</ele><time>2026-04-03T11:09:32.299Z</time></trkpt><trkpt lat="44.1631883" lon="10.3618549"><ele>604.0</ele><time>2026-04-03T11:09:34.296Z</time></trkpt><trkpt lat="44.1631901" lon="10.3617166"><ele>604.0</ele><time>2026-04-03T11:09:36.298Z</time></trkpt><trkpt lat="44.1631486" lon="10.3615651"><ele>604.0</ele><time>2026-04-03T11:09:38.312Z</time></trkpt><trkpt lat="44.1631043" lon="10.3614314"><ele>600.0</ele><time>2026-04-03T11:09:40.309Z</time></trkpt><trkpt lat="44.163073" lon="10.361311"><ele>596.0</ele><time>2026-04-03T11:09:42.296Z</time></trkpt><trkpt lat="44.1631101" lon="10.3611915"><ele>592.0</ele><time>2026-04-03T11:09:44.328Z</time></trkpt><trkpt lat="44.1631819" lon="10.3610569"><ele>588.0</ele><time>2026-04-03T11:09:46.3Z</time></trkpt><trkpt lat="44.163239" lon="10.3610018"><ele>584.0</ele><time>2026-04-03T11:09:47.302Z</time></trkpt><trkpt lat="44.1633066" lon="10.360949"><ele>584.0</ele><time>2026-04-03T11:09:48.304Z</time></trkpt><trkpt lat="44.1633829" lon="10.3608982"><ele>584.0</ele><time>2026-04-03T11:09:49.311Z</time></trkpt><trkpt lat="44.1634586" lon="10.3608513"><ele>584.0</ele><time>2026-04-03T11:09:50.304Z</time></trkpt><trkpt lat="44.1635258" lon="10.360797"><ele>584.0</ele><time>2026-04-03T11:09:51.301Z</time></trkpt><trkpt lat="44.1636062" lon="10.3607285"><ele>584.0</ele><time>2026-04-03T11:09:52.292Z</time></trkpt><trkpt lat="44.1636783" lon="10.3606386"><ele>584.0</ele><time>2026-04-03T11:09:53.301Z</time></trkpt><trkpt lat="44.1637517" lon="10.3605368"><ele>580.5</ele><time>2026-04-03T11:09:54.31Z</time></trkpt><trkpt lat="44.1638185" lon="10.3604352"><ele>577.0</ele><time>2026-04-03T11:09:55.306Z</time></trkpt><trkpt lat="44.1638755" lon="10.3603465"><ele>573.5</ele><time>2026-04-03T11:09:56.302Z</time></trkpt><trkpt lat="44.1639189" lon="10.3602571"><ele>570.0</ele><time>2026-04-03T11:09:57.304Z</time></trkpt><trkpt lat="44.1639585" lon="10.360174"><ele>566.5</ele><time>2026-04-03T11:09:58.297Z</time></trkpt><trkpt lat="44.1639663" lon="10.3600763"><ele>563.0</ele><time>2026-04-03T11:09:59.302Z</time></trkpt><trkpt lat="44.1639622" lon="10.3599872"><ele>563.0</ele><time>2026-04-03T11:10:00.308Z</time></trkpt><trkpt lat="44.1639359" lon="10.359894"><ele>563.0</ele><time>2026-04-03T11:10:01.292Z</time></trkpt><trkpt lat="44.1639249" lon="10.3597992"><ele>563.0</ele><time>2026-04-03T11:10:02.306Z</time></trkpt><trkpt lat="44.16393" lon="10.3597002"><ele>563.0</ele><time>2026-04-03T11:10:03.298Z</time></trkpt><trkpt lat="44.1639411" lon="10.3595906"><ele>563.0</ele><time>2026-04-03T11:10:04.303Z</time></trkpt><trkpt lat="44.1639639" lon="10.359475"><ele>563.0</ele><time>2026-04-03T11:10:05.298Z</time></trkpt><trkpt lat="44.1639859" lon="10.359354"><ele>564.0</ele><time>2026-04-03T11:10:06.292Z</time></trkpt><trkpt lat="44.1639985" lon="10.3592248"><ele>565.0</ele><time>2026-04-03T11:10:07.303Z</time></trkpt><trkpt lat="44.1640181" lon="10.3590839"><ele>566.0</ele><time>2026-04-03T11:10:08.303Z</time></trkpt><trkpt lat="44.1640416" lon="10.3589499"><ele>567.0</ele><time>2026-04-03T11:10:09.317Z</time></trkpt><trkpt lat="44.1640659" lon="10.3588334"><ele>568.0</ele><time>2026-04-03T11:10:10.31Z</time></trkpt><trkpt lat="44.1640926" lon="10.3587266"><ele>568.0</ele><time>2026-04-03T11:10:11.295Z</time></trkpt><trkpt lat="44.1641198" lon="10.3586267"><ele>568.0</ele><time>2026-04-03T11:10:12.301Z</time></trkpt><trkpt lat="44.1641445" lon="10.3585264"><ele>568.0</ele><time>2026-04-03T11:10:13.302Z</time></trkpt><trkpt lat="44.1641585" lon="10.3584321"><ele>568.0</ele><time>2026-04-03T11:10:14.301Z</time></trkpt><trkpt lat="44.1641571" lon="10.3583256"><ele>568.0</ele><time>2026-04-03T11:10:15.301Z</time></trkpt><trkpt lat="44.1641605" lon="10.3582172"><ele>568.0</ele><time>2026-04-03T11:10:16.295Z</time></trkpt><trkpt lat="44.1641654" lon="10.358098"><ele>566.8333333333334</ele><time>2026-04-03T11:10:17.298Z</time></trkpt><trkpt lat="44.16418" lon="10.3579698"><ele>565.6666666666667</ele><time>2026-04-03T11:10:18.292Z</time></trkpt><trkpt lat="44.1641961" lon="10.3578422"><ele>564.5</ele><time>2026-04-03T11:10:19.297Z</time></trkpt><trkpt lat="44.1642129" lon="10.3577248"><ele>563.3333333333334</ele><time>2026-04-03T11:10:20.298Z</time></trkpt><trkpt lat="44.1642289" lon="10.357619"><ele>562.1666666666666</ele><time>2026-04-03T11:10:21.293Z</time></trkpt><trkpt lat="44.1642321" lon="10.3575223"><ele>561.0</ele><time>2026-04-03T11:10:22.301Z</time></trkpt><trkpt lat="44.1642123" lon="10.3574271"><ele>561.0</ele><time>2026-04-03T11:10:23.29Z</time></trkpt><trkpt lat="44.1641758" lon="10.3573357"><ele>561.0</ele><time>2026-04-03T11:10:24.3Z</time></trkpt><trkpt lat="44.1641271" lon="10.3572574"><ele>561.0</ele><time>2026-04-03T11:10:25.297Z</time></trkpt><trkpt lat="44.1640789" lon="10.3571998"><ele>561.0</ele><time>2026-04-03T11:10:26.297Z</time></trkpt><trkpt lat="44.1640288" lon="10.357144"><ele>561.0</ele><time>2026-04-03T11:10:27.302Z</time></trkpt><trkpt lat="44.1639901" lon="10.3570211"><ele>561.0</ele><time>2026-04-03T11:10:29.307Z</time></trkpt><trkpt lat="44.1640394" lon="10.3569065"><ele>558.6666666666666</ele><time>2026-04-03T11:10:31.314Z</time></trkpt><trkpt lat="44.164133" lon="10.3568068"><ele>556.3333333333334</ele><time>2026-04-03T11:10:33.294Z</time></trkpt><trkpt lat="44.1641893" lon="10.3567557"><ele>554.0</ele><time>2026-04-03T11:10:34.305Z</time></trkpt><trkpt lat="44.1642529" lon="10.3566983"><ele>551.6666666666667</ele><time>2026-04-03T11:10:35.306Z</time></trkpt><trkpt lat="44.1643225" lon="10.3566332"><ele>549.3333333333334</ele><time>2026-04-03T11:10:36.301Z</time></trkpt><trkpt lat="44.1644005" lon="10.3565679"><ele>547.0</ele><time>2026-04-03T11:10:37.304Z</time></trkpt><trkpt lat="44.1644838" lon="10.3564978"><ele>547.0</ele><time>2026-04-03T11:10:38.304Z</time></trkpt><trkpt lat="44.1645641" lon="10.3564269"><ele>547.0</ele><time>2026-04-03T11:10:39.312Z</time></trkpt><trkpt lat="44.1646364" lon="10.3563621"><ele>547.0</ele><time>2026-04-03T11:10:40.3Z</time></trkpt><trkpt lat="44.164695" lon="10.3563086"><ele>547.0</ele><time>2026-04-03T11:10:41.321Z</time></trkpt><trkpt lat="44.1647686" lon="10.3561897"><ele>547.0</ele><time>2026-04-03T11:10:43.308Z</time></trkpt><trkpt lat="44.164763" lon="10.3560717"><ele>547.0</ele><time>2026-04-03T11:10:45.319Z</time></trkpt><trkpt lat="44.164679" lon="10.3560382"><ele>544.0</ele><time>2026-04-03T11:10:47.288Z</time></trkpt><trkpt lat="44.1645852" lon="10.3560996"><ele>541.0</ele><time>2026-04-03T11:10:49.299Z</time></trkpt><trkpt lat="44.1645284" lon="10.3561443"><ele>538.0</ele><time>2026-04-03T11:10:50.303Z</time></trkpt><trkpt lat="44.1644696" lon="10.3561838"><ele>535.0</ele><time>2026-04-03T11:10:51.303Z</time></trkpt><trkpt lat="44.1644025" lon="10.3562246"><ele>532.0</ele><time>2026-04-03T11:10:52.3Z</time></trkpt><trkpt lat="44.1643277" lon="10.3562634"><ele>529.0</ele><time>2026-04-03T11:10:53.307Z</time></trkpt><trkpt lat="44.16424" lon="10.3563002"><ele>529.0</ele><time>2026-04-03T11:10:54.301Z</time></trkpt><trkpt lat="44.1641519" lon="10.3563151"><ele>529.0</ele><time>2026-04-03T11:10:55.288Z</time></trkpt><trkpt lat="44.1640765" lon="10.3563206"><ele>529.0</ele><time>2026-04-03T11:10:56.309Z</time></trkpt><trkpt lat="44.1640101" lon="10.356314"><ele>529.0</ele><time>2026-04-03T11:10:57.314Z</time></trkpt><trkpt lat="44.1639564" lon="10.3562496"><ele>529.0</ele><time>2026-04-03T11:10:58.308Z</time></trkpt><trkpt lat="44.1639116" lon="10.3561624"><ele>529.0</ele><time>2026-04-03T11:10:59.296Z</time></trkpt><trkpt lat="44.1638781" lon="10.3560618"><ele>529.0</ele><time>2026-04-03T11:11:00.3Z</time></trkpt><trkpt lat="44.1638552" lon="10.3559627"><ele>529.0</ele><time>2026-04-03T11:11:01.304Z</time></trkpt><trkpt lat="44.1638489" lon="10.3558721"><ele>529.0</ele><time>2026-04-03T11:11:02.303Z</time></trkpt><trkpt lat="44.1638776" lon="10.355793"><ele>529.0</ele><time>2026-04-03T11:11:03.303Z</time></trkpt><trkpt lat="44.1639757" lon="10.3556735"><ele>529.0</ele><time>2026-04-03T11:11:05.304Z</time></trkpt><trkpt lat="44.1640383" lon="10.3556193"><ele>529.0</ele><time>2026-04-03T11:11:06.299Z</time></trkpt><trkpt lat="44.1640996" lon="10.3555577"><ele>525.8</ele><time>2026-04-03T11:11:07.306Z</time></trkpt><trkpt lat="44.1641603" lon="10.3554703"><ele>522.5999999999999</ele><time>2026-04-03T11:11:08.297Z</time></trkpt><trkpt lat="44.1642111" lon="10.3553429"><ele>519.4</ele><time>2026-04-03T11:11:09.301Z</time></trkpt><trkpt lat="44.164254" lon="10.3551974"><ele>516.1999999999999</ele><time>2026-04-03T11:11:10.301Z</time></trkpt><trkpt lat="44.1642915" lon="10.3550597"><ele>513.0</ele><time>2026-04-03T11:11:11.306Z</time></trkpt><trkpt lat="44.1643238" lon="10.3549322"><ele>513.0</ele><time>2026-04-03T11:11:12.306Z</time></trkpt><trkpt lat="44.1643533" lon="10.3548245"><ele>513.0</ele><time>2026-04-03T11:11:13.304Z</time></trkpt><trkpt lat="44.1643922" lon="10.3547311"><ele>513.0</ele><time>2026-04-03T11:11:14.308Z</time></trkpt><trkpt lat="44.1644396" lon="10.3546732"><ele>513.0</ele><time>2026-04-03T11:11:15.311Z</time></trkpt><trkpt lat="44.1645566" lon="10.3546184"><ele>513.0</ele><time>2026-04-03T11:11:17.298Z</time></trkpt><trkpt lat="44.1646773" lon="10.3545835"><ele>513.0</ele><time>2026-04-03T11:11:19.294Z</time></trkpt><trkpt lat="44.1647356" lon="10.3545461"><ele>513.0</ele><time>2026-04-03T11:11:20.291Z</time></trkpt><trkpt lat="44.1648234" lon="10.3544394"><ele>513.0</ele><time>2026-04-03T11:11:22.289Z</time></trkpt><trkpt lat="44.164879" lon="10.3543235"><ele>513.0</ele><time>2026-04-03T11:11:24.286Z</time></trkpt><trkpt lat="44.1648774" lon="10.3541821"><ele>513.0</ele><time>2026-04-03T11:11:26.288Z</time></trkpt><trkpt lat="44.1648154" lon="10.3540672"><ele>510.7142857142858</ele><time>2026-04-03T11:11:28.286Z</time></trkpt><trkpt lat="44.1647661" lon="10.353995"><ele>508.42857142857144</ele><time>2026-04-03T11:11:30.29Z</time></trkpt><trkpt lat="44.1646925" lon="10.3539488"><ele>506.14285714285717</ele><time>2026-04-03T11:12:35.313Z</time></trkpt><trkpt lat="44.1646214" lon="10.3538957"><ele>503.8571428571429</ele><time>2026-04-03T11:12:38.297Z</time></trkpt><trkpt lat="44.164556" lon="10.3538384"><ele>501.57142857142856</ele><time>2026-04-03T11:12:42.3Z</time></trkpt><trkpt lat="44.1644906" lon="10.3538514"><ele>499.2857142857143</ele><time>2026-04-03T11:12:47.293Z</time></trkpt><trkpt lat="44.1644275" lon="10.3538869"><ele>497.0</ele><time>2026-04-03T11:12:50.293Z</time></trkpt><trkpt lat="44.1643728" lon="10.3539703"><ele>497.0</ele><time>2026-04-03T11:12:53.298Z</time></trkpt><trkpt lat="44.1643045" lon="10.3540535"><ele>497.0</ele><time>2026-04-03T11:12:56.306Z</time></trkpt><trkpt lat="44.1642569" lon="10.3541158"><ele>497.0</ele><time>2026-04-03T11:12:58.309Z</time></trkpt><trkpt lat="44.1642024" lon="10.3541759"><ele>497.0</ele><time>2026-04-03T11:13:00.318Z</time></trkpt><trkpt lat="44.1641396" lon="10.3542242"><ele>497.0</ele><time>2026-04-03T11:13:02.302Z</time></trkpt><trkpt lat="44.1640731" lon="10.3542713"><ele>497.0</ele><time>2026-04-03T11:13:04.306Z</time></trkpt><trkpt lat="44.1640023" lon="10.3542999"><ele>497.0</ele><time>2026-04-03T11:13:06.309Z</time></trkpt><trkpt lat="44.163931" lon="10.3543104"><ele>496.8571428571429</ele><time>2026-04-03T11:13:08.301Z</time></trkpt><trkpt lat="44.1638574" lon="10.3543205"><ele>496.7142857142857</ele><time>2026-04-03T11:13:10.292Z</time></trkpt><trkpt lat="44.1637869" lon="10.3543377"><ele>496.57142857142856</ele><time>2026-04-03T11:13:12.294Z</time></trkpt><trkpt lat="44.1637187" lon="10.3543468"><ele>496.42857142857144</ele><time>2026-04-03T11:13:14.304Z</time></trkpt><trkpt lat="44.1636525" lon="10.3543551"><ele>496.28571428571433</ele><time>2026-04-03T11:13:16.302Z</time></trkpt><trkpt lat="44.1635898" lon="10.3543682"><ele>496.14285714285717</ele><time>2026-04-03T11:13:18.29Z</time></trkpt><trkpt lat="44.1634994" lon="10.3543877"><ele>496.0</ele><time>2026-04-03T11:13:21.293Z</time></trkpt><trkpt lat="44.1634362" lon="10.3544021"><ele>496.00000000000006</ele><time>2026-04-03T11:13:23.299Z</time></trkpt><trkpt lat="44.1633434" lon="10.3544248"><ele>496.0</ele><time>2026-04-03T11:13:26.294Z</time></trkpt><trkpt lat="44.1632519" lon="10.354444"><ele>496.0</ele><time>2026-04-03T11:13:29.293Z</time></trkpt><trkpt lat="44.1631854" lon="10.3544548"><ele>496.0</ele><time>2026-04-03T11:13:31.313Z</time></trkpt><trkpt lat="44.1631198" lon="10.3544626"><ele>496.00000000000006</ele><time>2026-04-03T11:13:33.296Z</time></trkpt><trkpt lat="44.163051" lon="10.3544776"><ele>496.0</ele><time>2026-04-03T11:13:35.307Z</time></trkpt><trkpt lat="44.162984" lon="10.3544919"><ele>495.8571428571429</ele><time>2026-04-03T11:13:37.3Z</time></trkpt><trkpt lat="44.162919" lon="10.3545127"><ele>495.7142857142858</ele><time>2026-04-03T11:13:39.295Z</time></trkpt><trkpt lat="44.1628518" lon="10.3545348"><ele>495.57142857142856</ele><time>2026-04-03T11:13:41.316Z</time></trkpt><trkpt lat="44.162782" lon="10.3545336"><ele>495.42857142857144</ele><time>2026-04-03T11:13:43.299Z</time></trkpt><trkpt lat="44.1627057" lon="10.3545392"><ele>495.2857142857143</ele><time>2026-04-03T11:13:45.289Z</time></trkpt><trkpt lat="44.1626286" lon="10.3545474"><ele>495.1428571428571</ele><time>2026-04-03T11:13:47.287Z</time></trkpt><trkpt lat="44.162554" lon="10.354549"><ele>494.99999999999994</ele><time>2026-04-03T11:13:49.292Z</time></trkpt><trkpt lat="44.1624794" lon="10.3545519"><ele>495.0</ele><time>2026-04-03T11:13:51.292Z</time></trkpt><trkpt lat="44.1624072" lon="10.3545522"><ele>495.0</ele><time>2026-04-03T11:13:53.288Z</time></trkpt><trkpt lat="44.1623356" lon="10.3545372"><ele>495.0</ele><time>2026-04-03T11:13:55.287Z</time></trkpt><trkpt lat="44.1622638" lon="10.354514"><ele>495.0</ele><time>2026-04-03T11:13:57.304Z</time></trkpt><trkpt lat="44.1622026" lon="10.3544646"><ele>495.0</ele><time>2026-04-03T11:13:59.291Z</time></trkpt><trkpt lat="44.1621339" lon="10.3544088"><ele>495.0</ele><time>2026-04-03T11:14:01.289Z</time></trkpt><trkpt lat="44.162064" lon="10.354343"><ele>496.6</ele><time>2026-04-03T11:14:03.288Z</time></trkpt><trkpt lat="44.1619943" lon="10.3542726"><ele>498.2</ele><time>2026-04-03T11:14:05.289Z</time></trkpt><trkpt lat="44.1619244" lon="10.3541991"><ele>499.79999999999995</ele><time>2026-04-03T11:14:07.293Z</time></trkpt><trkpt lat="44.1618556" lon="10.3541112"><ele>501.4</ele><time>2026-04-03T11:14:09.306Z</time></trkpt><trkpt lat="44.1617778" lon="10.3540323"><ele>503.0</ele><time>2026-04-03T11:14:11.313Z</time></trkpt><trkpt lat="44.1617018" lon="10.3539497"><ele>500.0</ele><time>2026-04-03T11:14:13.294Z</time></trkpt><trkpt lat="44.1616276" lon="10.3538716"><ele>496.99999999999994</ele><time>2026-04-03T11:14:15.309Z</time></trkpt><trkpt lat="44.1615599" lon="10.3537893"><ele>493.99999999999994</ele><time>2026-04-03T11:14:17.302Z</time></trkpt><trkpt lat="44.1614925" lon="10.353709"><ele>491.0</ele><time>2026-04-03T11:14:19.293Z</time></trkpt><trkpt lat="44.1614215" lon="10.3536315"><ele>488.0</ele><time>2026-04-03T11:14:21.289Z</time></trkpt><trkpt lat="44.1613374" lon="10.3535727"><ele>488.0</ele><time>2026-04-03T11:14:23.303Z</time></trkpt><trkpt lat="44.1612391" lon="10.3535547"><ele>487.99999999999994</ele><time>2026-04-03T11:14:25.3Z</time></trkpt><trkpt lat="44.1611494" lon="10.3535397"><ele>487.99999999999994</ele><time>2026-04-03T11:14:27.297Z</time></trkpt><trkpt lat="44.1610666" lon="10.353575"><ele>488.0</ele><time>2026-04-03T11:14:29.311Z</time></trkpt><trkpt lat="44.1609914" lon="10.3536497"><ele>488.0</ele><time>2026-04-03T11:14:31.3Z</time></trkpt><trkpt lat="44.1609279" lon="10.3537308"><ele>488.0</ele><time>2026-04-03T11:14:33.3Z</time></trkpt><trkpt lat="44.1608767" lon="10.3538314"><ele>487.99999999999994</ele><time>2026-04-03T11:14:35.295Z</time></trkpt><trkpt lat="44.1608285" lon="10.3539478"><ele>487.99999999999994</ele><time>2026-04-03T11:14:37.291Z</time></trkpt><trkpt lat="44.1607757" lon="10.3540799"><ele>488.0</ele><time>2026-04-03T11:14:39.303Z</time></trkpt><trkpt lat="44.1607062" lon="10.3542077"><ele>488.0</ele><time>2026-04-03T11:14:41.299Z</time></trkpt><trkpt lat="44.1606361" lon="10.3543345"><ele>488.79999999999995</ele><time>2026-04-03T11:14:43.298Z</time></trkpt><trkpt lat="44.1606113" lon="10.354491"><ele>489.59999999999997</ele><time>2026-04-03T11:14:45.3Z</time></trkpt><trkpt lat="44.1606246" lon="10.3546576"><ele>490.40000000000003</ele><time>2026-04-03T11:14:47.301Z</time></trkpt><trkpt lat="44.1606471" lon="10.3547398"><ele>491.20000000000005</ele><time>2026-04-03T11:14:48.303Z</time></trkpt><trkpt lat="44.1606809" lon="10.3548167"><ele>492.0</ele><time>2026-04-03T11:14:49.302Z</time></trkpt><trkpt lat="44.160771" lon="10.3549398"><ele>492.0</ele><time>2026-04-03T11:14:51.294Z</time></trkpt><trkpt lat="44.1608585" lon="10.3550551"><ele>492.0</ele><time>2026-04-03T11:14:53.304Z</time></trkpt><trkpt lat="44.1609444" lon="10.3551708"><ele>492.0</ele><time>2026-04-03T11:14:55.305Z</time></trkpt><trkpt lat="44.1610395" lon="10.3552809"><ele>492.0</ele><time>2026-04-03T11:14:57.294Z</time></trkpt><trkpt lat="44.1611341" lon="10.3553963"><ele>492.0</ele><time>2026-04-03T11:14:59.3Z</time></trkpt><trkpt lat="44.1611891" lon="10.3554521"><ele>492.00000000000006</ele><time>2026-04-03T11:15:00.309Z</time></trkpt><trkpt lat="44.1612371" lon="10.355515"><ele>492.00000000000006</ele><time>2026-04-03T11:15:01.288Z</time></trkpt><trkpt lat="44.1613281" lon="10.3556364"><ele>492.0</ele><time>2026-04-03T11:15:03.29Z</time></trkpt><trkpt lat="44.1613743" lon="10.3556996"><ele>492.0</ele><time>2026-04-03T11:15:04.308Z</time></trkpt><trkpt lat="44.161441" lon="10.3558501"><ele>490.7142857142858</ele><time>2026-04-03T11:15:06.309Z</time></trkpt><trkpt lat="44.1614547" lon="10.3559491"><ele>489.42857142857144</ele><time>2026-04-03T11:15:07.303Z</time></trkpt><trkpt lat="44.1614485" lon="10.3560442"><ele>488.14285714285717</ele><time>2026-04-03T11:15:08.301Z</time></trkpt><trkpt lat="44.1614248" lon="10.356139"><ele>486.8571428571429</ele><time>2026-04-03T11:15:09.305Z</time></trkpt><trkpt lat="44.1613938" lon="10.3562296"><ele>485.57142857142856</ele><time>2026-04-03T11:15:10.305Z</time></trkpt><trkpt lat="44.1613633" lon="10.356316"><ele>484.2857142857143</ele><time>2026-04-03T11:15:11.304Z</time></trkpt><trkpt lat="44.1613371" lon="10.3564068"><ele>483.0</ele><time>2026-04-03T11:15:12.32Z</time></trkpt><trkpt lat="44.16131" lon="10.3564946"><ele>482.2857142857143</ele><time>2026-04-03T11:15:13.312Z</time></trkpt><trkpt lat="44.1612884" lon="10.3565828"><ele>481.57142857142856</ele><time>2026-04-03T11:15:14.289Z</time></trkpt><trkpt lat="44.1612658" lon="10.3566727"><ele>480.8571428571429</ele><time>2026-04-03T11:15:15.29Z</time></trkpt><trkpt lat="44.161237" lon="10.3567628"><ele>480.14285714285717</ele><time>2026-04-03T11:15:16.3Z</time></trkpt><trkpt lat="44.1612084" lon="10.3568508"><ele>479.42857142857144</ele><time>2026-04-03T11:15:17.302Z</time></trkpt><trkpt lat="44.1611817" lon="10.3569382"><ele>478.7142857142858</ele><time>2026-04-03T11:15:18.293Z</time></trkpt><trkpt lat="44.1611558" lon="10.3570286"><ele>478.00000000000006</ele><time>2026-04-03T11:15:19.302Z</time></trkpt><trkpt lat="44.1611272" lon="10.357124"><ele>478.7142857142858</ele><time>2026-04-03T11:15:20.301Z</time></trkpt><trkpt lat="44.1611036" lon="10.3572161"><ele>479.42857142857144</ele><time>2026-04-03T11:15:21.302Z</time></trkpt><trkpt lat="44.1610757" lon="10.3573068"><ele>480.14285714285717</ele><time>2026-04-03T11:15:22.3Z</time></trkpt><trkpt lat="44.1610516" lon="10.3573976"><ele>480.8571428571429</ele><time>2026-04-03T11:15:23.29Z</time></trkpt><trkpt lat="44.1610243" lon="10.3574893"><ele>481.57142857142856</ele><time>2026-04-03T11:15:24.295Z</time></trkpt><trkpt lat="44.1609948" lon="10.3575816"><ele>482.2857142857143</ele><time>2026-04-03T11:15:25.297Z</time></trkpt><trkpt lat="44.160966" lon="10.3576757"><ele>483.0</ele><time>2026-04-03T11:15:26.308Z</time></trkpt><trkpt lat="44.1609313" lon="10.3577689"><ele>483.0</ele><time>2026-04-03T11:15:27.297Z</time></trkpt><trkpt lat="44.1608919" lon="10.3578645"><ele>483.0</ele><time>2026-04-03T11:15:28.297Z</time></trkpt><trkpt lat="44.1608449" lon="10.3579592"><ele>483.0</ele><time>2026-04-03T11:15:29.308Z</time></trkpt><trkpt lat="44.1607925" lon="10.3580523"><ele>483.0</ele><time>2026-04-03T11:15:30.297Z</time></trkpt><trkpt lat="44.1607448" lon="10.358138"><ele>483.0</ele><time>2026-04-03T11:15:31.301Z</time></trkpt><trkpt lat="44.1607037" lon="10.3582139"><ele>483.0</ele><time>2026-04-03T11:15:32.31Z</time></trkpt><trkpt lat="44.1606259" lon="10.3583233"><ele>481.0</ele><time>2026-04-03T11:15:34.299Z</time></trkpt><trkpt lat="44.1605168" lon="10.3583761"><ele>479.0</ele><time>2026-04-03T11:15:36.301Z</time></trkpt><trkpt lat="44.1604504" lon="10.3584289"><ele>477.0</ele><time>2026-04-03T11:15:37.292Z</time></trkpt><trkpt lat="44.1604036" lon="10.3584886"><ele>475.0</ele><time>2026-04-03T11:15:38.296Z</time></trkpt><trkpt lat="44.160314" lon="10.3586033"><ele>473.0</ele><time>2026-04-03T11:15:40.293Z</time></trkpt><trkpt lat="44.1602811" lon="10.3586822"><ele>471.0</ele><time>2026-04-03T11:15:41.293Z</time></trkpt><trkpt lat="44.1602354" lon="10.3587623"><ele>471.0</ele><time>2026-04-03T11:15:42.293Z</time></trkpt><trkpt lat="44.1601836" lon="10.3588326"><ele>471.0</ele><time>2026-04-03T11:15:43.308Z</time></trkpt><trkpt lat="44.1601215" lon="10.3589036"><ele>471.0</ele><time>2026-04-03T11:15:44.299Z</time></trkpt><trkpt lat="44.1600463" lon="10.3589606"><ele>471.0</ele><time>2026-04-03T11:15:45.299Z</time></trkpt><trkpt lat="44.1599721" lon="10.3590081"><ele>471.0</ele><time>2026-04-03T11:15:46.308Z</time></trkpt><trkpt lat="44.1598957" lon="10.3590589"><ele>471.0</ele><time>2026-04-03T11:15:47.293Z</time></trkpt><trkpt lat="44.1598317" lon="10.359086"><ele>469.1666666666667</ele><time>2026-04-03T11:15:48.292Z</time></trkpt><trkpt lat="44.1597672" lon="10.3591018"><ele>467.33333333333337</ele><time>2026-04-03T11:15:49.293Z</time></trkpt><trkpt lat="44.1597044" lon="10.3591167"><ele>465.5</ele><time>2026-04-03T11:15:50.293Z</time></trkpt><trkpt lat="44.1595864" lon="10.3591552"><ele>463.6666666666667</ele><time>2026-04-03T11:15:52.292Z</time></trkpt><trkpt lat="44.1595198" lon="10.3591835"><ele>461.83333333333337</ele><time>2026-04-03T11:15:53.294Z</time></trkpt><trkpt lat="44.1594574" lon="10.3592411"><ele>460.0</ele><time>2026-04-03T11:15:54.298Z</time></trkpt><trkpt lat="44.1593681" lon="10.3593388"><ele>460.00000000000006</ele><time>2026-04-03T11:15:56.298Z</time></trkpt><trkpt lat="44.1592905" lon="10.3593935"><ele>460.0</ele><time>2026-04-03T11:15:58.295Z</time></trkpt><trkpt lat="44.1592293" lon="10.3593581"><ele>460.0</ele><time>2026-04-03T11:15:59.288Z</time></trkpt><trkpt lat="44.1591626" lon="10.3593593"><ele>460.0</ele><time>2026-04-03T11:16:00.296Z</time></trkpt><trkpt lat="44.1590537" lon="10.3593571"><ele>460.00000000000006</ele><time>2026-04-03T11:16:02.302Z</time></trkpt><trkpt lat="44.1589467" lon="10.3593472"><ele>460.0</ele><time>2026-04-03T11:16:04.309Z</time></trkpt><trkpt lat="44.15884" lon="10.3593493"><ele>460.4</ele><time>2026-04-03T11:16:06.303Z</time></trkpt><trkpt lat="44.1587638" lon="10.3594097"><ele>460.8</ele><time>2026-04-03T11:16:08.297Z</time></trkpt><trkpt lat="44.1586754" lon="10.3595263"><ele>461.20000000000005</ele><time>2026-04-03T11:16:10.305Z</time></trkpt><trkpt lat="44.158629" lon="10.3595946"><ele>461.6</ele><time>2026-04-03T11:16:11.288Z</time></trkpt><trkpt lat="44.158539" lon="10.3596625"><ele>462.0</ele><time>2026-04-03T11:16:13.296Z</time></trkpt><trkpt lat="44.1584545" lon="10.3597072"><ele>462.0</ele><time>2026-04-03T11:16:15.32Z</time></trkpt><trkpt lat="44.1583537" lon="10.3597375"><ele>462.00000000000006</ele><time>2026-04-03T11:16:17.302Z</time></trkpt><trkpt lat="44.1582656" lon="10.3597915"><ele>462.00000000000006</ele><time>2026-04-03T11:16:19.319Z</time></trkpt><trkpt lat="44.158191" lon="10.3598652"><ele>462.0</ele><time>2026-04-03T11:16:21.294Z</time></trkpt><trkpt lat="44.1580676" lon="10.3598851"><ele>462.0</ele><time>2026-04-03T11:16:23.301Z</time></trkpt><trkpt lat="44.1579984" lon="10.3598798"><ele>458.6666666666667</ele><time>2026-04-03T11:16:24.301Z</time></trkpt><trkpt lat="44.1579145" lon="10.3598852"><ele>455.33333333333337</ele><time>2026-04-03T11:16:25.295Z</time></trkpt><trkpt lat="44.1578463" lon="10.359902"><ele>452.0</ele><time>2026-04-03T11:16:26.296Z</time></trkpt><trkpt lat="44.1577825" lon="10.35992"><ele>448.6666666666667</ele><time>2026-04-03T11:16:27.294Z</time></trkpt><trkpt lat="44.1577042" lon="10.3599323"><ele>445.33333333333337</ele><time>2026-04-03T11:16:29.306Z</time></trkpt><trkpt lat="44.1576322" lon="10.3599385"><ele>442.0</ele><time>2026-04-03T11:16:31.295Z</time></trkpt><trkpt lat="44.1575197" lon="10.3599124"><ele>442.00000000000006</ele><time>2026-04-03T11:16:33.3Z</time></trkpt><trkpt lat="44.1574119" lon="10.3598971"><ele>442.0</ele><time>2026-04-03T11:16:35.293Z</time></trkpt><trkpt lat="44.1573201" lon="10.359899"><ele>442.0</ele><time>2026-04-03T11:16:37.295Z</time></trkpt><trkpt lat="44.1572585" lon="10.35993"><ele>442.0</ele><time>2026-04-03T11:16:39.302Z</time></trkpt><trkpt lat="44.1571801" lon="10.3598864"><ele>442.00000000000006</ele><time>2026-04-03T11:16:42.292Z</time></trkpt><trkpt lat="44.1571451" lon="10.3597784"><ele>442.0</ele><time>2026-04-03T11:16:44.306Z</time></trkpt><trkpt lat="44.1571108" lon="10.3596737"><ele>440.1666666666667</ele><time>2026-04-03T11:16:47.292Z</time></trkpt><trkpt lat="44.1570435" lon="10.3597344"><ele>438.33333333333337</ele><time>2026-04-03T11:16:52.3Z</time></trkpt><trkpt lat="44.1569859" lon="10.3597835"><ele>436.5</ele><time>2026-04-03T11:16:54.295Z</time></trkpt><trkpt lat="44.156913" lon="10.359822"><ele>434.66666666666663</ele><time>2026-04-03T11:16:56.295Z</time></trkpt><trkpt lat="44.1568292" lon="10.3598613"><ele>432.8333333333333</ele><time>2026-04-03T11:16:58.302Z</time></trkpt><trkpt lat="44.1567659" lon="10.3598962"><ele>431.0</ele><time>2026-04-03T11:17:00.305Z</time></trkpt><trkpt lat="44.1566889" lon="10.3599519"><ele>430.99999999999994</ele><time>2026-04-03T11:17:03.306Z</time></trkpt><trkpt lat="44.1566238" lon="10.3599421"><ele>431.0</ele><time>2026-04-03T11:17:05.291Z</time></trkpt><trkpt lat="44.1565586" lon="10.3599168"><ele>431.0</ele><time>2026-04-03T11:17:06.292Z</time></trkpt><trkpt lat="44.1564386" lon="10.3598926"><ele>431.0</ele><time>2026-04-03T11:17:08.305Z</time></trkpt><trkpt lat="44.1563765" lon="10.3598643"><ele>430.99999999999994</ele><time>2026-04-03T11:17:09.307Z</time></trkpt><trkpt lat="44.1562775" lon="10.3598835"><ele>431.0</ele><time>2026-04-03T11:17:11.319Z</time></trkpt><trkpt lat="44.1561772" lon="10.3599541"><ele>427.4</ele><time>2026-04-03T11:17:13.296Z</time></trkpt><trkpt lat="44.1560934" lon="10.3600236"><ele>423.8</ele><time>2026-04-03T11:17:15.3Z</time></trkpt><trkpt lat="44.1560034" lon="10.3601177"><ele>420.2</ele><time>2026-04-03T11:17:17.292Z</time></trkpt><trkpt lat="44.1559122" lon="10.3601816"><ele>416.59999999999997</ele><time>2026-04-03T11:17:19.304Z</time></trkpt><trkpt lat="44.1558474" lon="10.3602548"><ele>413.0</ele><time>2026-04-03T11:17:21.302Z</time></trkpt><trkpt lat="44.1557724" lon="10.360278"><ele>409.99999999999994</ele><time>2026-04-03T11:17:24.295Z</time></trkpt><trkpt lat="44.1556927" lon="10.3602465"><ele>407.0</ele><time>2026-04-03T11:17:26.295Z</time></trkpt><trkpt lat="44.1556075" lon="10.3602144"><ele>404.0</ele><time>2026-04-03T11:17:28.294Z</time></trkpt><trkpt lat="44.1555137" lon="10.3602189"><ele>401.0</ele><time>2026-04-03T11:17:30.33Z</time></trkpt><trkpt lat="44.1554174" lon="10.3602689"><ele>397.99999999999994</ele><time>2026-04-03T11:17:32.292Z</time></trkpt><trkpt lat="44.1553718" lon="10.3603332"><ele>395.0</ele><time>2026-04-03T11:17:34.294Z</time></trkpt><trkpt lat="44.1552924" lon="10.3603927"><ele>395.0</ele><time>2026-04-03T11:17:36.292Z</time></trkpt><trkpt lat="44.1552236" lon="10.3604397"><ele>395.0</ele><time>2026-04-03T11:17:38.294Z</time></trkpt><trkpt lat="44.1551613" lon="10.3604628"><ele>395.0</ele><time>2026-04-03T11:17:41.298Z</time></trkpt><trkpt lat="44.1550978" lon="10.3604832"><ele>395.0</ele><time>2026-04-03T11:17:44.3Z</time></trkpt><trkpt lat="44.1550179" lon="10.3605309"><ele>395.0</ele><time>2026-04-03T11:17:47.31Z</time></trkpt><trkpt lat="44.1549553" lon="10.3604741"><ele>395.0</ele><time>2026-04-03T11:17:51.309Z</time></trkpt><trkpt lat="44.1549079" lon="10.3604039"><ele>395.0</ele><time>2026-04-03T11:17:54.304Z</time></trkpt><trkpt lat="44.1548744" lon="10.3604966"><ele>394.3333333333333</ele><time>2026-04-03T11:17:58.317Z</time></trkpt><trkpt lat="44.1548413" lon="10.360599"><ele>393.66666666666663</ele><time>2026-04-03T11:18:01.298Z</time></trkpt><trkpt lat="44.1548265" lon="10.3607106"><ele>393.0</ele><time>2026-04-03T11:18:03.299Z</time></trkpt><trkpt lat="44.1548199" lon="10.3608191"><ele>392.33333333333337</ele><time>2026-04-03T11:18:05.301Z</time></trkpt><trkpt lat="44.154782" lon="10.3609271"><ele>391.6666666666667</ele><time>2026-04-03T11:18:10.292Z</time></trkpt><trkpt lat="44.1547376" lon="10.3610416"><ele>391.0</ele><time>2026-04-03T11:18:12.302Z</time></trkpt><trkpt lat="44.154652" lon="10.3611154"><ele>391.00000000000006</ele><time>2026-04-03T11:18:14.307Z</time></trkpt><trkpt lat="44.1545733" lon="10.3611559"><ele>391.0</ele><time>2026-04-03T11:18:16.297Z</time></trkpt><trkpt lat="44.1544952" lon="10.3611894"><ele>391.0</ele><time>2026-04-03T11:18:18.292Z</time></trkpt><trkpt lat="44.1544304" lon="10.3612094"><ele>391.0</ele><time>2026-04-03T11:18:20.299Z</time></trkpt><trkpt lat="44.1543602" lon="10.3612187"><ele>391.00000000000006</ele><time>2026-04-03T11:18:22.3Z</time></trkpt><trkpt lat="44.1542683" lon="10.3612462"><ele>391.0</ele><time>2026-04-03T11:18:24.315Z</time></trkpt><trkpt lat="44.1541795" lon="10.3612604"><ele>391.00000000000006</ele><time>2026-04-03T11:18:26.299Z</time></trkpt><trkpt lat="44.154102" lon="10.3612902"><ele>391.0</ele><time>2026-04-03T11:18:28.29Z</time></trkpt><trkpt lat="44.1540248" lon="10.3613169"><ele>391.0</ele><time>2026-04-03T11:18:31.303Z</time></trkpt><trkpt lat="44.1539535" lon="10.361281"><ele>391.0</ele><time>2026-04-03T11:18:35.302Z</time></trkpt><trkpt lat="44.1538842" lon="10.361246"><ele>391.00000000000006</ele><time>2026-04-03T11:18:39.288Z</time></trkpt><trkpt lat="44.1538116" lon="10.3612301"><ele>391.0</ele><time>2026-04-03T11:18:42.305Z</time></trkpt><trkpt lat="44.1537648" lon="10.3613121"><ele>390.20000000000005</ele><time>2026-04-03T11:18:46.296Z</time></trkpt><trkpt lat="44.15375" lon="10.3614163"><ele>389.40000000000003</ele><time>2026-04-03T11:18:50.297Z</time></trkpt><trkpt lat="44.1537303" lon="10.3615115"><ele>388.6</ele><time>2026-04-03T11:18:53.3Z</time></trkpt><trkpt lat="44.1536835" lon="10.3616459"><ele>387.8</ele><time>2026-04-03T11:18:55.304Z</time></trkpt><trkpt lat="44.1536612" lon="10.3617916"><ele>387.0</ele><time>2026-04-03T11:18:57.292Z</time></trkpt><trkpt lat="44.1536392" lon="10.361949"><ele>387.0</ele><time>2026-04-03T11:18:59.313Z</time></trkpt><trkpt lat="44.1535884" lon="10.3620443"><ele>387.0</ele><time>2026-04-03T11:19:00.298Z</time></trkpt><trkpt lat="44.1535528" lon="10.362125"><ele>387.0</ele><time>2026-04-03T11:19:01.304Z</time></trkpt><trkpt lat="44.1535063" lon="10.3621929"><ele>387.0</ele><time>2026-04-03T11:19:02.303Z</time></trkpt><trkpt lat="44.1534654" lon="10.3623347"><ele>387.0</ele><time>2026-04-03T11:19:04.309Z</time></trkpt><trkpt lat="44.1534912" lon="10.362473"><ele>387.0</ele><time>2026-04-03T11:19:06.317Z</time></trkpt><trkpt lat="44.1535205" lon="10.3626167"><ele>386.5</ele><time>2026-04-03T11:19:08.314Z</time></trkpt><trkpt lat="44.1535495" lon="10.3627489"><ele>386.0</ele><time>2026-04-03T11:19:10.314Z</time></trkpt><trkpt lat="44.1535619" lon="10.3628835"><ele>385.5</ele><time>2026-04-03T11:19:12.315Z</time></trkpt><trkpt lat="44.1535835" lon="10.3629938"><ele>385.0</ele><time>2026-04-03T11:19:14.294Z</time></trkpt><trkpt lat="44.1536034" lon="10.3630907"><ele>384.5</ele><time>2026-04-03T11:19:16.303Z</time></trkpt><trkpt lat="44.1536161" lon="10.3631837"><ele>384.0</ele><time>2026-04-03T11:19:18.299Z</time></trkpt><trkpt lat="44.1536268" lon="10.3633158"><ele>384.0</ele><time>2026-04-03T11:19:21.308Z</time></trkpt><trkpt lat="44.153625" lon="10.363416"><ele>384.0</ele><time>2026-04-03T11:19:23.313Z</time></trkpt><trkpt lat="44.1535999" lon="10.363522"><ele>384.0</ele><time>2026-04-03T11:19:25.294Z</time></trkpt><trkpt lat="44.1535452" lon="10.3636034"><ele>384.0</ele><time>2026-04-03T11:19:27.289Z</time></trkpt><trkpt lat="44.1534844" lon="10.3636723"><ele>384.0</ele><time>2026-04-03T11:19:29.299Z</time></trkpt><trkpt lat="44.1534286" lon="10.3637399"><ele>384.0</ele><time>2026-04-03T11:19:31.292Z</time></trkpt><trkpt lat="44.1533793" lon="10.363806"><ele>384.1666666666667</ele><time>2026-04-03T11:19:33.301Z</time></trkpt><trkpt lat="44.1533144" lon="10.3638962"><ele>384.33333333333337</ele><time>2026-04-03T11:19:36.29Z</time></trkpt><trkpt lat="44.1532422" lon="10.3639074"><ele>384.5</ele><time>2026-04-03T11:19:38.291Z</time></trkpt><trkpt lat="44.1531756" lon="10.3638908"><ele>384.6666666666667</ele><time>2026-04-03T11:19:41.306Z</time></trkpt><trkpt lat="44.1531039" lon="10.3638227"><ele>384.83333333333337</ele><time>2026-04-03T11:19:45.315Z</time></trkpt><trkpt lat="44.1530423" lon="10.3637574"><ele>385.0</ele><time>2026-04-03T11:19:48.326Z</time></trkpt><trkpt lat="44.1529728" lon="10.3637041"><ele>385.00000000000006</ele><time>2026-04-03T11:19:51.305Z</time></trkpt><trkpt lat="44.1529016" lon="10.363716"><ele>385.0</ele><time>2026-04-03T11:19:55.299Z</time></trkpt><trkpt lat="44.1528315" lon="10.3638238"><ele>385.0</ele><time>2026-04-03T11:19:59.296Z</time></trkpt><trkpt lat="44.152795" lon="10.3639178"><ele>385.0</ele><time>2026-04-03T11:20:01.293Z</time></trkpt><trkpt lat="44.1527593" lon="10.3639961"><ele>385.00000000000006</ele><time>2026-04-03T11:20:03.305Z</time></trkpt><trkpt lat="44.1527278" lon="10.3640734"><ele>385.0</ele><time>2026-04-03T11:20:06.288Z</time></trkpt><trkpt lat="44.1526515" lon="10.364046"><ele>385.00000000000006</ele><time>2026-04-03T11:20:12.306Z</time></trkpt><trkpt lat="44.152601" lon="10.3639783"><ele>385.0</ele><time>2026-04-03T11:20:14.301Z</time></trkpt><trkpt lat="44.1525214" lon="10.3639244"><ele>385.0</ele><time>2026-04-03T11:20:17.29Z</time></trkpt><trkpt lat="44.1524452" lon="10.3638982"><ele>385.0</ele><time>2026-04-03T11:20:22.3Z</time></trkpt><trkpt lat="44.152373" lon="10.3638815"><ele>385.00000000000006</ele><time>2026-04-03T11:20:26.295Z</time></trkpt><trkpt lat="44.1523216" lon="10.3638184"><ele>385.0</ele><time>2026-04-03T11:20:32.298Z</time></trkpt><trkpt lat="44.1523066" lon="10.3637204"><ele>383.50000000000006</ele><time>2026-04-03T11:20:38.295Z</time></trkpt><trkpt lat="44.1522914" lon="10.3636326"><ele>382.0</ele><time>2026-04-03T11:20:42.297Z</time></trkpt><trkpt lat="44.1522556" lon="10.3635372"><ele>380.5</ele><time>2026-04-03T11:20:44.308Z</time></trkpt><trkpt lat="44.1522147" lon="10.363461"><ele>379.0</ele><time>2026-04-03T11:20:45.307Z</time></trkpt><trkpt lat="44.152156" lon="10.3633627"><ele>377.5</ele><time>2026-04-03T11:20:47.298Z</time></trkpt><trkpt lat="44.1520881" lon="10.3632557"><ele>376.0</ele><time>2026-04-03T11:20:49.317Z</time></trkpt><trkpt lat="44.152002" lon="10.3631542"><ele>376.0</ele><time>2026-04-03T11:20:51.31Z</time></trkpt><trkpt lat="44.1519539" lon="10.3630888"><ele>376.0</ele><time>2026-04-03T11:20:52.305Z</time></trkpt><trkpt lat="44.1518696" lon="10.363"><ele>376.0</ele><time>2026-04-03T11:20:54.305Z</time></trkpt><trkpt lat="44.15179" lon="10.3629845"><ele>376.0</ele><time>2026-04-03T11:20:56.296Z</time></trkpt><trkpt lat="44.1517163" lon="10.3629803"><ele>376.0</ele><time>2026-04-03T11:20:58.303Z</time></trkpt><trkpt lat="44.1516385" lon="10.3629586"><ele>376.0</ele><time>2026-04-03T11:21:00.299Z</time></trkpt><trkpt lat="44.1515705" lon="10.3629324"><ele>371.0</ele><time>2026-04-03T11:21:02.304Z</time></trkpt><trkpt lat="44.1514779" lon="10.3628609"><ele>366.0</ele><time>2026-04-03T11:21:04.299Z</time></trkpt><trkpt lat="44.1513887" lon="10.3628123"><ele>361.0</ele><time>2026-04-03T11:21:06.302Z</time></trkpt><trkpt lat="44.1513179" lon="10.3628174"><ele>356.0</ele><time>2026-04-03T11:21:07.302Z</time></trkpt><trkpt lat="44.1512053" lon="10.3628226"><ele>351.0</ele><time>2026-04-03T11:21:09.302Z</time></trkpt><trkpt lat="44.1511134" lon="10.3628361"><ele>351.0</ele><time>2026-04-03T11:21:11.306Z</time></trkpt><trkpt lat="44.1510494" lon="10.3628552"><ele>351.0</ele><time>2026-04-03T11:21:13.294Z</time></trkpt><trkpt lat="44.1509916" lon="10.3629418"><ele>351.0</ele><time>2026-04-03T11:21:16.304Z</time></trkpt><trkpt lat="44.150915" lon="10.3629672"><ele>351.0</ele><time>2026-04-03T11:21:19.303Z</time></trkpt><trkpt lat="44.1508526" lon="10.3629256"><ele>351.0</ele><time>2026-04-03T11:21:21.293Z</time></trkpt><trkpt lat="44.1507824" lon="10.3628608"><ele>351.0</ele><time>2026-04-03T11:21:23.305Z</time></trkpt><trkpt lat="44.150683" lon="10.3628547"><ele>350.8</ele><time>2026-04-03T11:21:25.311Z</time></trkpt><trkpt lat="44.1505449" lon="10.3628075"><ele>350.6</ele><time>2026-04-03T11:21:27.305Z</time></trkpt><trkpt lat="44.150473" lon="10.362782"><ele>350.4</ele><time>2026-04-03T11:21:28.308Z</time></trkpt><trkpt lat="44.1503886" lon="10.3627688"><ele>350.2</ele><time>2026-04-03T11:21:29.298Z</time></trkpt><trkpt lat="44.1503009" lon="10.3627658"><ele>350.0</ele><time>2026-04-03T11:21:30.3Z</time></trkpt><trkpt lat="44.1501537" lon="10.362788"><ele>350.0</ele><time>2026-04-03T11:21:32.308Z</time></trkpt><trkpt lat="44.1500897" lon="10.362775"><ele>350.0</ele><time>2026-04-03T11:21:33.301Z</time></trkpt><trkpt lat="44.1500162" lon="10.3627462"><ele>350.0</ele><time>2026-04-03T11:21:34.302Z</time></trkpt><trkpt lat="44.1498953" lon="10.3627197"><ele>350.0</ele><time>2026-04-03T11:21:36.314Z</time></trkpt><trkpt lat="44.1498167" lon="10.362649"><ele>350.0</ele><time>2026-04-03T11:21:38.306Z</time></trkpt><trkpt lat="44.1497638" lon="10.3625906"><ele>350.0</ele><time>2026-04-03T11:21:42.302Z</time></trkpt><trkpt lat="44.1496882" lon="10.3625577"><ele>350.42857142857144</ele><time>2026-04-03T11:21:45.292Z</time></trkpt><trkpt lat="44.1496085" lon="10.3625683"><ele>350.8571428571429</ele><time>2026-04-03T11:21:48.295Z</time></trkpt><trkpt lat="44.1495467" lon="10.3625852"><ele>351.2857142857143</ele><time>2026-04-03T11:21:52.298Z</time></trkpt><trkpt lat="44.1494837" lon="10.3625909"><ele>351.7142857142857</ele><time>2026-04-03T11:21:56.307Z</time></trkpt><trkpt lat="44.1494193" lon="10.3625844"><ele>352.14285714285717</ele><time>2026-04-03T11:22:01.292Z</time></trkpt><trkpt lat="44.1493411" lon="10.3625719"><ele>352.57142857142856</ele><time>2026-04-03T11:22:06.302Z</time></trkpt><trkpt lat="44.1492689" lon="10.362555"><ele>353.0</ele><time>2026-04-03T11:22:10.293Z</time></trkpt><trkpt lat="44.1492073" lon="10.3625295"><ele>353.0</ele><time>2026-04-03T11:22:14.307Z</time></trkpt><trkpt lat="44.1491448" lon="10.3625031"><ele>353.0</ele><time>2026-04-03T11:22:18.312Z</time></trkpt><trkpt lat="44.1490794" lon="10.3625106"><ele>353.0</ele><time>2026-04-03T11:22:22.31Z</time></trkpt><trkpt lat="44.1490048" lon="10.3625394"><ele>353.0</ele><time>2026-04-03T11:22:27.295Z</time></trkpt><trkpt lat="44.1489418" lon="10.36256"><ele>353.0</ele><time>2026-04-03T11:22:31.313Z</time></trkpt><trkpt lat="44.1488712" lon="10.3625765"><ele>353.0</ele><time>2026-04-03T11:22:36.297Z</time></trkpt><trkpt lat="44.1487941" lon="10.3625958"><ele>353.0</ele><time>2026-04-03T11:22:41.312Z</time></trkpt><trkpt lat="44.1487277" lon="10.3625942"><ele>353.1666666666667</ele><time>2026-04-03T11:22:45.306Z</time></trkpt><trkpt lat="44.1486494" lon="10.3626085"><ele>353.33333333333337</ele><time>2026-04-03T11:22:50.314Z</time></trkpt><trkpt lat="44.1485695" lon="10.3626253"><ele>353.5</ele><time>2026-04-03T11:22:54.302Z</time></trkpt><trkpt lat="44.1485046" lon="10.3626224"><ele>353.6666666666667</ele><time>2026-04-03T11:22:57.304Z</time></trkpt><trkpt lat="44.1484333" lon="10.3626286"><ele>353.8333333333333</ele><time>2026-04-03T11:23:01.299Z</time></trkpt><trkpt lat="44.1483605" lon="10.3626423"><ele>354.0</ele><time>2026-04-03T11:23:05.303Z</time></trkpt><trkpt lat="44.1482804" lon="10.3626532"><ele>354.0</ele><time>2026-04-03T11:23:09.3Z</time></trkpt><trkpt lat="44.1482108" lon="10.362659"><ele>354.0</ele><time>2026-04-03T11:23:13.3Z</time></trkpt><trkpt lat="44.1481478" lon="10.3626655"><ele>354.0</ele><time>2026-04-03T11:23:17.316Z</time></trkpt><trkpt lat="44.1480829" lon="10.3626644"><ele>354.0</ele><time>2026-04-03T11:23:21.301Z</time></trkpt><trkpt lat="44.1480184" lon="10.3626814"><ele>354.0</ele><time>2026-04-03T11:23:25.308Z</time></trkpt><trkpt lat="44.1479628" lon="10.3627497"><ele>354.0</ele><time>2026-04-03T11:23:30.312Z</time></trkpt><trkpt lat="44.1479179" lon="10.3628257"><ele>354.0</ele><time>2026-04-03T11:23:34.299Z</time></trkpt><trkpt lat="44.1478745" lon="10.362897"><ele>353.7142857142857</ele><time>2026-04-03T11:23:38.305Z</time></trkpt><trkpt lat="44.1478279" lon="10.3629609"><ele>353.4285714285714</ele><time>2026-04-03T11:23:42.305Z</time></trkpt><trkpt lat="44.1477858" lon="10.3630306"><ele>353.1428571428571</ele><time>2026-04-03T11:23:47.299Z</time></trkpt><trkpt lat="44.1477425" lon="10.3631262"><ele>352.8571428571429</ele><time>2026-04-03T11:23:51.3Z</time></trkpt><trkpt lat="44.1477136" lon="10.36321"><ele>352.57142857142856</ele><time>2026-04-03T11:23:55.3Z</time></trkpt><trkpt lat="44.1477371" lon="10.363306"><ele>352.2857142857143</ele><time>2026-04-03T11:23:59.301Z</time></trkpt><trkpt lat="44.14778" lon="10.3633924"><ele>352.0</ele><time>2026-04-03T11:24:03.299Z</time></trkpt><trkpt lat="44.1478078" lon="10.3634816"><ele>352.8571428571429</ele><time>2026-04-03T11:24:07.3Z</time></trkpt><trkpt lat="44.1478185" lon="10.3635713"><ele>353.7142857142857</ele><time>2026-04-03T11:24:11.301Z</time></trkpt><trkpt lat="44.147797" lon="10.363663"><ele>354.57142857142856</ele><time>2026-04-03T11:24:15.303Z</time></trkpt><trkpt lat="44.1477506" lon="10.3637381"><ele>355.42857142857144</ele><time>2026-04-03T11:24:19.313Z</time></trkpt><trkpt lat="44.1477278" lon="10.3638255"><ele>356.2857142857143</ele><time>2026-04-03T11:24:23.304Z</time></trkpt><trkpt lat="44.1476984" lon="10.3639182"><ele>357.14285714285717</ele><time>2026-04-03T11:24:27.297Z</time></trkpt><trkpt lat="44.1476754" lon="10.3640032"><ele>358.0</ele><time>2026-04-03T11:24:31.314Z</time></trkpt><trkpt lat="44.1476531" lon="10.3640986"><ele>359.00000000000006</ele><time>2026-04-03T11:24:36.299Z</time></trkpt><trkpt lat="44.1476367" lon="10.364205"><ele>360.0</ele><time>2026-04-03T11:24:40.307Z</time></trkpt><trkpt lat="44.147633" lon="10.3643134"><ele>361.0</ele><time>2026-04-03T11:24:44.304Z</time></trkpt><trkpt lat="44.1476059" lon="10.3644119"><ele>362.0</ele><time>2026-04-03T11:24:48.297Z</time></trkpt><trkpt lat="44.1475939" lon="10.3645044"><ele>363.0</ele><time>2026-04-03T11:24:52.308Z</time></trkpt><trkpt lat="44.1476033" lon="10.3646039"><ele>364.00000000000006</ele><time>2026-04-03T11:24:56.297Z</time></trkpt><trkpt lat="44.1476435" lon="10.3646826"><ele>365.0</ele><time>2026-04-03T11:25:00.296Z</time></trkpt><trkpt lat="44.1476819" lon="10.3647646"><ele>366.00000000000006</ele><time>2026-04-03T11:25:04.303Z</time></trkpt><trkpt lat="44.1477181" lon="10.3648479"><ele>367.0</ele><time>2026-04-03T11:25:08.3Z</time></trkpt><trkpt lat="44.1477649" lon="10.3649206"><ele>368.0</ele><time>2026-04-03T11:25:12.311Z</time></trkpt><trkpt lat="44.1478017" lon="10.3649961"><ele>369.0</ele><time>2026-04-03T11:25:16.312Z</time></trkpt><trkpt lat="44.1478427" lon="10.365067"><ele>370.0</ele><time>2026-04-03T11:25:20.293Z</time></trkpt><trkpt lat="44.1478795" lon="10.3651582"><ele>371.00000000000006</ele><time>2026-04-03T11:25:25.295Z</time></trkpt><trkpt lat="44.1478321" lon="10.3652307"><ele>372.0</ele><time>2026-04-03T11:25:29.295Z</time></trkpt><trkpt lat="44.1477802" lon="10.3652955"><ele>372.00000000000006</ele><time>2026-04-03T11:25:33.293Z</time></trkpt><trkpt lat="44.1477345" lon="10.3653682"><ele>372.0</ele><time>2026-04-03T11:25:37.301Z</time></trkpt><trkpt lat="44.1477005" lon="10.3654551"><ele>372.0</ele><time>2026-04-03T11:25:41.294Z</time></trkpt><trkpt lat="44.1476783" lon="10.3655407"><ele>372.0</ele><time>2026-04-03T11:25:45.305Z</time></trkpt><trkpt lat="44.1476465" lon="10.3656211"><ele>372.0</ele><time>2026-04-03T11:25:49.312Z</time></trkpt><trkpt lat="44.1476112" lon="10.3657208"><ele>372.00000000000006</ele><time>2026-04-03T11:25:53.293Z</time></trkpt><trkpt lat="44.1475605" lon="10.3658006"><ele>372.0</ele><time>2026-04-03T11:25:59.3Z</time></trkpt><trkpt lat="44.1474678" lon="10.3658657"><ele>371.5</ele><time>2026-04-03T11:26:02.319Z</time></trkpt><trkpt lat="44.1473786" lon="10.3659362"><ele>371.0</ele><time>2026-04-03T11:26:04.319Z</time></trkpt><trkpt lat="44.1473287" lon="10.3659938"><ele>370.5</ele><time>2026-04-03T11:26:05.291Z</time></trkpt><trkpt lat="44.1472777" lon="10.3660472"><ele>370.0</ele><time>2026-04-03T11:26:06.308Z</time></trkpt><trkpt lat="44.1472252" lon="10.3660968"><ele>369.5</ele><time>2026-04-03T11:26:07.317Z</time></trkpt><trkpt lat="44.1471445" lon="10.3661423"><ele>369.0</ele><time>2026-04-03T11:26:08.293Z</time></trkpt><trkpt lat="44.1470675" lon="10.3661655"><ele>369.0</ele><time>2026-04-03T11:26:09.306Z</time></trkpt><trkpt lat="44.1469882" lon="10.36617"><ele>369.0</ele><time>2026-04-03T11:26:10.294Z</time></trkpt><trkpt lat="44.146919" lon="10.3661834"><ele>369.0</ele><time>2026-04-03T11:26:11.295Z</time></trkpt><trkpt lat="44.1468491" lon="10.3661928"><ele>369.0</ele><time>2026-04-03T11:26:12.296Z</time></trkpt><trkpt lat="44.1467799" lon="10.3661903"><ele>369.0</ele><time>2026-04-03T11:26:13.309Z</time></trkpt><trkpt lat="44.1467076" lon="10.3661832"><ele>369.0</ele><time>2026-04-03T11:26:14.305Z</time></trkpt><trkpt lat="44.1466256" lon="10.3661644"><ele>369.0</ele><time>2026-04-03T11:26:15.312Z</time></trkpt><trkpt lat="44.1465364" lon="10.3661437"><ele>366.8333333333333</ele><time>2026-04-03T11:26:16.307Z</time></trkpt><trkpt lat="44.1464518" lon="10.3661245"><ele>364.6666666666667</ele><time>2026-04-03T11:26:17.308Z</time></trkpt><trkpt lat="44.1463828" lon="10.3661146"><ele>362.5</ele><time>2026-04-03T11:26:18.298Z</time></trkpt><trkpt lat="44.1463135" lon="10.3661216"><ele>360.33333333333337</ele><time>2026-04-03T11:26:19.308Z</time></trkpt><trkpt lat="44.1462495" lon="10.3661334"><ele>358.1666666666667</ele><time>2026-04-03T11:26:20.3Z</time></trkpt><trkpt lat="44.1461599" lon="10.3662203"><ele>356.0</ele><time>2026-04-03T11:26:22.304Z</time></trkpt><trkpt lat="44.1460866" lon="10.3663438"><ele>357.4</ele><time>2026-04-03T11:26:24.325Z</time></trkpt><trkpt lat="44.1460077" lon="10.3664751"><ele>358.8</ele><time>2026-04-03T11:26:26.304Z</time></trkpt><trkpt lat="44.1459609" lon="10.3665434"><ele>360.2</ele><time>2026-04-03T11:26:27.317Z</time></trkpt><trkpt lat="44.1458874" lon="10.3666573"><ele>361.59999999999997</ele><time>2026-04-03T11:26:29.326Z</time></trkpt><trkpt lat="44.1458194" lon="10.366732"><ele>363.0</ele><time>2026-04-03T11:26:31.312Z</time></trkpt><trkpt lat="44.1457317" lon="10.3668173"><ele>360.3333333333333</ele><time>2026-04-03T11:26:34.302Z</time></trkpt><trkpt lat="44.14566" lon="10.3668864"><ele>357.6666666666667</ele><time>2026-04-03T11:26:36.297Z</time></trkpt><trkpt lat="44.1456027" lon="10.366958"><ele>355.0</ele><time>2026-04-03T11:26:39.298Z</time></trkpt><trkpt lat="44.1455127" lon="10.3670072"><ele>352.33333333333337</ele><time>2026-04-03T11:26:42.288Z</time></trkpt><trkpt lat="44.1454376" lon="10.3670312"><ele>349.6666666666667</ele><time>2026-04-03T11:26:44.286Z</time></trkpt><trkpt lat="44.1453641" lon="10.3670372"><ele>347.0</ele><time>2026-04-03T11:26:46.286Z</time></trkpt><trkpt lat="44.1452722" lon="10.3670175"><ele>347.0</ele><time>2026-04-03T11:26:48.29Z</time></trkpt><trkpt lat="44.1451815" lon="10.3669944"><ele>347.0</ele><time>2026-04-03T11:26:50.292Z</time></trkpt><trkpt lat="44.145088" lon="10.3669934"><ele>347.0</ele><time>2026-04-03T11:26:52.289Z</time></trkpt><trkpt lat="44.1450593" lon="10.3670982"><ele>347.0</ele><time>2026-04-03T11:26:54.298Z</time></trkpt><trkpt lat="44.1450064" lon="10.367194"><ele>347.0</ele><time>2026-04-03T11:26:56.293Z</time></trkpt><trkpt lat="44.1449589" lon="10.367282"><ele>347.0</ele><time>2026-04-03T11:26:58.29Z</time></trkpt><trkpt lat="44.1449048" lon="10.3673469"><ele>346.42857142857144</ele><time>2026-04-03T11:27:00.286Z</time></trkpt><trkpt lat="44.1448589" lon="10.3674138"><ele>345.85714285714283</ele><time>2026-04-03T11:27:02.287Z</time></trkpt><trkpt lat="44.1447906" lon="10.3674694"><ele>345.2857142857143</ele><time>2026-04-03T11:27:06.297Z</time></trkpt><trkpt lat="44.1447349" lon="10.3675111"><ele>344.7142857142857</ele><time>2026-04-03T11:27:10.288Z</time></trkpt><trkpt lat="44.1446878" lon="10.3675742"><ele>344.1428571428571</ele><time>2026-04-03T11:27:13.305Z</time></trkpt><trkpt lat="44.1446292" lon="10.3676449"><ele>343.57142857142856</ele><time>2026-04-03T11:27:17.308Z</time></trkpt><trkpt lat="44.144577" lon="10.3677015"><ele>343.0</ele><time>2026-04-03T11:27:21.288Z</time></trkpt><trkpt lat="44.1445082" lon="10.367774"><ele>343.0</ele><time>2026-04-03T11:27:24.298Z</time></trkpt><trkpt lat="44.1444435" lon="10.3678414"><ele>343.0</ele><time>2026-04-03T11:27:26.29Z</time></trkpt><trkpt lat="44.1443588" lon="10.3679092"><ele>343.0</ele><time>2026-04-03T11:27:28.301Z</time></trkpt><trkpt lat="44.144294" lon="10.3679727"><ele>343.0</ele><time>2026-04-03T11:27:30.292Z</time></trkpt><trkpt lat="44.1442067" lon="10.3680306"><ele>343.0</ele><time>2026-04-03T11:27:32.301Z</time></trkpt><trkpt lat="44.1441076" lon="10.3680909"><ele>344.16666666666663</ele><time>2026-04-03T11:27:34.3Z</time></trkpt><trkpt lat="44.1440089" lon="10.3681445"><ele>345.3333333333333</ele><time>2026-04-03T11:27:36.29Z</time></trkpt><trkpt lat="44.1439515" lon="10.3682326"><ele>346.5</ele><time>2026-04-03T11:27:38.295Z</time></trkpt><trkpt lat="44.1438875" lon="10.3683339"><ele>347.6666666666667</ele><time>2026-04-03T11:27:40.292Z</time></trkpt><trkpt lat="44.1438124" lon="10.3683711"><ele>348.83333333333337</ele><time>2026-04-03T11:27:42.305Z</time></trkpt><trkpt lat="44.1437529" lon="10.3684004"><ele>350.0</ele><time>2026-04-03T11:27:44.297Z</time></trkpt><trkpt lat="44.1436891" lon="10.3683775"><ele>350.0</ele><time>2026-04-03T11:27:47.298Z</time></trkpt><trkpt lat="44.1436258" lon="10.368325"><ele>350.0</ele><time>2026-04-03T11:27:51.296Z</time></trkpt><trkpt lat="44.1435542" lon="10.3682914"><ele>350.0</ele><time>2026-04-03T11:27:55.289Z</time></trkpt><trkpt lat="44.1434933" lon="10.3682517"><ele>350.0</ele><time>2026-04-03T11:27:59.298Z</time></trkpt><trkpt lat="44.1434166" lon="10.3682345"><ele>350.0</ele><time>2026-04-03T11:28:04.314Z</time></trkpt><trkpt lat="44.1433649" lon="10.3682859"><ele>350.0</ele><time>2026-04-03T11:28:08.294Z</time></trkpt><trkpt lat="44.1433118" lon="10.3683527"><ele>350.0</ele><time>2026-04-03T11:28:12.293Z</time></trkpt><trkpt lat="44.1432576" lon="10.3684371"><ele>350.0</ele><time>2026-04-03T11:28:16.298Z</time></trkpt><trkpt lat="44.1432179" lon="10.3685059"><ele>350.0</ele><time>2026-04-03T11:28:19.288Z</time></trkpt><trkpt lat="44.1431723" lon="10.3685986"><ele>350.0</ele><time>2026-04-03T11:28:23.301Z</time></trkpt><trkpt lat="44.143122" lon="10.3686719"><ele>350.0</ele><time>2026-04-03T11:28:27.3Z</time></trkpt><trkpt lat="44.1430651" lon="10.3687466"><ele>350.0</ele><time>2026-04-03T11:28:31.296Z</time></trkpt><trkpt lat="44.143006" lon="10.3688145"><ele>350.0</ele><time>2026-04-03T11:28:35.295Z</time></trkpt><trkpt lat="44.1429468" lon="10.3688727"><ele>350.0</ele><time>2026-04-03T11:28:38.291Z</time></trkpt><trkpt lat="44.1428711" lon="10.3689377"><ele>350.0</ele><time>2026-04-03T11:28:41.299Z</time></trkpt><trkpt lat="44.1427832" lon="10.3690086"><ele>350.0</ele><time>2026-04-03T11:28:44.303Z</time></trkpt><trkpt lat="44.1427175" lon="10.3690702"><ele>350.0</ele><time>2026-04-03T11:28:46.302Z</time></trkpt><trkpt lat="44.1426578" lon="10.3691264"><ele>350.0</ele><time>2026-04-03T11:28:48.288Z</time></trkpt><trkpt lat="44.1426038" lon="10.3691819"><ele>350.0</ele><time>2026-04-03T11:28:50.292Z</time></trkpt><trkpt lat="44.1425447" lon="10.3692368"><ele>350.0</ele><time>2026-04-03T11:28:52.288Z</time></trkpt><trkpt lat="44.1424942" lon="10.3692952"><ele>350.0</ele><time>2026-04-03T11:28:54.294Z</time></trkpt><trkpt lat="44.1424447" lon="10.3693621"><ele>350.0</ele><time>2026-04-03T11:28:57.302Z</time></trkpt><trkpt lat="44.1423804" lon="10.3694393"><ele>350.0</ele><time>2026-04-03T11:29:01.296Z</time></trkpt><trkpt lat="44.1423169" lon="10.3695066"><ele>350.0</ele><time>2026-04-03T11:29:05.296Z</time></trkpt><trkpt lat="44.1422577" lon="10.3695595"><ele>350.0</ele><time>2026-04-03T11:29:08.3Z</time></trkpt><trkpt lat="44.1421815" lon="10.3696212"><ele>350.0</ele><time>2026-04-03T11:29:11.294Z</time></trkpt><trkpt lat="44.1421022" lon="10.3696636"><ele>349.6666666666667</ele><time>2026-04-03T11:29:14.305Z</time></trkpt><trkpt lat="44.1420322" lon="10.369691"><ele>349.33333333333337</ele><time>2026-04-03T11:29:17.312Z</time></trkpt><trkpt lat="44.1419739" lon="10.3697438"><ele>349.0</ele><time>2026-04-03T11:29:20.299Z</time></trkpt><trkpt lat="44.1419303" lon="10.3698673"><ele>348.6666666666667</ele><time>2026-04-03T11:29:23.305Z</time></trkpt><trkpt lat="44.1418996" lon="10.3699879"><ele>348.3333333333333</ele><time>2026-04-03T11:29:25.298Z</time></trkpt><trkpt lat="44.1418847" lon="10.3700972"><ele>348.0</ele><time>2026-04-03T11:29:27.299Z</time></trkpt><trkpt lat="44.1418645" lon="10.3701889"><ele>348.0</ele><time>2026-04-03T11:29:30.296Z</time></trkpt><trkpt lat="44.141837" lon="10.370288"><ele>348.0</ele><time>2026-04-03T11:29:34.306Z</time></trkpt><trkpt lat="44.1417961" lon="10.3703786"><ele>348.0</ele><time>2026-04-03T11:29:38.292Z</time></trkpt><trkpt lat="44.141762" lon="10.3704557"><ele>348.0</ele><time>2026-04-03T11:29:41.295Z</time></trkpt><trkpt lat="44.1417265" lon="10.3705435"><ele>348.0</ele><time>2026-04-03T11:29:44.288Z</time></trkpt><trkpt lat="44.1416974" lon="10.3706377"><ele>348.0</ele><time>2026-04-03T11:29:47.312Z</time></trkpt><trkpt lat="44.1416703" lon="10.37073"><ele>348.0</ele><time>2026-04-03T11:29:50.3Z</time></trkpt><trkpt lat="44.1416359" lon="10.3708327"><ele>350.0</ele><time>2026-04-03T11:29:53.301Z</time></trkpt><trkpt lat="44.1416163" lon="10.3709434"><ele>352.0</ele><time>2026-04-03T11:29:56.302Z</time></trkpt><trkpt lat="44.1415988" lon="10.3710612"><ele>354.0</ele><time>2026-04-03T11:29:59.293Z</time></trkpt><trkpt lat="44.141585" lon="10.37117"><ele>356.0</ele><time>2026-04-03T11:30:02.293Z</time></trkpt><trkpt lat="44.1415756" lon="10.3712805"><ele>358.0</ele><time>2026-04-03T11:30:05.296Z</time></trkpt><trkpt lat="44.1415593" lon="10.3713754"><ele>360.0</ele><time>2026-04-03T11:30:08.289Z</time></trkpt><trkpt lat="44.14155" lon="10.371465"><ele>358.1666666666667</ele><time>2026-04-03T11:30:11.295Z</time></trkpt><trkpt lat="44.1415285" lon="10.3715858"><ele>356.3333333333333</ele><time>2026-04-03T11:30:14.305Z</time></trkpt><trkpt lat="44.1414987" lon="10.3717027"><ele>354.5</ele><time>2026-04-03T11:30:17.309Z</time></trkpt><trkpt lat="44.1414636" lon="10.3718071"><ele>352.66666666666663</ele><time>2026-04-03T11:30:20.296Z</time></trkpt><trkpt lat="44.1414349" lon="10.3719048"><ele>350.8333333333333</ele><time>2026-04-03T11:30:23.299Z</time></trkpt><trkpt lat="44.1414097" lon="10.3719917"><ele>349.0</ele><time>2026-04-03T11:30:26.3Z</time></trkpt><trkpt lat="44.1413504" lon="10.372103"><ele>350.3333333333333</ele><time>2026-04-03T11:30:29.31Z</time></trkpt><trkpt lat="44.1412757" lon="10.372213"><ele>351.66666666666663</ele><time>2026-04-03T11:30:31.302Z</time></trkpt><trkpt lat="44.1411818" lon="10.3723064"><ele>353.0</ele><time>2026-04-03T11:30:33.292Z</time></trkpt><trkpt lat="44.1411225" lon="10.3723511"><ele>354.3333333333333</ele><time>2026-04-03T11:30:34.302Z</time></trkpt><trkpt lat="44.1410555" lon="10.3723966"><ele>355.6666666666667</ele><time>2026-04-03T11:30:35.297Z</time></trkpt><trkpt lat="44.1409836" lon="10.3724452"><ele>357.0</ele><time>2026-04-03T11:30:36.304Z</time></trkpt><trkpt lat="44.1409073" lon="10.3724832"><ele>357.0</ele><time>2026-04-03T11:30:37.302Z</time></trkpt><trkpt lat="44.140835" lon="10.3725099"><ele>357.0</ele><time>2026-04-03T11:30:38.3Z</time></trkpt><trkpt lat="44.1407607" lon="10.372546"><ele>357.0</ele><time>2026-04-03T11:30:39.298Z</time></trkpt><trkpt lat="44.1406918" lon="10.3725974"><ele>357.0</ele><time>2026-04-03T11:30:40.302Z</time></trkpt><trkpt lat="44.1406287" lon="10.372659"><ele>357.0</ele><time>2026-04-03T11:30:41.289Z</time></trkpt><trkpt lat="44.1405763" lon="10.3727268"><ele>357.0</ele><time>2026-04-03T11:30:42.289Z</time></trkpt><trkpt lat="44.1405256" lon="10.3727869"><ele>357.0</ele><time>2026-04-03T11:30:43.307Z</time></trkpt><trkpt lat="44.1404306" lon="10.3728745"><ele>356.5</ele><time>2026-04-03T11:30:45.301Z</time></trkpt><trkpt lat="44.1403547" lon="10.3729482"><ele>356.0</ele><time>2026-04-03T11:30:47.296Z</time></trkpt><trkpt lat="44.1402754" lon="10.3730107"><ele>355.5</ele><time>2026-04-03T11:30:50.295Z</time></trkpt><trkpt lat="44.1402129" lon="10.373061"><ele>355.0</ele><time>2026-04-03T11:30:53.304Z</time></trkpt><trkpt lat="44.1401568" lon="10.3731037"><ele>354.5</ele><time>2026-04-03T11:30:57.29Z</time></trkpt><trkpt lat="44.1400954" lon="10.3731536"><ele>354.0</ele><time>2026-04-03T11:31:00.295Z</time></trkpt><trkpt lat="44.1400242" lon="10.3732035"><ele>354.0</ele><time>2026-04-03T11:31:02.325Z</time></trkpt><trkpt lat="44.1399501" lon="10.3732984"><ele>354.0</ele><time>2026-04-03T11:31:04.299Z</time></trkpt><trkpt lat="44.1398864" lon="10.3734204"><ele>354.0</ele><time>2026-04-03T11:31:06.312Z</time></trkpt><trkpt lat="44.1398032" lon="10.3735282"><ele>354.0</ele><time>2026-04-03T11:31:08.313Z</time></trkpt><trkpt lat="44.1397338" lon="10.3736311"><ele>354.0</ele><time>2026-04-03T11:31:10.289Z</time></trkpt><trkpt lat="44.1396693" lon="10.3736324"><ele>353.4</ele><time>2026-04-03T11:31:11.309Z</time></trkpt><trkpt lat="44.1395628" lon="10.3736535"><ele>352.79999999999995</ele><time>2026-04-03T11:31:13.297Z</time></trkpt><trkpt lat="44.139453" lon="10.373695"><ele>352.20000000000005</ele><time>2026-04-03T11:31:15.311Z</time></trkpt><trkpt lat="44.1393634" lon="10.3737484"><ele>351.6</ele><time>2026-04-03T11:31:17.303Z</time></trkpt><trkpt lat="44.1392886" lon="10.3738207"><ele>351.0</ele><time>2026-04-03T11:31:19.32Z</time></trkpt><trkpt lat="44.1392233" lon="10.3739147"><ele>351.0</ele><time>2026-04-03T11:31:21.303Z</time></trkpt><trkpt lat="44.1391557" lon="10.3740246"><ele>351.0</ele><time>2026-04-03T11:31:23.312Z</time></trkpt><trkpt lat="44.1391233" lon="10.3741283"><ele>351.0</ele><time>2026-04-03T11:31:25.291Z</time></trkpt><trkpt lat="44.1390979" lon="10.3742308"><ele>351.0</ele><time>2026-04-03T11:31:28.304Z</time></trkpt><trkpt lat="44.139085" lon="10.374317"><ele>351.0</ele><time>2026-04-03T11:31:31.294Z</time></trkpt><trkpt lat="44.139087" lon="10.3744109"><ele>351.0</ele><time>2026-04-03T11:31:34.292Z</time></trkpt><trkpt lat="44.1390902" lon="10.3745165"><ele>351.0</ele><time>2026-04-03T11:31:37.304Z</time></trkpt><trkpt lat="44.139074" lon="10.3746217"><ele>351.0</ele><time>2026-04-03T11:31:40.298Z</time></trkpt><trkpt lat="44.1390467" lon="10.3747093"><ele>351.0</ele><time>2026-04-03T11:31:43.292Z</time></trkpt><trkpt lat="44.1390215" lon="10.3748112"><ele>351.0</ele><time>2026-04-03T11:31:46.286Z</time></trkpt><trkpt lat="44.1390047" lon="10.3749374"><ele>351.0</ele><time>2026-04-03T11:31:49.297Z</time></trkpt><trkpt lat="44.1389813" lon="10.3750596"><ele>351.0</ele><time>2026-04-03T11:31:52.3Z</time></trkpt><trkpt lat="44.1389398" lon="10.3751689"><ele>351.0</ele><time>2026-04-03T11:31:55.31Z</time></trkpt><trkpt lat="44.138907" lon="10.3752449"><ele>351.0</ele><time>2026-04-03T11:31:57.306Z</time></trkpt><trkpt lat="44.1388416" lon="10.3753585"><ele>351.0</ele><time>2026-04-03T11:32:00.295Z</time></trkpt><trkpt lat="44.1387948" lon="10.3754631"><ele>351.0</ele><time>2026-04-03T11:32:02.298Z</time></trkpt><trkpt lat="44.1387379" lon="10.3756002"><ele>351.0</ele><time>2026-04-03T11:32:04.297Z</time></trkpt><trkpt lat="44.1386755" lon="10.375728"><ele>351.0</ele><time>2026-04-03T11:32:06.304Z</time></trkpt><trkpt lat="44.1386228" lon="10.3758245"><ele>351.0</ele><time>2026-04-03T11:32:08.303Z</time></trkpt><trkpt lat="44.1385799" lon="10.3758991"><ele>351.0</ele><time>2026-04-03T11:32:10.292Z</time></trkpt><trkpt lat="44.138537" lon="10.3759648"><ele>351.0</ele><time>2026-04-03T11:32:13.295Z</time></trkpt><trkpt lat="44.1384891" lon="10.3760491"><ele>351.0</ele><time>2026-04-03T11:32:17.293Z</time></trkpt><trkpt lat="44.1384493" lon="10.3761351"><ele>351.0</ele><time>2026-04-03T11:32:22.292Z</time></trkpt><trkpt lat="44.1384025" lon="10.3762488"><ele>351.0</ele><time>2026-04-03T11:32:25.303Z</time></trkpt><trkpt lat="44.1383553" lon="10.3763407"><ele>351.0</ele><time>2026-04-03T11:32:27.294Z</time></trkpt><trkpt lat="44.1382377" lon="10.3764451"><ele>351.0</ele><time>2026-04-03T11:32:29.319Z</time></trkpt><trkpt lat="44.1381713" lon="10.3764875"><ele>351.0</ele><time>2026-04-03T11:32:30.309Z</time></trkpt><trkpt lat="44.1380979" lon="10.3765244"><ele>351.0</ele><time>2026-04-03T11:32:31.302Z</time></trkpt><trkpt lat="44.1380207" lon="10.3765624"><ele>349.0</ele><time>2026-04-03T11:32:32.289Z</time></trkpt><trkpt lat="44.1379451" lon="10.3765893"><ele>347.0</ele><time>2026-04-03T11:32:33.293Z</time></trkpt><trkpt lat="44.1378359" lon="10.3766407"><ele>345.0</ele><time>2026-04-03T11:32:35.293Z</time></trkpt><trkpt lat="44.137757" lon="10.3766845"><ele>343.0</ele><time>2026-04-03T11:32:37.299Z</time></trkpt><trkpt lat="44.1376849" lon="10.3767301"><ele>341.0</ele><time>2026-04-03T11:32:39.3Z</time></trkpt><trkpt lat="44.1376319" lon="10.3767869"><ele>339.0</ele><time>2026-04-03T11:32:41.298Z</time></trkpt><trkpt lat="44.1376314" lon="10.3768804"><ele>339.0</ele><time>2026-04-03T11:32:43.294Z</time></trkpt><trkpt lat="44.1376548" lon="10.3769845"><ele>339.0</ele><time>2026-04-03T11:32:45.3Z</time></trkpt><trkpt lat="44.1376921" lon="10.37713"><ele>339.0</ele><time>2026-04-03T11:32:47.305Z</time></trkpt><trkpt lat="44.1376982" lon="10.3772978"><ele>339.0</ele><time>2026-04-03T11:32:49.299Z</time></trkpt><trkpt lat="44.1376841" lon="10.3773835"><ele>339.0</ele><time>2026-04-03T11:32:50.309Z</time></trkpt><trkpt lat="44.1376546" lon="10.3774771"><ele>339.0</ele><time>2026-04-03T11:32:51.305Z</time></trkpt><trkpt lat="44.137612" lon="10.3775624"><ele>339.0</ele><time>2026-04-03T11:32:52.299Z</time></trkpt><trkpt lat="44.1375642" lon="10.3776567"><ele>339.0</ele><time>2026-04-03T11:32:53.303Z</time></trkpt><trkpt lat="44.1374983" lon="10.3777433"><ele>339.0</ele><time>2026-04-03T11:32:54.304Z</time></trkpt><trkpt lat="44.137431" lon="10.377817"><ele>339.0</ele><time>2026-04-03T11:32:55.306Z</time></trkpt><trkpt lat="44.1373554" lon="10.3778898"><ele>339.0</ele><time>2026-04-03T11:32:56.301Z</time></trkpt><trkpt lat="44.1372924" lon="10.377953"><ele>339.0</ele><time>2026-04-03T11:32:57.305Z</time></trkpt><trkpt lat="44.1372244" lon="10.3780207"><ele>338.1666666666667</ele><time>2026-04-03T11:32:58.305Z</time></trkpt><trkpt lat="44.1371529" lon="10.3780754"><ele>337.3333333333333</ele><time>2026-04-03T11:32:59.309Z</time></trkpt><trkpt lat="44.1370739" lon="10.3781044"><ele>336.5</ele><time>2026-04-03T11:33:00.306Z</time></trkpt><trkpt lat="44.1369876" lon="10.3780843"><ele>335.66666666666663</ele><time>2026-04-03T11:33:01.304Z</time></trkpt><trkpt lat="44.1369022" lon="10.3780503"><ele>334.8333333333333</ele><time>2026-04-03T11:33:02.3Z</time></trkpt><trkpt lat="44.13683" lon="10.3779715"><ele>334.0</ele><time>2026-04-03T11:33:03.308Z</time></trkpt><trkpt lat="44.1367646" lon="10.3778747"><ele>333.16666666666663</ele><time>2026-04-03T11:33:04.308Z</time></trkpt><trkpt lat="44.1366853" lon="10.3777875"><ele>332.3333333333333</ele><time>2026-04-03T11:33:05.317Z</time></trkpt><trkpt lat="44.1365996" lon="10.377738"><ele>331.5</ele><time>2026-04-03T11:33:06.309Z</time></trkpt><trkpt lat="44.1365222" lon="10.3777164"><ele>330.6666666666667</ele><time>2026-04-03T11:33:07.301Z</time></trkpt><trkpt lat="44.1364495" lon="10.3777177"><ele>329.83333333333337</ele><time>2026-04-03T11:33:08.307Z</time></trkpt><trkpt lat="44.1363772" lon="10.3777578"><ele>329.0</ele><time>2026-04-03T11:33:09.309Z</time></trkpt><trkpt lat="44.1363035" lon="10.3778155"><ele>328.79999999999995</ele><time>2026-04-03T11:33:10.295Z</time></trkpt><trkpt lat="44.1362066" lon="10.3778836"><ele>328.59999999999997</ele><time>2026-04-03T11:33:11.301Z</time></trkpt><trkpt lat="44.1361189" lon="10.3779315"><ele>328.4</ele><time>2026-04-03T11:33:12.316Z</time></trkpt><trkpt lat="44.1360331" lon="10.377994"><ele>328.2</ele><time>2026-04-03T11:33:13.297Z</time></trkpt><trkpt lat="44.135958" lon="10.3780592"><ele>328.0</ele><time>2026-04-03T11:33:14.297Z</time></trkpt><trkpt lat="44.1359057" lon="10.3781411"><ele>328.0</ele><time>2026-04-03T11:33:15.305Z</time></trkpt><trkpt lat="44.135866" lon="10.3782363"><ele>328.0</ele><time>2026-04-03T11:33:16.313Z</time></trkpt><trkpt lat="44.1358417" lon="10.3783186"><ele>328.0</ele><time>2026-04-03T11:33:17.305Z</time></trkpt><trkpt lat="44.1357911" lon="10.3783764"><ele>328.0</ele><time>2026-04-03T11:33:19.301Z</time></trkpt><trkpt lat="44.1357216" lon="10.378308"><ele>328.0</ele><time>2026-04-03T11:33:21.295Z</time></trkpt><trkpt lat="44.1356168" lon="10.3782273"><ele>328.0</ele><time>2026-04-03T11:33:23.305Z</time></trkpt><trkpt lat="44.1355029" lon="10.3781428"><ele>327.85714285714283</ele><time>2026-04-03T11:33:25.305Z</time></trkpt><trkpt lat="44.1354462" lon="10.3780843"><ele>327.7142857142857</ele><time>2026-04-03T11:33:26.297Z</time></trkpt><trkpt lat="44.1353888" lon="10.3780236"><ele>327.57142857142856</ele><time>2026-04-03T11:33:27.293Z</time></trkpt><trkpt lat="44.1353236" lon="10.3779741"><ele>327.42857142857144</ele><time>2026-04-03T11:33:28.306Z</time></trkpt><trkpt lat="44.1352646" lon="10.3779225"><ele>327.2857142857143</ele><time>2026-04-03T11:33:29.306Z</time></trkpt><trkpt lat="44.1351991" lon="10.3778654"><ele>327.1428571428571</ele><time>2026-04-03T11:33:30.305Z</time></trkpt><trkpt lat="44.1351298" lon="10.3778154"><ele>327.0</ele><time>2026-04-03T11:33:31.304Z</time></trkpt><trkpt lat="44.1350609" lon="10.3777626"><ele>325.85714285714283</ele><time>2026-04-03T11:33:32.307Z</time></trkpt><trkpt lat="44.1349825" lon="10.3776963"><ele>324.7142857142857</ele><time>2026-04-03T11:33:33.297Z</time></trkpt><trkpt lat="44.1349161" lon="10.3776395"><ele>323.57142857142856</ele><time>2026-04-03T11:33:34.3Z</time></trkpt><trkpt lat="44.1348548" lon="10.3775995"><ele>322.42857142857144</ele><time>2026-04-03T11:33:35.314Z</time></trkpt><trkpt lat="44.1347886" lon="10.3775819"><ele>321.2857142857143</ele><time>2026-04-03T11:33:36.305Z</time></trkpt><trkpt lat="44.1347242" lon="10.3776008"><ele>320.14285714285717</ele><time>2026-04-03T11:33:37.302Z</time></trkpt><trkpt lat="44.13465" lon="10.3776218"><ele>319.0</ele><time>2026-04-03T11:33:38.304Z</time></trkpt><trkpt lat="44.1345689" lon="10.377651"><ele>318.8333333333333</ele><time>2026-04-03T11:33:39.307Z</time></trkpt><trkpt lat="44.1344856" lon="10.3776694"><ele>318.66666666666663</ele><time>2026-04-03T11:33:40.304Z</time></trkpt><trkpt lat="44.1344069" lon="10.3777135"><ele>318.5</ele><time>2026-04-03T11:33:41.31Z</time></trkpt><trkpt lat="44.1343388" lon="10.3777753"><ele>318.3333333333333</ele><time>2026-04-03T11:33:42.301Z</time></trkpt><trkpt lat="44.1342815" lon="10.3778549"><ele>318.1666666666667</ele><time>2026-04-03T11:33:43.3Z</time></trkpt><trkpt lat="44.1342416" lon="10.3779461"><ele>318.0</ele><time>2026-04-03T11:33:44.297Z</time></trkpt><trkpt lat="44.134206" lon="10.3780357"><ele>318.0</ele><time>2026-04-03T11:33:45.298Z</time></trkpt><trkpt lat="44.1341733" lon="10.378124"><ele>318.0</ele><time>2026-04-03T11:33:46.298Z</time></trkpt><trkpt lat="44.1341477" lon="10.3782093"><ele>318.0</ele><time>2026-04-03T11:33:47.304Z</time></trkpt><trkpt lat="44.134126" lon="10.3782953"><ele>318.0</ele><time>2026-04-03T11:33:48.302Z</time></trkpt><trkpt lat="44.1341039" lon="10.3783785"><ele>318.0</ele><time>2026-04-03T11:33:49.298Z</time></trkpt><trkpt lat="44.1340694" lon="10.378535"><ele>318.0</ele><time>2026-04-03T11:33:51.293Z</time></trkpt><trkpt lat="44.1340489" lon="10.3786804"><ele>317.2</ele><time>2026-04-03T11:33:53.298Z</time></trkpt><trkpt lat="44.1340403" lon="10.378837"><ele>316.4</ele><time>2026-04-03T11:33:55.294Z</time></trkpt><trkpt lat="44.1340285" lon="10.3789778"><ele>315.59999999999997</ele><time>2026-04-03T11:33:57.3Z</time></trkpt><trkpt lat="44.1340075" lon="10.379123"><ele>314.8</ele><time>2026-04-03T11:33:59.308Z</time></trkpt><trkpt lat="44.133994" lon="10.3792644"><ele>314.0</ele><time>2026-04-03T11:34:01.299Z</time></trkpt><trkpt lat="44.1340079" lon="10.3794084"><ele>314.0</ele><time>2026-04-03T11:34:03.298Z</time></trkpt><trkpt lat="44.134031" lon="10.3795357"><ele>314.0</ele><time>2026-04-03T11:34:05.295Z</time></trkpt><trkpt lat="44.1340489" lon="10.3796506"><ele>314.0</ele><time>2026-04-03T11:34:07.313Z</time></trkpt><trkpt lat="44.1340646" lon="10.3797642"><ele>314.0</ele><time>2026-04-03T11:34:09.301Z</time></trkpt><trkpt lat="44.1340702" lon="10.3798732"><ele>314.0</ele><time>2026-04-03T11:34:11.296Z</time></trkpt><trkpt lat="44.1340844" lon="10.3799887"><ele>314.0</ele><time>2026-04-03T11:34:13.288Z</time></trkpt><trkpt lat="44.1341062" lon="10.3801091"><ele>314.33333333333337</ele><time>2026-04-03T11:34:15.302Z</time></trkpt><trkpt lat="44.1341117" lon="10.3802223"><ele>314.6666666666667</ele><time>2026-04-03T11:34:17.301Z</time></trkpt><trkpt lat="44.134102" lon="10.3803268"><ele>315.0</ele><time>2026-04-03T11:34:19.306Z</time></trkpt><trkpt lat="44.1340893" lon="10.3804191"><ele>315.3333333333333</ele><time>2026-04-03T11:34:21.308Z</time></trkpt><trkpt lat="44.134082" lon="10.3805167"><ele>315.66666666666663</ele><time>2026-04-03T11:34:24.306Z</time></trkpt><trkpt lat="44.1340801" lon="10.3806253"><ele>316.0</ele><time>2026-04-03T11:34:27.286Z</time></trkpt><trkpt lat="44.134091" lon="10.3807551"><ele>316.00000000000006</ele><time>2026-04-03T11:34:30.29Z</time></trkpt><trkpt lat="44.1340968" lon="10.3808475"><ele>316.0</ele><time>2026-04-03T11:34:32.292Z</time></trkpt><trkpt lat="44.1341004" lon="10.3809779"><ele>316.0</ele><time>2026-04-03T11:34:35.294Z</time></trkpt><trkpt lat="44.1341154" lon="10.3810737"><ele>316.0</ele><time>2026-04-03T11:34:37.31Z</time></trkpt><trkpt lat="44.1341709" lon="10.3811334"><ele>316.0</ele><time>2026-04-03T11:34:39.303Z</time></trkpt><trkpt lat="44.134242" lon="10.3811498"><ele>316.00000000000006</ele><time>2026-04-03T11:34:41.298Z</time></trkpt><trkpt lat="44.1342988" lon="10.3811889"><ele>316.0</ele><time>2026-04-03T11:34:43.3Z</time></trkpt><trkpt lat="44.1343519" lon="10.3812897"><ele>316.0</ele><time>2026-04-03T11:34:46.293Z</time></trkpt><trkpt lat="44.1343839" lon="10.3814164"><ele>316.0</ele><time>2026-04-03T11:34:49.297Z</time></trkpt><trkpt lat="44.1343979" lon="10.3815287"><ele>316.0</ele><time>2026-04-03T11:34:51.305Z</time></trkpt><trkpt lat="44.1344151" lon="10.3816298"><ele>316.0</ele><time>2026-04-03T11:34:53.297Z</time></trkpt><trkpt lat="44.1344062" lon="10.3817325"><ele>316.0</ele><time>2026-04-03T11:34:55.304Z</time></trkpt><trkpt lat="44.1344036" lon="10.3818228"><ele>316.0</ele><time>2026-04-03T11:34:57.295Z</time></trkpt><trkpt lat="44.1344111" lon="10.3819397"><ele>316.0</ele><time>2026-04-03T11:35:00.314Z</time></trkpt><trkpt lat="44.1343759" lon="10.3820628"><ele>316.0</ele><time>2026-04-03T11:35:03.287Z</time></trkpt><trkpt lat="44.1343334" lon="10.382165"><ele>316.0</ele><time>2026-04-03T11:35:06.294Z</time></trkpt><trkpt lat="44.1342956" lon="10.3822741"><ele>316.0</ele><time>2026-04-03T11:35:09.301Z</time></trkpt><trkpt lat="44.134271" lon="10.3823919"><ele>316.0</ele><time>2026-04-03T11:35:12.301Z</time></trkpt><trkpt lat="44.1342533" lon="10.3825149"><ele>316.0</ele><time>2026-04-03T11:35:14.297Z</time></trkpt><trkpt lat="44.1342218" lon="10.3826314"><ele>316.14285714285717</ele><time>2026-04-03T11:35:16.303Z</time></trkpt><trkpt lat="44.1341751" lon="10.3827082"><ele>316.2857142857143</ele><time>2026-04-03T11:35:18.299Z</time></trkpt><trkpt lat="44.1341205" lon="10.3828046"><ele>316.42857142857144</ele><time>2026-04-03T11:35:21.296Z</time></trkpt><trkpt lat="44.1340785" lon="10.3828778"><ele>316.57142857142856</ele><time>2026-04-03T11:35:23.294Z</time></trkpt><trkpt lat="44.1340427" lon="10.3829611"><ele>316.7142857142857</ele><time>2026-04-03T11:35:25.29Z</time></trkpt><trkpt lat="44.1339899" lon="10.3830334"><ele>316.8571428571429</ele><time>2026-04-03T11:35:27.293Z</time></trkpt><trkpt lat="44.133926" lon="10.3830653"><ele>317.0</ele><time>2026-04-03T11:35:29.289Z</time></trkpt><trkpt lat="44.1338608" lon="10.3831099"><ele>316.1666666666667</ele><time>2026-04-03T11:35:32.304Z</time></trkpt><trkpt lat="44.1338046" lon="10.3831779"><ele>315.33333333333337</ele><time>2026-04-03T11:35:36.299Z</time></trkpt><trkpt lat="44.1337541" lon="10.3832647"><ele>314.5</ele><time>2026-04-03T11:35:40.293Z</time></trkpt><trkpt lat="44.133732" lon="10.3833488"><ele>313.6666666666667</ele><time>2026-04-03T11:35:42.302Z</time></trkpt><trkpt lat="44.1336969" lon="10.3834521"><ele>312.8333333333333</ele><time>2026-04-03T11:35:44.307Z</time></trkpt><trkpt lat="44.1336205" lon="10.3835066"><ele>312.0</ele><time>2026-04-03T11:35:45.289Z</time></trkpt><trkpt lat="44.1335714" lon="10.3835869"><ele>312.0</ele><time>2026-04-03T11:35:49.302Z</time></trkpt><trkpt lat="44.1335051" lon="10.3836244"><ele>312.0</ele><time>2026-04-03T11:35:52.284Z</time></trkpt><trkpt lat="44.1334526" lon="10.383684"><ele>312.0</ele><time>2026-04-03T11:35:55.31Z</time></trkpt><trkpt lat="44.1333963" lon="10.3837351"><ele>312.0</ele><time>2026-04-03T11:35:58.297Z</time></trkpt><trkpt lat="44.1333438" lon="10.3838057"><ele>312.0</ele><time>2026-04-03T11:36:01.283Z</time></trkpt><trkpt lat="44.1332988" lon="10.3839019"><ele>312.0</ele><time>2026-04-03T11:36:04.299Z</time></trkpt><trkpt lat="44.1332714" lon="10.3839866"><ele>312.0</ele><time>2026-04-03T11:36:07.303Z</time></trkpt><trkpt lat="44.1331988" lon="10.3839506"><ele>312.42857142857144</ele><time>2026-04-03T11:36:12.303Z</time></trkpt><trkpt lat="44.133136" lon="10.3839221"><ele>312.85714285714283</ele><time>2026-04-03T11:36:14.299Z</time></trkpt><trkpt lat="44.13306" lon="10.3839272"><ele>313.2857142857143</ele><time>2026-04-03T11:36:16.288Z</time></trkpt><trkpt lat="44.1329836" lon="10.3839613"><ele>313.7142857142857</ele><time>2026-04-03T11:36:18.296Z</time></trkpt><trkpt lat="44.1329049" lon="10.3840121"><ele>314.1428571428571</ele><time>2026-04-03T11:36:21.293Z</time></trkpt><trkpt lat="44.1328466" lon="10.3840484"><ele>314.57142857142856</ele><time>2026-04-03T11:36:23.289Z</time></trkpt><trkpt lat="44.1327795" lon="10.3840399"><ele>315.0</ele><time>2026-04-03T11:36:25.303Z</time></trkpt><trkpt lat="44.1327187" lon="10.3840164"><ele>315.0</ele><time>2026-04-03T11:36:27.309Z</time></trkpt><trkpt lat="44.1326513" lon="10.3840179"><ele>315.0</ele><time>2026-04-03T11:36:29.297Z</time></trkpt><trkpt lat="44.1325833" lon="10.3840337"><ele>315.0</ele><time>2026-04-03T11:36:31.295Z</time></trkpt><trkpt lat="44.1325054" lon="10.3840747"><ele>315.0</ele><time>2026-04-03T11:36:34.299Z</time></trkpt><trkpt lat="44.1324609" lon="10.384146"><ele>315.0</ele><time>2026-04-03T11:36:38.302Z</time></trkpt><trkpt lat="44.1324097" lon="10.3840784"><ele>315.0</ele><time>2026-04-03T11:36:44.305Z</time></trkpt><trkpt lat="44.1324146" lon="10.3839738"><ele>315.0</ele><time>2026-04-03T11:36:48.296Z</time></trkpt><trkpt lat="44.1324129" lon="10.3838706"><ele>315.0</ele><time>2026-04-03T11:36:52.304Z</time></trkpt><trkpt lat="44.1323895" lon="10.3837739"><ele>315.0</ele><time>2026-04-03T11:36:57.289Z</time></trkpt><trkpt lat="44.1324133" lon="10.3838962"><ele>315.0</ele><time>2026-04-03T11:37:12.303Z</time></trkpt><trkpt lat="44.1324169" lon="10.3840008"><ele>315.0</ele><time>2026-04-03T11:37:14.291Z</time></trkpt><trkpt lat="44.1324143" lon="10.3841204"><ele>315.0</ele><time>2026-04-03T11:37:16.286Z</time></trkpt><trkpt lat="44.1324068" lon="10.3842534"><ele>315.0</ele><time>2026-04-03T11:37:18.295Z</time></trkpt><trkpt lat="44.1323968" lon="10.3843828"><ele>314.0</ele><time>2026-04-03T11:37:20.298Z</time></trkpt><trkpt lat="44.1323881" lon="10.3845103"><ele>313.0</ele><time>2026-04-03T11:37:22.289Z</time></trkpt><trkpt lat="44.1323803" lon="10.3846273"><ele>312.0</ele><time>2026-04-03T11:37:24.297Z</time></trkpt><trkpt lat="44.1323739" lon="10.3847384"><ele>311.0</ele><time>2026-04-03T11:37:26.292Z</time></trkpt><trkpt lat="44.1323715" lon="10.3848337"><ele>310.0</ele><time>2026-04-03T11:37:28.293Z</time></trkpt><trkpt lat="44.1323674" lon="10.3849266"><ele>309.0</ele><time>2026-04-03T11:37:30.302Z</time></trkpt><trkpt lat="44.1323637" lon="10.3850494"><ele>309.0</ele><time>2026-04-03T11:37:33.291Z</time></trkpt><trkpt lat="44.1323604" lon="10.3851587"><ele>309.0</ele><time>2026-04-03T11:37:36.301Z</time></trkpt><trkpt lat="44.1323692" lon="10.3852666"><ele>309.0</ele><time>2026-04-03T11:37:39.295Z</time></trkpt><trkpt lat="44.1323858" lon="10.3853813"><ele>309.0</ele><time>2026-04-03T11:37:42.289Z</time></trkpt><trkpt lat="44.1324167" lon="10.3854861"><ele>309.0</ele><time>2026-04-03T11:37:45.297Z</time></trkpt><trkpt lat="44.1324091" lon="10.3855969"><ele>309.0</ele><time>2026-04-03T11:37:48.301Z</time></trkpt><trkpt lat="44.1323797" lon="10.3857072"><ele>309.1666666666667</ele><time>2026-04-03T11:37:51.301Z</time></trkpt><trkpt lat="44.1323587" lon="10.3858175"><ele>309.3333333333333</ele><time>2026-04-03T11:37:54.297Z</time></trkpt><trkpt lat="44.1323342" lon="10.3859284"><ele>309.5</ele><time>2026-04-03T11:37:57.306Z</time></trkpt><trkpt lat="44.1323018" lon="10.3860384"><ele>309.66666666666663</ele><time>2026-04-03T11:38:00.296Z</time></trkpt><trkpt lat="44.1322721" lon="10.3861488"><ele>309.8333333333333</ele><time>2026-04-03T11:38:03.288Z</time></trkpt><trkpt lat="44.1322427" lon="10.3862479"><ele>310.0</ele><time>2026-04-03T11:38:06.286Z</time></trkpt><trkpt lat="44.1321985" lon="10.3863515"><ele>310.3333333333333</ele><time>2026-04-03T11:38:09.292Z</time></trkpt><trkpt lat="44.132161" lon="10.3864631"><ele>310.66666666666663</ele><time>2026-04-03T11:38:12.299Z</time></trkpt><trkpt lat="44.1321233" lon="10.3865745"><ele>311.0</ele><time>2026-04-03T11:38:15.299Z</time></trkpt><trkpt lat="44.1320882" lon="10.3866695"><ele>311.3333333333333</ele><time>2026-04-03T11:38:18.301Z</time></trkpt><trkpt lat="44.1320621" lon="10.3867553"><ele>311.6666666666667</ele><time>2026-04-03T11:38:21.289Z</time></trkpt><trkpt lat="44.1320306" lon="10.3868504"><ele>312.0</ele><time>2026-04-03T11:38:25.293Z</time></trkpt><trkpt lat="44.1320016" lon="10.3869396"><ele>312.0</ele><time>2026-04-03T11:38:29.289Z</time></trkpt><trkpt lat="44.1319698" lon="10.3870322"><ele>312.0</ele><time>2026-04-03T11:38:33.3Z</time></trkpt><trkpt lat="44.1319512" lon="10.387131"><ele>312.0</ele><time>2026-04-03T11:38:37.31Z</time></trkpt><trkpt lat="44.1319766" lon="10.3872292"><ele>312.0</ele><time>2026-04-03T11:38:42.299Z</time></trkpt><trkpt lat="44.1320058" lon="10.3873189"><ele>312.0</ele><time>2026-04-03T11:38:46.292Z</time></trkpt><trkpt lat="44.1320094" lon="10.3874454"><ele>312.0</ele><time>2026-04-03T11:38:49.296Z</time></trkpt><trkpt lat="44.1319809" lon="10.3875343"><ele>312.4</ele><time>2026-04-03T11:38:51.297Z</time></trkpt><trkpt lat="44.1319506" lon="10.3876685"><ele>312.79999999999995</ele><time>2026-04-03T11:38:53.297Z</time></trkpt><trkpt lat="44.131919" lon="10.3878133"><ele>313.2</ele><time>2026-04-03T11:38:55.3Z</time></trkpt><trkpt lat="44.1318925" lon="10.3879139"><ele>313.59999999999997</ele><time>2026-04-03T11:38:57.295Z</time></trkpt><trkpt lat="44.1318555" lon="10.3880314"><ele>314.0</ele><time>2026-04-03T11:39:02.302Z</time></trkpt><trkpt lat="44.1318147" lon="10.3881913"><ele>314.33333333333337</ele><time>2026-04-03T11:39:04.305Z</time></trkpt><trkpt lat="44.1317844" lon="10.3882844"><ele>314.6666666666667</ele><time>2026-04-03T11:39:05.297Z</time></trkpt><trkpt lat="44.1317133" lon="10.3884051"><ele>315.0</ele><time>2026-04-03T11:39:07.317Z</time></trkpt><trkpt lat="44.1316388" lon="10.388454"><ele>315.3333333333333</ele><time>2026-04-03T11:39:09.291Z</time></trkpt><trkpt lat="44.1315711" lon="10.3885257"><ele>315.66666666666663</ele><time>2026-04-03T11:39:12.286Z</time></trkpt><trkpt lat="44.1316017" lon="10.3886157"><ele>316.0</ele><time>2026-04-03T11:39:19.298Z</time></trkpt><trkpt lat="44.1316635" lon="10.3886644"><ele>316.00000000000006</ele><time>2026-04-03T11:39:25.292Z</time></trkpt><trkpt lat="44.1317229" lon="10.3887249"><ele>316.0</ele><time>2026-04-03T11:39:30.293Z</time></trkpt><trkpt lat="44.1317423" lon="10.3888271"><ele>316.0</ele><time>2026-04-03T11:39:35.283Z</time></trkpt><trkpt lat="44.1317305" lon="10.3889155"><ele>316.0</ele><time>2026-04-03T11:39:40.301Z</time></trkpt><trkpt lat="44.1316706" lon="10.3889683"><ele>316.0</ele><time>2026-04-03T11:39:46.289Z</time></trkpt><trkpt lat="44.131604" lon="10.3890175"><ele>316.00000000000006</ele><time>2026-04-03T11:39:52.29Z</time></trkpt><trkpt lat="44.1315472" lon="10.3890586"><ele>316.0</ele><time>2026-04-03T11:39:57.293Z</time></trkpt><trkpt lat="44.1314819" lon="10.3891073"><ele>317.00000000000006</ele><time>2026-04-03T11:40:03.298Z</time></trkpt><trkpt lat="44.1314258" lon="10.3891521"><ele>318.0</ele><time>2026-04-03T11:40:08.295Z</time></trkpt><trkpt lat="44.1313723" lon="10.3892036"><ele>319.0</ele><time>2026-04-03T11:40:13.294Z</time></trkpt><trkpt lat="44.1313157" lon="10.3892572"><ele>320.0</ele><time>2026-04-03T11:40:18.298Z</time></trkpt><trkpt lat="44.1312475" lon="10.3893097"><ele>321.0</ele><time>2026-04-03T11:40:23.289Z</time></trkpt><trkpt lat="44.1311943" lon="10.3893671"><ele>322.00000000000006</ele><time>2026-04-03T11:40:27.294Z</time></trkpt><trkpt lat="44.1311314" lon="10.3894262"><ele>323.0</ele><time>2026-04-03T11:40:31.292Z</time></trkpt><trkpt lat="44.1310701" lon="10.3894852"><ele>323.00000000000006</ele><time>2026-04-03T11:40:35.304Z</time></trkpt><trkpt lat="44.1310195" lon="10.3895623"><ele>323.0</ele><time>2026-04-03T11:40:39.297Z</time></trkpt><trkpt lat="44.1309635" lon="10.3896167"><ele>323.0</ele><time>2026-04-03T11:40:43.311Z</time></trkpt><trkpt lat="44.1309136" lon="10.3896722"><ele>323.0</ele><time>2026-04-03T11:40:47.288Z</time></trkpt><trkpt lat="44.1308566" lon="10.3897347"><ele>323.0</ele><time>2026-04-03T11:40:51.295Z</time></trkpt><trkpt lat="44.1307922" lon="10.3897999"><ele>323.00000000000006</ele><time>2026-04-03T11:40:55.29Z</time></trkpt><trkpt lat="44.1307405" lon="10.3898785"><ele>323.0</ele><time>2026-04-03T11:40:59.287Z</time></trkpt><trkpt lat="44.130694" lon="10.3899733"><ele>322.7142857142857</ele><time>2026-04-03T11:41:03.297Z</time></trkpt><trkpt lat="44.1306512" lon="10.3900617"><ele>322.42857142857144</ele><time>2026-04-03T11:41:07.286Z</time></trkpt><trkpt lat="44.1306084" lon="10.3901285"><ele>322.1428571428571</ele><time>2026-04-03T11:41:11.297Z</time></trkpt><trkpt lat="44.1305497" lon="10.3901758"><ele>321.8571428571429</ele><time>2026-04-03T11:41:15.3Z</time></trkpt><trkpt lat="44.1304834" lon="10.3902183"><ele>321.57142857142856</ele><time>2026-04-03T11:41:19.293Z</time></trkpt><trkpt lat="44.1304197" lon="10.3902666"><ele>321.2857142857143</ele><time>2026-04-03T11:41:23.294Z</time></trkpt><trkpt lat="44.1303652" lon="10.3903159"><ele>321.0</ele><time>2026-04-03T11:41:26.299Z</time></trkpt><trkpt lat="44.1303173" lon="10.3903765"><ele>321.0</ele><time>2026-04-03T11:41:30.287Z</time></trkpt><trkpt lat="44.1302503" lon="10.390434"><ele>321.0</ele><time>2026-04-03T11:41:34.295Z</time></trkpt><trkpt lat="44.1301955" lon="10.3905104"><ele>321.0</ele><time>2026-04-03T11:41:37.306Z</time></trkpt><trkpt lat="44.1301437" lon="10.3905637"><ele>321.0</ele><time>2026-04-03T11:41:39.296Z</time></trkpt><trkpt lat="44.1300275" lon="10.3906698"><ele>321.0</ele><time>2026-04-03T11:41:41.314Z</time></trkpt><trkpt lat="44.1299305" lon="10.3907916"><ele>320.99999999999994</ele><time>2026-04-03T11:41:43.312Z</time></trkpt><trkpt lat="44.129864" lon="10.3908672"><ele>321.0</ele><time>2026-04-03T11:41:44.304Z</time></trkpt><trkpt lat="44.1298101" lon="10.3909298"><ele>321.0</ele><time>2026-04-03T11:41:45.295Z</time></trkpt><trkpt lat="44.1297446" lon="10.3909784"><ele>321.0</ele><time>2026-04-03T11:41:46.3Z</time></trkpt><trkpt lat="44.1296978" lon="10.3910437"><ele>321.0</ele><time>2026-04-03T11:41:47.297Z</time></trkpt><trkpt lat="44.1296337" lon="10.3911109"><ele>320.99999999999994</ele><time>2026-04-03T11:41:49.299Z</time></trkpt><trkpt lat="44.1295795" lon="10.3911572"><ele>321.0</ele><time>2026-04-03T11:41:52.29Z</time></trkpt><trkpt lat="44.1295254" lon="10.3912358"><ele>320.99999999999994</ele><time>2026-04-03T11:41:56.285Z</time></trkpt><trkpt lat="44.1294776" lon="10.3913181"><ele>321.0</ele><time>2026-04-03T11:42:00.303Z</time></trkpt><trkpt lat="44.1294362" lon="10.3913912"><ele>321.0</ele><time>2026-04-03T11:42:03.287Z</time></trkpt><trkpt lat="44.1293862" lon="10.3914561"><ele>321.0</ele><time>2026-04-03T11:42:06.298Z</time></trkpt><trkpt lat="44.1293267" lon="10.3915327"><ele>321.0</ele><time>2026-04-03T11:42:09.306Z</time></trkpt><trkpt lat="44.1292776" lon="10.39159"><ele>320.99999999999994</ele><time>2026-04-03T11:42:11.29Z</time></trkpt><trkpt lat="44.1292208" lon="10.3916534"><ele>321.0</ele><time>2026-04-03T11:42:13.289Z</time></trkpt><trkpt lat="44.1291565" lon="10.3917094"><ele>321.0</ele><time>2026-04-03T11:42:15.303Z</time></trkpt><trkpt lat="44.1290905" lon="10.3917692"><ele>321.0</ele><time>2026-04-03T11:42:17.283Z</time></trkpt><trkpt lat="44.1290174" lon="10.3918219"><ele>321.0</ele><time>2026-04-03T11:42:19.287Z</time></trkpt><trkpt lat="44.1289442" lon="10.3918822"><ele>321.0</ele><time>2026-04-03T11:42:21.29Z</time></trkpt><trkpt lat="44.1288715" lon="10.3919494"><ele>321.0</ele><time>2026-04-03T11:42:23.288Z</time></trkpt><trkpt lat="44.1288008" lon="10.3920236"><ele>321.0</ele><time>2026-04-03T11:42:25.302Z</time></trkpt><trkpt lat="44.1287297" lon="10.3920992"><ele>322.6</ele><time>2026-04-03T11:42:27.287Z</time></trkpt><trkpt lat="44.1286584" lon="10.3921813"><ele>324.20000000000005</ele><time>2026-04-03T11:42:29.289Z</time></trkpt><trkpt lat="44.1285832" lon="10.3922694"><ele>325.79999999999995</ele><time>2026-04-03T11:42:31.297Z</time></trkpt><trkpt lat="44.1284993" lon="10.3923656"><ele>327.4</ele><time>2026-04-03T11:42:33.299Z</time></trkpt><trkpt lat="44.1284147" lon="10.3924599"><ele>329.0</ele><time>2026-04-03T11:42:35.295Z</time></trkpt><trkpt lat="44.1283266" lon="10.3925565"><ele>329.0</ele><time>2026-04-03T11:42:37.296Z</time></trkpt><trkpt lat="44.1282451" lon="10.3926565"><ele>329.0</ele><time>2026-04-03T11:42:39.325Z</time></trkpt><trkpt lat="44.1281675" lon="10.3927433"><ele>329.0</ele><time>2026-04-03T11:42:41.296Z</time></trkpt><trkpt lat="44.1281062" lon="10.3928764"><ele>329.0</ele><time>2026-04-03T11:42:43.32Z</time></trkpt><trkpt lat="44.1280688" lon="10.3930116"><ele>329.0</ele><time>2026-04-03T11:42:45.289Z</time></trkpt><trkpt lat="44.1280446" lon="10.3931471"><ele>328.0</ele><time>2026-04-03T11:42:47.325Z</time></trkpt><trkpt lat="44.1280165" lon="10.3932631"><ele>327.0</ele><time>2026-04-03T11:42:49.295Z</time></trkpt><trkpt lat="44.1279975" lon="10.3933775"><ele>326.0</ele><time>2026-04-03T11:42:51.293Z</time></trkpt><trkpt lat="44.1279602" lon="10.3934806"><ele>325.0</ele><time>2026-04-03T11:42:53.302Z</time></trkpt><trkpt lat="44.1279223" lon="10.3935596"><ele>324.0</ele><time>2026-04-03T11:42:55.286Z</time></trkpt><trkpt lat="44.1278837" lon="10.3936543"><ele>323.0</ele><time>2026-04-03T11:42:58.289Z</time></trkpt><trkpt lat="44.1278503" lon="10.3937516"><ele>323.1666666666667</ele><time>2026-04-03T11:43:02.294Z</time></trkpt><trkpt lat="44.1278256" lon="10.3938564"><ele>323.33333333333337</ele><time>2026-04-03T11:43:06.304Z</time></trkpt><trkpt lat="44.1277761" lon="10.3939579"><ele>323.5</ele><time>2026-04-03T11:43:09.31Z</time></trkpt><trkpt lat="44.1277387" lon="10.3940444"><ele>323.6666666666667</ele><time>2026-04-03T11:43:11.295Z</time></trkpt><trkpt lat="44.1277103" lon="10.3941513"><ele>323.8333333333333</ele><time>2026-04-03T11:43:13.289Z</time></trkpt><trkpt lat="44.1276871" lon="10.3942746"><ele>324.0</ele><time>2026-04-03T11:43:15.29Z</time></trkpt><trkpt lat="44.127669" lon="10.3944104"><ele>324.0</ele><time>2026-04-03T11:43:17.286Z</time></trkpt><trkpt lat="44.1276518" lon="10.3945634"><ele>324.0</ele><time>2026-04-03T11:43:19.291Z</time></trkpt><trkpt lat="44.1276341" lon="10.39473"><ele>324.0</ele><time>2026-04-03T11:43:21.293Z</time></trkpt><trkpt lat="44.1276249" lon="10.3948169"><ele>324.0</ele><time>2026-04-03T11:43:22.29Z</time></trkpt><trkpt lat="44.1276149" lon="10.3949069"><ele>324.0</ele><time>2026-04-03T11:43:23.296Z</time></trkpt><trkpt lat="44.1276072" lon="10.3950012"><ele>324.0</ele><time>2026-04-03T11:43:24.294Z</time></trkpt><trkpt lat="44.1275964" lon="10.3950943"><ele>324.14285714285717</ele><time>2026-04-03T11:43:25.285Z</time></trkpt><trkpt lat="44.1275851" lon="10.3951907"><ele>324.2857142857143</ele><time>2026-04-03T11:43:26.29Z</time></trkpt><trkpt lat="44.1275757" lon="10.3952948"><ele>324.42857142857144</ele><time>2026-04-03T11:43:27.289Z</time></trkpt><trkpt lat="44.1275659" lon="10.3953883"><ele>324.57142857142856</ele><time>2026-04-03T11:43:28.296Z</time></trkpt><trkpt lat="44.1275516" lon="10.3954833"><ele>324.7142857142857</ele><time>2026-04-03T11:43:29.288Z</time></trkpt><trkpt lat="44.127539" lon="10.3955774"><ele>324.85714285714283</ele><time>2026-04-03T11:43:30.293Z</time></trkpt><trkpt lat="44.127524" lon="10.3956727"><ele>325.0</ele><time>2026-04-03T11:43:31.316Z</time></trkpt><trkpt lat="44.1275033" lon="10.3957634"><ele>325.7142857142857</ele><time>2026-04-03T11:43:32.289Z</time></trkpt><trkpt lat="44.127477" lon="10.3958545"><ele>326.42857142857144</ele><time>2026-04-03T11:43:33.301Z</time></trkpt><trkpt lat="44.1274465" lon="10.3959388"><ele>327.14285714285717</ele><time>2026-04-03T11:43:34.288Z</time></trkpt><trkpt lat="44.1274133" lon="10.3960188"><ele>327.8571428571429</ele><time>2026-04-03T11:43:35.295Z</time></trkpt><trkpt lat="44.1273785" lon="10.3961"><ele>328.57142857142856</ele><time>2026-04-03T11:43:36.291Z</time></trkpt><trkpt lat="44.1273407" lon="10.3961778"><ele>329.28571428571433</ele><time>2026-04-03T11:43:37.291Z</time></trkpt><trkpt lat="44.1273025" lon="10.3962482"><ele>330.0</ele><time>2026-04-03T11:43:38.302Z</time></trkpt><trkpt lat="44.1272598" lon="10.3963189"><ele>328.0</ele><time>2026-04-03T11:43:39.306Z</time></trkpt><trkpt lat="44.1271805" lon="10.3964524"><ele>326.0</ele><time>2026-04-03T11:43:41.29Z</time></trkpt><trkpt lat="44.1271411" lon="10.3965233"><ele>324.0</ele><time>2026-04-03T11:43:42.295Z</time></trkpt><trkpt lat="44.1271003" lon="10.3965945"><ele>322.0</ele><time>2026-04-03T11:43:43.294Z</time></trkpt><trkpt lat="44.1270616" lon="10.3966693"><ele>320.0</ele><time>2026-04-03T11:43:44.297Z</time></trkpt><trkpt lat="44.1270226" lon="10.3967399"><ele>318.0</ele><time>2026-04-03T11:43:45.292Z</time></trkpt><trkpt lat="44.1269855" lon="10.3968235"><ele>318.0</ele><time>2026-04-03T11:43:46.296Z</time></trkpt><trkpt lat="44.1269446" lon="10.3969082"><ele>318.0</ele><time>2026-04-03T11:43:47.293Z</time></trkpt><trkpt lat="44.1269071" lon="10.3969867"><ele>318.0</ele><time>2026-04-03T11:43:48.306Z</time></trkpt><trkpt lat="44.1268685" lon="10.3970688"><ele>318.0</ele><time>2026-04-03T11:43:49.295Z</time></trkpt><trkpt lat="44.1268294" lon="10.3971454"><ele>318.0</ele><time>2026-04-03T11:43:50.298Z</time></trkpt><trkpt lat="44.1267876" lon="10.3972239"><ele>318.0</ele><time>2026-04-03T11:43:51.293Z</time></trkpt><trkpt lat="44.1267439" lon="10.3973027"><ele>318.0</ele><time>2026-04-03T11:43:52.305Z</time></trkpt><trkpt lat="44.1267021" lon="10.3973759"><ele>319.0</ele><time>2026-04-03T11:43:53.298Z</time></trkpt><trkpt lat="44.1266583" lon="10.3974566"><ele>320.0</ele><time>2026-04-03T11:43:54.292Z</time></trkpt><trkpt lat="44.1266099" lon="10.3975365"><ele>321.0</ele><time>2026-04-03T11:43:55.292Z</time></trkpt><trkpt lat="44.1265659" lon="10.397608"><ele>322.0</ele><time>2026-04-03T11:43:56.295Z</time></trkpt><trkpt lat="44.1265228" lon="10.3976886"><ele>323.0</ele><time>2026-04-03T11:43:57.286Z</time></trkpt><trkpt lat="44.1264917" lon="10.3977846"><ele>324.0</ele><time>2026-04-03T11:43:58.296Z</time></trkpt><trkpt lat="44.1264878" lon="10.3978871"><ele>325.0</ele><time>2026-04-03T11:43:59.301Z</time></trkpt><trkpt lat="44.1265012" lon="10.3979801"><ele>324.5</ele><time>2026-04-03T11:44:00.29Z</time></trkpt><trkpt lat="44.1265395" lon="10.3980808"><ele>324.0</ele><time>2026-04-03T11:44:01.318Z</time></trkpt><trkpt lat="44.1265929" lon="10.3981569"><ele>323.5</ele><time>2026-04-03T11:44:02.302Z</time></trkpt><trkpt lat="44.1266389" lon="10.3982466"><ele>323.0</ele><time>2026-04-03T11:44:03.304Z</time></trkpt><trkpt lat="44.1266827" lon="10.3983401"><ele>322.5</ele><time>2026-04-03T11:44:04.287Z</time></trkpt><trkpt lat="44.1267241" lon="10.3984364"><ele>322.0</ele><time>2026-04-03T11:44:05.317Z</time></trkpt><trkpt lat="44.1267662" lon="10.3985371"><ele>322.0</ele><time>2026-04-03T11:44:06.295Z</time></trkpt><trkpt lat="44.1268069" lon="10.3986368"><ele>322.0</ele><time>2026-04-03T11:44:07.295Z</time></trkpt><trkpt lat="44.126851" lon="10.398737"><ele>322.0</ele><time>2026-04-03T11:44:08.289Z</time></trkpt><trkpt lat="44.126898" lon="10.398838"><ele>322.0</ele><time>2026-04-03T11:44:09.296Z</time></trkpt><trkpt lat="44.1269456" lon="10.3989408"><ele>322.0</ele><time>2026-04-03T11:44:10.288Z</time></trkpt><trkpt lat="44.126989" lon="10.3990494"><ele>322.0</ele><time>2026-04-03T11:44:11.287Z</time></trkpt><trkpt lat="44.1270265" lon="10.3991594"><ele>320.66666666666663</ele><time>2026-04-03T11:44:12.295Z</time></trkpt><trkpt lat="44.1270422" lon="10.3992749"><ele>319.3333333333333</ele><time>2026-04-03T11:44:13.304Z</time></trkpt><trkpt lat="44.1270268" lon="10.3993839"><ele>318.0</ele><time>2026-04-03T11:44:14.297Z</time></trkpt><trkpt lat="44.1269832" lon="10.3994805"><ele>316.6666666666667</ele><time>2026-04-03T11:44:15.295Z</time></trkpt><trkpt lat="44.1269195" lon="10.3995428"><ele>315.33333333333337</ele><time>2026-04-03T11:44:16.329Z</time></trkpt><trkpt lat="44.1268507" lon="10.3995785"><ele>314.0</ele><time>2026-04-03T11:44:17.292Z</time></trkpt><trkpt lat="44.1267843" lon="10.3996048"><ele>314.0</ele><time>2026-04-03T11:44:18.317Z</time></trkpt><trkpt lat="44.1267224" lon="10.3996269"><ele>314.0</ele><time>2026-04-03T11:44:19.301Z</time></trkpt><trkpt lat="44.1266632" lon="10.3996574"><ele>314.0</ele><time>2026-04-03T11:44:20.313Z</time></trkpt><trkpt lat="44.1265551" lon="10.3996974"><ele>314.0</ele><time>2026-04-03T11:44:22.309Z</time></trkpt><trkpt lat="44.1264652" lon="10.3997256"><ele>314.0</ele><time>2026-04-03T11:44:24.297Z</time></trkpt><trkpt lat="44.1263954" lon="10.3997501"><ele>314.0</ele><time>2026-04-03T11:44:26.287Z</time></trkpt><trkpt lat="44.1263208" lon="10.3997745"><ele>315.0</ele><time>2026-04-03T11:44:29.294Z</time></trkpt><trkpt lat="44.1262421" lon="10.3998062"><ele>316.0</ele><time>2026-04-03T11:44:33.311Z</time></trkpt><trkpt lat="44.1261783" lon="10.3998275"><ele>317.0</ele><time>2026-04-03T11:44:36.299Z</time></trkpt><trkpt lat="44.126115" lon="10.3998495"><ele>318.0</ele><time>2026-04-03T11:44:39.311Z</time></trkpt><trkpt lat="44.1260374" lon="10.3998884"><ele>319.0</ele><time>2026-04-03T11:44:43.304Z</time></trkpt><trkpt lat="44.125973" lon="10.3999579"><ele>320.0</ele><time>2026-04-03T11:44:47.289Z</time></trkpt><trkpt lat="44.1259069" lon="10.4000301"><ele>320.0</ele><time>2026-04-03T11:44:51.316Z</time></trkpt><trkpt lat="44.1258632" lon="10.4001012"><ele>320.0</ele><time>2026-04-03T11:44:54.306Z</time></trkpt><trkpt lat="44.1258561" lon="10.4001938"><ele>320.0</ele><time>2026-04-03T11:44:57.294Z</time></trkpt><trkpt lat="44.1258818" lon="10.4002757"><ele>320.0</ele><time>2026-04-03T11:45:00.297Z</time></trkpt><trkpt lat="44.1259206" lon="10.4003471"><ele>320.0</ele><time>2026-04-03T11:45:03.302Z</time></trkpt><trkpt lat="44.1259286" lon="10.4004476"><ele>320.0</ele><time>2026-04-03T11:45:07.302Z</time></trkpt><trkpt lat="44.1258582" lon="10.4004643"><ele>320.0</ele><time>2026-04-03T11:45:11.307Z</time></trkpt><trkpt lat="44.1258217" lon="10.4003842"><ele>320.0</ele><time>2026-04-03T11:45:15.294Z</time></trkpt><trkpt lat="44.1258055" lon="10.40027"><ele>320.0</ele><time>2026-04-03T11:45:19.308Z</time></trkpt><trkpt lat="44.1257895" lon="10.4001574"><ele>320.0</ele><time>2026-04-03T11:45:23.304Z</time></trkpt><trkpt lat="44.1257739" lon="10.4000578"><ele>320.0</ele><time>2026-04-03T11:45:27.29Z</time></trkpt><trkpt lat="44.1257641" lon="10.4001628"><ele>320.0</ele><time>2026-04-03T11:45:34.308Z</time></trkpt><trkpt lat="44.1257869" lon="10.4002639"><ele>320.0</ele><time>2026-04-03T11:45:38.3Z</time></trkpt><trkpt lat="44.1257712" lon="10.4003634"><ele>320.0</ele><time>2026-04-03T11:45:44.286Z</time></trkpt><trkpt lat="44.1257031" lon="10.4003874"><ele>320.0</ele><time>2026-04-03T11:45:49.305Z</time></trkpt><trkpt lat="44.1256654" lon="10.4004721"><ele>320.0</ele><time>2026-04-03T11:45:55.297Z</time></trkpt><trkpt lat="44.1256621" lon="10.4005911"><ele>320.0</ele><time>2026-04-03T11:45:58.296Z</time></trkpt><trkpt lat="44.1256113" lon="10.4006605"><ele>320.0</ele><time>2026-04-03T11:46:00.285Z</time></trkpt><trkpt lat="44.1255467" lon="10.4007546"><ele>320.0</ele><time>2026-04-03T11:46:02.314Z</time></trkpt><trkpt lat="44.1254815" lon="10.4008663"><ele>320.0</ele><time>2026-04-03T11:46:04.308Z</time></trkpt><trkpt lat="44.1254321" lon="10.4009532"><ele>320.0</ele><time>2026-04-03T11:46:06.298Z</time></trkpt><trkpt lat="44.1253877" lon="10.4010186"><ele>320.0</ele><time>2026-04-03T11:46:09.295Z</time></trkpt><trkpt lat="44.1253204" lon="10.4010231"><ele>320.0</ele><time>2026-04-03T11:46:14.292Z</time></trkpt><trkpt lat="44.1252631" lon="10.4010779"><ele>320.0</ele><time>2026-04-03T11:46:17.296Z</time></trkpt><trkpt lat="44.1252106" lon="10.4011531"><ele>320.0</ele><time>2026-04-03T11:46:20.288Z</time></trkpt><trkpt lat="44.1251605" lon="10.4012387"><ele>320.0</ele><time>2026-04-03T11:46:23.296Z</time></trkpt><trkpt lat="44.1251128" lon="10.4013328"><ele>319.83333333333337</ele><time>2026-04-03T11:46:26.288Z</time></trkpt><trkpt lat="44.1250622" lon="10.40142"><ele>319.6666666666667</ele><time>2026-04-03T11:46:29.298Z</time></trkpt><trkpt lat="44.1250078" lon="10.4015049"><ele>319.5</ele><time>2026-04-03T11:46:32.288Z</time></trkpt><trkpt lat="44.1249566" lon="10.4015909"><ele>319.3333333333333</ele><time>2026-04-03T11:46:35.293Z</time></trkpt><trkpt lat="44.1249016" lon="10.4016728"><ele>319.16666666666663</ele><time>2026-04-03T11:46:38.3Z</time></trkpt><trkpt lat="44.1248499" lon="10.4017589"><ele>319.0</ele><time>2026-04-03T11:46:41.304Z</time></trkpt><trkpt lat="44.1248" lon="10.4018437"><ele>319.0</ele><time>2026-04-03T11:46:44.299Z</time></trkpt><trkpt lat="44.1247444" lon="10.4019287"><ele>319.0</ele><time>2026-04-03T11:46:47.302Z</time></trkpt><trkpt lat="44.1246882" lon="10.4020181"><ele>319.0</ele><time>2026-04-03T11:46:50.293Z</time></trkpt><trkpt lat="44.1246334" lon="10.4021056"><ele>319.0</ele><time>2026-04-03T11:46:53.299Z</time></trkpt><trkpt lat="44.1245789" lon="10.4021882"><ele>319.0</ele><time>2026-04-03T11:46:56.308Z</time></trkpt><trkpt lat="44.1245259" lon="10.4022835"><ele>319.0</ele><time>2026-04-03T11:46:59.29Z</time></trkpt><trkpt lat="44.1244686" lon="10.4023724"><ele>319.5</ele><time>2026-04-03T11:47:02.298Z</time></trkpt><trkpt lat="44.1244133" lon="10.4024589"><ele>320.0</ele><time>2026-04-03T11:47:05.305Z</time></trkpt><trkpt lat="44.1243594" lon="10.4025569"><ele>320.5</ele><time>2026-04-03T11:47:08.319Z</time></trkpt><trkpt lat="44.1242992" lon="10.4026518"><ele>321.0</ele><time>2026-04-03T11:47:11.299Z</time></trkpt><trkpt lat="44.1242387" lon="10.4027484"><ele>321.5</ele><time>2026-04-03T11:47:14.298Z</time></trkpt><trkpt lat="44.1241762" lon="10.4028465"><ele>322.0</ele><time>2026-04-03T11:47:17.299Z</time></trkpt><trkpt lat="44.1241335" lon="10.4029123"><ele>321.8333333333333</ele><time>2026-04-03T11:47:19.292Z</time></trkpt><trkpt lat="44.1240713" lon="10.4030093"><ele>321.66666666666663</ele><time>2026-04-03T11:47:22.299Z</time></trkpt><trkpt lat="44.1240276" lon="10.4030733"><ele>321.5</ele><time>2026-04-03T11:47:24.292Z</time></trkpt><trkpt lat="44.1239838" lon="10.40314"><ele>321.3333333333333</ele><time>2026-04-03T11:47:26.297Z</time></trkpt><trkpt lat="44.1239264" lon="10.4032382"><ele>321.1666666666667</ele><time>2026-04-03T11:47:29.296Z</time></trkpt><trkpt lat="44.1238675" lon="10.4033386"><ele>321.0</ele><time>2026-04-03T11:47:32.293Z</time></trkpt><trkpt lat="44.1238288" lon="10.4034092"><ele>321.0</ele><time>2026-04-03T11:47:34.291Z</time></trkpt><trkpt lat="44.1237664" lon="10.4035094"><ele>321.0</ele><time>2026-04-03T11:47:37.306Z</time></trkpt><trkpt lat="44.1237235" lon="10.4035767"><ele>321.0</ele><time>2026-04-03T11:47:39.292Z</time></trkpt><trkpt lat="44.1236798" lon="10.403643"><ele>321.0</ele><time>2026-04-03T11:47:41.301Z</time></trkpt><trkpt lat="44.1236346" lon="10.4037108"><ele>321.0</ele><time>2026-04-03T11:47:43.295Z</time></trkpt><trkpt lat="44.1235676" lon="10.4038046"><ele>321.0</ele><time>2026-04-03T11:47:46.297Z</time></trkpt><trkpt lat="44.1235072" lon="10.4038985"><ele>321.0</ele><time>2026-04-03T11:47:49.315Z</time></trkpt><trkpt lat="44.1234466" lon="10.4039956"><ele>321.0</ele><time>2026-04-03T11:47:52.301Z</time></trkpt><trkpt lat="44.123384" lon="10.4040946"><ele>321.0</ele><time>2026-04-03T11:47:55.303Z</time></trkpt><trkpt lat="44.1233283" lon="10.4042001"><ele>321.0</ele><time>2026-04-03T11:47:58.304Z</time></trkpt><trkpt lat="44.1232628" lon="10.4042902"><ele>321.0</ele><time>2026-04-03T11:48:01.289Z</time></trkpt><trkpt lat="44.1232175" lon="10.4043542"><ele>321.0</ele><time>2026-04-03T11:48:03.305Z</time></trkpt><trkpt lat="44.1231759" lon="10.4044219"><ele>320.99999999999994</ele><time>2026-04-03T11:48:05.294Z</time></trkpt><trkpt lat="44.1231348" lon="10.4044901"><ele>321.0</ele><time>2026-04-03T11:48:07.295Z</time></trkpt><trkpt lat="44.1230961" lon="10.4045624"><ele>321.0</ele><time>2026-04-03T11:48:09.291Z</time></trkpt><trkpt lat="44.1230578" lon="10.4046334"><ele>321.0</ele><time>2026-04-03T11:48:11.297Z</time></trkpt><trkpt lat="44.1230169" lon="10.4047031"><ele>321.0</ele><time>2026-04-03T11:48:13.295Z</time></trkpt><trkpt lat="44.1229774" lon="10.4047771"><ele>320.99999999999994</ele><time>2026-04-03T11:48:15.296Z</time></trkpt><trkpt lat="44.1229371" lon="10.4048519"><ele>321.0</ele><time>2026-04-03T11:48:17.297Z</time></trkpt><trkpt lat="44.1228956" lon="10.404922"><ele>321.2857142857143</ele><time>2026-04-03T11:48:19.298Z</time></trkpt><trkpt lat="44.1228503" lon="10.4049921"><ele>321.57142857142856</ele><time>2026-04-03T11:48:21.295Z</time></trkpt><trkpt lat="44.1228065" lon="10.4050623"><ele>321.8571428571429</ele><time>2026-04-03T11:48:23.293Z</time></trkpt><trkpt lat="44.1227629" lon="10.4051291"><ele>322.1428571428571</ele><time>2026-04-03T11:48:25.295Z</time></trkpt><trkpt lat="44.1227199" lon="10.4051989"><ele>322.42857142857144</ele><time>2026-04-03T11:48:27.294Z</time></trkpt><trkpt lat="44.1226796" lon="10.405269"><ele>322.7142857142857</ele><time>2026-04-03T11:48:29.305Z</time></trkpt><trkpt lat="44.122639" lon="10.4053394"><ele>323.0</ele><time>2026-04-03T11:48:31.306Z</time></trkpt><trkpt lat="44.122599" lon="10.4054107"><ele>323.00000000000006</ele><time>2026-04-03T11:48:33.295Z</time></trkpt><trkpt lat="44.1225552" lon="10.4054773"><ele>323.0</ele><time>2026-04-03T11:48:35.296Z</time></trkpt><trkpt lat="44.122511" lon="10.4055433"><ele>323.0</ele><time>2026-04-03T11:48:37.295Z</time></trkpt><trkpt lat="44.1224708" lon="10.4056161"><ele>323.0</ele><time>2026-04-03T11:48:39.296Z</time></trkpt><trkpt lat="44.1224282" lon="10.4056839"><ele>323.0</ele><time>2026-04-03T11:48:41.293Z</time></trkpt><trkpt lat="44.1223862" lon="10.4057539"><ele>323.00000000000006</ele><time>2026-04-03T11:48:43.291Z</time></trkpt><trkpt lat="44.1223458" lon="10.4058229"><ele>323.0</ele><time>2026-04-03T11:48:45.291Z</time></trkpt><trkpt lat="44.1223035" lon="10.4058916"><ele>322.7142857142857</ele><time>2026-04-03T11:48:47.303Z</time></trkpt><trkpt lat="44.1222672" lon="10.4059655"><ele>322.42857142857144</ele><time>2026-04-03T11:48:49.292Z</time></trkpt><trkpt lat="44.1222079" lon="10.4060636"><ele>322.1428571428571</ele><time>2026-04-03T11:48:52.289Z</time></trkpt><trkpt lat="44.1221656" lon="10.4061338"><ele>321.8571428571429</ele><time>2026-04-03T11:48:54.299Z</time></trkpt><trkpt lat="44.1221256" lon="10.4062054"><ele>321.57142857142856</ele><time>2026-04-03T11:48:56.289Z</time></trkpt><trkpt lat="44.1220838" lon="10.406272"><ele>321.2857142857143</ele><time>2026-04-03T11:48:58.296Z</time></trkpt><trkpt lat="44.122039" lon="10.4063402"><ele>321.0</ele><time>2026-04-03T11:49:00.291Z</time></trkpt><trkpt lat="44.1219997" lon="10.4064107"><ele>320.99999999999994</ele><time>2026-04-03T11:49:02.286Z</time></trkpt><trkpt lat="44.1219594" lon="10.4064825"><ele>321.0</ele><time>2026-04-03T11:49:04.292Z</time></trkpt><trkpt lat="44.1219172" lon="10.4065502"><ele>321.0</ele><time>2026-04-03T11:49:06.292Z</time></trkpt><trkpt lat="44.121872" lon="10.4066156"><ele>321.0</ele><time>2026-04-03T11:49:08.296Z</time></trkpt><trkpt lat="44.1218336" lon="10.4066874"><ele>321.0</ele><time>2026-04-03T11:49:10.3Z</time></trkpt><trkpt lat="44.1217906" lon="10.4067547"><ele>320.99999999999994</ele><time>2026-04-03T11:49:12.296Z</time></trkpt><trkpt lat="44.1217477" lon="10.4068265"><ele>321.0</ele><time>2026-04-03T11:49:14.297Z</time></trkpt><trkpt lat="44.1217022" lon="10.406896"><ele>320.99999999999994</ele><time>2026-04-03T11:49:16.298Z</time></trkpt><trkpt lat="44.1216611" lon="10.4069686"><ele>321.0</ele><time>2026-04-03T11:49:18.31Z</time></trkpt><trkpt lat="44.1216201" lon="10.4070383"><ele>321.0</ele><time>2026-04-03T11:49:20.293Z</time></trkpt><trkpt lat="44.1215756" lon="10.4071031"><ele>321.0</ele><time>2026-04-03T11:49:22.303Z</time></trkpt><trkpt lat="44.1215336" lon="10.4071738"><ele>321.0</ele><time>2026-04-03T11:49:24.325Z</time></trkpt><trkpt lat="44.121493" lon="10.4072416"><ele>320.99999999999994</ele><time>2026-04-03T11:49:26.297Z</time></trkpt><trkpt lat="44.121449" lon="10.4073102"><ele>321.0</ele><time>2026-04-03T11:49:28.298Z</time></trkpt><trkpt lat="44.1214073" lon="10.4073791"><ele>320.2857142857143</ele><time>2026-04-03T11:49:30.293Z</time></trkpt><trkpt lat="44.1213655" lon="10.4074488"><ele>319.57142857142856</ele><time>2026-04-03T11:49:32.299Z</time></trkpt><trkpt lat="44.1213216" lon="10.4075166"><ele>318.8571428571429</ele><time>2026-04-03T11:49:34.298Z</time></trkpt><trkpt lat="44.121274" lon="10.4075831"><ele>318.1428571428571</ele><time>2026-04-03T11:49:36.308Z</time></trkpt><trkpt lat="44.121227" lon="10.4076502"><ele>317.42857142857144</ele><time>2026-04-03T11:49:38.301Z</time></trkpt><trkpt lat="44.1211806" lon="10.4077185"><ele>316.7142857142857</ele><time>2026-04-03T11:49:40.297Z</time></trkpt><trkpt lat="44.1211383" lon="10.4077888"><ele>316.0</ele><time>2026-04-03T11:49:42.292Z</time></trkpt><trkpt lat="44.1210804" lon="10.4078942"><ele>317.28571428571433</ele><time>2026-04-03T11:49:45.291Z</time></trkpt><trkpt lat="44.121023" lon="10.4079986"><ele>318.57142857142856</ele><time>2026-04-03T11:49:48.308Z</time></trkpt><trkpt lat="44.1209791" lon="10.40807"><ele>319.8571428571429</ele><time>2026-04-03T11:49:50.292Z</time></trkpt><trkpt lat="44.120936" lon="10.4081379"><ele>321.14285714285717</ele><time>2026-04-03T11:49:52.297Z</time></trkpt><trkpt lat="44.1208915" lon="10.408205"><ele>322.42857142857144</ele><time>2026-04-03T11:49:54.322Z</time></trkpt><trkpt lat="44.1208502" lon="10.4082723"><ele>323.7142857142857</ele><time>2026-04-03T11:49:56.304Z</time></trkpt><trkpt lat="44.1208076" lon="10.4083409"><ele>325.0</ele><time>2026-04-03T11:49:58.303Z</time></trkpt><trkpt lat="44.1207682" lon="10.4084099"><ele>323.8333333333333</ele><time>2026-04-03T11:50:00.292Z</time></trkpt><trkpt lat="44.120727" lon="10.4084779"><ele>322.66666666666663</ele><time>2026-04-03T11:50:02.303Z</time></trkpt><trkpt lat="44.1206702" lon="10.4085745"><ele>321.5</ele><time>2026-04-03T11:50:05.29Z</time></trkpt><trkpt lat="44.1206239" lon="10.4086696"><ele>320.3333333333333</ele><time>2026-04-03T11:50:08.295Z</time></trkpt><trkpt lat="44.1205752" lon="10.4087507"><ele>319.1666666666667</ele><time>2026-04-03T11:50:11.305Z</time></trkpt><trkpt lat="44.1205336" lon="10.4088353"><ele>318.0</ele><time>2026-04-03T11:50:14.298Z</time></trkpt><trkpt lat="44.1204885" lon="10.4089305"><ele>318.0</ele><time>2026-04-03T11:50:18.294Z</time></trkpt><trkpt lat="44.120497" lon="10.4090381"><ele>318.0</ele><time>2026-04-03T11:50:22.305Z</time></trkpt><trkpt lat="44.1205652" lon="10.4090927"><ele>318.0</ele><time>2026-04-03T11:50:25.299Z</time></trkpt><trkpt lat="44.1206563" lon="10.4090926"><ele>318.0</ele><time>2026-04-03T11:50:28.3Z</time></trkpt><trkpt lat="44.1207403" lon="10.4090838"><ele>318.0</ele><time>2026-04-03T11:50:31.3Z</time></trkpt><trkpt lat="44.1208208" lon="10.4090687"><ele>318.0</ele><time>2026-04-03T11:50:34.295Z</time></trkpt><trkpt lat="44.1209104" lon="10.4090862"><ele>319.8</ele><time>2026-04-03T11:50:37.304Z</time></trkpt><trkpt lat="44.1209981" lon="10.4091022"><ele>321.6</ele><time>2026-04-03T11:50:40.293Z</time></trkpt><trkpt lat="44.1210911" lon="10.4091158"><ele>323.40000000000003</ele><time>2026-04-03T11:50:43.295Z</time></trkpt><trkpt lat="44.1211819" lon="10.4091363"><ele>325.20000000000005</ele><time>2026-04-03T11:50:46.3Z</time></trkpt><trkpt lat="44.1212702" lon="10.4091515"><ele>327.0</ele><time>2026-04-03T11:50:49.306Z</time></trkpt><trkpt lat="44.1213611" lon="10.4091578"><ele>327.0</ele><time>2026-04-03T11:50:52.299Z</time></trkpt><trkpt lat="44.1214502" lon="10.4091677"><ele>327.0</ele><time>2026-04-03T11:50:55.302Z</time></trkpt><trkpt lat="44.1215401" lon="10.4091853"><ele>327.0</ele><time>2026-04-03T11:50:58.317Z</time></trkpt><trkpt lat="44.1216299" lon="10.4091988"><ele>327.0</ele><time>2026-04-03T11:51:01.311Z</time></trkpt><trkpt lat="44.1217229" lon="10.4091993"><ele>327.0</ele><time>2026-04-03T11:51:04.285Z</time></trkpt><trkpt lat="44.1218176" lon="10.4092125"><ele>327.5</ele><time>2026-04-03T11:51:07.293Z</time></trkpt><trkpt lat="44.1219092" lon="10.4092272"><ele>328.0</ele><time>2026-04-03T11:51:10.303Z</time></trkpt><trkpt lat="44.1219989" lon="10.4092473"><ele>328.5</ele><time>2026-04-03T11:51:13.297Z</time></trkpt><trkpt lat="44.1220901" lon="10.4092583"><ele>329.0</ele><time>2026-04-03T11:51:16.328Z</time></trkpt><trkpt lat="44.1221526" lon="10.409269"><ele>329.5</ele><time>2026-04-03T11:51:18.301Z</time></trkpt><trkpt lat="44.1222158" lon="10.4092782"><ele>330.0</ele><time>2026-04-03T11:51:20.316Z</time></trkpt><trkpt lat="44.1223103" lon="10.4092848"><ele>330.0</ele><time>2026-04-03T11:51:23.309Z</time></trkpt><trkpt lat="44.1223754" lon="10.4092958"><ele>330.0</ele><time>2026-04-03T11:51:25.293Z</time></trkpt><trkpt lat="44.1224388" lon="10.409308"><ele>330.0</ele><time>2026-04-03T11:51:27.3Z</time></trkpt><trkpt lat="44.1225314" lon="10.4093197"><ele>330.0</ele><time>2026-04-03T11:51:30.304Z</time></trkpt><trkpt lat="44.1226231" lon="10.4093365"><ele>330.0</ele><time>2026-04-03T11:51:33.297Z</time></trkpt><trkpt lat="44.1227159" lon="10.4093497"><ele>330.0</ele><time>2026-04-03T11:51:36.288Z</time></trkpt><trkpt lat="44.1227798" lon="10.409357"><ele>330.42857142857144</ele><time>2026-04-03T11:51:38.289Z</time></trkpt><trkpt lat="44.1228449" lon="10.4093677"><ele>330.8571428571429</ele><time>2026-04-03T11:51:40.293Z</time></trkpt><trkpt lat="44.1229092" lon="10.4093744"><ele>331.28571428571433</ele><time>2026-04-03T11:51:42.298Z</time></trkpt><trkpt lat="44.1229947" lon="10.4093927"><ele>331.7142857142857</ele><time>2026-04-03T11:51:45.299Z</time></trkpt><trkpt lat="44.1230829" lon="10.4094286"><ele>332.1428571428571</ele><time>2026-04-03T11:51:48.312Z</time></trkpt><trkpt lat="44.1231441" lon="10.4094537"><ele>332.5714285714286</ele><time>2026-04-03T11:51:50.305Z</time></trkpt><trkpt lat="44.1232087" lon="10.4094755"><ele>333.0</ele><time>2026-04-03T11:51:52.301Z</time></trkpt><trkpt lat="44.123271" lon="10.4095029"><ele>333.2857142857143</ele><time>2026-04-03T11:51:54.295Z</time></trkpt><trkpt lat="44.1233355" lon="10.4095284"><ele>333.57142857142856</ele><time>2026-04-03T11:51:56.308Z</time></trkpt><trkpt lat="44.1234014" lon="10.409552"><ele>333.85714285714283</ele><time>2026-04-03T11:51:58.29Z</time></trkpt><trkpt lat="44.1234645" lon="10.4095717"><ele>334.1428571428571</ele><time>2026-04-03T11:52:00.313Z</time></trkpt><trkpt lat="44.123527" lon="10.4095973"><ele>334.42857142857144</ele><time>2026-04-03T11:52:02.3Z</time></trkpt><trkpt lat="44.12362" lon="10.4096246"><ele>334.71428571428567</ele><time>2026-04-03T11:52:05.294Z</time></trkpt><trkpt lat="44.1236843" lon="10.4096423"><ele>335.0</ele><time>2026-04-03T11:52:07.3Z</time></trkpt><trkpt lat="44.1237499" lon="10.4096604"><ele>335.1428571428571</ele><time>2026-04-03T11:52:09.296Z</time></trkpt><trkpt lat="44.1238142" lon="10.4096799"><ele>335.2857142857143</ele><time>2026-04-03T11:52:11.289Z</time></trkpt><trkpt lat="44.1238758" lon="10.409702"><ele>335.42857142857144</ele><time>2026-04-03T11:52:13.304Z</time></trkpt><trkpt lat="44.1239374" lon="10.4097236"><ele>335.57142857142856</ele><time>2026-04-03T11:52:15.293Z</time></trkpt><trkpt lat="44.1239995" lon="10.4097462"><ele>335.7142857142857</ele><time>2026-04-03T11:52:17.289Z</time></trkpt><trkpt lat="44.1240846" lon="10.4097778"><ele>335.85714285714283</ele><time>2026-04-03T11:52:20.308Z</time></trkpt><trkpt lat="44.1241697" lon="10.4098117"><ele>336.0</ele><time>2026-04-03T11:52:23.316Z</time></trkpt><trkpt lat="44.1242519" lon="10.4098615"><ele>336.6666666666667</ele><time>2026-04-03T11:52:26.303Z</time></trkpt><trkpt lat="44.1243395" lon="10.4099065"><ele>337.3333333333333</ele><time>2026-04-03T11:52:29.298Z</time></trkpt><trkpt lat="44.1244265" lon="10.4099481"><ele>338.0</ele><time>2026-04-03T11:52:32.3Z</time></trkpt><trkpt lat="44.1245067" lon="10.4100065"><ele>338.66666666666663</ele><time>2026-04-03T11:52:35.304Z</time></trkpt><trkpt lat="44.1245892" lon="10.4100443"><ele>339.3333333333333</ele><time>2026-04-03T11:52:38.292Z</time></trkpt><trkpt lat="44.1246472" lon="10.4101081"><ele>340.0</ele><time>2026-04-03T11:52:41.303Z</time></trkpt><trkpt lat="44.1247003" lon="10.4102037"><ele>340.0</ele><time>2026-04-03T11:52:44.294Z</time></trkpt><trkpt lat="44.1247513" lon="10.4103118"><ele>340.0</ele><time>2026-04-03T11:52:47.292Z</time></trkpt><trkpt lat="44.1248191" lon="10.4104016"><ele>340.0</ele><time>2026-04-03T11:52:50.285Z</time></trkpt><trkpt lat="44.1249036" lon="10.4104569"><ele>340.0</ele><time>2026-04-03T11:52:53.293Z</time></trkpt><trkpt lat="44.1249943" lon="10.4104658"><ele>340.0</ele><time>2026-04-03T11:52:56.303Z</time></trkpt><trkpt lat="44.1250562" lon="10.4104476"><ele>340.0</ele><time>2026-04-03T11:52:58.299Z</time></trkpt><trkpt lat="44.1251459" lon="10.4104132"><ele>340.66666666666663</ele><time>2026-04-03T11:53:01.298Z</time></trkpt><trkpt lat="44.1252357" lon="10.4104029"><ele>341.3333333333333</ele><time>2026-04-03T11:53:04.302Z</time></trkpt><trkpt lat="44.1253286" lon="10.4104207"><ele>342.0</ele><time>2026-04-03T11:53:07.3Z</time></trkpt><trkpt lat="44.1254169" lon="10.4104503"><ele>342.6666666666667</ele><time>2026-04-03T11:53:10.307Z</time></trkpt><trkpt lat="44.125478" lon="10.4104723"><ele>343.33333333333337</ele><time>2026-04-03T11:53:12.306Z</time></trkpt><trkpt lat="44.1255664" lon="10.4105147"><ele>344.0</ele><time>2026-04-03T11:53:15.308Z</time></trkpt><trkpt lat="44.1256517" lon="10.4105621"><ele>344.79999999999995</ele><time>2026-04-03T11:53:18.303Z</time></trkpt><trkpt lat="44.1257396" lon="10.4106009"><ele>345.59999999999997</ele><time>2026-04-03T11:53:21.306Z</time></trkpt><trkpt lat="44.1258287" lon="10.4106373"><ele>346.4</ele><time>2026-04-03T11:53:24.298Z</time></trkpt><trkpt lat="44.125917" lon="10.4106757"><ele>347.2</ele><time>2026-04-03T11:53:27.312Z</time></trkpt><trkpt lat="44.126009" lon="10.4106985"><ele>348.0</ele><time>2026-04-03T11:53:30.301Z</time></trkpt><trkpt lat="44.1260995" lon="10.4107259"><ele>348.0</ele><time>2026-04-03T11:53:33.29Z</time></trkpt><trkpt lat="44.1261908" lon="10.4107543"><ele>348.0</ele><time>2026-04-03T11:53:36.303Z</time></trkpt><trkpt lat="44.1262807" lon="10.4107794"><ele>348.0</ele><time>2026-04-03T11:53:39.292Z</time></trkpt><trkpt lat="44.1263718" lon="10.4108066"><ele>348.0</ele><time>2026-04-03T11:53:42.309Z</time></trkpt><trkpt lat="44.1264335" lon="10.4108264"><ele>348.0</ele><time>2026-04-03T11:53:44.295Z</time></trkpt><trkpt lat="44.1264971" lon="10.4108398"><ele>348.0</ele><time>2026-04-03T11:53:46.298Z</time></trkpt><trkpt lat="44.1265888" lon="10.4108633"><ele>348.1666666666667</ele><time>2026-04-03T11:53:49.297Z</time></trkpt><trkpt lat="44.1266786" lon="10.4108907"><ele>348.3333333333333</ele><time>2026-04-03T11:53:52.294Z</time></trkpt><trkpt lat="44.1267702" lon="10.4109159"><ele>348.5</ele><time>2026-04-03T11:53:55.302Z</time></trkpt><trkpt lat="44.1268581" lon="10.4109401"><ele>348.66666666666663</ele><time>2026-04-03T11:53:58.298Z</time></trkpt><trkpt lat="44.1269202" lon="10.4109553"><ele>348.8333333333333</ele><time>2026-04-03T11:54:00.297Z</time></trkpt><trkpt lat="44.1269857" lon="10.4109697"><ele>349.0</ele><time>2026-04-03T11:54:02.294Z</time></trkpt><trkpt lat="44.1270485" lon="10.4109839"><ele>349.0</ele><time>2026-04-03T11:54:04.306Z</time></trkpt><trkpt lat="44.1271118" lon="10.4110003"><ele>349.0</ele><time>2026-04-03T11:54:06.299Z</time></trkpt><trkpt lat="44.1272028" lon="10.4110259"><ele>349.0</ele><time>2026-04-03T11:54:09.306Z</time></trkpt><trkpt lat="44.1272937" lon="10.4110593"><ele>349.0</ele><time>2026-04-03T11:54:12.299Z</time></trkpt><trkpt lat="44.1273546" lon="10.411087"><ele>349.0</ele><time>2026-04-03T11:54:14.289Z</time></trkpt><trkpt lat="44.1274439" lon="10.4111277"><ele>349.0</ele><time>2026-04-03T11:54:17.294Z</time></trkpt><trkpt lat="44.1275334" lon="10.4111573"><ele>349.16666666666663</ele><time>2026-04-03T11:54:20.29Z</time></trkpt><trkpt lat="44.127623" lon="10.4111882"><ele>349.3333333333333</ele><time>2026-04-03T11:54:23.298Z</time></trkpt><trkpt lat="44.1276862" lon="10.4112063"><ele>349.5</ele><time>2026-04-03T11:54:25.299Z</time></trkpt><trkpt lat="44.1277473" lon="10.4112275"><ele>349.6666666666667</ele><time>2026-04-03T11:54:27.302Z</time></trkpt><trkpt lat="44.1278107" lon="10.4112449"><ele>349.83333333333337</ele><time>2026-04-03T11:54:29.302Z</time></trkpt><trkpt lat="44.1278991" lon="10.4112732"><ele>350.0</ele><time>2026-04-03T11:54:32.302Z</time></trkpt><trkpt lat="44.1279853" lon="10.4113097"><ele>350.2857142857143</ele><time>2026-04-03T11:54:35.301Z</time></trkpt><trkpt lat="44.1280475" lon="10.4113272"><ele>350.57142857142856</ele><time>2026-04-03T11:54:37.308Z</time></trkpt><trkpt lat="44.1281096" lon="10.4113478"><ele>350.8571428571429</ele><time>2026-04-03T11:54:39.304Z</time></trkpt><trkpt lat="44.1281735" lon="10.4113681"><ele>351.1428571428571</ele><time>2026-04-03T11:54:41.296Z</time></trkpt><trkpt lat="44.1282368" lon="10.4113909"><ele>351.42857142857144</ele><time>2026-04-03T11:54:43.299Z</time></trkpt><trkpt lat="44.1282999" lon="10.4114116"><ele>351.7142857142857</ele><time>2026-04-03T11:54:45.288Z</time></trkpt><trkpt lat="44.1283633" lon="10.4114286"><ele>352.0</ele><time>2026-04-03T11:54:47.295Z</time></trkpt><trkpt lat="44.1284288" lon="10.4114436"><ele>352.16666666666663</ele><time>2026-04-03T11:54:49.298Z</time></trkpt><trkpt lat="44.1284935" lon="10.4114529"><ele>352.3333333333333</ele><time>2026-04-03T11:54:51.306Z</time></trkpt><trkpt lat="44.1285839" lon="10.4114516"><ele>352.5</ele><time>2026-04-03T11:54:54.296Z</time></trkpt><trkpt lat="44.1286752" lon="10.4114528"><ele>352.6666666666667</ele><time>2026-04-03T11:54:57.301Z</time></trkpt><trkpt lat="44.1287672" lon="10.4114772"><ele>352.83333333333337</ele><time>2026-04-03T11:55:00.308Z</time></trkpt><trkpt lat="44.1288465" lon="10.4115324"><ele>353.0</ele><time>2026-04-03T11:55:03.285Z</time></trkpt><trkpt lat="44.1289194" lon="10.4116032"><ele>353.0</ele><time>2026-04-03T11:55:06.298Z</time></trkpt><trkpt lat="44.1290066" lon="10.411645"><ele>353.0</ele><time>2026-04-03T11:55:09.298Z</time></trkpt><trkpt lat="44.129094" lon="10.4116832"><ele>353.0</ele><time>2026-04-03T11:55:12.289Z</time></trkpt><trkpt lat="44.1291546" lon="10.4117076"><ele>353.0</ele><time>2026-04-03T11:55:14.304Z</time></trkpt><trkpt lat="44.129217" lon="10.4117272"><ele>353.0</ele><time>2026-04-03T11:55:16.301Z</time></trkpt><trkpt lat="44.1293047" lon="10.411755"><ele>353.0</ele><time>2026-04-03T11:55:19.308Z</time></trkpt><trkpt lat="44.1293978" lon="10.4117827"><ele>353.2857142857143</ele><time>2026-04-03T11:55:22.288Z</time></trkpt><trkpt lat="44.1294589" lon="10.4118045"><ele>353.5714285714286</ele><time>2026-04-03T11:55:24.301Z</time></trkpt><trkpt lat="44.1295495" lon="10.4118364"><ele>353.8571428571429</ele><time>2026-04-03T11:55:27.303Z</time></trkpt><trkpt lat="44.1296139" lon="10.411855"><ele>354.1428571428571</ele><time>2026-04-03T11:55:29.294Z</time></trkpt><trkpt lat="44.1296759" lon="10.4118758"><ele>354.42857142857144</ele><time>2026-04-03T11:55:31.296Z</time></trkpt><trkpt lat="44.1297382" lon="10.4119038"><ele>354.7142857142857</ele><time>2026-04-03T11:55:33.3Z</time></trkpt><trkpt lat="44.1297999" lon="10.4119383"><ele>355.0</ele><time>2026-04-03T11:55:35.291Z</time></trkpt><trkpt lat="44.1298607" lon="10.4119685"><ele>356.0</ele><time>2026-04-03T11:55:37.3Z</time></trkpt><trkpt lat="44.1299214" lon="10.4120038"><ele>357.0</ele><time>2026-04-03T11:55:39.291Z</time></trkpt><trkpt lat="44.1299841" lon="10.4120383"><ele>358.0</ele><time>2026-04-03T11:55:41.297Z</time></trkpt><trkpt lat="44.1300683" lon="10.41209"><ele>359.0</ele><time>2026-04-03T11:55:44.294Z</time></trkpt><trkpt lat="44.1301296" lon="10.4121256"><ele>360.0</ele><time>2026-04-03T11:55:46.292Z</time></trkpt><trkpt lat="44.1302143" lon="10.4121838"><ele>361.0</ele><time>2026-04-03T11:55:49.301Z</time></trkpt><trkpt lat="44.1302716" lon="10.412226"><ele>361.2857142857143</ele><time>2026-04-03T11:55:51.317Z</time></trkpt><trkpt lat="44.1303287" lon="10.4122642"><ele>361.57142857142856</ele><time>2026-04-03T11:55:53.301Z</time></trkpt><trkpt lat="44.130387" lon="10.4123053"><ele>361.85714285714283</ele><time>2026-04-03T11:55:55.3Z</time></trkpt><trkpt lat="44.1304469" lon="10.4123454"><ele>362.1428571428571</ele><time>2026-04-03T11:55:57.312Z</time></trkpt><trkpt lat="44.1305049" lon="10.4123875"><ele>362.42857142857144</ele><time>2026-04-03T11:55:59.31Z</time></trkpt><trkpt lat="44.1305867" lon="10.4124437"><ele>362.71428571428567</ele><time>2026-04-03T11:56:02.318Z</time></trkpt><trkpt lat="44.1306704" lon="10.4125031"><ele>363.0</ele><time>2026-04-03T11:56:05.305Z</time></trkpt><trkpt lat="44.1307271" lon="10.412545"><ele>363.1666666666667</ele><time>2026-04-03T11:56:07.301Z</time></trkpt><trkpt lat="44.1308102" lon="10.4126107"><ele>363.3333333333333</ele><time>2026-04-03T11:56:10.308Z</time></trkpt><trkpt lat="44.1308917" lon="10.4126775"><ele>363.5</ele><time>2026-04-03T11:56:13.299Z</time></trkpt><trkpt lat="44.1309467" lon="10.4127223"><ele>363.66666666666663</ele><time>2026-04-03T11:56:15.301Z</time></trkpt><trkpt lat="44.1310283" lon="10.4127806"><ele>363.8333333333333</ele><time>2026-04-03T11:56:18.299Z</time></trkpt><trkpt lat="44.131087" lon="10.4128199"><ele>364.0</ele><time>2026-04-03T11:56:20.303Z</time></trkpt><trkpt lat="44.1311631" lon="10.412878"><ele>364.0</ele><time>2026-04-03T11:56:23.314Z</time></trkpt><trkpt lat="44.1312427" lon="10.4129313"><ele>364.0</ele><time>2026-04-03T11:56:26.309Z</time></trkpt><trkpt lat="44.1313041" lon="10.4129688"><ele>364.0</ele><time>2026-04-03T11:56:28.296Z</time></trkpt><trkpt lat="44.1313601" lon="10.4130108"><ele>364.0</ele><time>2026-04-03T11:56:30.309Z</time></trkpt><trkpt lat="44.1314186" lon="10.4130496"><ele>364.0</ele><time>2026-04-03T11:56:32.315Z</time></trkpt><trkpt lat="44.1315021" lon="10.4131084"><ele>364.0</ele><time>2026-04-03T11:56:35.306Z</time></trkpt><trkpt lat="44.1315643" lon="10.4131483"><ele>364.0</ele><time>2026-04-03T11:56:37.307Z</time></trkpt><trkpt lat="44.1316519" lon="10.4131961"><ele>364.66666666666663</ele><time>2026-04-03T11:56:40.289Z</time></trkpt><trkpt lat="44.1317138" lon="10.4132265"><ele>365.3333333333333</ele><time>2026-04-03T11:56:42.301Z</time></trkpt><trkpt lat="44.1318034" lon="10.4132687"><ele>366.0</ele><time>2026-04-03T11:56:45.3Z</time></trkpt><trkpt lat="44.1318655" lon="10.4132963"><ele>366.6666666666667</ele><time>2026-04-03T11:56:47.293Z</time></trkpt><trkpt lat="44.1319271" lon="10.4133215"><ele>367.33333333333337</ele><time>2026-04-03T11:56:49.291Z</time></trkpt><trkpt lat="44.1320165" lon="10.4133608"><ele>368.0</ele><time>2026-04-03T11:56:52.298Z</time></trkpt><trkpt lat="44.1320981" lon="10.4133894"><ele>368.0</ele><time>2026-04-03T11:56:55.299Z</time></trkpt><trkpt lat="44.1321872" lon="10.4134367"><ele>368.0</ele><time>2026-04-03T11:56:58.299Z</time></trkpt><trkpt lat="44.1322534" lon="10.413462"><ele>368.0</ele><time>2026-04-03T11:57:00.292Z</time></trkpt><trkpt lat="44.1323152" lon="10.4134869"><ele>368.0</ele><time>2026-04-03T11:57:02.301Z</time></trkpt><trkpt lat="44.1323769" lon="10.4135109"><ele>368.0</ele><time>2026-04-03T11:57:04.305Z</time></trkpt><trkpt lat="44.1324393" lon="10.4135354"><ele>368.0</ele><time>2026-04-03T11:57:06.298Z</time></trkpt><trkpt lat="44.1325013" lon="10.4135576"><ele>368.0</ele><time>2026-04-03T11:57:08.301Z</time></trkpt><trkpt lat="44.1325633" lon="10.4135815"><ele>368.7142857142857</ele><time>2026-04-03T11:57:10.306Z</time></trkpt><trkpt lat="44.132625" lon="10.4136089"><ele>369.4285714285714</ele><time>2026-04-03T11:57:12.293Z</time></trkpt><trkpt lat="44.1326862" lon="10.4136353"><ele>370.1428571428571</ele><time>2026-04-03T11:57:14.295Z</time></trkpt><trkpt lat="44.1327471" lon="10.4136602"><ele>370.8571428571429</ele><time>2026-04-03T11:57:16.298Z</time></trkpt><trkpt lat="44.132808" lon="10.4136864"><ele>371.57142857142856</ele><time>2026-04-03T11:57:18.3Z</time></trkpt><trkpt lat="44.1328716" lon="10.4137063"><ele>372.2857142857143</ele><time>2026-04-03T11:57:20.298Z</time></trkpt><trkpt lat="44.1329348" lon="10.4137317"><ele>373.0</ele><time>2026-04-03T11:57:22.299Z</time></trkpt><trkpt lat="44.1329996" lon="10.4137611"><ele>373.0</ele><time>2026-04-03T11:57:24.297Z</time></trkpt><trkpt lat="44.1330643" lon="10.4137871"><ele>373.0</ele><time>2026-04-03T11:57:26.3Z</time></trkpt><trkpt lat="44.1331272" lon="10.4138101"><ele>373.0</ele><time>2026-04-03T11:57:28.286Z</time></trkpt><trkpt lat="44.1332182" lon="10.4138485"><ele>373.0</ele><time>2026-04-03T11:57:31.285Z</time></trkpt><trkpt lat="44.1332802" lon="10.4138734"><ele>373.0</ele><time>2026-04-03T11:57:33.292Z</time></trkpt><trkpt lat="44.1333443" lon="10.4139049"><ele>373.0</ele><time>2026-04-03T11:57:35.285Z</time></trkpt><trkpt lat="44.1334059" lon="10.413944"><ele>373.0</ele><time>2026-04-03T11:57:37.286Z</time></trkpt><trkpt lat="44.1334632" lon="10.413986"><ele>373.8333333333333</ele><time>2026-04-03T11:57:39.289Z</time></trkpt><trkpt lat="44.133517" lon="10.4140366"><ele>374.66666666666663</ele><time>2026-04-03T11:57:41.3Z</time></trkpt><trkpt lat="44.1335727" lon="10.4140863"><ele>375.5</ele><time>2026-04-03T11:57:43.285Z</time></trkpt><trkpt lat="44.1336286" lon="10.4141428"><ele>376.3333333333333</ele><time>2026-04-03T11:57:45.284Z</time></trkpt><trkpt lat="44.1337055" lon="10.4142178"><ele>377.1666666666667</ele><time>2026-04-03T11:57:48.294Z</time></trkpt><trkpt lat="44.1337788" lon="10.4142909"><ele>378.0</ele><time>2026-04-03T11:57:51.291Z</time></trkpt><trkpt lat="44.1338486" lon="10.4143752"><ele>378.0</ele><time>2026-04-03T11:57:54.297Z</time></trkpt><trkpt lat="44.1338947" lon="10.4144351"><ele>378.0</ele><time>2026-04-03T11:57:56.3Z</time></trkpt><trkpt lat="44.1339683" lon="10.4145176"><ele>378.0</ele><time>2026-04-03T11:57:59.301Z</time></trkpt><trkpt lat="44.1340178" lon="10.4145748"><ele>378.0</ele><time>2026-04-03T11:58:01.289Z</time></trkpt><trkpt lat="44.1340854" lon="10.4146626"><ele>378.0</ele><time>2026-04-03T11:58:04.299Z</time></trkpt><trkpt lat="44.1341513" lon="10.4147456"><ele>378.0</ele><time>2026-04-03T11:58:07.302Z</time></trkpt><trkpt lat="44.1342123" lon="10.4148075"><ele>378.57142857142856</ele><time>2026-04-03T11:58:09.296Z</time></trkpt><trkpt lat="44.1342677" lon="10.4148729"><ele>379.1428571428571</ele><time>2026-04-03T11:58:11.299Z</time></trkpt><trkpt lat="44.1343211" lon="10.414941"><ele>379.7142857142857</ele><time>2026-04-03T11:58:13.296Z</time></trkpt><trkpt lat="44.1343719" lon="10.4150008"><ele>380.2857142857143</ele><time>2026-04-03T11:58:15.302Z</time></trkpt><trkpt lat="44.1344212" lon="10.4150626"><ele>380.85714285714283</ele><time>2026-04-03T11:58:17.295Z</time></trkpt><trkpt lat="44.1344764" lon="10.4151216"><ele>381.42857142857144</ele><time>2026-04-03T11:58:19.298Z</time></trkpt><trkpt lat="44.1345366" lon="10.4151802"><ele>382.0</ele><time>2026-04-03T11:58:21.301Z</time></trkpt><trkpt lat="44.1345938" lon="10.4152437"><ele>382.0</ele><time>2026-04-03T11:58:23.297Z</time></trkpt><trkpt lat="44.1346522" lon="10.415306"><ele>382.0</ele><time>2026-04-03T11:58:25.3Z</time></trkpt><trkpt lat="44.1347096" lon="10.4153648"><ele>382.0</ele><time>2026-04-03T11:58:27.3Z</time></trkpt><trkpt lat="44.1347676" lon="10.4154262"><ele>382.0</ele><time>2026-04-03T11:58:29.299Z</time></trkpt><trkpt lat="44.1348264" lon="10.4154823"><ele>382.0</ele><time>2026-04-03T11:58:31.305Z</time></trkpt><trkpt lat="44.1348918" lon="10.4155311"><ele>382.0</ele><time>2026-04-03T11:58:33.307Z</time></trkpt><trkpt lat="44.1349624" lon="10.4155726"><ele>382.0</ele><time>2026-04-03T11:58:35.289Z</time></trkpt><trkpt lat="44.1350336" lon="10.4156105"><ele>382.3333333333333</ele><time>2026-04-03T11:58:37.297Z</time></trkpt><trkpt lat="44.1351064" lon="10.4156436"><ele>382.66666666666663</ele><time>2026-04-03T11:58:39.313Z</time></trkpt><trkpt lat="44.1351775" lon="10.4156791"><ele>383.0</ele><time>2026-04-03T11:58:41.289Z</time></trkpt><trkpt lat="44.1352535" lon="10.4157164"><ele>383.3333333333333</ele><time>2026-04-03T11:58:43.291Z</time></trkpt><trkpt lat="44.1353288" lon="10.4157482"><ele>383.6666666666667</ele><time>2026-04-03T11:58:45.298Z</time></trkpt><trkpt lat="44.1354008" lon="10.4157795"><ele>384.0</ele><time>2026-04-03T11:58:47.297Z</time></trkpt><trkpt lat="44.1354734" lon="10.4158095"><ele>384.0</ele><time>2026-04-03T11:58:49.306Z</time></trkpt><trkpt lat="44.1355465" lon="10.4158408"><ele>384.0</ele><time>2026-04-03T11:58:51.3Z</time></trkpt><trkpt lat="44.1356237" lon="10.4158725"><ele>384.0</ele><time>2026-04-03T11:58:53.3Z</time></trkpt><trkpt lat="44.1357001" lon="10.4159059"><ele>384.0</ele><time>2026-04-03T11:58:55.291Z</time></trkpt><trkpt lat="44.1357737" lon="10.4159371"><ele>384.0</ele><time>2026-04-03T11:58:57.294Z</time></trkpt><trkpt lat="44.1358454" lon="10.4159719"><ele>384.0</ele><time>2026-04-03T11:58:59.293Z</time></trkpt><trkpt lat="44.1359185" lon="10.4160071"><ele>384.6666666666667</ele><time>2026-04-03T11:59:01.295Z</time></trkpt><trkpt lat="44.1359958" lon="10.4160388"><ele>385.33333333333337</ele><time>2026-04-03T11:59:03.297Z</time></trkpt><trkpt lat="44.1360738" lon="10.4160742"><ele>386.0</ele><time>2026-04-03T11:59:05.305Z</time></trkpt><trkpt lat="44.1361524" lon="10.4161107"><ele>386.6666666666667</ele><time>2026-04-03T11:59:07.3Z</time></trkpt><trkpt lat="44.1362266" lon="10.4161521"><ele>387.33333333333337</ele><time>2026-04-03T11:59:09.305Z</time></trkpt><trkpt lat="44.1362956" lon="10.4162004"><ele>388.0</ele><time>2026-04-03T11:59:11.293Z</time></trkpt><trkpt lat="44.1363599" lon="10.416255"><ele>388.00000000000006</ele><time>2026-04-03T11:59:13.296Z</time></trkpt><trkpt lat="44.1364236" lon="10.4163107"><ele>388.0</ele><time>2026-04-03T11:59:15.293Z</time></trkpt><trkpt lat="44.1364853" lon="10.4163713"><ele>388.0</ele><time>2026-04-03T11:59:17.295Z</time></trkpt><trkpt lat="44.1365492" lon="10.4164317"><ele>388.0</ele><time>2026-04-03T11:59:19.298Z</time></trkpt><trkpt lat="44.1366134" lon="10.4164935"><ele>388.00000000000006</ele><time>2026-04-03T11:59:21.3Z</time></trkpt><trkpt lat="44.1366778" lon="10.4165585"><ele>388.0</ele><time>2026-04-03T11:59:23.294Z</time></trkpt><trkpt lat="44.136742" lon="10.4166212"><ele>389.00000000000006</ele><time>2026-04-03T11:59:25.301Z</time></trkpt><trkpt lat="44.1368061" lon="10.4166867"><ele>390.0</ele><time>2026-04-03T11:59:27.295Z</time></trkpt><trkpt lat="44.136871" lon="10.4167548"><ele>391.0</ele><time>2026-04-03T11:59:29.293Z</time></trkpt><trkpt lat="44.1369354" lon="10.4168241"><ele>392.0</ele><time>2026-04-03T11:59:31.289Z</time></trkpt><trkpt lat="44.136998" lon="10.4168928"><ele>393.00000000000006</ele><time>2026-04-03T11:59:33.298Z</time></trkpt><trkpt lat="44.1370593" lon="10.4169624"><ele>394.0</ele><time>2026-04-03T11:59:35.299Z</time></trkpt><trkpt lat="44.1371222" lon="10.4170307"><ele>394.00000000000006</ele><time>2026-04-03T11:59:37.298Z</time></trkpt><trkpt lat="44.1371831" lon="10.4171043"><ele>394.0</ele><time>2026-04-03T11:59:39.296Z</time></trkpt><trkpt lat="44.1372438" lon="10.4171731"><ele>394.0</ele><time>2026-04-03T11:59:41.301Z</time></trkpt><trkpt lat="44.1373051" lon="10.4172385"><ele>394.0</ele><time>2026-04-03T11:59:43.308Z</time></trkpt><trkpt lat="44.1373676" lon="10.4173"><ele>394.00000000000006</ele><time>2026-04-03T11:59:45.297Z</time></trkpt><trkpt lat="44.1374269" lon="10.4173663"><ele>394.0</ele><time>2026-04-03T11:59:47.294Z</time></trkpt><trkpt lat="44.1374895" lon="10.4174368"><ele>395.00000000000006</ele><time>2026-04-03T11:59:49.299Z</time></trkpt><trkpt lat="44.1375604" lon="10.4175049"><ele>396.0</ele><time>2026-04-03T11:59:51.301Z</time></trkpt><trkpt lat="44.1376274" lon="10.4175771"><ele>397.0</ele><time>2026-04-03T11:59:53.313Z</time></trkpt><trkpt lat="44.137693" lon="10.4176467"><ele>398.0</ele><time>2026-04-03T11:59:55.302Z</time></trkpt><trkpt lat="44.1377592" lon="10.4177111"><ele>399.00000000000006</ele><time>2026-04-03T11:59:57.302Z</time></trkpt><trkpt lat="44.1378223" lon="10.41778"><ele>400.0</ele><time>2026-04-03T11:59:59.307Z</time></trkpt><trkpt lat="44.1378883" lon="10.4178488"><ele>400.0</ele><time>2026-04-03T12:00:01.293Z</time></trkpt><trkpt lat="44.1379538" lon="10.4179196"><ele>400.0</ele><time>2026-04-03T12:00:03.298Z</time></trkpt><trkpt lat="44.1380242" lon="10.4179885"><ele>400.0</ele><time>2026-04-03T12:00:05.306Z</time></trkpt><trkpt lat="44.1380955" lon="10.4180498"><ele>400.0</ele><time>2026-04-03T12:00:07.299Z</time></trkpt><trkpt lat="44.1381784" lon="10.4181094"><ele>400.0</ele><time>2026-04-03T12:00:09.3Z</time></trkpt><trkpt lat="44.1382796" lon="10.418164"><ele>400.75</ele><time>2026-04-03T12:00:11.297Z</time></trkpt><trkpt lat="44.1383851" lon="10.4182153"><ele>401.5</ele><time>2026-04-03T12:00:13.315Z</time></trkpt><trkpt lat="44.1384972" lon="10.418246"><ele>402.25</ele><time>2026-04-03T12:00:15.3Z</time></trkpt><trkpt lat="44.1386187" lon="10.4182436"><ele>403.0</ele><time>2026-04-03T12:00:17.296Z</time></trkpt><trkpt lat="44.1387442" lon="10.4182359"><ele>403.0</ele><time>2026-04-03T12:00:19.287Z</time></trkpt><trkpt lat="44.138807" lon="10.4182202"><ele>403.0</ele><time>2026-04-03T12:00:20.291Z</time></trkpt><trkpt lat="44.1388769" lon="10.4182111"><ele>403.0</ele><time>2026-04-03T12:00:21.302Z</time></trkpt><trkpt lat="44.1389477" lon="10.4182087"><ele>403.0</ele><time>2026-04-03T12:00:22.291Z</time></trkpt><trkpt lat="44.1390159" lon="10.4182107"><ele>403.0</ele><time>2026-04-03T12:00:23.304Z</time></trkpt><trkpt lat="44.1390898" lon="10.4182158"><ele>403.0</ele><time>2026-04-03T12:00:24.303Z</time></trkpt><trkpt lat="44.1391624" lon="10.4182246"><ele>403.0</ele><time>2026-04-03T12:00:25.294Z</time></trkpt><trkpt lat="44.1392334" lon="10.4182366"><ele>401.83333333333337</ele><time>2026-04-03T12:00:26.314Z</time></trkpt><trkpt lat="44.1393069" lon="10.418245"><ele>400.6666666666667</ele><time>2026-04-03T12:00:27.303Z</time></trkpt><trkpt lat="44.1393829" lon="10.4182495"><ele>399.5</ele><time>2026-04-03T12:00:28.3Z</time></trkpt><trkpt lat="44.1394593" lon="10.4182502"><ele>398.33333333333337</ele><time>2026-04-03T12:00:29.305Z</time></trkpt><trkpt lat="44.1395345" lon="10.4182467"><ele>397.1666666666667</ele><time>2026-04-03T12:00:30.303Z</time></trkpt><trkpt lat="44.1396087" lon="10.4182425"><ele>396.0</ele><time>2026-04-03T12:00:31.296Z</time></trkpt><trkpt lat="44.1396832" lon="10.4182349"><ele>396.0</ele><time>2026-04-03T12:00:32.302Z</time></trkpt><trkpt lat="44.1397619" lon="10.418228"><ele>396.0</ele><time>2026-04-03T12:00:33.302Z</time></trkpt><trkpt lat="44.1398403" lon="10.4182138"><ele>396.0</ele><time>2026-04-03T12:00:34.295Z</time></trkpt><trkpt lat="44.139916" lon="10.4182044"><ele>396.0</ele><time>2026-04-03T12:00:35.29Z</time></trkpt><trkpt lat="44.1399952" lon="10.418197"><ele>396.0</ele><time>2026-04-03T12:00:36.306Z</time></trkpt><trkpt lat="44.1400764" lon="10.4181901"><ele>396.0</ele><time>2026-04-03T12:00:37.304Z</time></trkpt><trkpt lat="44.1401525" lon="10.4181742"><ele>396.0</ele><time>2026-04-03T12:00:38.305Z</time></trkpt><trkpt lat="44.140225" lon="10.4181389"><ele>396.0</ele><time>2026-04-03T12:00:39.293Z</time></trkpt><trkpt lat="44.1402926" lon="10.4180849"><ele>396.0</ele><time>2026-04-03T12:00:40.314Z</time></trkpt><trkpt lat="44.1403466" lon="10.4180125"><ele>396.0</ele><time>2026-04-03T12:00:41.301Z</time></trkpt><trkpt lat="44.1403897" lon="10.4179247"><ele>396.0</ele><time>2026-04-03T12:00:42.308Z</time></trkpt><trkpt lat="44.1404212" lon="10.4178285"><ele>396.0</ele><time>2026-04-03T12:00:43.297Z</time></trkpt><trkpt lat="44.1404435" lon="10.41773"><ele>394.14285714285717</ele><time>2026-04-03T12:00:44.305Z</time></trkpt><trkpt lat="44.1404557" lon="10.4176299"><ele>392.2857142857143</ele><time>2026-04-03T12:00:45.3Z</time></trkpt><trkpt lat="44.1404688" lon="10.4175262"><ele>390.42857142857144</ele><time>2026-04-03T12:00:46.294Z</time></trkpt><trkpt lat="44.1404845" lon="10.4174256"><ele>388.57142857142856</ele><time>2026-04-03T12:00:47.3Z</time></trkpt><trkpt lat="44.1404994" lon="10.4173318"><ele>386.71428571428567</ele><time>2026-04-03T12:00:48.299Z</time></trkpt><trkpt lat="44.1405115" lon="10.4172337"><ele>384.85714285714283</ele><time>2026-04-03T12:00:49.295Z</time></trkpt><trkpt lat="44.1405215" lon="10.4171446"><ele>383.0</ele><time>2026-04-03T12:00:50.292Z</time></trkpt><trkpt lat="44.1405444" lon="10.416975"><ele>382.0</ele><time>2026-04-03T12:00:52.295Z</time></trkpt><trkpt lat="44.1405623" lon="10.4168221"><ele>381.0</ele><time>2026-04-03T12:00:54.308Z</time></trkpt><trkpt lat="44.1405855" lon="10.4166719"><ele>380.0</ele><time>2026-04-03T12:00:56.294Z</time></trkpt><trkpt lat="44.1406064" lon="10.4165232"><ele>379.0</ele><time>2026-04-03T12:00:58.296Z</time></trkpt><trkpt lat="44.1406255" lon="10.4163797"><ele>378.0</ele><time>2026-04-03T12:01:00.3Z</time></trkpt><trkpt lat="44.1406394" lon="10.4162454"><ele>377.8333333333333</ele><time>2026-04-03T12:01:02.289Z</time></trkpt><trkpt lat="44.1406596" lon="10.4161249"><ele>377.6666666666667</ele><time>2026-04-03T12:01:04.303Z</time></trkpt><trkpt lat="44.1406768" lon="10.4160047"><ele>377.5</ele><time>2026-04-03T12:01:06.293Z</time></trkpt><trkpt lat="44.1406954" lon="10.4159015"><ele>377.33333333333337</ele><time>2026-04-03T12:01:08.305Z</time></trkpt><trkpt lat="44.1407137" lon="10.4158042"><ele>377.1666666666667</ele><time>2026-04-03T12:01:10.304Z</time></trkpt><trkpt lat="44.1407266" lon="10.4156772"><ele>377.0</ele><time>2026-04-03T12:01:13.281Z</time></trkpt><trkpt lat="44.1407375" lon="10.4155572"><ele>378.6666666666667</ele><time>2026-04-03T12:01:16.299Z</time></trkpt><trkpt lat="44.1407363" lon="10.415447"><ele>380.33333333333337</ele><time>2026-04-03T12:01:19.298Z</time></trkpt><trkpt lat="44.140729" lon="10.4153344"><ele>382.0</ele><time>2026-04-03T12:01:22.293Z</time></trkpt><trkpt lat="44.1407281" lon="10.415205"><ele>383.6666666666667</ele><time>2026-04-03T12:01:25.296Z</time></trkpt><trkpt lat="44.1407225" lon="10.4150768"><ele>385.3333333333333</ele><time>2026-04-03T12:01:28.292Z</time></trkpt><trkpt lat="44.1407189" lon="10.4149702"><ele>387.0</ele><time>2026-04-03T12:01:31.289Z</time></trkpt><trkpt lat="44.1407162" lon="10.4148771"><ele>386.14285714285717</ele><time>2026-04-03T12:01:34.286Z</time></trkpt><trkpt lat="44.1407156" lon="10.4147778"><ele>385.28571428571433</ele><time>2026-04-03T12:01:37.303Z</time></trkpt><trkpt lat="44.1407118" lon="10.4146787"><ele>384.42857142857144</ele><time>2026-04-03T12:01:40.295Z</time></trkpt><trkpt lat="44.1407044" lon="10.4145772"><ele>383.57142857142856</ele><time>2026-04-03T12:01:43.305Z</time></trkpt><trkpt lat="44.1407069" lon="10.4144752"><ele>382.7142857142857</ele><time>2026-04-03T12:01:46.299Z</time></trkpt><trkpt lat="44.1407132" lon="10.4143731"><ele>381.85714285714283</ele><time>2026-04-03T12:01:49.3Z</time></trkpt><trkpt lat="44.1407476" lon="10.4142856"><ele>381.0</ele><time>2026-04-03T12:01:52.295Z</time></trkpt><trkpt lat="44.1408041" lon="10.4142207"><ele>382.7142857142857</ele><time>2026-04-03T12:01:55.296Z</time></trkpt><trkpt lat="44.140868" lon="10.4141799"><ele>384.42857142857144</ele><time>2026-04-03T12:01:58.302Z</time></trkpt><trkpt lat="44.1409381" lon="10.4141849"><ele>386.14285714285717</ele><time>2026-04-03T12:02:01.298Z</time></trkpt><trkpt lat="44.1410005" lon="10.4142388"><ele>387.8571428571429</ele><time>2026-04-03T12:02:04.3Z</time></trkpt><trkpt lat="44.1410457" lon="10.4143221"><ele>389.57142857142856</ele><time>2026-04-03T12:02:07.3Z</time></trkpt><trkpt lat="44.1410669" lon="10.414421"><ele>391.28571428571433</ele><time>2026-04-03T12:02:10.297Z</time></trkpt><trkpt lat="44.1410776" lon="10.4145214"><ele>393.0</ele><time>2026-04-03T12:02:13.301Z</time></trkpt><trkpt lat="44.1410885" lon="10.4146187"><ele>392.14285714285717</ele><time>2026-04-03T12:02:16.299Z</time></trkpt><trkpt lat="44.1411096" lon="10.4147152"><ele>391.2857142857143</ele><time>2026-04-03T12:02:19.298Z</time></trkpt><trkpt lat="44.1411438" lon="10.4148055"><ele>390.42857142857144</ele><time>2026-04-03T12:02:22.288Z</time></trkpt><trkpt lat="44.1411952" lon="10.4148775"><ele>389.57142857142856</ele><time>2026-04-03T12:02:25.298Z</time></trkpt><trkpt lat="44.1412627" lon="10.4149238"><ele>388.7142857142857</ele><time>2026-04-03T12:02:28.303Z</time></trkpt><trkpt lat="44.1413369" lon="10.4149503"><ele>387.8571428571429</ele><time>2026-04-03T12:02:31.301Z</time></trkpt><trkpt lat="44.1414125" lon="10.4149539"><ele>387.0</ele><time>2026-04-03T12:02:34.3Z</time></trkpt><trkpt lat="44.1414854" lon="10.4149397"><ele>388.42857142857144</ele><time>2026-04-03T12:02:37.294Z</time></trkpt><trkpt lat="44.1415594" lon="10.4149252"><ele>389.8571428571429</ele><time>2026-04-03T12:02:40.312Z</time></trkpt><trkpt lat="44.1416322" lon="10.414908"><ele>391.2857142857143</ele><time>2026-04-03T12:02:43.293Z</time></trkpt><trkpt lat="44.1417015" lon="10.4148951"><ele>392.7142857142857</ele><time>2026-04-03T12:02:46.291Z</time></trkpt><trkpt lat="44.1417775" lon="10.4148743"><ele>394.1428571428571</ele><time>2026-04-03T12:02:49.285Z</time></trkpt><trkpt lat="44.1418533" lon="10.4148596"><ele>395.57142857142856</ele><time>2026-04-03T12:02:52.287Z</time></trkpt><trkpt lat="44.1419293" lon="10.4148547"><ele>397.0</ele><time>2026-04-03T12:02:55.298Z</time></trkpt><trkpt lat="44.1419974" lon="10.4148686"><ele>397.00000000000006</ele><time>2026-04-03T12:02:58.291Z</time></trkpt><trkpt lat="44.1420726" lon="10.4148765"><ele>397.0</ele><time>2026-04-03T12:03:01.297Z</time></trkpt><trkpt lat="44.1421569" lon="10.4148783"><ele>397.0</ele><time>2026-04-03T12:03:04.293Z</time></trkpt><trkpt lat="44.1422296" lon="10.4148849"><ele>397.0</ele><time>2026-04-03T12:03:07.287Z</time></trkpt><trkpt lat="44.1422985" lon="10.4148919"><ele>397.00000000000006</ele><time>2026-04-03T12:03:10.283Z</time></trkpt><trkpt lat="44.1423696" lon="10.4149032"><ele>397.0</ele><time>2026-04-03T12:03:13.287Z</time></trkpt><trkpt lat="44.1424457" lon="10.414926"><ele>397.85714285714283</ele><time>2026-04-03T12:03:16.298Z</time></trkpt><trkpt lat="44.1425183" lon="10.4149412"><ele>398.71428571428567</ele><time>2026-04-03T12:03:19.297Z</time></trkpt><trkpt lat="44.1425976" lon="10.4149468"><ele>399.57142857142856</ele><time>2026-04-03T12:03:22.291Z</time></trkpt><trkpt lat="44.142672" lon="10.4149661"><ele>400.42857142857144</ele><time>2026-04-03T12:03:25.298Z</time></trkpt><trkpt lat="44.1427386" lon="10.4149717"><ele>401.2857142857143</ele><time>2026-04-03T12:03:28.288Z</time></trkpt><trkpt lat="44.1428117" lon="10.4149667"><ele>402.14285714285717</ele><time>2026-04-03T12:03:31.293Z</time></trkpt><trkpt lat="44.1428871" lon="10.4149537"><ele>403.0</ele><time>2026-04-03T12:03:34.292Z</time></trkpt><trkpt lat="44.1429577" lon="10.4149389"><ele>403.0</ele><time>2026-04-03T12:03:37.293Z</time></trkpt><trkpt lat="44.1430263" lon="10.4149155"><ele>403.0</ele><time>2026-04-03T12:03:40.299Z</time></trkpt><trkpt lat="44.143095" lon="10.4149055"><ele>403.0</ele><time>2026-04-03T12:03:43.297Z</time></trkpt><trkpt lat="44.143165" lon="10.4148855"><ele>403.0</ele><time>2026-04-03T12:03:46.296Z</time></trkpt><trkpt lat="44.1432345" lon="10.4148866"><ele>403.0</ele><time>2026-04-03T12:03:49.303Z</time></trkpt><trkpt lat="44.1432973" lon="10.4149034"><ele>403.0</ele><time>2026-04-03T12:03:52.295Z</time></trkpt><trkpt lat="44.1433659" lon="10.4149214"><ele>403.0</ele><time>2026-04-03T12:03:55.295Z</time></trkpt><trkpt lat="44.1434342" lon="10.4149475"><ele>404.7142857142857</ele><time>2026-04-03T12:03:58.291Z</time></trkpt><trkpt lat="44.1435012" lon="10.4149621"><ele>406.4285714285714</ele><time>2026-04-03T12:04:01.294Z</time></trkpt><trkpt lat="44.1435691" lon="10.4149866"><ele>408.1428571428571</ele><time>2026-04-03T12:04:04.298Z</time></trkpt><trkpt lat="44.1436342" lon="10.415012"><ele>409.8571428571429</ele><time>2026-04-03T12:04:07.297Z</time></trkpt><trkpt lat="44.1437036" lon="10.4150252"><ele>411.57142857142856</ele><time>2026-04-03T12:04:10.29Z</time></trkpt><trkpt lat="44.1437732" lon="10.4150498"><ele>413.2857142857143</ele><time>2026-04-03T12:04:13.285Z</time></trkpt><trkpt lat="44.143844" lon="10.4150673"><ele>415.0</ele><time>2026-04-03T12:04:16.292Z</time></trkpt><trkpt lat="44.1439069" lon="10.4150976"><ele>415.0</ele><time>2026-04-03T12:04:19.303Z</time></trkpt><trkpt lat="44.1439698" lon="10.415115"><ele>415.0</ele><time>2026-04-03T12:04:22.286Z</time></trkpt><trkpt lat="44.1440363" lon="10.4151403"><ele>415.0</ele><time>2026-04-03T12:04:25.293Z</time></trkpt><trkpt lat="44.1441115" lon="10.4151236"><ele>415.0</ele><time>2026-04-03T12:04:28.3Z</time></trkpt><trkpt lat="44.144177" lon="10.4150756"><ele>415.0</ele><time>2026-04-03T12:04:32.296Z</time></trkpt><trkpt lat="44.144173" lon="10.4149717"><ele>415.0</ele><time>2026-04-03T12:04:36.301Z</time></trkpt><trkpt lat="44.1441304" lon="10.414885"><ele>415.0</ele><time>2026-04-03T12:04:39.298Z</time></trkpt><trkpt lat="44.1440729" lon="10.4148293"><ele>415.0</ele><time>2026-04-03T12:04:42.304Z</time></trkpt><trkpt lat="44.1440103" lon="10.4147799"><ele>415.0</ele><time>2026-04-03T12:04:45.292Z</time></trkpt><trkpt lat="44.143946" lon="10.4147374"><ele>415.0</ele><time>2026-04-03T12:04:48.294Z</time></trkpt><trkpt lat="44.1438759" lon="10.4147193"><ele>415.0</ele><time>2026-04-03T12:04:51.295Z</time></trkpt><trkpt lat="44.1438039" lon="10.4147025"><ele>415.0</ele><time>2026-04-03T12:04:54.29Z</time></trkpt><trkpt lat="44.1437331" lon="10.4146884"><ele>415.0</ele><time>2026-04-03T12:04:57.301Z</time></trkpt><trkpt lat="44.143664" lon="10.4146806"><ele>415.0</ele><time>2026-04-03T12:05:00.297Z</time></trkpt><trkpt lat="44.1435947" lon="10.4146682"><ele>416.42857142857144</ele><time>2026-04-03T12:05:03.286Z</time></trkpt><trkpt lat="44.1435278" lon="10.4146311"><ele>417.8571428571429</ele><time>2026-04-03T12:05:06.295Z</time></trkpt><trkpt lat="44.143473" lon="10.4145725"><ele>419.2857142857143</ele><time>2026-04-03T12:05:09.295Z</time></trkpt><trkpt lat="44.1434358" lon="10.4144891"><ele>420.7142857142857</ele><time>2026-04-03T12:05:12.297Z</time></trkpt><trkpt lat="44.1434187" lon="10.4143913"><ele>422.1428571428571</ele><time>2026-04-03T12:05:15.296Z</time></trkpt><trkpt lat="44.1434187" lon="10.4142912"><ele>423.57142857142856</ele><time>2026-04-03T12:05:18.298Z</time></trkpt><trkpt lat="44.1434236" lon="10.4141889"><ele>425.0</ele><time>2026-04-03T12:05:21.296Z</time></trkpt><trkpt lat="44.1434324" lon="10.4140923"><ele>425.0</ele><time>2026-04-03T12:05:24.295Z</time></trkpt><trkpt lat="44.1434378" lon="10.4139914"><ele>425.0</ele><time>2026-04-03T12:05:27.295Z</time></trkpt><trkpt lat="44.1434403" lon="10.4138893"><ele>425.0</ele><time>2026-04-03T12:05:30.295Z</time></trkpt><trkpt lat="44.1434368" lon="10.4137868"><ele>425.0</ele><time>2026-04-03T12:05:33.293Z</time></trkpt><trkpt lat="44.1434272" lon="10.4136958"><ele>425.0</ele><time>2026-04-03T12:05:36.289Z</time></trkpt><trkpt lat="44.1434048" lon="10.4135927"><ele>425.0</ele><time>2026-04-03T12:05:40.304Z</time></trkpt><trkpt lat="44.1433799" lon="10.4135008"><ele>425.0</ele><time>2026-04-03T12:05:43.295Z</time></trkpt><trkpt lat="44.1433606" lon="10.4134007"><ele>425.57142857142856</ele><time>2026-04-03T12:05:47.297Z</time></trkpt><trkpt lat="44.1433342" lon="10.4132979"><ele>426.1428571428571</ele><time>2026-04-03T12:05:51.288Z</time></trkpt><trkpt lat="44.143317" lon="10.4131891"><ele>426.7142857142857</ele><time>2026-04-03T12:05:55.293Z</time></trkpt><trkpt lat="44.1432939" lon="10.4130826"><ele>427.2857142857143</ele><time>2026-04-03T12:05:59.295Z</time></trkpt><trkpt lat="44.1432525" lon="10.4129858"><ele>427.8571428571429</ele><time>2026-04-03T12:06:03.304Z</time></trkpt><trkpt lat="44.1432072" lon="10.412924"><ele>428.42857142857144</ele><time>2026-04-03T12:06:06.293Z</time></trkpt><trkpt lat="44.1431487" lon="10.4128876"><ele>429.0</ele><time>2026-04-03T12:06:09.286Z</time></trkpt><trkpt lat="44.1430842" lon="10.4128649"><ele>429.0</ele><time>2026-04-03T12:06:12.3Z</time></trkpt><trkpt lat="44.1430183" lon="10.4128499"><ele>429.0</ele><time>2026-04-03T12:06:15.294Z</time></trkpt><trkpt lat="44.1429534" lon="10.4128471"><ele>429.0</ele><time>2026-04-03T12:06:18.294Z</time></trkpt><trkpt lat="44.1428874" lon="10.4128249"><ele>429.0</ele><time>2026-04-03T12:06:21.301Z</time></trkpt><trkpt lat="44.1428246" lon="10.4128021"><ele>429.0</ele><time>2026-04-03T12:06:24.292Z</time></trkpt><trkpt lat="44.142772" lon="10.4127454"><ele>429.0</ele><time>2026-04-03T12:06:27.291Z</time></trkpt><trkpt lat="44.1427497" lon="10.4126603"><ele>429.0</ele><time>2026-04-03T12:06:30.286Z</time></trkpt><trkpt lat="44.1427499" lon="10.4125637"><ele>429.0</ele><time>2026-04-03T12:06:33.291Z</time></trkpt><trkpt lat="44.1427748" lon="10.4124754"><ele>429.0</ele><time>2026-04-03T12:06:36.289Z</time></trkpt><trkpt lat="44.1428229" lon="10.4124084"><ele>429.0</ele><time>2026-04-03T12:06:39.303Z</time></trkpt><trkpt lat="44.1428788" lon="10.4123617"><ele>429.0</ele><time>2026-04-03T12:06:42.284Z</time></trkpt><trkpt lat="44.1429545" lon="10.412318"><ele>429.0</ele><time>2026-04-03T12:06:46.297Z</time></trkpt><trkpt lat="44.1430156" lon="10.4122967"><ele>429.0</ele><time>2026-04-03T12:06:49.294Z</time></trkpt><trkpt lat="44.1430772" lon="10.4122678"><ele>429.0</ele><time>2026-04-03T12:06:52.288Z</time></trkpt><trkpt lat="44.1431406" lon="10.4122439"><ele>429.0</ele><time>2026-04-03T12:06:55.292Z</time></trkpt><trkpt lat="44.1432046" lon="10.4122152"><ele>429.0</ele><time>2026-04-03T12:06:58.284Z</time></trkpt><trkpt lat="44.1432679" lon="10.4121823"><ele>429.0</ele><time>2026-04-03T12:07:01.289Z</time></trkpt><trkpt lat="44.1433377" lon="10.412165"><ele>429.0</ele><time>2026-04-03T12:07:04.289Z</time></trkpt><trkpt lat="44.1434113" lon="10.4121358"><ele>429.0</ele><time>2026-04-03T12:07:07.292Z</time></trkpt><trkpt lat="44.1434796" lon="10.4121128"><ele>429.0</ele><time>2026-04-03T12:07:10.3Z</time></trkpt><trkpt lat="44.1435505" lon="10.412109"><ele>429.0</ele><time>2026-04-03T12:07:13.295Z</time></trkpt><trkpt lat="44.1436197" lon="10.4120994"><ele>430.57142857142856</ele><time>2026-04-03T12:07:16.289Z</time></trkpt><trkpt lat="44.1436909" lon="10.4120767"><ele>432.14285714285717</ele><time>2026-04-03T12:07:19.296Z</time></trkpt><trkpt lat="44.1437584" lon="10.4120407"><ele>433.71428571428567</ele><time>2026-04-03T12:07:22.29Z</time></trkpt><trkpt lat="44.143815" lon="10.4119816"><ele>435.2857142857143</ele><time>2026-04-03T12:07:25.286Z</time></trkpt><trkpt lat="44.1438676" lon="10.4119058"><ele>436.85714285714283</ele><time>2026-04-03T12:07:28.286Z</time></trkpt><trkpt lat="44.1439163" lon="10.4118294"><ele>438.4285714285714</ele><time>2026-04-03T12:07:31.3Z</time></trkpt><trkpt lat="44.1439626" lon="10.4117578"><ele>440.0</ele><time>2026-04-03T12:07:34.295Z</time></trkpt><trkpt lat="44.1440092" lon="10.4116767"><ele>439.99999999999994</ele><time>2026-04-03T12:07:37.299Z</time></trkpt><trkpt lat="44.1440455" lon="10.4115827"><ele>440.0</ele><time>2026-04-03T12:07:40.296Z</time></trkpt><trkpt lat="44.1440551" lon="10.4114724"><ele>440.0</ele><time>2026-04-03T12:07:43.299Z</time></trkpt><trkpt lat="44.1440463" lon="10.4113677"><ele>440.0</ele><time>2026-04-03T12:07:46.303Z</time></trkpt><trkpt lat="44.1440194" lon="10.4112647"><ele>439.99999999999994</ele><time>2026-04-03T12:07:49.3Z</time></trkpt><trkpt lat="44.1439708" lon="10.4111829"><ele>440.0</ele><time>2026-04-03T12:07:52.29Z</time></trkpt><trkpt lat="44.1439213" lon="10.4111006"><ele>440.99999999999994</ele><time>2026-04-03T12:07:55.294Z</time></trkpt><trkpt lat="44.1438726" lon="10.4110275"><ele>442.0</ele><time>2026-04-03T12:07:58.29Z</time></trkpt><trkpt lat="44.1438078" lon="10.410992"><ele>443.0</ele><time>2026-04-03T12:08:01.288Z</time></trkpt><trkpt lat="44.1437524" lon="10.4109249"><ele>444.0</ele><time>2026-04-03T12:08:04.285Z</time></trkpt><trkpt lat="44.1436954" lon="10.4108622"><ele>445.0</ele><time>2026-04-03T12:08:07.302Z</time></trkpt><trkpt lat="44.1436318" lon="10.4108037"><ele>445.99999999999994</ele><time>2026-04-03T12:08:10.294Z</time></trkpt><trkpt lat="44.1435691" lon="10.4107427"><ele>447.0</ele><time>2026-04-03T12:08:13.298Z</time></trkpt><trkpt lat="44.1435113" lon="10.4106802"><ele>447.0</ele><time>2026-04-03T12:08:16.297Z</time></trkpt><trkpt lat="44.1434547" lon="10.4106203"><ele>447.0</ele><time>2026-04-03T12:08:19.295Z</time></trkpt><trkpt lat="44.1434189" lon="10.4105356"><ele>447.0</ele><time>2026-04-03T12:08:22.291Z</time></trkpt><trkpt lat="44.1434441" lon="10.4104282"><ele>447.0</ele><time>2026-04-03T12:08:25.286Z</time></trkpt><trkpt lat="44.1435035" lon="10.4103447"><ele>447.0</ele><time>2026-04-03T12:08:28.24Z</time></trkpt><trkpt lat="44.1435835" lon="10.4103035"><ele>447.0</ele><time>2026-04-03T12:08:31.286Z</time></trkpt><trkpt lat="44.1436594" lon="10.4102665"><ele>447.5</ele><time>2026-04-03T12:08:34.298Z</time></trkpt><trkpt lat="44.1437294" lon="10.4102285"><ele>448.0</ele><time>2026-04-03T12:08:37.293Z</time></trkpt><trkpt lat="44.1438044" lon="10.4101962"><ele>448.5</ele><time>2026-04-03T12:08:40.301Z</time></trkpt><trkpt lat="44.1438775" lon="10.4101583"><ele>449.0</ele><time>2026-04-03T12:08:43.293Z</time></trkpt><trkpt lat="44.1439549" lon="10.4101312"><ele>449.5</ele><time>2026-04-03T12:08:46.286Z</time></trkpt><trkpt lat="44.144027" lon="10.4101228"><ele>450.0</ele><time>2026-04-03T12:08:49.296Z</time></trkpt><trkpt lat="44.1441004" lon="10.4101233"><ele>452.3333333333333</ele><time>2026-04-03T12:08:52.308Z</time></trkpt><trkpt lat="44.1441722" lon="10.4101273"><ele>454.66666666666663</ele><time>2026-04-03T12:08:55.294Z</time></trkpt><trkpt lat="44.1442465" lon="10.4101495"><ele>457.0</ele><time>2026-04-03T12:08:58.294Z</time></trkpt><trkpt lat="44.1443226" lon="10.4101656"><ele>459.3333333333333</ele><time>2026-04-03T12:09:01.295Z</time></trkpt><trkpt lat="44.1443988" lon="10.4101858"><ele>461.66666666666663</ele><time>2026-04-03T12:09:04.285Z</time></trkpt><trkpt lat="44.1444727" lon="10.4102098"><ele>464.0</ele><time>2026-04-03T12:09:07.303Z</time></trkpt><trkpt lat="44.1445512" lon="10.4102383"><ele>463.99999999999994</ele><time>2026-04-03T12:09:10.3Z</time></trkpt><trkpt lat="44.1446326" lon="10.4102652"><ele>464.0</ele><time>2026-04-03T12:09:13.302Z</time></trkpt><trkpt lat="44.1447186" lon="10.4102957"><ele>464.0</ele><time>2026-04-03T12:09:16.306Z</time></trkpt><trkpt lat="44.1448035" lon="10.4103326"><ele>464.0</ele><time>2026-04-03T12:09:19.296Z</time></trkpt><trkpt lat="44.1448923" lon="10.4103586"><ele>463.99999999999994</ele><time>2026-04-03T12:09:22.314Z</time></trkpt><trkpt lat="44.1449793" lon="10.4103793"><ele>464.0</ele><time>2026-04-03T12:09:25.293Z</time></trkpt><trkpt lat="44.145065" lon="10.410419"><ele>465.16666666666663</ele><time>2026-04-03T12:09:28.298Z</time></trkpt><trkpt lat="44.1451502" lon="10.4104571"><ele>466.3333333333333</ele><time>2026-04-03T12:09:31.285Z</time></trkpt><trkpt lat="44.1452399" lon="10.4104877"><ele>467.5</ele><time>2026-04-03T12:09:34.298Z</time></trkpt><trkpt lat="44.1453256" lon="10.4105176"><ele>468.66666666666663</ele><time>2026-04-03T12:09:37.299Z</time></trkpt><trkpt lat="44.1453925" lon="10.4105315"><ele>469.8333333333333</ele><time>2026-04-03T12:09:40.293Z</time></trkpt><trkpt lat="44.1454768" lon="10.4105634"><ele>471.0</ele><time>2026-04-03T12:09:43.319Z</time></trkpt><trkpt lat="44.1455552" lon="10.410587"><ele>471.3333333333333</ele><time>2026-04-03T12:09:46.293Z</time></trkpt><trkpt lat="44.1456351" lon="10.4106145"><ele>471.66666666666663</ele><time>2026-04-03T12:09:49.308Z</time></trkpt><trkpt lat="44.145714" lon="10.4106481"><ele>472.0</ele><time>2026-04-03T12:09:52.3Z</time></trkpt><trkpt lat="44.1457913" lon="10.4106784"><ele>472.3333333333333</ele><time>2026-04-03T12:09:55.302Z</time></trkpt><trkpt lat="44.1458739" lon="10.4107081"><ele>472.66666666666663</ele><time>2026-04-03T12:09:58.284Z</time></trkpt><trkpt lat="44.1459589" lon="10.4107402"><ele>473.0</ele><time>2026-04-03T12:10:01.302Z</time></trkpt><trkpt lat="44.14604" lon="10.4107666"><ele>473.3333333333333</ele><time>2026-04-03T12:10:04.293Z</time></trkpt><trkpt lat="44.1461211" lon="10.410791"><ele>473.66666666666663</ele><time>2026-04-03T12:10:07.296Z</time></trkpt><trkpt lat="44.146198" lon="10.4108204"><ele>474.0</ele><time>2026-04-03T12:10:10.297Z</time></trkpt><trkpt lat="44.1462754" lon="10.4108511"><ele>474.33333333333337</ele><time>2026-04-03T12:10:13.286Z</time></trkpt><trkpt lat="44.1463567" lon="10.4108785"><ele>474.6666666666667</ele><time>2026-04-03T12:10:16.304Z</time></trkpt><trkpt lat="44.1464409" lon="10.4109089"><ele>475.0</ele><time>2026-04-03T12:10:19.301Z</time></trkpt><trkpt lat="44.1465233" lon="10.4109491"><ele>475.83333333333337</ele><time>2026-04-03T12:10:22.305Z</time></trkpt><trkpt lat="44.1465995" lon="10.4110063"><ele>476.6666666666667</ele><time>2026-04-03T12:10:25.289Z</time></trkpt><trkpt lat="44.146665" lon="10.4110804"><ele>477.5</ele><time>2026-04-03T12:10:28.291Z</time></trkpt><trkpt lat="44.146727" lon="10.4111667"><ele>478.33333333333337</ele><time>2026-04-03T12:10:31.288Z</time></trkpt><trkpt lat="44.1467844" lon="10.4112516"><ele>479.1666666666667</ele><time>2026-04-03T12:10:34.296Z</time></trkpt><trkpt lat="44.146841" lon="10.4113378"><ele>480.0</ele><time>2026-04-03T12:10:37.301Z</time></trkpt><trkpt lat="44.1469004" lon="10.4114251"><ele>481.1666666666667</ele><time>2026-04-03T12:10:40.289Z</time></trkpt><trkpt lat="44.1469598" lon="10.4115097"><ele>482.33333333333337</ele><time>2026-04-03T12:10:43.301Z</time></trkpt><trkpt lat="44.1470201" lon="10.4115927"><ele>483.5</ele><time>2026-04-03T12:10:46.302Z</time></trkpt><trkpt lat="44.1470784" lon="10.4116786"><ele>484.6666666666667</ele><time>2026-04-03T12:10:49.301Z</time></trkpt><trkpt lat="44.1471382" lon="10.4117683"><ele>485.83333333333337</ele><time>2026-04-03T12:10:52.298Z</time></trkpt><trkpt lat="44.1472001" lon="10.4118578"><ele>487.0</ele><time>2026-04-03T12:10:55.301Z</time></trkpt><trkpt lat="44.1472581" lon="10.411949"><ele>487.00000000000006</ele><time>2026-04-03T12:10:58.3Z</time></trkpt><trkpt lat="44.1473185" lon="10.4120351"><ele>487.0</ele><time>2026-04-03T12:11:01.293Z</time></trkpt><trkpt lat="44.1473809" lon="10.4121222"><ele>487.0</ele><time>2026-04-03T12:11:04.288Z</time></trkpt><trkpt lat="44.1474437" lon="10.4122093"><ele>487.0</ele><time>2026-04-03T12:11:07.295Z</time></trkpt><trkpt lat="44.1475064" lon="10.4122955"><ele>487.00000000000006</ele><time>2026-04-03T12:11:10.305Z</time></trkpt><trkpt lat="44.1475638" lon="10.4123822"><ele>487.0</ele><time>2026-04-03T12:11:13.297Z</time></trkpt><trkpt lat="44.147625" lon="10.4124689"><ele>487.6666666666667</ele><time>2026-04-03T12:11:16.316Z</time></trkpt><trkpt lat="44.1476859" lon="10.412557"><ele>488.33333333333337</ele><time>2026-04-03T12:11:19.289Z</time></trkpt><trkpt lat="44.1477489" lon="10.4126436"><ele>489.0</ele><time>2026-04-03T12:11:22.297Z</time></trkpt><trkpt lat="44.1478126" lon="10.4127336"><ele>489.66666666666663</ele><time>2026-04-03T12:11:25.298Z</time></trkpt><trkpt lat="44.1478732" lon="10.412827"><ele>490.3333333333333</ele><time>2026-04-03T12:11:28.291Z</time></trkpt><trkpt lat="44.1479331" lon="10.4129077"><ele>491.0</ele><time>2026-04-03T12:11:31.285Z</time></trkpt><trkpt lat="44.1479922" lon="10.4129769"><ele>490.99999999999994</ele><time>2026-04-03T12:11:34.298Z</time></trkpt><trkpt lat="44.1480439" lon="10.4130505"><ele>491.0</ele><time>2026-04-03T12:11:37.306Z</time></trkpt><trkpt lat="44.1481032" lon="10.4131252"><ele>491.0</ele><time>2026-04-03T12:11:40.293Z</time></trkpt><trkpt lat="44.1481816" lon="10.4131529"><ele>491.0</ele><time>2026-04-03T12:11:43.297Z</time></trkpt><trkpt lat="44.1482353" lon="10.4130679"><ele>490.99999999999994</ele><time>2026-04-03T12:11:46.3Z</time></trkpt><trkpt lat="44.1482258" lon="10.4129459"><ele>491.0</ele><time>2026-04-03T12:11:49.295Z</time></trkpt><trkpt lat="44.1482079" lon="10.4128598"><ele>491.0</ele><time>2026-04-03T12:11:51.297Z</time></trkpt><trkpt lat="44.1481918" lon="10.4127708"><ele>490.99999999999994</ele><time>2026-04-03T12:11:53.294Z</time></trkpt><trkpt lat="44.1481793" lon="10.4126815"><ele>491.0</ele><time>2026-04-03T12:11:55.317Z</time></trkpt><trkpt lat="44.1481586" lon="10.4125985"><ele>491.0</ele><time>2026-04-03T12:11:57.298Z</time></trkpt><trkpt lat="44.1481387" lon="10.4125131"><ele>490.99999999999994</ele><time>2026-04-03T12:11:59.294Z</time></trkpt><trkpt lat="44.1481235" lon="10.4124202"><ele>491.0</ele><time>2026-04-03T12:12:01.295Z</time></trkpt><trkpt lat="44.1481073" lon="10.4122976"><ele>491.0</ele><time>2026-04-03T12:12:04.298Z</time></trkpt><trkpt lat="44.1480936" lon="10.412207"><ele>490.85714285714283</ele><time>2026-04-03T12:12:06.29Z</time></trkpt><trkpt lat="44.1480743" lon="10.412109"><ele>490.71428571428567</ele><time>2026-04-03T12:12:08.299Z</time></trkpt><trkpt lat="44.1480569" lon="10.412017"><ele>490.57142857142856</ele><time>2026-04-03T12:12:10.293Z</time></trkpt><trkpt lat="44.1480416" lon="10.4119222"><ele>490.42857142857144</ele><time>2026-04-03T12:12:12.294Z</time></trkpt><trkpt lat="44.1480276" lon="10.4118258"><ele>490.2857142857143</ele><time>2026-04-03T12:12:14.313Z</time></trkpt><trkpt lat="44.148013" lon="10.411732"><ele>490.1428571428571</ele><time>2026-04-03T12:12:16.3Z</time></trkpt><trkpt lat="44.1479909" lon="10.4116404"><ele>490.0</ele><time>2026-04-03T12:12:18.297Z</time></trkpt><trkpt lat="44.1479742" lon="10.4115491"><ele>490.0</ele><time>2026-04-03T12:12:20.292Z</time></trkpt><trkpt lat="44.1479562" lon="10.4114597"><ele>490.0</ele><time>2026-04-03T12:12:22.305Z</time></trkpt><trkpt lat="44.1479424" lon="10.4113665"><ele>490.0</ele><time>2026-04-03T12:12:24.304Z</time></trkpt><trkpt lat="44.147927" lon="10.4112761"><ele>490.0</ele><time>2026-04-03T12:12:26.295Z</time></trkpt><trkpt lat="44.1479056" lon="10.411186"><ele>490.0</ele><time>2026-04-03T12:12:28.304Z</time></trkpt><trkpt lat="44.1478878" lon="10.4110942"><ele>490.0</ele><time>2026-04-03T12:12:30.3Z</time></trkpt><trkpt lat="44.1478756" lon="10.4110032"><ele>490.0</ele><time>2026-04-03T12:12:32.301Z</time></trkpt><trkpt lat="44.1478616" lon="10.4109109"><ele>490.57142857142856</ele><time>2026-04-03T12:12:34.291Z</time></trkpt><trkpt lat="44.1478466" lon="10.4108213"><ele>491.1428571428571</ele><time>2026-04-03T12:12:36.286Z</time></trkpt><trkpt lat="44.1478256" lon="10.410736"><ele>491.7142857142857</ele><time>2026-04-03T12:12:38.285Z</time></trkpt><trkpt lat="44.1478085" lon="10.4106482"><ele>492.2857142857143</ele><time>2026-04-03T12:12:40.284Z</time></trkpt><trkpt lat="44.1477938" lon="10.4105588"><ele>492.85714285714283</ele><time>2026-04-03T12:12:42.296Z</time></trkpt><trkpt lat="44.1477828" lon="10.4104685"><ele>493.42857142857144</ele><time>2026-04-03T12:12:44.29Z</time></trkpt><trkpt lat="44.1477719" lon="10.4103758"><ele>494.0</ele><time>2026-04-03T12:12:46.286Z</time></trkpt><trkpt lat="44.147758" lon="10.4102847"><ele>494.7142857142857</ele><time>2026-04-03T12:12:48.283Z</time></trkpt><trkpt lat="44.1477443" lon="10.4101909"><ele>495.42857142857144</ele><time>2026-04-03T12:12:50.284Z</time></trkpt><trkpt lat="44.1477295" lon="10.4101045"><ele>496.14285714285717</ele><time>2026-04-03T12:12:52.289Z</time></trkpt><trkpt lat="44.1477132" lon="10.410016"><ele>496.8571428571429</ele><time>2026-04-03T12:12:54.29Z</time></trkpt><trkpt lat="44.1477023" lon="10.4099246"><ele>497.57142857142856</ele><time>2026-04-03T12:12:56.284Z</time></trkpt><trkpt lat="44.1476922" lon="10.4098341"><ele>498.28571428571433</ele><time>2026-04-03T12:12:58.288Z</time></trkpt><trkpt lat="44.1476794" lon="10.4097159"><ele>499.00000000000006</ele><time>2026-04-03T12:13:01.291Z</time></trkpt><trkpt lat="44.1476618" lon="10.409602"><ele>500.6666666666667</ele><time>2026-04-03T12:13:04.306Z</time></trkpt><trkpt lat="44.1476401" lon="10.4094908"><ele>502.33333333333337</ele><time>2026-04-03T12:13:07.316Z</time></trkpt><trkpt lat="44.1476313" lon="10.4093717"><ele>504.0</ele><time>2026-04-03T12:13:10.303Z</time></trkpt><trkpt lat="44.1476127" lon="10.4092505"><ele>505.66666666666663</ele><time>2026-04-03T12:13:13.304Z</time></trkpt><trkpt lat="44.1475965" lon="10.4091241"><ele>507.3333333333333</ele><time>2026-04-03T12:13:16.291Z</time></trkpt><trkpt lat="44.1475777" lon="10.4090393"><ele>509.0</ele><time>2026-04-03T12:13:18.292Z</time></trkpt><trkpt lat="44.1475623" lon="10.4089513"><ele>508.99999999999994</ele><time>2026-04-03T12:13:20.314Z</time></trkpt><trkpt lat="44.1475498" lon="10.4088647"><ele>509.0</ele><time>2026-04-03T12:13:22.307Z</time></trkpt><trkpt lat="44.1475421" lon="10.4087765"><ele>508.99999999999994</ele><time>2026-04-03T12:13:24.298Z</time></trkpt><trkpt lat="44.1475294" lon="10.4086889"><ele>508.99999999999994</ele><time>2026-04-03T12:13:26.293Z</time></trkpt><trkpt lat="44.1475112" lon="10.4086023"><ele>509.0</ele><time>2026-04-03T12:13:28.301Z</time></trkpt><trkpt lat="44.1474937" lon="10.4085174"><ele>508.99999999999994</ele><time>2026-04-03T12:13:30.296Z</time></trkpt><trkpt lat="44.1474695" lon="10.4084313"><ele>508.99999999999994</ele><time>2026-04-03T12:13:32.303Z</time></trkpt><trkpt lat="44.1474302" lon="10.4083541"><ele>510.16666666666663</ele><time>2026-04-03T12:13:34.292Z</time></trkpt><trkpt lat="44.1473879" lon="10.4082853"><ele>511.3333333333333</ele><time>2026-04-03T12:13:36.287Z</time></trkpt><trkpt lat="44.1473456" lon="10.4082181"><ele>512.5</ele><time>2026-04-03T12:13:38.304Z</time></trkpt><trkpt lat="44.1472904" lon="10.408126"><ele>513.6666666666666</ele><time>2026-04-03T12:13:41.298Z</time></trkpt><trkpt lat="44.1472367" lon="10.4080342"><ele>514.8333333333334</ele><time>2026-04-03T12:13:44.299Z</time></trkpt><trkpt lat="44.1472308" lon="10.4079216"><ele>516.0</ele><time>2026-04-03T12:13:47.297Z</time></trkpt><trkpt lat="44.1472818" lon="10.4078578"><ele>514.8571428571428</ele><time>2026-04-03T12:13:49.294Z</time></trkpt><trkpt lat="44.1473405" lon="10.4078095"><ele>513.7142857142857</ele><time>2026-04-03T12:13:51.296Z</time></trkpt><trkpt lat="44.1474011" lon="10.4077765"><ele>512.5714285714286</ele><time>2026-04-03T12:13:53.295Z</time></trkpt><trkpt lat="44.1474631" lon="10.4077593"><ele>511.4285714285714</ele><time>2026-04-03T12:13:55.3Z</time></trkpt><trkpt lat="44.147527" lon="10.4077559"><ele>510.2857142857142</ele><time>2026-04-03T12:13:57.288Z</time></trkpt><trkpt lat="44.1476181" lon="10.4077758"><ele>509.14285714285717</ele><time>2026-04-03T12:14:00.315Z</time></trkpt><trkpt lat="44.1476805" lon="10.4077938"><ele>508.0</ele><time>2026-04-03T12:14:02.294Z</time></trkpt><trkpt lat="44.1477436" lon="10.4078058"><ele>508.00000000000006</ele><time>2026-04-03T12:14:04.307Z</time></trkpt><trkpt lat="44.1478358" lon="10.407834"><ele>508.0</ele><time>2026-04-03T12:14:07.3Z</time></trkpt><trkpt lat="44.1479216" lon="10.4078779"><ele>508.0</ele><time>2026-04-03T12:14:10.306Z</time></trkpt><trkpt lat="44.147983" lon="10.4079731"><ele>508.0</ele><time>2026-04-03T12:14:13.301Z</time></trkpt><trkpt lat="44.148" lon="10.4080581"><ele>508.00000000000006</ele><time>2026-04-03T12:14:15.303Z</time></trkpt><trkpt lat="44.1480011" lon="10.4081494"><ele>508.0</ele><time>2026-04-03T12:14:17.292Z</time></trkpt><trkpt lat="44.1480116" lon="10.4082376"><ele>508.1666666666667</ele><time>2026-04-03T12:14:19.301Z</time></trkpt><trkpt lat="44.1480167" lon="10.4083639"><ele>508.33333333333337</ele><time>2026-04-03T12:14:22.3Z</time></trkpt><trkpt lat="44.1480305" lon="10.4084929"><ele>508.5</ele><time>2026-04-03T12:14:25.301Z</time></trkpt><trkpt lat="44.1480415" lon="10.4086172"><ele>508.66666666666663</ele><time>2026-04-03T12:14:28.301Z</time></trkpt><trkpt lat="44.1480507" lon="10.408745"><ele>508.8333333333333</ele><time>2026-04-03T12:14:31.298Z</time></trkpt><trkpt lat="44.1480607" lon="10.4088465"><ele>509.0</ele><time>2026-04-03T12:14:34.291Z</time></trkpt><trkpt lat="44.1480679" lon="10.4089516"><ele>508.99999999999994</ele><time>2026-04-03T12:14:37.3Z</time></trkpt><trkpt lat="44.1480775" lon="10.4090425"><ele>509.0</ele><time>2026-04-03T12:14:40.298Z</time></trkpt><trkpt lat="44.1480882" lon="10.409142"><ele>509.0</ele><time>2026-04-03T12:14:43.321Z</time></trkpt><trkpt lat="44.1481028" lon="10.409251"><ele>509.0</ele><time>2026-04-03T12:14:46.298Z</time></trkpt><trkpt lat="44.1481087" lon="10.4093658"><ele>508.99999999999994</ele><time>2026-04-03T12:14:49.288Z</time></trkpt><trkpt lat="44.1481209" lon="10.4094805"><ele>509.0</ele><time>2026-04-03T12:14:52.297Z</time></trkpt><trkpt lat="44.1481346" lon="10.4095984"><ele>507.3333333333333</ele><time>2026-04-03T12:14:55.313Z</time></trkpt><trkpt lat="44.1481519" lon="10.409719"><ele>505.66666666666663</ele><time>2026-04-03T12:14:58.295Z</time></trkpt><trkpt lat="44.1481705" lon="10.4098453"><ele>504.0</ele><time>2026-04-03T12:15:01.297Z</time></trkpt><trkpt lat="44.1481967" lon="10.4099659"><ele>502.33333333333337</ele><time>2026-04-03T12:15:04.285Z</time></trkpt><trkpt lat="44.1482215" lon="10.4100843"><ele>500.6666666666667</ele><time>2026-04-03T12:15:07.297Z</time></trkpt><trkpt lat="44.1482476" lon="10.4102002"><ele>499.0</ele><time>2026-04-03T12:15:10.293Z</time></trkpt><trkpt lat="44.1482796" lon="10.4103169"><ele>503.33333333333337</ele><time>2026-04-03T12:15:13.295Z</time></trkpt><trkpt lat="44.1482963" lon="10.410402"><ele>507.6666666666667</ele><time>2026-04-03T12:15:15.293Z</time></trkpt><trkpt lat="44.1483199" lon="10.4104837"><ele>512.0</ele><time>2026-04-03T12:15:17.316Z</time></trkpt><trkpt lat="44.1483534" lon="10.4106019"><ele>516.3333333333334</ele><time>2026-04-03T12:15:20.302Z</time></trkpt><trkpt lat="44.1483957" lon="10.4107205"><ele>520.6666666666666</ele><time>2026-04-03T12:15:23.3Z</time></trkpt><trkpt lat="44.1484225" lon="10.410807"><ele>525.0</ele><time>2026-04-03T12:15:25.3Z</time></trkpt><trkpt lat="44.1484499" lon="10.4108974"><ele>525.0</ele><time>2026-04-03T12:15:27.295Z</time></trkpt><trkpt lat="44.1484847" lon="10.4109887"><ele>525.0</ele><time>2026-04-03T12:15:29.3Z</time></trkpt><trkpt lat="44.1485256" lon="10.4110802"><ele>525.0</ele><time>2026-04-03T12:15:31.309Z</time></trkpt><trkpt lat="44.1485647" lon="10.4111636"><ele>525.0</ele><time>2026-04-03T12:15:33.301Z</time></trkpt><trkpt lat="44.1486063" lon="10.4112429"><ele>525.0</ele><time>2026-04-03T12:15:35.291Z</time></trkpt><trkpt lat="44.1486472" lon="10.4113146"><ele>525.0</ele><time>2026-04-03T12:15:37.312Z</time></trkpt><trkpt lat="44.1486981" lon="10.4114108"><ele>525.0</ele><time>2026-04-03T12:15:40.316Z</time></trkpt><trkpt lat="44.1487538" lon="10.4114605"><ele>525.0</ele><time>2026-04-03T12:15:42.314Z</time></trkpt><trkpt lat="44.1488203" lon="10.411456"><ele>525.0</ele><time>2026-04-03T12:15:44.299Z</time></trkpt><trkpt lat="44.1489087" lon="10.4113999"><ele>525.0</ele><time>2026-04-03T12:15:47.301Z</time></trkpt><trkpt lat="44.14897" lon="10.4113492"><ele>525.0</ele><time>2026-04-03T12:15:49.295Z</time></trkpt><trkpt lat="44.1490263" lon="10.4112785"><ele>525.0</ele><time>2026-04-03T12:15:51.303Z</time></trkpt><trkpt lat="44.1490873" lon="10.4112177"><ele>525.0</ele><time>2026-04-03T12:15:53.299Z</time></trkpt><trkpt lat="44.1491464" lon="10.411166"><ele>526.8333333333334</ele><time>2026-04-03T12:15:55.299Z</time></trkpt><trkpt lat="44.1492066" lon="10.4111296"><ele>528.6666666666666</ele><time>2026-04-03T12:15:57.297Z</time></trkpt><trkpt lat="44.1492875" lon="10.411132"><ele>530.5</ele><time>2026-04-03T12:16:00.297Z</time></trkpt><trkpt lat="44.1493634" lon="10.4111705"><ele>532.3333333333333</ele><time>2026-04-03T12:16:03.3Z</time></trkpt><trkpt lat="44.1494218" lon="10.4112221"><ele>534.1666666666666</ele><time>2026-04-03T12:16:06.298Z</time></trkpt><trkpt lat="44.1494884" lon="10.4112701"><ele>536.0</ele><time>2026-04-03T12:16:09.302Z</time></trkpt><trkpt lat="44.149561" lon="10.4113117"><ele>535.0</ele><time>2026-04-03T12:16:12.296Z</time></trkpt><trkpt lat="44.1496359" lon="10.4113509"><ele>534.0</ele><time>2026-04-03T12:16:15.303Z</time></trkpt><trkpt lat="44.1497068" lon="10.4113939"><ele>533.0</ele><time>2026-04-03T12:16:18.287Z</time></trkpt><trkpt lat="44.1497802" lon="10.4114274"><ele>532.0</ele><time>2026-04-03T12:16:21.283Z</time></trkpt><trkpt lat="44.149857" lon="10.411465"><ele>531.0</ele><time>2026-04-03T12:16:24.287Z</time></trkpt><trkpt lat="44.149933" lon="10.4114995"><ele>530.0</ele><time>2026-04-03T12:16:27.288Z</time></trkpt><trkpt lat="44.1500061" lon="10.411537"><ele>530.0</ele><time>2026-04-03T12:16:30.286Z</time></trkpt><trkpt lat="44.1500876" lon="10.4115633"><ele>530.0</ele><time>2026-04-03T12:16:33.288Z</time></trkpt><trkpt lat="44.1501667" lon="10.4116165"><ele>530.0</ele><time>2026-04-03T12:16:36.287Z</time></trkpt><trkpt lat="44.1502498" lon="10.4116736"><ele>530.0</ele><time>2026-04-03T12:16:39.28Z</time></trkpt><trkpt lat="44.1503268" lon="10.4117235"><ele>530.0</ele><time>2026-04-03T12:16:42.288Z</time></trkpt><trkpt lat="44.1504024" lon="10.4117656"><ele>530.0</ele><time>2026-04-03T12:16:45.285Z</time></trkpt><trkpt lat="44.1504755" lon="10.411786"><ele>529.9999999999999</ele><time>2026-04-03T12:16:48.285Z</time></trkpt><trkpt lat="44.1505422" lon="10.4118118"><ele>530.0</ele><time>2026-04-03T12:16:51.296Z</time></trkpt><trkpt lat="44.1506083" lon="10.4118304"><ele>530.0</ele><time>2026-04-03T12:16:54.305Z</time></trkpt><trkpt lat="44.1506804" lon="10.4118337"><ele>530.0</ele><time>2026-04-03T12:16:57.289Z</time></trkpt><trkpt lat="44.1507538" lon="10.411824"><ele>530.0</ele><time>2026-04-03T12:17:00.286Z</time></trkpt><trkpt lat="44.1508214" lon="10.4118099"><ele>529.9999999999999</ele><time>2026-04-03T12:17:03.303Z</time></trkpt><trkpt lat="44.1508874" lon="10.4118143"><ele>530.0</ele><time>2026-04-03T12:17:06.287Z</time></trkpt><trkpt lat="44.1509563" lon="10.4118577"><ele>530.1428571428571</ele><time>2026-04-03T12:17:10.292Z</time></trkpt><trkpt lat="44.1510095" lon="10.4119072"><ele>530.2857142857142</ele><time>2026-04-03T12:17:13.298Z</time></trkpt><trkpt lat="44.1510742" lon="10.4119703"><ele>530.4285714285714</ele><time>2026-04-03T12:17:17.286Z</time></trkpt><trkpt lat="44.1511003" lon="10.4120654"><ele>530.5714285714286</ele><time>2026-04-03T12:17:22.293Z</time></trkpt><trkpt lat="44.1510392" lon="10.412092"><ele>530.7142857142858</ele><time>2026-04-03T12:17:25.293Z</time></trkpt><trkpt lat="44.1509746" lon="10.4121055"><ele>530.8571428571429</ele><time>2026-04-03T12:17:28.299Z</time></trkpt><trkpt lat="44.1508922" lon="10.4121293"><ele>531.0</ele><time>2026-04-03T12:17:32.298Z</time></trkpt><trkpt lat="44.1508408" lon="10.4121959"><ele>546.0</ele><time>2026-04-03T12:17:36.288Z</time></trkpt><trkpt lat="44.1508165" lon="10.412292"><ele>546.0</ele><time>2026-04-03T12:17:40.298Z</time></trkpt><trkpt lat="44.1508009" lon="10.4124014"><ele>546.0</ele><time>2026-04-03T12:17:45.292Z</time></trkpt><trkpt lat="44.1507805" lon="10.4124905"><ele>546.0</ele><time>2026-04-03T12:17:48.285Z</time></trkpt><trkpt lat="44.1507892" lon="10.4125786"><ele>546.0</ele><time>2026-04-03T12:17:55.3Z</time></trkpt></trkseg></trk></gpx>